<?xml version="1.0" encoding="UTF-8" standalone="no" ?>
<gpx xmlns="http://www.topografix.com/GPX/1/1" xmlns:xsi="http://www.w3.org/2001/XMLSchema-instance" xsi:schemaLocation="http://www.topografix.com/GPX/1/1 http://www.topografix.com/GPX/1/1/gpx.xsd" version="1.1" creator="VisuGPX - https://www.visugpx.com">
  <metadata>
    <name>Lamalou</name>
    <desc><![CDATA[Sortie de 40 km pour 1500 m de D ]]></desc>
  </metadata>
  <wpt lat="43.61575" lon="3.07098">
    <ele>263.16796875</ele>
    <name><![CDATA[1]]></name>
    <desc><![CDATA[Lamalou-Cours]]></desc>
    <cmt><![CDATA[Lamalou-Cours]]></cmt>
  </wpt>
  <wpt lat="43.6082" lon="3.0305">
    <ele>766.9765625</ele>
    <name><![CDATA[2]]></name>
    <desc><![CDATA[Sentier]]></desc>
    <cmt><![CDATA[Sentier]]></cmt>
  </wpt>
  <wpt lat="43.6259" lon="3.02707">
    <ele>637.7421875</ele>
    <name><![CDATA[3]]></name>
    <desc><![CDATA[Chemin]]></desc>
    <cmt><![CDATA[Chemin]]></cmt>
  </wpt>
  <wpt lat="43.60723" lon="3.03152">
    <ele>757.5703125</ele>
    <name><![CDATA[4]]></name>
    <desc><![CDATA[Broussailles]]></desc>
    <cmt><![CDATA[Broussailles]]></cmt>
  </wpt>
  <wpt lat="43.614" lon="3.07006">
    <ele>297.41015625</ele>
    <name><![CDATA[5]]></name>
    <desc><![CDATA[Sentier]]></desc>
    <cmt><![CDATA[Sentier]]></cmt>
  </wpt>
  <wpt lat="43.61492" lon="3.07102">
    <ele>257.62890625</ele>
    <name><![CDATA[6]]></name>
    <desc><![CDATA[Chemin]]></desc>
    <cmt><![CDATA[Chemin]]></cmt>
  </wpt>
  <wpt lat="43.59779" lon="3.07913">
    <ele>198.16796875</ele>
    <name><![CDATA[Aller]]></name>
    <desc><![CDATA[ D22e4]]></desc>
    <cmt><![CDATA[ D22e4]]></cmt>
  </wpt>
  <trk>
    <name><![CDATA[Lamalou-Cours]]></name>
    <trkseg>
      <trkpt lat="43.59021" lon="3.08394">
        <ele>182.286072</ele>
        <time>2012-03-05T12:42:54Z</time>
      </trkpt>
      <trkpt lat="43.59021" lon="3.08394">
        <ele>182.281799</ele>
        <time>2012-03-05T12:42:55Z</time>
      </trkpt>
      <trkpt lat="43.59021" lon="3.08394">
        <ele>182.278656</ele>
        <time>2012-03-05T12:42:56Z</time>
      </trkpt>
      <trkpt lat="43.59021" lon="3.08396">
        <ele>182.193604</ele>
        <time>2012-03-05T12:44:11Z</time>
      </trkpt>
      <trkpt lat="43.59021" lon="3.08396">
        <ele>182.207809</ele>
        <time>2012-03-05T12:44:12Z</time>
      </trkpt>
      <trkpt lat="43.59021" lon="3.08395">
        <ele>182.19281</ele>
        <time>2012-03-05T12:44:15Z</time>
      </trkpt>
      <trkpt lat="43.59017" lon="3.08389">
        <ele>182.345566</ele>
        <time>2012-03-05T12:44:18Z</time>
      </trkpt>
      <trkpt lat="43.59012" lon="3.08375">
        <ele>183.088348</ele>
        <time>2012-03-05T12:44:23Z</time>
      </trkpt>
      <trkpt lat="43.59001" lon="3.08349">
        <ele>185.329758</ele>
        <time>2012-03-05T12:44:30Z</time>
      </trkpt>
      <trkpt lat="43.58995" lon="3.08327">
        <ele>188.028305</ele>
        <time>2012-03-05T12:44:35Z</time>
      </trkpt>
      <trkpt lat="43.58993" lon="3.08324">
        <ele>188.442337</ele>
        <time>2012-03-05T12:44:36Z</time>
      </trkpt>
      <trkpt lat="43.58981" lon="3.08315">
        <ele>189.688705</ele>
        <time>2012-03-05T12:44:42Z</time>
      </trkpt>
      <trkpt lat="43.58983" lon="3.08307">
        <ele>190.683731</ele>
        <time>2012-03-05T12:44:46Z</time>
      </trkpt>
      <trkpt lat="43.58986" lon="3.08306">
        <ele>190.643845</ele>
        <time>2012-03-05T12:44:47Z</time>
      </trkpt>
      <trkpt lat="43.59002" lon="3.08306">
        <ele>190.057495</ele>
        <time>2012-03-05T12:44:52Z</time>
      </trkpt>
      <trkpt lat="43.59019" lon="3.08303">
        <ele>189.182495</ele>
        <time>2012-03-05T12:44:58Z</time>
      </trkpt>
      <trkpt lat="43.59036" lon="3.08301">
        <ele>188.338745</ele>
        <time>2012-03-05T12:45:03Z</time>
      </trkpt>
      <trkpt lat="43.59056" lon="3.08297">
        <ele>187.752975</ele>
        <time>2012-03-05T12:45:09Z</time>
      </trkpt>
      <trkpt lat="43.5907" lon="3.08291">
        <ele>187.79686</ele>
        <time>2012-03-05T12:45:13Z</time>
      </trkpt>
      <trkpt lat="43.59079" lon="3.0829">
        <ele>187.545807</ele>
        <time>2012-03-05T12:45:17Z</time>
      </trkpt>
      <trkpt lat="43.59089" lon="3.08287">
        <ele>187.595016</ele>
        <time>2012-03-05T12:45:21Z</time>
      </trkpt>
      <trkpt lat="43.59092" lon="3.08287">
        <ele>187.570068</ele>
        <time>2012-03-05T12:45:22Z</time>
      </trkpt>
      <trkpt lat="43.59116" lon="3.08291">
        <ele>186.606171</ele>
        <time>2012-03-05T12:45:29Z</time>
      </trkpt>
      <trkpt lat="43.59133" lon="3.08292">
        <ele>186.195007</ele>
        <time>2012-03-05T12:45:34Z</time>
      </trkpt>
      <trkpt lat="43.59157" lon="3.08292">
        <ele>186.229996</ele>
        <time>2012-03-05T12:45:41Z</time>
      </trkpt>
      <trkpt lat="43.5918" lon="3.0828">
        <ele>187.650925</ele>
        <time>2012-03-05T12:45:48Z</time>
      </trkpt>
      <trkpt lat="43.59205" lon="3.08255">
        <ele>190.253967</ele>
        <time>2012-03-05T12:45:56Z</time>
      </trkpt>
      <trkpt lat="43.59229" lon="3.08229">
        <ele>191.750092</ele>
        <time>2012-03-05T12:46:04Z</time>
      </trkpt>
      <trkpt lat="43.59253" lon="3.08216">
        <ele>191.116257</ele>
        <time>2012-03-05T12:46:10Z</time>
      </trkpt>
      <trkpt lat="43.59275" lon="3.0821">
        <ele>190.248795</ele>
        <time>2012-03-05T12:46:15Z</time>
      </trkpt>
      <trkpt lat="43.59291" lon="3.08213">
        <ele>189.195114</ele>
        <time>2012-03-05T12:46:19Z</time>
      </trkpt>
      <trkpt lat="43.59295" lon="3.08214">
        <ele>188.843002</ele>
        <time>2012-03-05T12:46:20Z</time>
      </trkpt>
      <trkpt lat="43.593" lon="3.08215">
        <ele>188.534256</ele>
        <time>2012-03-05T12:46:21Z</time>
      </trkpt>
      <trkpt lat="43.59331" lon="3.08227">
        <ele>187.395004</ele>
        <time>2012-03-05T12:46:28Z</time>
      </trkpt>
      <trkpt lat="43.59346" lon="3.08229">
        <ele>187.606247</ele>
        <time>2012-03-05T12:46:31Z</time>
      </trkpt>
      <trkpt lat="43.59382" lon="3.08228">
        <ele>188.517502</ele>
        <time>2012-03-05T12:46:39Z</time>
      </trkpt>
      <trkpt lat="43.59395" lon="3.08228">
        <ele>188.801254</ele>
        <time>2012-03-05T12:46:42Z</time>
      </trkpt>
      <trkpt lat="43.59423" lon="3.08223">
        <ele>189.696869</ele>
        <time>2012-03-05T12:46:49Z</time>
      </trkpt>
      <trkpt lat="43.59449" lon="3.08224">
        <ele>190.203751</ele>
        <time>2012-03-05T12:46:55Z</time>
      </trkpt>
      <trkpt lat="43.59462" lon="3.08228">
        <ele>190.339767</ele>
        <time>2012-03-05T12:46:58Z</time>
      </trkpt>
      <trkpt lat="43.5948" lon="3.08228">
        <ele>190.768753</ele>
        <time>2012-03-05T12:47:02Z</time>
      </trkpt>
      <trkpt lat="43.59496" lon="3.08227">
        <ele>191.154877</ele>
        <time>2012-03-05T12:47:06Z</time>
      </trkpt>
      <trkpt lat="43.59515" lon="3.08226">
        <ele>191.594193</ele>
        <time>2012-03-05T12:47:11Z</time>
      </trkpt>
      <trkpt lat="43.59539" lon="3.08224">
        <ele>192.132507</ele>
        <time>2012-03-05T12:47:17Z</time>
      </trkpt>
      <trkpt lat="43.5956" lon="3.08206">
        <ele>192.742493</ele>
        <time>2012-03-05T12:47:23Z</time>
      </trkpt>
      <trkpt lat="43.59574" lon="3.0819">
        <ele>193.252502</ele>
        <time>2012-03-05T12:47:28Z</time>
      </trkpt>
      <trkpt lat="43.59577" lon="3.08187">
        <ele>193.360001</ele>
        <time>2012-03-05T12:47:29Z</time>
      </trkpt>
      <trkpt lat="43.596" lon="3.08151">
        <ele>194.813751</ele>
        <time>2012-03-05T12:47:39Z</time>
      </trkpt>
      <trkpt lat="43.59609" lon="3.08135">
        <ele>195.556244</ele>
        <time>2012-03-05T12:47:43Z</time>
      </trkpt>
      <trkpt lat="43.59627" lon="3.08105">
        <ele>197.034958</ele>
        <time>2012-03-05T12:47:51Z</time>
      </trkpt>
      <trkpt lat="43.59651" lon="3.08064">
        <ele>199.342255</ele>
        <time>2012-03-05T12:48:02Z</time>
      </trkpt>
      <trkpt lat="43.59674" lon="3.08026">
        <ele>200.494934</ele>
        <time>2012-03-05T12:48:13Z</time>
      </trkpt>
      <trkpt lat="43.59676" lon="3.08022">
        <ele>200.482025</ele>
        <time>2012-03-05T12:48:14Z</time>
      </trkpt>
      <trkpt lat="43.59686" lon="3.08005">
        <ele>200.255356</ele>
        <time>2012-03-05T12:48:19Z</time>
      </trkpt>
      <trkpt lat="43.59693" lon="3.07993">
        <ele>199.943771</ele>
        <time>2012-03-05T12:48:22Z</time>
      </trkpt>
      <trkpt lat="43.59709" lon="3.0798">
        <ele>198.754349</ele>
        <time>2012-03-05T12:48:27Z</time>
      </trkpt>
      <trkpt lat="43.59733" lon="3.07981">
        <ele>199.055847</ele>
        <time>2012-03-05T12:48:33Z</time>
      </trkpt>
      <trkpt lat="43.59763" lon="3.07985">
        <ele>200.987259</ele>
        <time>2012-03-05T12:48:41Z</time>
      </trkpt>
      <trkpt lat="43.59776" lon="3.07985">
        <ele>201.565506</ele>
        <time>2012-03-05T12:48:45Z</time>
      </trkpt>
      <trkpt lat="43.5978" lon="3.07974">
        <ele>201.821457</ele>
        <time>2012-03-05T12:48:48Z</time>
      </trkpt>
      <trkpt lat="43.5978" lon="3.07954">
        <ele>201.905121</ele>
        <time>2012-03-05T12:48:52Z</time>
      </trkpt>
      <trkpt lat="43.59778" lon="3.07935">
        <ele>201.673981</ele>
        <time>2012-03-05T12:48:56Z</time>
      </trkpt>
      <trkpt lat="43.59782" lon="3.07913">
        <ele>202.38002</ele>
        <time>2012-03-05T12:49:01Z</time>
      </trkpt>
      <trkpt lat="43.59783" lon="3.07909">
        <ele>202.633087</ele>
        <time>2012-03-05T12:49:02Z</time>
      </trkpt>
      <trkpt lat="43.59791" lon="3.0788">
        <ele>204.702698</ele>
        <time>2012-03-05T12:49:11Z</time>
      </trkpt>
      <trkpt lat="43.59799" lon="3.07862">
        <ele>206.500244</ele>
        <time>2012-03-05T12:49:18Z</time>
      </trkpt>
      <trkpt lat="43.598" lon="3.0786">
        <ele>206.854996</ele>
        <time>2012-03-05T12:49:19Z</time>
      </trkpt>
      <trkpt lat="43.5981" lon="3.07844">
        <ele>209.839249</ele>
        <time>2012-03-05T12:49:26Z</time>
      </trkpt>
      <trkpt lat="43.59829" lon="3.0782">
        <ele>214.123322</ele>
        <time>2012-03-05T12:49:37Z</time>
      </trkpt>
      <trkpt lat="43.59849" lon="3.07806">
        <ele>217.815811</ele>
        <time>2012-03-05T12:49:47Z</time>
      </trkpt>
      <trkpt lat="43.59851" lon="3.07805">
        <ele>218.103546</ele>
        <time>2012-03-05T12:49:48Z</time>
      </trkpt>
      <trkpt lat="43.59848" lon="3.07802">
        <ele>218.14856</ele>
        <time>2012-03-05T12:49:52Z</time>
      </trkpt>
      <trkpt lat="43.59846" lon="3.07804">
        <ele>217.705093</ele>
        <time>2012-03-05T12:49:53Z</time>
      </trkpt>
      <trkpt lat="43.59825" lon="3.0782">
        <ele>213.730804</ele>
        <time>2012-03-05T12:49:59Z</time>
      </trkpt>
      <trkpt lat="43.59822" lon="3.07824">
        <ele>213.01088</ele>
        <time>2012-03-05T12:50:00Z</time>
      </trkpt>
      <trkpt lat="43.59815" lon="3.07819">
        <ele>212.820435</ele>
        <time>2012-03-05T12:50:04Z</time>
      </trkpt>
      <trkpt lat="43.59818" lon="3.07811">
        <ele>213.886383</ele>
        <time>2012-03-05T12:50:07Z</time>
      </trkpt>
      <trkpt lat="43.59828" lon="3.0779">
        <ele>217.399994</ele>
        <time>2012-03-05T12:50:16Z</time>
      </trkpt>
      <trkpt lat="43.5983" lon="3.07788">
        <ele>217.860001</ele>
        <time>2012-03-05T12:50:17Z</time>
      </trkpt>
      <trkpt lat="43.59836" lon="3.07776">
        <ele>220.117493</ele>
        <time>2012-03-05T12:50:22Z</time>
      </trkpt>
      <trkpt lat="43.59845" lon="3.0776">
        <ele>223.182495</ele>
        <time>2012-03-05T12:50:29Z</time>
      </trkpt>
      <trkpt lat="43.59853" lon="3.07749">
        <ele>225.427505</ele>
        <time>2012-03-05T12:50:35Z</time>
      </trkpt>
      <trkpt lat="43.59861" lon="3.07733">
        <ele>227.724213</ele>
        <time>2012-03-05T12:50:43Z</time>
      </trkpt>
      <trkpt lat="43.59856" lon="3.0772">
        <ele>229.065552</ele>
        <time>2012-03-05T12:50:49Z</time>
      </trkpt>
      <trkpt lat="43.59846" lon="3.07703">
        <ele>229.549301</ele>
        <time>2012-03-05T12:50:58Z</time>
      </trkpt>
      <trkpt lat="43.59843" lon="3.077">
        <ele>229.540817</ele>
        <time>2012-03-05T12:51:00Z</time>
      </trkpt>
      <trkpt lat="43.59838" lon="3.07683">
        <ele>230.042725</ele>
        <time>2012-03-05T12:51:08Z</time>
      </trkpt>
      <trkpt lat="43.59838" lon="3.07681">
        <ele>230.236282</ele>
        <time>2012-03-05T12:51:09Z</time>
      </trkpt>
      <trkpt lat="43.59843" lon="3.07671">
        <ele>232.078506</ele>
        <time>2012-03-05T12:51:14Z</time>
      </trkpt>
      <trkpt lat="43.59846" lon="3.0767">
        <ele>232.871323</ele>
        <time>2012-03-05T12:51:16Z</time>
      </trkpt>
      <trkpt lat="43.59851" lon="3.07669">
        <ele>234.027802</ele>
        <time>2012-03-05T12:51:19Z</time>
      </trkpt>
      <trkpt lat="43.59866" lon="3.07664">
        <ele>236.330536</ele>
        <time>2012-03-05T12:51:28Z</time>
      </trkpt>
      <trkpt lat="43.59872" lon="3.0765">
        <ele>238.36647</ele>
        <time>2012-03-05T12:51:35Z</time>
      </trkpt>
      <trkpt lat="43.59871" lon="3.07644">
        <ele>238.980621</ele>
        <time>2012-03-05T12:51:38Z</time>
      </trkpt>
      <trkpt lat="43.59868" lon="3.07625">
        <ele>240.653244</ele>
        <time>2012-03-05T12:51:47Z</time>
      </trkpt>
      <trkpt lat="43.59867" lon="3.0761">
        <ele>241.982498</ele>
        <time>2012-03-05T12:51:54Z</time>
      </trkpt>
      <trkpt lat="43.59873" lon="3.076">
        <ele>243.631882</ele>
        <time>2012-03-05T12:52:00Z</time>
      </trkpt>
      <trkpt lat="43.59881" lon="3.07593">
        <ele>245.585312</ele>
        <time>2012-03-05T12:52:07Z</time>
      </trkpt>
      <trkpt lat="43.59883" lon="3.07587">
        <ele>246.442123</ele>
        <time>2012-03-05T12:52:10Z</time>
      </trkpt>
      <trkpt lat="43.59888" lon="3.07571">
        <ele>249.057465</ele>
        <time>2012-03-05T12:52:18Z</time>
      </trkpt>
      <trkpt lat="43.59892" lon="3.07569">
        <ele>250.2314</ele>
        <time>2012-03-05T12:52:21Z</time>
      </trkpt>
      <trkpt lat="43.59893" lon="3.07568">
        <ele>250.616745</ele>
        <time>2012-03-05T12:52:22Z</time>
      </trkpt>
      <trkpt lat="43.59896" lon="3.07569">
        <ele>251.187286</ele>
        <time>2012-03-05T12:52:24Z</time>
      </trkpt>
      <trkpt lat="43.59906" lon="3.07571">
        <ele>252.221802</ele>
        <time>2012-03-05T12:52:31Z</time>
      </trkpt>
      <trkpt lat="43.59913" lon="3.07561">
        <ele>254.304291</ele>
        <time>2012-03-05T12:52:38Z</time>
      </trkpt>
      <trkpt lat="43.59917" lon="3.07545">
        <ele>256.705261</ele>
        <time>2012-03-05T12:52:46Z</time>
      </trkpt>
      <trkpt lat="43.5992" lon="3.07517">
        <ele>260.11087</ele>
        <time>2012-03-05T12:52:59Z</time>
      </trkpt>
      <trkpt lat="43.59921" lon="3.07509">
        <ele>261.131226</ele>
        <time>2012-03-05T12:53:03Z</time>
      </trkpt>
      <trkpt lat="43.59921" lon="3.07499">
        <ele>262.282959</ele>
        <time>2012-03-05T12:53:08Z</time>
      </trkpt>
      <trkpt lat="43.59922" lon="3.07476">
        <ele>264.279755</ele>
        <time>2012-03-05T12:53:19Z</time>
      </trkpt>
      <trkpt lat="43.59922" lon="3.07468">
        <ele>264.8685</ele>
        <time>2012-03-05T12:53:23Z</time>
      </trkpt>
      <trkpt lat="43.59922" lon="3.0746">
        <ele>265.310791</ele>
        <time>2012-03-05T12:53:27Z</time>
      </trkpt>
      <trkpt lat="43.59922" lon="3.07446">
        <ele>266.565308</ele>
        <time>2012-03-05T12:53:34Z</time>
      </trkpt>
      <trkpt lat="43.59924" lon="3.07435">
        <ele>267.702515</ele>
        <time>2012-03-05T12:53:39Z</time>
      </trkpt>
      <trkpt lat="43.59926" lon="3.07419">
        <ele>268.366089</ele>
        <time>2012-03-05T12:53:47Z</time>
      </trkpt>
      <trkpt lat="43.59933" lon="3.07404">
        <ele>270.69754</ele>
        <time>2012-03-05T12:53:55Z</time>
      </trkpt>
      <trkpt lat="43.59943" lon="3.07388">
        <ele>274.952026</ele>
        <time>2012-03-05T12:54:05Z</time>
      </trkpt>
      <trkpt lat="43.59946" lon="3.07386">
        <ele>276.287506</ele>
        <time>2012-03-05T12:54:07Z</time>
      </trkpt>
      <trkpt lat="43.5995" lon="3.07381">
        <ele>277.410217</ele>
        <time>2012-03-05T12:54:10Z</time>
      </trkpt>
      <trkpt lat="43.59957" lon="3.07369">
        <ele>279.698151</ele>
        <time>2012-03-05T12:54:17Z</time>
      </trkpt>
      <trkpt lat="43.59962" lon="3.07356">
        <ele>279.827148</ele>
        <time>2012-03-05T12:54:24Z</time>
      </trkpt>
      <trkpt lat="43.59973" lon="3.07338">
        <ele>281.459442</ele>
        <time>2012-03-05T12:54:33Z</time>
      </trkpt>
      <trkpt lat="43.59984" lon="3.0732">
        <ele>284.118988</ele>
        <time>2012-03-05T12:54:42Z</time>
      </trkpt>
      <trkpt lat="43.59992" lon="3.07309">
        <ele>286.283417</ele>
        <time>2012-03-05T12:54:48Z</time>
      </trkpt>
      <trkpt lat="43.59993" lon="3.07307">
        <ele>286.472565</ele>
        <time>2012-03-05T12:54:49Z</time>
      </trkpt>
      <trkpt lat="43.60007" lon="3.07292">
        <ele>287.59137</ele>
        <time>2012-03-05T12:54:59Z</time>
      </trkpt>
      <trkpt lat="43.60019" lon="3.07281">
        <ele>288.913635</ele>
        <time>2012-03-05T12:55:07Z</time>
      </trkpt>
      <trkpt lat="43.60029" lon="3.07271">
        <ele>290.143646</ele>
        <time>2012-03-05T12:55:14Z</time>
      </trkpt>
      <trkpt lat="43.60041" lon="3.0726">
        <ele>291.273346</ele>
        <time>2012-03-05T12:55:22Z</time>
      </trkpt>
      <trkpt lat="43.60056" lon="3.07248">
        <ele>293.776245</ele>
        <time>2012-03-05T12:55:32Z</time>
      </trkpt>
      <trkpt lat="43.60064" lon="3.07233">
        <ele>294.113037</ele>
        <time>2012-03-05T12:55:39Z</time>
      </trkpt>
      <trkpt lat="43.60074" lon="3.07216">
        <ele>295.179871</ele>
        <time>2012-03-05T12:55:48Z</time>
      </trkpt>
      <trkpt lat="43.60089" lon="3.072">
        <ele>297.286377</ele>
        <time>2012-03-05T12:55:58Z</time>
      </trkpt>
      <trkpt lat="43.60095" lon="3.07192">
        <ele>297.802002</ele>
        <time>2012-03-05T12:56:03Z</time>
      </trkpt>
      <trkpt lat="43.60096" lon="3.0719">
        <ele>297.900635</ele>
        <time>2012-03-05T12:56:04Z</time>
      </trkpt>
      <trkpt lat="43.60103" lon="3.07179">
        <ele>299.207916</ele>
        <time>2012-03-05T12:56:10Z</time>
      </trkpt>
      <trkpt lat="43.6011" lon="3.07167">
        <ele>301.352814</ele>
        <time>2012-03-05T12:56:17Z</time>
      </trkpt>
      <trkpt lat="43.60112" lon="3.07162">
        <ele>301.902222</ele>
        <time>2012-03-05T12:56:19Z</time>
      </trkpt>
      <trkpt lat="43.60116" lon="3.07151">
        <ele>303.528809</ele>
        <time>2012-03-05T12:56:25Z</time>
      </trkpt>
      <trkpt lat="43.6012" lon="3.07132">
        <ele>305.848969</ele>
        <time>2012-03-05T12:56:34Z</time>
      </trkpt>
      <trkpt lat="43.6012" lon="3.07129">
        <ele>305.871704</ele>
        <time>2012-03-05T12:56:36Z</time>
      </trkpt>
      <trkpt lat="43.60121" lon="3.07123">
        <ele>306.403656</ele>
        <time>2012-03-05T12:56:43Z</time>
      </trkpt>
      <trkpt lat="43.60121" lon="3.0712">
        <ele>306.604218</ele>
        <time>2012-03-05T12:56:47Z</time>
      </trkpt>
      <trkpt lat="43.60121" lon="3.07119">
        <ele>306.66687</ele>
        <time>2012-03-05T12:56:50Z</time>
      </trkpt>
      <trkpt lat="43.60121" lon="3.07115">
        <ele>306.801788</ele>
        <time>2012-03-05T12:56:52Z</time>
      </trkpt>
      <trkpt lat="43.60122" lon="3.07111">
        <ele>307.063812</ele>
        <time>2012-03-05T12:56:56Z</time>
      </trkpt>
      <trkpt lat="43.60126" lon="3.07098">
        <ele>309.016357</ele>
        <time>2012-03-05T12:57:03Z</time>
      </trkpt>
      <trkpt lat="43.6013" lon="3.07085">
        <ele>310.596313</ele>
        <time>2012-03-05T12:57:09Z</time>
      </trkpt>
      <trkpt lat="43.60135" lon="3.07071">
        <ele>312.303925</ele>
        <time>2012-03-05T12:57:16Z</time>
      </trkpt>
      <trkpt lat="43.6014" lon="3.07055">
        <ele>313.717407</ele>
        <time>2012-03-05T12:57:23Z</time>
      </trkpt>
      <trkpt lat="43.60148" lon="3.07039">
        <ele>315.597748</ele>
        <time>2012-03-05T12:57:31Z</time>
      </trkpt>
      <trkpt lat="43.60154" lon="3.07021">
        <ele>317.243683</ele>
        <time>2012-03-05T12:57:39Z</time>
      </trkpt>
      <trkpt lat="43.60158" lon="3.07008">
        <ele>318.10675</ele>
        <time>2012-03-05T12:57:45Z</time>
      </trkpt>
      <trkpt lat="43.6016" lon="3.06989">
        <ele>319.268463</ele>
        <time>2012-03-05T12:57:53Z</time>
      </trkpt>
      <trkpt lat="43.60165" lon="3.06973">
        <ele>321.138428</ele>
        <time>2012-03-05T12:58:00Z</time>
      </trkpt>
      <trkpt lat="43.60174" lon="3.06961">
        <ele>323.563751</ele>
        <time>2012-03-05T12:58:07Z</time>
      </trkpt>
      <trkpt lat="43.60183" lon="3.06951">
        <ele>322.557495</ele>
        <time>2012-03-05T12:58:14Z</time>
      </trkpt>
      <trkpt lat="43.60189" lon="3.06946">
        <ele>321.887512</ele>
        <time>2012-03-05T12:58:19Z</time>
      </trkpt>
      <trkpt lat="43.60195" lon="3.06931">
        <ele>321.588745</ele>
        <time>2012-03-05T12:58:25Z</time>
      </trkpt>
      <trkpt lat="43.602" lon="3.06916">
        <ele>321.622498</ele>
        <time>2012-03-05T12:58:30Z</time>
      </trkpt>
      <trkpt lat="43.60208" lon="3.0689">
        <ele>321.761261</ele>
        <time>2012-03-05T12:58:38Z</time>
      </trkpt>
      <trkpt lat="43.60211" lon="3.06879">
        <ele>321.918762</ele>
        <time>2012-03-05T12:58:41Z</time>
      </trkpt>
      <trkpt lat="43.60212" lon="3.06876">
        <ele>322.051636</ele>
        <time>2012-03-05T12:58:42Z</time>
      </trkpt>
      <trkpt lat="43.60211" lon="3.06852">
        <ele>324.296783</ele>
        <time>2012-03-05T12:58:49Z</time>
      </trkpt>
      <trkpt lat="43.60207" lon="3.06832">
        <ele>327.107788</ele>
        <time>2012-03-05T12:58:55Z</time>
      </trkpt>
      <trkpt lat="43.60209" lon="3.06817">
        <ele>328.159302</ele>
        <time>2012-03-05T12:59:00Z</time>
      </trkpt>
      <trkpt lat="43.60212" lon="3.06812">
        <ele>328.474487</ele>
        <time>2012-03-05T12:59:02Z</time>
      </trkpt>
      <trkpt lat="43.60225" lon="3.06793">
        <ele>331.127045</ele>
        <time>2012-03-05T12:59:10Z</time>
      </trkpt>
      <trkpt lat="43.6024" lon="3.06771">
        <ele>334.401672</ele>
        <time>2012-03-05T12:59:19Z</time>
      </trkpt>
      <trkpt lat="43.60254" lon="3.06759">
        <ele>335.475006</ele>
        <time>2012-03-05T12:59:26Z</time>
      </trkpt>
      <trkpt lat="43.60267" lon="3.06757">
        <ele>333.930206</ele>
        <time>2012-03-05T12:59:31Z</time>
      </trkpt>
      <trkpt lat="43.60285" lon="3.06756">
        <ele>332.759338</ele>
        <time>2012-03-05T12:59:37Z</time>
      </trkpt>
      <trkpt lat="43.60296" lon="3.06753">
        <ele>332.497498</ele>
        <time>2012-03-05T12:59:42Z</time>
      </trkpt>
      <trkpt lat="43.60312" lon="3.06748">
        <ele>333.388245</ele>
        <time>2012-03-05T12:59:50Z</time>
      </trkpt>
      <trkpt lat="43.60328" lon="3.06735">
        <ele>338.005859</ele>
        <time>2012-03-05T12:59:59Z</time>
      </trkpt>
      <trkpt lat="43.60337" lon="3.06725">
        <ele>340.790039</ele>
        <time>2012-03-05T13:00:05Z</time>
      </trkpt>
      <trkpt lat="43.60346" lon="3.06713">
        <ele>343.832947</ele>
        <time>2012-03-05T13:00:13Z</time>
      </trkpt>
      <trkpt lat="43.60351" lon="3.06705">
        <ele>345.567078</ele>
        <time>2012-03-05T13:00:17Z</time>
      </trkpt>
      <trkpt lat="43.60353" lon="3.06701">
        <ele>346.291138</ele>
        <time>2012-03-05T13:00:21Z</time>
      </trkpt>
      <trkpt lat="43.60357" lon="3.06694">
        <ele>348.153503</ele>
        <time>2012-03-05T13:00:29Z</time>
      </trkpt>
      <trkpt lat="43.6036" lon="3.06687">
        <ele>350.649017</ele>
        <time>2012-03-05T13:00:37Z</time>
      </trkpt>
      <trkpt lat="43.60364" lon="3.0668">
        <ele>352.926514</ele>
        <time>2012-03-05T13:00:45Z</time>
      </trkpt>
      <trkpt lat="43.60366" lon="3.06674">
        <ele>354.602692</ele>
        <time>2012-03-05T13:00:52Z</time>
      </trkpt>
      <trkpt lat="43.60366" lon="3.06669">
        <ele>355.805603</ele>
        <time>2012-03-05T13:00:57Z</time>
      </trkpt>
      <trkpt lat="43.60375" lon="3.06668">
        <ele>357.686554</ele>
        <time>2012-03-05T13:01:03Z</time>
      </trkpt>
      <trkpt lat="43.60383" lon="3.06679">
        <ele>357.124237</ele>
        <time>2012-03-05T13:01:09Z</time>
      </trkpt>
      <trkpt lat="43.60395" lon="3.06701">
        <ele>356.455383</ele>
        <time>2012-03-05T13:01:19Z</time>
      </trkpt>
      <trkpt lat="43.60409" lon="3.06714">
        <ele>356.404541</ele>
        <time>2012-03-05T13:01:28Z</time>
      </trkpt>
      <trkpt lat="43.60421" lon="3.06719">
        <ele>356.72406</ele>
        <time>2012-03-05T13:01:35Z</time>
      </trkpt>
      <trkpt lat="43.60429" lon="3.06721">
        <ele>357.10025</ele>
        <time>2012-03-05T13:01:39Z</time>
      </trkpt>
      <trkpt lat="43.60439" lon="3.06723">
        <ele>357.739105</ele>
        <time>2012-03-05T13:01:43Z</time>
      </trkpt>
      <trkpt lat="43.60458" lon="3.06711">
        <ele>357.479065</ele>
        <time>2012-03-05T13:01:50Z</time>
      </trkpt>
      <trkpt lat="43.60468" lon="3.06687">
        <ele>358.265015</ele>
        <time>2012-03-05T13:01:56Z</time>
      </trkpt>
      <trkpt lat="43.60468" lon="3.06684">
        <ele>358.636261</ele>
        <time>2012-03-05T13:01:57Z</time>
      </trkpt>
      <trkpt lat="43.60469" lon="3.06678">
        <ele>359.067505</ele>
        <time>2012-03-05T13:02:01Z</time>
      </trkpt>
      <trkpt lat="43.60468" lon="3.06687">
        <ele>358.098755</ele>
        <time>2012-03-05T13:02:05Z</time>
      </trkpt>
      <trkpt lat="43.60473" lon="3.06689">
        <ele>356.867493</ele>
        <time>2012-03-05T13:02:08Z</time>
      </trkpt>
      <trkpt lat="43.60476" lon="3.06687">
        <ele>356.714996</ele>
        <time>2012-03-05T13:02:09Z</time>
      </trkpt>
      <trkpt lat="43.60487" lon="3.06675">
        <ele>355.951263</ele>
        <time>2012-03-05T13:02:12Z</time>
      </trkpt>
      <trkpt lat="43.60502" lon="3.06668">
        <ele>353.509369</ele>
        <time>2012-03-05T13:02:15Z</time>
      </trkpt>
      <trkpt lat="43.60522" lon="3.06667">
        <ele>349.41687</ele>
        <time>2012-03-05T13:02:20Z</time>
      </trkpt>
      <trkpt lat="43.60529" lon="3.06653">
        <ele>349.352509</ele>
        <time>2012-03-05T13:02:24Z</time>
      </trkpt>
      <trkpt lat="43.60535" lon="3.06623">
        <ele>351.815735</ele>
        <time>2012-03-05T13:02:30Z</time>
      </trkpt>
      <trkpt lat="43.60534" lon="3.0662">
        <ele>352.392853</ele>
        <time>2012-03-05T13:02:31Z</time>
      </trkpt>
      <trkpt lat="43.60542" lon="3.06603">
        <ele>355.06546</ele>
        <time>2012-03-05T13:02:36Z</time>
      </trkpt>
      <trkpt lat="43.60547" lon="3.06596">
        <ele>356.658386</ele>
        <time>2012-03-05T13:02:40Z</time>
      </trkpt>
      <trkpt lat="43.60549" lon="3.06591">
        <ele>357.595703</ele>
        <time>2012-03-05T13:02:42Z</time>
      </trkpt>
      <trkpt lat="43.6056" lon="3.06581">
        <ele>360.167328</ele>
        <time>2012-03-05T13:02:47Z</time>
      </trkpt>
      <trkpt lat="43.60568" lon="3.0659">
        <ele>358.818756</ele>
        <time>2012-03-05T13:02:52Z</time>
      </trkpt>
      <trkpt lat="43.6057" lon="3.06608">
        <ele>354.917877</ele>
        <time>2012-03-05T13:02:56Z</time>
      </trkpt>
      <trkpt lat="43.60574" lon="3.06614">
        <ele>353.69516</ele>
        <time>2012-03-05T13:02:58Z</time>
      </trkpt>
      <trkpt lat="43.60581" lon="3.0662">
        <ele>352.645935</ele>
        <time>2012-03-05T13:03:01Z</time>
      </trkpt>
      <trkpt lat="43.60588" lon="3.06632">
        <ele>353.660217</ele>
        <time>2012-03-05T13:03:05Z</time>
      </trkpt>
      <trkpt lat="43.60604" lon="3.06652">
        <ele>356.332581</ele>
        <time>2012-03-05T13:03:11Z</time>
      </trkpt>
      <trkpt lat="43.60613" lon="3.06667">
        <ele>356.503815</ele>
        <time>2012-03-05T13:03:16Z</time>
      </trkpt>
      <trkpt lat="43.60622" lon="3.06683">
        <ele>355.239136</ele>
        <time>2012-03-05T13:03:22Z</time>
      </trkpt>
      <trkpt lat="43.6063" lon="3.06697">
        <ele>353.626617</ele>
        <time>2012-03-05T13:03:28Z</time>
      </trkpt>
      <trkpt lat="43.60635" lon="3.06704">
        <ele>353.615204</ele>
        <time>2012-03-05T13:03:33Z</time>
      </trkpt>
      <trkpt lat="43.6064" lon="3.0671">
        <ele>353.619263</ele>
        <time>2012-03-05T13:03:37Z</time>
      </trkpt>
      <trkpt lat="43.60647" lon="3.0672">
        <ele>353.350006</ele>
        <time>2012-03-05T13:03:44Z</time>
      </trkpt>
      <trkpt lat="43.60653" lon="3.06723">
        <ele>354.959167</ele>
        <time>2012-03-05T13:03:49Z</time>
      </trkpt>
      <trkpt lat="43.60657" lon="3.06724">
        <ele>356.194611</ele>
        <time>2012-03-05T13:03:53Z</time>
      </trkpt>
      <trkpt lat="43.60658" lon="3.06724">
        <ele>356.5896</ele>
        <time>2012-03-05T13:03:57Z</time>
      </trkpt>
      <trkpt lat="43.60659" lon="3.06725">
        <ele>356.658478</ele>
        <time>2012-03-05T13:03:58Z</time>
      </trkpt>
      <trkpt lat="43.60659" lon="3.06725">
        <ele>356.83371</ele>
        <time>2012-03-05T13:04:01Z</time>
      </trkpt>
      <trkpt lat="43.60661" lon="3.06725">
        <ele>357.592255</ele>
        <time>2012-03-05T13:04:02Z</time>
      </trkpt>
      <trkpt lat="43.60665" lon="3.06725">
        <ele>359.116486</ele>
        <time>2012-03-05T13:04:06Z</time>
      </trkpt>
      <trkpt lat="43.60671" lon="3.06725">
        <ele>361.531311</ele>
        <time>2012-03-05T13:04:13Z</time>
      </trkpt>
      <trkpt lat="43.60671" lon="3.0672">
        <ele>362.749908</ele>
        <time>2012-03-05T13:04:18Z</time>
      </trkpt>
      <trkpt lat="43.60671" lon="3.06721">
        <ele>362.260559</ele>
        <time>2012-03-05T13:04:32Z</time>
      </trkpt>
      <trkpt lat="43.60672" lon="3.06718">
        <ele>363.465637</ele>
        <time>2012-03-05T13:04:34Z</time>
      </trkpt>
      <trkpt lat="43.60677" lon="3.06713">
        <ele>367.082489</ele>
        <time>2012-03-05T13:04:42Z</time>
      </trkpt>
      <trkpt lat="43.60676" lon="3.06714">
        <ele>366.484589</ele>
        <time>2012-03-05T13:04:49Z</time>
      </trkpt>
      <trkpt lat="43.60676" lon="3.06714">
        <ele>366.558258</ele>
        <time>2012-03-05T13:04:50Z</time>
      </trkpt>
      <trkpt lat="43.60677" lon="3.06713">
        <ele>366.879791</ele>
        <time>2012-03-05T13:04:53Z</time>
      </trkpt>
      <trkpt lat="43.60677" lon="3.06712">
        <ele>367.168762</ele>
        <time>2012-03-05T13:04:54Z</time>
      </trkpt>
      <trkpt lat="43.60678" lon="3.06709">
        <ele>368.597809</ele>
        <time>2012-03-05T13:04:59Z</time>
      </trkpt>
      <trkpt lat="43.60681" lon="3.06709">
        <ele>369.671631</ele>
        <time>2012-03-05T13:05:04Z</time>
      </trkpt>
      <trkpt lat="43.60681" lon="3.06709">
        <ele>369.929565</ele>
        <time>2012-03-05T13:05:07Z</time>
      </trkpt>
      <trkpt lat="43.60683" lon="3.06709">
        <ele>370.600739</ele>
        <time>2012-03-05T13:05:08Z</time>
      </trkpt>
      <trkpt lat="43.60685" lon="3.06708">
        <ele>372.014893</ele>
        <time>2012-03-05T13:05:12Z</time>
      </trkpt>
      <trkpt lat="43.60686" lon="3.06709">
        <ele>372.274933</ele>
        <time>2012-03-05T13:05:15Z</time>
      </trkpt>
      <trkpt lat="43.60687" lon="3.06709">
        <ele>372.520355</ele>
        <time>2012-03-05T13:05:16Z</time>
      </trkpt>
      <trkpt lat="43.60693" lon="3.06705">
        <ele>376.305786</ele>
        <time>2012-03-05T13:05:22Z</time>
      </trkpt>
      <trkpt lat="43.60697" lon="3.06703">
        <ele>378.669586</ele>
        <time>2012-03-05T13:05:28Z</time>
      </trkpt>
      <trkpt lat="43.60698" lon="3.06704">
        <ele>378.703949</ele>
        <time>2012-03-05T13:05:29Z</time>
      </trkpt>
      <trkpt lat="43.60699" lon="3.06704">
        <ele>379.322601</ele>
        <time>2012-03-05T13:05:35Z</time>
      </trkpt>
      <trkpt lat="43.60701" lon="3.06708">
        <ele>379.020264</ele>
        <time>2012-03-05T13:05:38Z</time>
      </trkpt>
      <trkpt lat="43.60701" lon="3.06708">
        <ele>379.102386</ele>
        <time>2012-03-05T13:05:44Z</time>
      </trkpt>
      <trkpt lat="43.60702" lon="3.06713">
        <ele>378.251709</ele>
        <time>2012-03-05T13:05:46Z</time>
      </trkpt>
      <trkpt lat="43.60703" lon="3.06721">
        <ele>376.310577</ele>
        <time>2012-03-05T13:05:50Z</time>
      </trkpt>
      <trkpt lat="43.60706" lon="3.06737">
        <ele>372.741547</ele>
        <time>2012-03-05T13:05:58Z</time>
      </trkpt>
      <trkpt lat="43.6071" lon="3.06747">
        <ele>371.558289</ele>
        <time>2012-03-05T13:06:05Z</time>
      </trkpt>
      <trkpt lat="43.6071" lon="3.06748">
        <ele>371.587585</ele>
        <time>2012-03-05T13:06:06Z</time>
      </trkpt>
      <trkpt lat="43.60717" lon="3.06759">
        <ele>371.132507</ele>
        <time>2012-03-05T13:06:12Z</time>
      </trkpt>
      <trkpt lat="43.60719" lon="3.06759">
        <ele>371.790009</ele>
        <time>2012-03-05T13:06:14Z</time>
      </trkpt>
      <trkpt lat="43.60718" lon="3.06757">
        <ele>371.964996</ele>
        <time>2012-03-05T13:06:17Z</time>
      </trkpt>
      <trkpt lat="43.60717" lon="3.06755">
        <ele>372.382507</ele>
        <time>2012-03-05T13:06:22Z</time>
      </trkpt>
      <trkpt lat="43.60719" lon="3.06753">
        <ele>373.737488</ele>
        <time>2012-03-05T13:06:26Z</time>
      </trkpt>
      <trkpt lat="43.60724" lon="3.06757">
        <ele>374.434998</ele>
        <time>2012-03-05T13:06:35Z</time>
      </trkpt>
      <trkpt lat="43.60725" lon="3.06758">
        <ele>374.44751</ele>
        <time>2012-03-05T13:06:38Z</time>
      </trkpt>
      <trkpt lat="43.60728" lon="3.06761">
        <ele>375.155304</ele>
        <time>2012-03-05T13:06:43Z</time>
      </trkpt>
      <trkpt lat="43.60729" lon="3.06761">
        <ele>375.45108</ele>
        <time>2012-03-05T13:06:44Z</time>
      </trkpt>
      <trkpt lat="43.60736" lon="3.0676">
        <ele>378.00119</ele>
        <time>2012-03-05T13:06:52Z</time>
      </trkpt>
      <trkpt lat="43.6074" lon="3.0676">
        <ele>379.461578</ele>
        <time>2012-03-05T13:06:57Z</time>
      </trkpt>
      <trkpt lat="43.6074" lon="3.0676">
        <ele>379.779907</ele>
        <time>2012-03-05T13:06:58Z</time>
      </trkpt>
      <trkpt lat="43.60747" lon="3.06761">
        <ele>382.108124</ele>
        <time>2012-03-05T13:07:06Z</time>
      </trkpt>
      <trkpt lat="43.6075" lon="3.06764">
        <ele>382.509735</ele>
        <time>2012-03-05T13:07:13Z</time>
      </trkpt>
      <trkpt lat="43.6075" lon="3.06764">
        <ele>382.404388</ele>
        <time>2012-03-05T13:07:17Z</time>
      </trkpt>
      <trkpt lat="43.6075" lon="3.06763">
        <ele>382.534851</ele>
        <time>2012-03-05T13:07:18Z</time>
      </trkpt>
      <trkpt lat="43.60752" lon="3.06764">
        <ele>382.896362</ele>
        <time>2012-03-05T13:07:50Z</time>
      </trkpt>
      <trkpt lat="43.60752" lon="3.06765">
        <ele>382.844238</ele>
        <time>2012-03-05T13:07:51Z</time>
      </trkpt>
      <trkpt lat="43.60752" lon="3.06764">
        <ele>383.164154</ele>
        <time>2012-03-05T13:07:57Z</time>
      </trkpt>
      <trkpt lat="43.6076" lon="3.06763">
        <ele>386.192047</ele>
        <time>2012-03-05T13:08:04Z</time>
      </trkpt>
      <trkpt lat="43.60765" lon="3.06757">
        <ele>388.490295</ele>
        <time>2012-03-05T13:08:10Z</time>
      </trkpt>
      <trkpt lat="43.60767" lon="3.06755">
        <ele>389.019806</ele>
        <time>2012-03-05T13:08:11Z</time>
      </trkpt>
      <trkpt lat="43.60775" lon="3.06752">
        <ele>390.673584</ele>
        <time>2012-03-05T13:08:17Z</time>
      </trkpt>
      <trkpt lat="43.60788" lon="3.06754">
        <ele>391.37439</ele>
        <time>2012-03-05T13:08:24Z</time>
      </trkpt>
      <trkpt lat="43.60795" lon="3.06752">
        <ele>392.458801</ele>
        <time>2012-03-05T13:08:26Z</time>
      </trkpt>
      <trkpt lat="43.60798" lon="3.0675">
        <ele>393.264526</ele>
        <time>2012-03-05T13:08:27Z</time>
      </trkpt>
      <trkpt lat="43.60803" lon="3.06744">
        <ele>395.21936</ele>
        <time>2012-03-05T13:08:29Z</time>
      </trkpt>
      <trkpt lat="43.60804" lon="3.06727">
        <ele>399.576172</ele>
        <time>2012-03-05T13:08:34Z</time>
      </trkpt>
      <trkpt lat="43.6081" lon="3.06722">
        <ele>400.940155</ele>
        <time>2012-03-05T13:08:38Z</time>
      </trkpt>
      <trkpt lat="43.60823" lon="3.06722">
        <ele>400.812256</ele>
        <time>2012-03-05T13:08:44Z</time>
      </trkpt>
      <trkpt lat="43.60832" lon="3.06719">
        <ele>401.328857</ele>
        <time>2012-03-05T13:08:46Z</time>
      </trkpt>
      <trkpt lat="43.60842" lon="3.06715">
        <ele>402.320618</ele>
        <time>2012-03-05T13:08:48Z</time>
      </trkpt>
      <trkpt lat="43.60852" lon="3.0671">
        <ele>403.404694</ele>
        <time>2012-03-05T13:08:51Z</time>
      </trkpt>
      <trkpt lat="43.60857" lon="3.06711">
        <ele>403.127197</ele>
        <time>2012-03-05T13:08:53Z</time>
      </trkpt>
      <trkpt lat="43.60866" lon="3.06714">
        <ele>402.642273</ele>
        <time>2012-03-05T13:08:56Z</time>
      </trkpt>
      <trkpt lat="43.60869" lon="3.06718">
        <ele>401.645996</ele>
        <time>2012-03-05T13:08:58Z</time>
      </trkpt>
      <trkpt lat="43.60876" lon="3.06727">
        <ele>399.081146</ele>
        <time>2012-03-05T13:09:03Z</time>
      </trkpt>
      <trkpt lat="43.60889" lon="3.06735">
        <ele>396.760864</ele>
        <time>2012-03-05T13:09:07Z</time>
      </trkpt>
      <trkpt lat="43.60892" lon="3.06738">
        <ele>395.978577</ele>
        <time>2012-03-05T13:09:08Z</time>
      </trkpt>
      <trkpt lat="43.60909" lon="3.06754">
        <ele>388.357849</ele>
        <time>2012-03-05T13:09:13Z</time>
      </trkpt>
      <trkpt lat="43.6092" lon="3.06768">
        <ele>381.488068</ele>
        <time>2012-03-05T13:09:16Z</time>
      </trkpt>
      <trkpt lat="43.60924" lon="3.06772">
        <ele>379.430634</ele>
        <time>2012-03-05T13:09:17Z</time>
      </trkpt>
      <trkpt lat="43.60941" lon="3.06774">
        <ele>375.548706</ele>
        <time>2012-03-05T13:09:21Z</time>
      </trkpt>
      <trkpt lat="43.60951" lon="3.06759">
        <ele>379.507202</ele>
        <time>2012-03-05T13:09:25Z</time>
      </trkpt>
      <trkpt lat="43.60953" lon="3.06756">
        <ele>380.864075</ele>
        <time>2012-03-05T13:09:26Z</time>
      </trkpt>
      <trkpt lat="43.60971" lon="3.06744">
        <ele>384.679413</ele>
        <time>2012-03-05T13:09:32Z</time>
      </trkpt>
      <trkpt lat="43.60978" lon="3.06753">
        <ele>380.651459</ele>
        <time>2012-03-05T13:09:37Z</time>
      </trkpt>
      <trkpt lat="43.60978" lon="3.06759">
        <ele>377.902496</ele>
        <time>2012-03-05T13:09:39Z</time>
      </trkpt>
      <trkpt lat="43.60979" lon="3.06773">
        <ele>372.467041</ele>
        <time>2012-03-05T13:09:43Z</time>
      </trkpt>
      <trkpt lat="43.60985" lon="3.06784">
        <ele>368.422882</ele>
        <time>2012-03-05T13:09:46Z</time>
      </trkpt>
      <trkpt lat="43.60988" lon="3.06787">
        <ele>368.124268</ele>
        <time>2012-03-05T13:09:47Z</time>
      </trkpt>
      <trkpt lat="43.60999" lon="3.06796">
        <ele>367.776489</ele>
        <time>2012-03-05T13:09:52Z</time>
      </trkpt>
      <trkpt lat="43.61006" lon="3.06799">
        <ele>368.149261</ele>
        <time>2012-03-05T13:09:56Z</time>
      </trkpt>
      <trkpt lat="43.61007" lon="3.06799">
        <ele>368.446014</ele>
        <time>2012-03-05T13:09:59Z</time>
      </trkpt>
      <trkpt lat="43.61009" lon="3.06799">
        <ele>369.052765</ele>
        <time>2012-03-05T13:10:07Z</time>
      </trkpt>
      <trkpt lat="43.61016" lon="3.06804">
        <ele>368.864594</ele>
        <time>2012-03-05T13:10:11Z</time>
      </trkpt>
      <trkpt lat="43.6102" lon="3.06806">
        <ele>368.969818</ele>
        <time>2012-03-05T13:10:13Z</time>
      </trkpt>
      <trkpt lat="43.61024" lon="3.06809">
        <ele>368.842621</ele>
        <time>2012-03-05T13:10:15Z</time>
      </trkpt>
      <trkpt lat="43.61025" lon="3.06813">
        <ele>367.448608</ele>
        <time>2012-03-05T13:10:17Z</time>
      </trkpt>
      <trkpt lat="43.61014" lon="3.06818">
        <ele>362.825287</ele>
        <time>2012-03-05T13:10:23Z</time>
      </trkpt>
      <trkpt lat="43.61012" lon="3.06821">
        <ele>360.813171</ele>
        <time>2012-03-05T13:10:29Z</time>
      </trkpt>
      <trkpt lat="43.61013" lon="3.06822">
        <ele>360.872253</ele>
        <time>2012-03-05T13:10:30Z</time>
      </trkpt>
      <trkpt lat="43.61021" lon="3.06827">
        <ele>360.358154</ele>
        <time>2012-03-05T13:10:34Z</time>
      </trkpt>
      <trkpt lat="43.61035" lon="3.0684">
        <ele>356.971069</ele>
        <time>2012-03-05T13:10:39Z</time>
      </trkpt>
      <trkpt lat="43.61043" lon="3.06843">
        <ele>356.014984</ele>
        <time>2012-03-05T13:10:42Z</time>
      </trkpt>
      <trkpt lat="43.61045" lon="3.06844">
        <ele>355.849091</ele>
        <time>2012-03-05T13:10:43Z</time>
      </trkpt>
      <trkpt lat="43.61062" lon="3.06856">
        <ele>352.189026</ele>
        <time>2012-03-05T13:10:47Z</time>
      </trkpt>
      <trkpt lat="43.61074" lon="3.06868">
        <ele>348.825378</ele>
        <time>2012-03-05T13:10:50Z</time>
      </trkpt>
      <trkpt lat="43.61094" lon="3.06878">
        <ele>349.230103</ele>
        <time>2012-03-05T13:10:55Z</time>
      </trkpt>
      <trkpt lat="43.61097" lon="3.06878">
        <ele>350.051697</ele>
        <time>2012-03-05T13:10:57Z</time>
      </trkpt>
      <trkpt lat="43.61105" lon="3.06873">
        <ele>353.494537</ele>
        <time>2012-03-05T13:11:01Z</time>
      </trkpt>
      <trkpt lat="43.61111" lon="3.06887">
        <ele>350.489136</ele>
        <time>2012-03-05T13:11:06Z</time>
      </trkpt>
      <trkpt lat="43.6111" lon="3.06896">
        <ele>348.073181</ele>
        <time>2012-03-05T13:11:08Z</time>
      </trkpt>
      <trkpt lat="43.61105" lon="3.06919">
        <ele>341.4617</ele>
        <time>2012-03-05T13:11:13Z</time>
      </trkpt>
      <trkpt lat="43.61109" lon="3.06928">
        <ele>340.255463</ele>
        <time>2012-03-05T13:11:16Z</time>
      </trkpt>
      <trkpt lat="43.61113" lon="3.06932">
        <ele>340.233734</ele>
        <time>2012-03-05T13:11:20Z</time>
      </trkpt>
      <trkpt lat="43.61114" lon="3.06933">
        <ele>340.164063</ele>
        <time>2012-03-05T13:11:26Z</time>
      </trkpt>
      <trkpt lat="43.61121" lon="3.0694">
        <ele>339.675018</ele>
        <time>2012-03-05T13:11:30Z</time>
      </trkpt>
      <trkpt lat="43.61128" lon="3.06947">
        <ele>338.735901</ele>
        <time>2012-03-05T13:11:33Z</time>
      </trkpt>
      <trkpt lat="43.61135" lon="3.06955">
        <ele>337.59613</ele>
        <time>2012-03-05T13:11:35Z</time>
      </trkpt>
      <trkpt lat="43.61148" lon="3.06963">
        <ele>336.845337</ele>
        <time>2012-03-05T13:11:38Z</time>
      </trkpt>
      <trkpt lat="43.61158" lon="3.06966">
        <ele>337.082245</ele>
        <time>2012-03-05T13:11:40Z</time>
      </trkpt>
      <trkpt lat="43.61168" lon="3.06966">
        <ele>336.734528</ele>
        <time>2012-03-05T13:11:42Z</time>
      </trkpt>
      <trkpt lat="43.61188" lon="3.06967">
        <ele>334.046936</ele>
        <time>2012-03-05T13:11:46Z</time>
      </trkpt>
      <trkpt lat="43.612" lon="3.06967">
        <ele>332.533691</ele>
        <time>2012-03-05T13:11:49Z</time>
      </trkpt>
      <trkpt lat="43.61212" lon="3.06967">
        <ele>330.468536</ele>
        <time>2012-03-05T13:11:53Z</time>
      </trkpt>
      <trkpt lat="43.61231" lon="3.06966">
        <ele>326.708282</ele>
        <time>2012-03-05T13:11:57Z</time>
      </trkpt>
      <trkpt lat="43.61237" lon="3.06964">
        <ele>325.761078</ele>
        <time>2012-03-05T13:11:58Z</time>
      </trkpt>
      <trkpt lat="43.61247" lon="3.06964">
        <ele>323.783569</ele>
        <time>2012-03-05T13:12:00Z</time>
      </trkpt>
      <trkpt lat="43.61268" lon="3.06965">
        <ele>322.348114</ele>
        <time>2012-03-05T13:12:05Z</time>
      </trkpt>
      <trkpt lat="43.61275" lon="3.06977">
        <ele>318.59201</ele>
        <time>2012-03-05T13:12:09Z</time>
      </trkpt>
      <trkpt lat="43.61285" lon="3.06992">
        <ele>313.132202</ele>
        <time>2012-03-05T13:12:13Z</time>
      </trkpt>
      <trkpt lat="43.6129" lon="3.07">
        <ele>309.797485</ele>
        <time>2012-03-05T13:12:16Z</time>
      </trkpt>
      <trkpt lat="43.61296" lon="3.07004">
        <ele>307.990356</ele>
        <time>2012-03-05T13:12:18Z</time>
      </trkpt>
      <trkpt lat="43.61303" lon="3.07008">
        <ele>306.160034</ele>
        <time>2012-03-05T13:12:20Z</time>
      </trkpt>
      <trkpt lat="43.61315" lon="3.07025">
        <ele>299.965851</ele>
        <time>2012-03-05T13:12:24Z</time>
      </trkpt>
      <trkpt lat="43.61328" lon="3.07035">
        <ele>297.097839</ele>
        <time>2012-03-05T13:12:27Z</time>
      </trkpt>
      <trkpt lat="43.61352" lon="3.07039">
        <ele>294.187683</ele>
        <time>2012-03-05T13:12:32Z</time>
      </trkpt>
      <trkpt lat="43.61356" lon="3.07036">
        <ele>294.138855</ele>
        <time>2012-03-05T13:12:33Z</time>
      </trkpt>
      <trkpt lat="43.61375" lon="3.07028">
        <ele>292.002075</ele>
        <time>2012-03-05T13:12:37Z</time>
      </trkpt>
      <trkpt lat="43.61381" lon="3.07027">
        <ele>291.119263</ele>
        <time>2012-03-05T13:12:38Z</time>
      </trkpt>
      <trkpt lat="43.61393" lon="3.07022">
        <ele>289.486755</ele>
        <time>2012-03-05T13:12:40Z</time>
      </trkpt>
      <trkpt lat="43.61415" lon="3.07012">
        <ele>287.759796</ele>
        <time>2012-03-05T13:12:44Z</time>
      </trkpt>
      <trkpt lat="43.6142" lon="3.0701">
        <ele>287.694519</ele>
        <time>2012-03-05T13:12:45Z</time>
      </trkpt>
      <trkpt lat="43.61429" lon="3.07008">
        <ele>286.754242</ele>
        <time>2012-03-05T13:12:48Z</time>
      </trkpt>
      <trkpt lat="43.61432" lon="3.07012">
        <ele>284.815674</ele>
        <time>2012-03-05T13:12:53Z</time>
      </trkpt>
      <trkpt lat="43.61433" lon="3.07013">
        <ele>284.318817</ele>
        <time>2012-03-05T13:12:59Z</time>
      </trkpt>
      <trkpt lat="43.61434" lon="3.07015">
        <ele>283.838501</ele>
        <time>2012-03-05T13:13:01Z</time>
      </trkpt>
      <trkpt lat="43.61434" lon="3.07015">
        <ele>283.608093</ele>
        <time>2012-03-05T13:13:04Z</time>
      </trkpt>
      <trkpt lat="43.61435" lon="3.07016">
        <ele>283.37262</ele>
        <time>2012-03-05T13:13:05Z</time>
      </trkpt>
      <trkpt lat="43.61446" lon="3.07024">
        <ele>283.033905</ele>
        <time>2012-03-05T13:13:11Z</time>
      </trkpt>
      <trkpt lat="43.61453" lon="3.0703">
        <ele>282.279541</ele>
        <time>2012-03-05T13:13:13Z</time>
      </trkpt>
      <trkpt lat="43.61471" lon="3.07041">
        <ele>280.411926</ele>
        <time>2012-03-05T13:13:18Z</time>
      </trkpt>
      <trkpt lat="43.61478" lon="3.07049">
        <ele>278.271973</ele>
        <time>2012-03-05T13:13:21Z</time>
      </trkpt>
      <trkpt lat="43.61481" lon="3.07052">
        <ele>277.63855</ele>
        <time>2012-03-05T13:13:22Z</time>
      </trkpt>
      <trkpt lat="43.61494" lon="3.07064">
        <ele>274.852295</ele>
        <time>2012-03-05T13:13:26Z</time>
      </trkpt>
      <trkpt lat="43.615" lon="3.07068">
        <ele>273.937592</ele>
        <time>2012-03-05T13:13:28Z</time>
      </trkpt>
      <trkpt lat="43.61505" lon="3.07075">
        <ele>271.838837</ele>
        <time>2012-03-05T13:13:31Z</time>
      </trkpt>
      <trkpt lat="43.61507" lon="3.07076">
        <ele>271.56546</ele>
        <time>2012-03-05T13:13:36Z</time>
      </trkpt>
      <trkpt lat="43.61508" lon="3.07078">
        <ele>271.272156</ele>
        <time>2012-03-05T13:13:38Z</time>
      </trkpt>
      <trkpt lat="43.61509" lon="3.07078">
        <ele>271.132965</ele>
        <time>2012-03-05T13:13:47Z</time>
      </trkpt>
      <trkpt lat="43.61521" lon="3.07083">
        <ele>270.3479</ele>
        <time>2012-03-05T13:13:51Z</time>
      </trkpt>
      <trkpt lat="43.61529" lon="3.07088">
        <ele>269.1698</ele>
        <time>2012-03-05T13:13:56Z</time>
      </trkpt>
      <trkpt lat="43.61534" lon="3.07104">
        <ele>263.190338</ele>
        <time>2012-03-05T13:14:01Z</time>
      </trkpt>
      <trkpt lat="43.61535" lon="3.07106">
        <ele>262.119629</ele>
        <time>2012-03-05T13:14:02Z</time>
      </trkpt>
      <trkpt lat="43.61544" lon="3.07106">
        <ele>262.668762</ele>
        <time>2012-03-05T13:14:06Z</time>
      </trkpt>
      <trkpt lat="43.61562" lon="3.07099">
        <ele>266.691559</ele>
        <time>2012-03-05T13:14:14Z</time>
      </trkpt>
      <trkpt lat="43.61575" lon="3.07098">
        <ele>267.402039</ele>
        <time>2012-03-05T13:14:21Z</time>
      </trkpt>
      <trkpt lat="43.61584" lon="3.07099">
        <ele>266.915131</ele>
        <time>2012-03-05T13:14:27Z</time>
      </trkpt>
      <trkpt lat="43.61594" lon="3.07101">
        <ele>265.950958</ele>
        <time>2012-03-05T13:14:33Z</time>
      </trkpt>
      <trkpt lat="43.61612" lon="3.07099">
        <ele>266.686249</ele>
        <time>2012-03-05T13:14:39Z</time>
      </trkpt>
      <trkpt lat="43.61636" lon="3.07095">
        <ele>266.333618</ele>
        <time>2012-03-05T13:14:45Z</time>
      </trkpt>
      <trkpt lat="43.61652" lon="3.07091">
        <ele>266.11557</ele>
        <time>2012-03-05T13:14:51Z</time>
      </trkpt>
      <trkpt lat="43.61653" lon="3.07091">
        <ele>265.946625</ele>
        <time>2012-03-05T13:14:54Z</time>
      </trkpt>
      <trkpt lat="43.61654" lon="3.07091">
        <ele>265.994415</ele>
        <time>2012-03-05T13:14:57Z</time>
      </trkpt>
      <trkpt lat="43.61662" lon="3.07088">
        <ele>265.83374</ele>
        <time>2012-03-05T13:14:59Z</time>
      </trkpt>
      <trkpt lat="43.61677" lon="3.07078">
        <ele>266.672485</ele>
        <time>2012-03-05T13:15:05Z</time>
      </trkpt>
      <trkpt lat="43.61689" lon="3.07069">
        <ele>267.964996</ele>
        <time>2012-03-05T13:15:11Z</time>
      </trkpt>
      <trkpt lat="43.61701" lon="3.07058">
        <ele>270.390015</ele>
        <time>2012-03-05T13:15:17Z</time>
      </trkpt>
      <trkpt lat="43.6172" lon="3.07038">
        <ele>273.144989</ele>
        <time>2012-03-05T13:15:25Z</time>
      </trkpt>
      <trkpt lat="43.61735" lon="3.0703">
        <ele>272.637512</ele>
        <time>2012-03-05T13:15:31Z</time>
      </trkpt>
      <trkpt lat="43.61756" lon="3.07019">
        <ele>271.126373</ele>
        <time>2012-03-05T13:15:39Z</time>
      </trkpt>
      <trkpt lat="43.61776" lon="3.06999">
        <ele>270.422882</ele>
        <time>2012-03-05T13:15:48Z</time>
      </trkpt>
      <trkpt lat="43.61785" lon="3.06975">
        <ele>273.651642</ele>
        <time>2012-03-05T13:15:55Z</time>
      </trkpt>
      <trkpt lat="43.61794" lon="3.06954">
        <ele>275.584839</ele>
        <time>2012-03-05T13:16:01Z</time>
      </trkpt>
      <trkpt lat="43.61796" lon="3.06951">
        <ele>275.249268</ele>
        <time>2012-03-05T13:16:02Z</time>
      </trkpt>
      <trkpt lat="43.61809" lon="3.06931">
        <ele>272.827515</ele>
        <time>2012-03-05T13:16:09Z</time>
      </trkpt>
      <trkpt lat="43.61819" lon="3.06908">
        <ele>271.658356</ele>
        <time>2012-03-05T13:16:16Z</time>
      </trkpt>
      <trkpt lat="43.61823" lon="3.06879">
        <ele>272.622498</ele>
        <time>2012-03-05T13:16:24Z</time>
      </trkpt>
      <trkpt lat="43.6182" lon="3.06851">
        <ele>276.815002</ele>
        <time>2012-03-05T13:16:31Z</time>
      </trkpt>
      <trkpt lat="43.61819" lon="3.06818">
        <ele>283.147034</ele>
        <time>2012-03-05T13:16:39Z</time>
      </trkpt>
      <trkpt lat="43.61819" lon="3.06814">
        <ele>283.993011</ele>
        <time>2012-03-05T13:16:40Z</time>
      </trkpt>
      <trkpt lat="43.61822" lon="3.06797">
        <ele>287.504883</ele>
        <time>2012-03-05T13:16:45Z</time>
      </trkpt>
      <trkpt lat="43.61823" lon="3.06793">
        <ele>287.97525</ele>
        <time>2012-03-05T13:16:46Z</time>
      </trkpt>
      <trkpt lat="43.61831" lon="3.06785">
        <ele>287.458618</ele>
        <time>2012-03-05T13:16:50Z</time>
      </trkpt>
      <trkpt lat="43.61852" lon="3.06783">
        <ele>283.342743</ele>
        <time>2012-03-05T13:16:56Z</time>
      </trkpt>
      <trkpt lat="43.61876" lon="3.06764">
        <ele>283.249573</ele>
        <time>2012-03-05T13:17:02Z</time>
      </trkpt>
      <trkpt lat="43.61879" lon="3.06759">
        <ele>283.455994</ele>
        <time>2012-03-05T13:17:03Z</time>
      </trkpt>
      <trkpt lat="43.61902" lon="3.06723">
        <ele>284.423065</ele>
        <time>2012-03-05T13:17:10Z</time>
      </trkpt>
      <trkpt lat="43.61916" lon="3.06695">
        <ele>287.428741</ele>
        <time>2012-03-05T13:17:17Z</time>
      </trkpt>
      <trkpt lat="43.61925" lon="3.06686">
        <ele>287.40625</ele>
        <time>2012-03-05T13:17:21Z</time>
      </trkpt>
      <trkpt lat="43.61927" lon="3.06685">
        <ele>287.338745</ele>
        <time>2012-03-05T13:17:22Z</time>
      </trkpt>
      <trkpt lat="43.61938" lon="3.06669">
        <ele>286.771881</ele>
        <time>2012-03-05T13:17:29Z</time>
      </trkpt>
      <trkpt lat="43.61944" lon="3.06646">
        <ele>288.843079</ele>
        <time>2012-03-05T13:17:36Z</time>
      </trkpt>
      <trkpt lat="43.61948" lon="3.06617">
        <ele>290.756287</ele>
        <time>2012-03-05T13:17:44Z</time>
      </trkpt>
      <trkpt lat="43.61949" lon="3.06604">
        <ele>292.163513</ele>
        <time>2012-03-05T13:17:48Z</time>
      </trkpt>
      <trkpt lat="43.61952" lon="3.06576">
        <ele>294.294037</ele>
        <time>2012-03-05T13:17:56Z</time>
      </trkpt>
      <trkpt lat="43.61952" lon="3.0657">
        <ele>294.786713</ele>
        <time>2012-03-05T13:17:58Z</time>
      </trkpt>
      <trkpt lat="43.61953" lon="3.06548">
        <ele>296.431915</ele>
        <time>2012-03-05T13:18:06Z</time>
      </trkpt>
      <trkpt lat="43.61954" lon="3.06531">
        <ele>297.892639</ele>
        <time>2012-03-05T13:18:12Z</time>
      </trkpt>
      <trkpt lat="43.61953" lon="3.06515">
        <ele>299.650391</ele>
        <time>2012-03-05T13:18:18Z</time>
      </trkpt>
      <trkpt lat="43.61951" lon="3.06494">
        <ele>301.832733</ele>
        <time>2012-03-05T13:18:25Z</time>
      </trkpt>
      <trkpt lat="43.61949" lon="3.06472">
        <ele>304.493317</ele>
        <time>2012-03-05T13:18:32Z</time>
      </trkpt>
      <trkpt lat="43.61947" lon="3.06462">
        <ele>306.003052</ele>
        <time>2012-03-05T13:18:35Z</time>
      </trkpt>
      <trkpt lat="43.61946" lon="3.06456">
        <ele>306.641846</ele>
        <time>2012-03-05T13:18:37Z</time>
      </trkpt>
      <trkpt lat="43.61944" lon="3.0644">
        <ele>308.088806</ele>
        <time>2012-03-05T13:18:43Z</time>
      </trkpt>
      <trkpt lat="43.61943" lon="3.0642">
        <ele>309.471252</ele>
        <time>2012-03-05T13:18:50Z</time>
      </trkpt>
      <trkpt lat="43.61941" lon="3.06402">
        <ele>311.020233</ele>
        <time>2012-03-05T13:18:56Z</time>
      </trkpt>
      <trkpt lat="43.61938" lon="3.06383">
        <ele>312.641113</ele>
        <time>2012-03-05T13:19:02Z</time>
      </trkpt>
      <trkpt lat="43.61933" lon="3.06362">
        <ele>314.831085</ele>
        <time>2012-03-05T13:19:09Z</time>
      </trkpt>
      <trkpt lat="43.61929" lon="3.06351">
        <ele>316.575012</ele>
        <time>2012-03-05T13:19:13Z</time>
      </trkpt>
      <trkpt lat="43.61925" lon="3.06337">
        <ele>318.51004</ele>
        <time>2012-03-05T13:19:18Z</time>
      </trkpt>
      <trkpt lat="43.61923" lon="3.06326">
        <ele>319.257904</ele>
        <time>2012-03-05T13:19:22Z</time>
      </trkpt>
      <trkpt lat="43.61921" lon="3.06313">
        <ele>320.166931</ele>
        <time>2012-03-05T13:19:27Z</time>
      </trkpt>
      <trkpt lat="43.61918" lon="3.06297">
        <ele>321.762756</ele>
        <time>2012-03-05T13:19:33Z</time>
      </trkpt>
      <trkpt lat="43.61915" lon="3.06282">
        <ele>322.723389</ele>
        <time>2012-03-05T13:19:39Z</time>
      </trkpt>
      <trkpt lat="43.61911" lon="3.06261">
        <ele>323.129761</ele>
        <time>2012-03-05T13:19:48Z</time>
      </trkpt>
      <trkpt lat="43.61906" lon="3.0625">
        <ele>324.70401</ele>
        <time>2012-03-05T13:19:54Z</time>
      </trkpt>
      <trkpt lat="43.61899" lon="3.06235">
        <ele>327.360535</ele>
        <time>2012-03-05T13:20:01Z</time>
      </trkpt>
      <trkpt lat="43.61885" lon="3.06215">
        <ele>332.535004</ele>
        <time>2012-03-05T13:20:11Z</time>
      </trkpt>
      <trkpt lat="43.61881" lon="3.06209">
        <ele>333.820007</ele>
        <time>2012-03-05T13:20:14Z</time>
      </trkpt>
      <trkpt lat="43.61878" lon="3.06205">
        <ele>334.76001</ele>
        <time>2012-03-05T13:20:17Z</time>
      </trkpt>
      <trkpt lat="43.61868" lon="3.0619">
        <ele>338.066254</ele>
        <time>2012-03-05T13:20:25Z</time>
      </trkpt>
      <trkpt lat="43.61863" lon="3.06181">
        <ele>339.317505</ele>
        <time>2012-03-05T13:20:30Z</time>
      </trkpt>
      <trkpt lat="43.6186" lon="3.06176">
        <ele>340.035004</ele>
        <time>2012-03-05T13:20:33Z</time>
      </trkpt>
      <trkpt lat="43.61858" lon="3.06172">
        <ele>340.404999</ele>
        <time>2012-03-05T13:20:35Z</time>
      </trkpt>
      <trkpt lat="43.61851" lon="3.06158">
        <ele>341.887512</ele>
        <time>2012-03-05T13:20:43Z</time>
      </trkpt>
      <trkpt lat="43.61848" lon="3.06148">
        <ele>342.303284</ele>
        <time>2012-03-05T13:20:47Z</time>
      </trkpt>
      <trkpt lat="43.61841" lon="3.06125">
        <ele>343.832092</ele>
        <time>2012-03-05T13:20:55Z</time>
      </trkpt>
      <trkpt lat="43.61836" lon="3.06111">
        <ele>344.26889</ele>
        <time>2012-03-05T13:21:01Z</time>
      </trkpt>
      <trkpt lat="43.61832" lon="3.06099">
        <ele>344.592743</ele>
        <time>2012-03-05T13:21:06Z</time>
      </trkpt>
      <trkpt lat="43.61831" lon="3.06097">
        <ele>344.600006</ele>
        <time>2012-03-05T13:21:07Z</time>
      </trkpt>
      <trkpt lat="43.61828" lon="3.06081">
        <ele>342.729126</ele>
        <time>2012-03-05T13:21:14Z</time>
      </trkpt>
      <trkpt lat="43.61826" lon="3.06066">
        <ele>340.484802</ele>
        <time>2012-03-05T13:21:19Z</time>
      </trkpt>
      <trkpt lat="43.61816" lon="3.06049">
        <ele>339.917542</ele>
        <time>2012-03-05T13:21:25Z</time>
      </trkpt>
      <trkpt lat="43.618" lon="3.06046">
        <ele>344.947815</ele>
        <time>2012-03-05T13:21:31Z</time>
      </trkpt>
      <trkpt lat="43.61782" lon="3.06045">
        <ele>350.29657</ele>
        <time>2012-03-05T13:21:38Z</time>
      </trkpt>
      <trkpt lat="43.6178" lon="3.06044">
        <ele>350.872498</ele>
        <time>2012-03-05T13:21:39Z</time>
      </trkpt>
      <trkpt lat="43.61761" lon="3.06038">
        <ele>354.644531</ele>
        <time>2012-03-05T13:21:47Z</time>
      </trkpt>
      <trkpt lat="43.61739" lon="3.06028">
        <ele>357.011017</ele>
        <time>2012-03-05T13:21:55Z</time>
      </trkpt>
      <trkpt lat="43.61723" lon="3.06028">
        <ele>361.598206</ele>
        <time>2012-03-05T13:22:02Z</time>
      </trkpt>
      <trkpt lat="43.61719" lon="3.06028">
        <ele>362.746185</ele>
        <time>2012-03-05T13:22:04Z</time>
      </trkpt>
      <trkpt lat="43.6171" lon="3.06026">
        <ele>364.724701</ele>
        <time>2012-03-05T13:22:09Z</time>
      </trkpt>
      <trkpt lat="43.61703" lon="3.0603">
        <ele>367.928925</ele>
        <time>2012-03-05T13:22:14Z</time>
      </trkpt>
      <trkpt lat="43.61705" lon="3.06038">
        <ele>370.126373</ele>
        <time>2012-03-05T13:22:18Z</time>
      </trkpt>
      <trkpt lat="43.61711" lon="3.06041">
        <ele>369.540009</ele>
        <time>2012-03-05T13:22:21Z</time>
      </trkpt>
      <trkpt lat="43.61729" lon="3.06047">
        <ele>367.019989</ele>
        <time>2012-03-05T13:22:29Z</time>
      </trkpt>
      <trkpt lat="43.61745" lon="3.06058">
        <ele>366.959991</ele>
        <time>2012-03-05T13:22:37Z</time>
      </trkpt>
      <trkpt lat="43.61756" lon="3.06066">
        <ele>366.520782</ele>
        <time>2012-03-05T13:22:42Z</time>
      </trkpt>
      <trkpt lat="43.6176" lon="3.06068">
        <ele>366.107635</ele>
        <time>2012-03-05T13:22:44Z</time>
      </trkpt>
      <trkpt lat="43.61768" lon="3.06074">
        <ele>365.175476</ele>
        <time>2012-03-05T13:22:48Z</time>
      </trkpt>
      <trkpt lat="43.61775" lon="3.06082">
        <ele>365.32312</ele>
        <time>2012-03-05T13:22:53Z</time>
      </trkpt>
      <trkpt lat="43.61771" lon="3.06089">
        <ele>369.146881</ele>
        <time>2012-03-05T13:22:58Z</time>
      </trkpt>
      <trkpt lat="43.61763" lon="3.06086">
        <ele>371.244141</ele>
        <time>2012-03-05T13:23:03Z</time>
      </trkpt>
      <trkpt lat="43.61746" lon="3.06078">
        <ele>374.279999</ele>
        <time>2012-03-05T13:23:11Z</time>
      </trkpt>
      <trkpt lat="43.61728" lon="3.06074">
        <ele>377.670013</ele>
        <time>2012-03-05T13:23:19Z</time>
      </trkpt>
      <trkpt lat="43.61709" lon="3.0607">
        <ele>381.149994</ele>
        <time>2012-03-05T13:23:28Z</time>
      </trkpt>
      <trkpt lat="43.61696" lon="3.06068">
        <ele>384.427216</ele>
        <time>2012-03-05T13:23:35Z</time>
      </trkpt>
      <trkpt lat="43.61684" lon="3.06067">
        <ele>387.394104</ele>
        <time>2012-03-05T13:23:41Z</time>
      </trkpt>
      <trkpt lat="43.61672" lon="3.06063">
        <ele>390.057251</ele>
        <time>2012-03-05T13:23:47Z</time>
      </trkpt>
      <trkpt lat="43.61664" lon="3.06057">
        <ele>390.736603</ele>
        <time>2012-03-05T13:23:53Z</time>
      </trkpt>
      <trkpt lat="43.61656" lon="3.06042">
        <ele>389.212372</ele>
        <time>2012-03-05T13:24:00Z</time>
      </trkpt>
      <trkpt lat="43.61656" lon="3.06024">
        <ele>385.285706</ele>
        <time>2012-03-05T13:24:06Z</time>
      </trkpt>
      <trkpt lat="43.61655" lon="3.06002">
        <ele>383.903839</ele>
        <time>2012-03-05T13:24:13Z</time>
      </trkpt>
      <trkpt lat="43.61654" lon="3.05985">
        <ele>383.13736</ele>
        <time>2012-03-05T13:24:19Z</time>
      </trkpt>
      <trkpt lat="43.61652" lon="3.05964">
        <ele>382.477295</ele>
        <time>2012-03-05T13:24:26Z</time>
      </trkpt>
      <trkpt lat="43.61652" lon="3.05962">
        <ele>382.300323</ele>
        <time>2012-03-05T13:24:27Z</time>
      </trkpt>
      <trkpt lat="43.6165" lon="3.05942">
        <ele>381.643036</ele>
        <time>2012-03-05T13:24:34Z</time>
      </trkpt>
      <trkpt lat="43.61646" lon="3.05929">
        <ele>382.70401</ele>
        <time>2012-03-05T13:24:38Z</time>
      </trkpt>
      <trkpt lat="43.61641" lon="3.05915">
        <ele>384.135345</ele>
        <time>2012-03-05T13:24:43Z</time>
      </trkpt>
      <trkpt lat="43.61636" lon="3.05895">
        <ele>385.133026</ele>
        <time>2012-03-05T13:24:50Z</time>
      </trkpt>
      <trkpt lat="43.61634" lon="3.05885">
        <ele>385.119537</ele>
        <time>2012-03-05T13:24:53Z</time>
      </trkpt>
      <trkpt lat="43.61632" lon="3.0588">
        <ele>385.647949</ele>
        <time>2012-03-05T13:24:55Z</time>
      </trkpt>
      <trkpt lat="43.61623" lon="3.05883">
        <ele>390.797363</ele>
        <time>2012-03-05T13:25:00Z</time>
      </trkpt>
      <trkpt lat="43.61623" lon="3.05889">
        <ele>391.866882</ele>
        <time>2012-03-05T13:25:02Z</time>
      </trkpt>
      <trkpt lat="43.61628" lon="3.05908">
        <ele>391.597992</ele>
        <time>2012-03-05T13:25:09Z</time>
      </trkpt>
      <trkpt lat="43.61629" lon="3.05916">
        <ele>391.736694</ele>
        <time>2012-03-05T13:25:12Z</time>
      </trkpt>
      <trkpt lat="43.6163" lon="3.05928">
        <ele>391.556366</ele>
        <time>2012-03-05T13:25:16Z</time>
      </trkpt>
      <trkpt lat="43.6163" lon="3.05931">
        <ele>391.796265</ele>
        <time>2012-03-05T13:25:17Z</time>
      </trkpt>
      <trkpt lat="43.61631" lon="3.05943">
        <ele>392.238525</ele>
        <time>2012-03-05T13:25:21Z</time>
      </trkpt>
      <trkpt lat="43.61632" lon="3.05955">
        <ele>392.896942</ele>
        <time>2012-03-05T13:25:25Z</time>
      </trkpt>
      <trkpt lat="43.6163" lon="3.05961">
        <ele>394.085663</ele>
        <time>2012-03-05T13:25:27Z</time>
      </trkpt>
      <trkpt lat="43.61629" lon="3.05981">
        <ele>395.391296</ele>
        <time>2012-03-05T13:25:33Z</time>
      </trkpt>
      <trkpt lat="43.61626" lon="3.06004">
        <ele>396.735168</ele>
        <time>2012-03-05T13:25:40Z</time>
      </trkpt>
      <trkpt lat="43.61621" lon="3.06021">
        <ele>398.782013</ele>
        <time>2012-03-05T13:25:46Z</time>
      </trkpt>
      <trkpt lat="43.61614" lon="3.06036">
        <ele>404.076538</ele>
        <time>2012-03-05T13:25:52Z</time>
      </trkpt>
      <trkpt lat="43.61612" lon="3.06053">
        <ele>408.520752</ele>
        <time>2012-03-05T13:25:57Z</time>
      </trkpt>
      <trkpt lat="43.61612" lon="3.06056">
        <ele>408.869995</ele>
        <time>2012-03-05T13:25:58Z</time>
      </trkpt>
      <trkpt lat="43.61617" lon="3.06072">
        <ele>409.604004</ele>
        <time>2012-03-05T13:26:03Z</time>
      </trkpt>
      <trkpt lat="43.61627" lon="3.06091">
        <ele>410.565002</ele>
        <time>2012-03-05T13:26:10Z</time>
      </trkpt>
      <trkpt lat="43.61629" lon="3.06098">
        <ele>412.119995</ele>
        <time>2012-03-05T13:26:12Z</time>
      </trkpt>
      <trkpt lat="43.61637" lon="3.06114">
        <ele>415.165009</ele>
        <time>2012-03-05T13:26:17Z</time>
      </trkpt>
      <trkpt lat="43.61646" lon="3.06122">
        <ele>415.424988</ele>
        <time>2012-03-05T13:26:21Z</time>
      </trkpt>
      <trkpt lat="43.61653" lon="3.06127">
        <ele>415.329987</ele>
        <time>2012-03-05T13:26:24Z</time>
      </trkpt>
      <trkpt lat="43.61668" lon="3.06136">
        <ele>414.222504</ele>
        <time>2012-03-05T13:26:31Z</time>
      </trkpt>
      <trkpt lat="43.61671" lon="3.06143">
        <ele>415.394989</ele>
        <time>2012-03-05T13:26:34Z</time>
      </trkpt>
      <trkpt lat="43.6167" lon="3.06147">
        <ele>416.970001</ele>
        <time>2012-03-05T13:26:36Z</time>
      </trkpt>
      <trkpt lat="43.61667" lon="3.06148">
        <ele>418.092499</ele>
        <time>2012-03-05T13:26:38Z</time>
      </trkpt>
      <trkpt lat="43.61653" lon="3.06145">
        <ele>420.665009</ele>
        <time>2012-03-05T13:26:45Z</time>
      </trkpt>
      <trkpt lat="43.61636" lon="3.06139">
        <ele>423.579987</ele>
        <time>2012-03-05T13:26:54Z</time>
      </trkpt>
      <trkpt lat="43.61626" lon="3.06133">
        <ele>424.654999</ele>
        <time>2012-03-05T13:26:59Z</time>
      </trkpt>
      <trkpt lat="43.61611" lon="3.06118">
        <ele>424.232635</ele>
        <time>2012-03-05T13:27:08Z</time>
      </trkpt>
      <trkpt lat="43.61604" lon="3.0611">
        <ele>424.771881</ele>
        <time>2012-03-05T13:27:13Z</time>
      </trkpt>
      <trkpt lat="43.61593" lon="3.06097">
        <ele>425.809265</ele>
        <time>2012-03-05T13:27:20Z</time>
      </trkpt>
      <trkpt lat="43.6159" lon="3.06093">
        <ele>426.14386</ele>
        <time>2012-03-05T13:27:22Z</time>
      </trkpt>
      <trkpt lat="43.61583" lon="3.06073">
        <ele>426.681</ele>
        <time>2012-03-05T13:27:29Z</time>
      </trkpt>
      <trkpt lat="43.61579" lon="3.06049">
        <ele>426.413605</ele>
        <time>2012-03-05T13:27:38Z</time>
      </trkpt>
      <trkpt lat="43.61576" lon="3.06035">
        <ele>426.597748</ele>
        <time>2012-03-05T13:27:44Z</time>
      </trkpt>
      <trkpt lat="43.61576" lon="3.06032">
        <ele>426.497803</ele>
        <time>2012-03-05T13:27:45Z</time>
      </trkpt>
      <trkpt lat="43.61576" lon="3.06016">
        <ele>425.953735</ele>
        <time>2012-03-05T13:27:51Z</time>
      </trkpt>
      <trkpt lat="43.61575" lon="3.05998">
        <ele>425.844818</ele>
        <time>2012-03-05T13:27:57Z</time>
      </trkpt>
      <trkpt lat="43.61572" lon="3.05982">
        <ele>427.22876</ele>
        <time>2012-03-05T13:28:03Z</time>
      </trkpt>
      <trkpt lat="43.61567" lon="3.05966">
        <ele>429.821381</ele>
        <time>2012-03-05T13:28:09Z</time>
      </trkpt>
      <trkpt lat="43.61559" lon="3.05949">
        <ele>432.784454</ele>
        <time>2012-03-05T13:28:16Z</time>
      </trkpt>
      <trkpt lat="43.61555" lon="3.0594">
        <ele>434.081848</ele>
        <time>2012-03-05T13:28:20Z</time>
      </trkpt>
      <trkpt lat="43.61553" lon="3.05932">
        <ele>434.421997</ele>
        <time>2012-03-05T13:28:23Z</time>
      </trkpt>
      <trkpt lat="43.61552" lon="3.05927">
        <ele>434.575623</ele>
        <time>2012-03-05T13:28:25Z</time>
      </trkpt>
      <trkpt lat="43.61551" lon="3.05925">
        <ele>434.609375</ele>
        <time>2012-03-05T13:28:26Z</time>
      </trkpt>
      <trkpt lat="43.6155" lon="3.0592">
        <ele>434.741486</ele>
        <time>2012-03-05T13:28:28Z</time>
      </trkpt>
      <trkpt lat="43.61546" lon="3.05911">
        <ele>435.781311</ele>
        <time>2012-03-05T13:28:32Z</time>
      </trkpt>
      <trkpt lat="43.61539" lon="3.05889">
        <ele>436.812439</ele>
        <time>2012-03-05T13:28:40Z</time>
      </trkpt>
      <trkpt lat="43.61538" lon="3.05887">
        <ele>436.826416</ele>
        <time>2012-03-05T13:28:41Z</time>
      </trkpt>
      <trkpt lat="43.61534" lon="3.05873">
        <ele>436.487915</ele>
        <time>2012-03-05T13:28:46Z</time>
      </trkpt>
      <trkpt lat="43.61529" lon="3.05855">
        <ele>436.1875</ele>
        <time>2012-03-05T13:28:52Z</time>
      </trkpt>
      <trkpt lat="43.61526" lon="3.05844">
        <ele>436.275696</ele>
        <time>2012-03-05T13:28:56Z</time>
      </trkpt>
      <trkpt lat="43.61525" lon="3.05842">
        <ele>436.378235</ele>
        <time>2012-03-05T13:28:57Z</time>
      </trkpt>
      <trkpt lat="43.61521" lon="3.05829">
        <ele>436.725067</ele>
        <time>2012-03-05T13:29:01Z</time>
      </trkpt>
      <trkpt lat="43.61516" lon="3.05812">
        <ele>436.609253</ele>
        <time>2012-03-05T13:29:07Z</time>
      </trkpt>
      <trkpt lat="43.61514" lon="3.05812">
        <ele>437.086792</ele>
        <time>2012-03-05T13:29:09Z</time>
      </trkpt>
      <trkpt lat="43.61513" lon="3.05816">
        <ele>438.617432</ele>
        <time>2012-03-05T13:29:13Z</time>
      </trkpt>
      <trkpt lat="43.61513" lon="3.05833">
        <ele>441.313416</ele>
        <time>2012-03-05T13:29:20Z</time>
      </trkpt>
      <trkpt lat="43.61514" lon="3.05839">
        <ele>441.804108</ele>
        <time>2012-03-05T13:29:23Z</time>
      </trkpt>
      <trkpt lat="43.61514" lon="3.05842">
        <ele>441.99292</ele>
        <time>2012-03-05T13:29:24Z</time>
      </trkpt>
      <trkpt lat="43.61515" lon="3.05847">
        <ele>442.4841</ele>
        <time>2012-03-05T13:29:26Z</time>
      </trkpt>
      <trkpt lat="43.61515" lon="3.0585">
        <ele>442.81485</ele>
        <time>2012-03-05T13:29:27Z</time>
      </trkpt>
      <trkpt lat="43.61516" lon="3.05855">
        <ele>443.280548</ele>
        <time>2012-03-05T13:29:29Z</time>
      </trkpt>
      <trkpt lat="43.61517" lon="3.05871">
        <ele>445.245728</ele>
        <time>2012-03-05T13:29:35Z</time>
      </trkpt>
      <trkpt lat="43.61518" lon="3.05886">
        <ele>447.145599</ele>
        <time>2012-03-05T13:29:41Z</time>
      </trkpt>
      <trkpt lat="43.6152" lon="3.05907">
        <ele>449.263092</ele>
        <time>2012-03-05T13:29:48Z</time>
      </trkpt>
      <trkpt lat="43.61521" lon="3.05915">
        <ele>450.003082</ele>
        <time>2012-03-05T13:29:51Z</time>
      </trkpt>
      <trkpt lat="43.61522" lon="3.05926">
        <ele>450.64325</ele>
        <time>2012-03-05T13:29:55Z</time>
      </trkpt>
      <trkpt lat="43.61524" lon="3.05941">
        <ele>451.424011</ele>
        <time>2012-03-05T13:30:00Z</time>
      </trkpt>
      <trkpt lat="43.61524" lon="3.05944">
        <ele>451.626617</ele>
        <time>2012-03-05T13:30:01Z</time>
      </trkpt>
      <trkpt lat="43.61527" lon="3.05962">
        <ele>452.472656</ele>
        <time>2012-03-05T13:30:08Z</time>
      </trkpt>
      <trkpt lat="43.61527" lon="3.05964">
        <ele>452.579254</ele>
        <time>2012-03-05T13:30:09Z</time>
      </trkpt>
      <trkpt lat="43.61529" lon="3.05981">
        <ele>452.622345</ele>
        <time>2012-03-05T13:30:15Z</time>
      </trkpt>
      <trkpt lat="43.6153" lon="3.05988">
        <ele>452.695343</ele>
        <time>2012-03-05T13:30:17Z</time>
      </trkpt>
      <trkpt lat="43.61531" lon="3.05996">
        <ele>452.577637</ele>
        <time>2012-03-05T13:30:20Z</time>
      </trkpt>
      <trkpt lat="43.61531" lon="3.06017">
        <ele>453.581573</ele>
        <time>2012-03-05T13:30:26Z</time>
      </trkpt>
      <trkpt lat="43.61531" lon="3.0602">
        <ele>454.00293</ele>
        <time>2012-03-05T13:30:27Z</time>
      </trkpt>
      <trkpt lat="43.61533" lon="3.06037">
        <ele>453.809875</ele>
        <time>2012-03-05T13:30:32Z</time>
      </trkpt>
      <trkpt lat="43.61534" lon="3.06051">
        <ele>453.972656</ele>
        <time>2012-03-05T13:30:36Z</time>
      </trkpt>
      <trkpt lat="43.61536" lon="3.06072">
        <ele>454.079926</ele>
        <time>2012-03-05T13:30:42Z</time>
      </trkpt>
      <trkpt lat="43.61536" lon="3.06097">
        <ele>456.175293</ele>
        <time>2012-03-05T13:30:49Z</time>
      </trkpt>
      <trkpt lat="43.61539" lon="3.06118">
        <ele>456.814117</ele>
        <time>2012-03-05T13:30:55Z</time>
      </trkpt>
      <trkpt lat="43.61541" lon="3.0613">
        <ele>457.400085</ele>
        <time>2012-03-05T13:30:59Z</time>
      </trkpt>
      <trkpt lat="43.61543" lon="3.06151">
        <ele>459.717224</ele>
        <time>2012-03-05T13:31:06Z</time>
      </trkpt>
      <trkpt lat="43.61544" lon="3.06164">
        <ele>461.563446</ele>
        <time>2012-03-05T13:31:10Z</time>
      </trkpt>
      <trkpt lat="43.6155" lon="3.06191">
        <ele>464.6474</ele>
        <time>2012-03-05T13:31:19Z</time>
      </trkpt>
      <trkpt lat="43.6156" lon="3.06212">
        <ele>466.053192</ele>
        <time>2012-03-05T13:31:27Z</time>
      </trkpt>
      <trkpt lat="43.6157" lon="3.06231">
        <ele>465.159882</ele>
        <time>2012-03-05T13:31:34Z</time>
      </trkpt>
      <trkpt lat="43.61578" lon="3.06252">
        <ele>465.005005</ele>
        <time>2012-03-05T13:31:41Z</time>
      </trkpt>
      <trkpt lat="43.61579" lon="3.06261">
        <ele>465.457489</ele>
        <time>2012-03-05T13:31:44Z</time>
      </trkpt>
      <trkpt lat="43.61578" lon="3.06286">
        <ele>465.795685</ele>
        <time>2012-03-05T13:31:52Z</time>
      </trkpt>
      <trkpt lat="43.61576" lon="3.06292">
        <ele>465.752747</ele>
        <time>2012-03-05T13:31:54Z</time>
      </trkpt>
      <trkpt lat="43.61564" lon="3.06306">
        <ele>466.850006</ele>
        <time>2012-03-05T13:32:01Z</time>
      </trkpt>
      <trkpt lat="43.61549" lon="3.0631">
        <ele>469.370667</ele>
        <time>2012-03-05T13:32:08Z</time>
      </trkpt>
      <trkpt lat="43.61544" lon="3.06311">
        <ele>470.206757</ele>
        <time>2012-03-05T13:32:10Z</time>
      </trkpt>
      <trkpt lat="43.61528" lon="3.06311">
        <ele>473.207703</ele>
        <time>2012-03-05T13:32:17Z</time>
      </trkpt>
      <trkpt lat="43.61522" lon="3.06311">
        <ele>474.259308</ele>
        <time>2012-03-05T13:32:20Z</time>
      </trkpt>
      <trkpt lat="43.61516" lon="3.06311">
        <ele>475.32962</ele>
        <time>2012-03-05T13:32:23Z</time>
      </trkpt>
      <trkpt lat="43.61513" lon="3.06311">
        <ele>475.699005</ele>
        <time>2012-03-05T13:32:24Z</time>
      </trkpt>
      <trkpt lat="43.61498" lon="3.06312">
        <ele>477.972015</ele>
        <time>2012-03-05T13:32:31Z</time>
      </trkpt>
      <trkpt lat="43.61482" lon="3.06314">
        <ele>479.758789</ele>
        <time>2012-03-05T13:32:38Z</time>
      </trkpt>
      <trkpt lat="43.61465" lon="3.06319">
        <ele>481.558746</ele>
        <time>2012-03-05T13:32:46Z</time>
      </trkpt>
      <trkpt lat="43.61451" lon="3.06323">
        <ele>482.659668</ele>
        <time>2012-03-05T13:32:53Z</time>
      </trkpt>
      <trkpt lat="43.61433" lon="3.0633">
        <ele>483.849609</ele>
        <time>2012-03-05T13:33:01Z</time>
      </trkpt>
      <trkpt lat="43.61427" lon="3.06332">
        <ele>484.419281</ele>
        <time>2012-03-05T13:33:04Z</time>
      </trkpt>
      <trkpt lat="43.61408" lon="3.06337">
        <ele>485.679291</ele>
        <time>2012-03-05T13:33:12Z</time>
      </trkpt>
      <trkpt lat="43.61406" lon="3.06338">
        <ele>485.872986</ele>
        <time>2012-03-05T13:33:13Z</time>
      </trkpt>
      <trkpt lat="43.61393" lon="3.0634">
        <ele>487.362762</ele>
        <time>2012-03-05T13:33:19Z</time>
      </trkpt>
      <trkpt lat="43.61386" lon="3.0634">
        <ele>488.53125</ele>
        <time>2012-03-05T13:33:22Z</time>
      </trkpt>
      <trkpt lat="43.61376" lon="3.06343">
        <ele>489.839386</ele>
        <time>2012-03-05T13:33:26Z</time>
      </trkpt>
      <trkpt lat="43.61371" lon="3.06344">
        <ele>490.268433</ele>
        <time>2012-03-05T13:33:28Z</time>
      </trkpt>
      <trkpt lat="43.61358" lon="3.0635">
        <ele>491.415039</ele>
        <time>2012-03-05T13:33:34Z</time>
      </trkpt>
      <trkpt lat="43.61355" lon="3.06351">
        <ele>491.652191</ele>
        <time>2012-03-05T13:33:35Z</time>
      </trkpt>
      <trkpt lat="43.61338" lon="3.06361">
        <ele>492.43631</ele>
        <time>2012-03-05T13:33:43Z</time>
      </trkpt>
      <trkpt lat="43.6132" lon="3.06373">
        <ele>493.11026</ele>
        <time>2012-03-05T13:33:52Z</time>
      </trkpt>
      <trkpt lat="43.61307" lon="3.06381">
        <ele>494.20874</ele>
        <time>2012-03-05T13:33:58Z</time>
      </trkpt>
      <trkpt lat="43.61293" lon="3.06387">
        <ele>495.307495</ele>
        <time>2012-03-05T13:34:04Z</time>
      </trkpt>
      <trkpt lat="43.61291" lon="3.06388">
        <ele>495.453735</ele>
        <time>2012-03-05T13:34:05Z</time>
      </trkpt>
      <trkpt lat="43.6128" lon="3.06391">
        <ele>496.318756</ele>
        <time>2012-03-05T13:34:10Z</time>
      </trkpt>
      <trkpt lat="43.61256" lon="3.06396">
        <ele>498.797302</ele>
        <time>2012-03-05T13:34:20Z</time>
      </trkpt>
      <trkpt lat="43.61237" lon="3.06399">
        <ele>500.639954</ele>
        <time>2012-03-05T13:34:27Z</time>
      </trkpt>
      <trkpt lat="43.61214" lon="3.06402">
        <ele>502.970001</ele>
        <time>2012-03-05T13:34:37Z</time>
      </trkpt>
      <trkpt lat="43.61193" lon="3.06405">
        <ele>503.445343</ele>
        <time>2012-03-05T13:34:45Z</time>
      </trkpt>
      <trkpt lat="43.61179" lon="3.06406">
        <ele>503.788879</ele>
        <time>2012-03-05T13:34:51Z</time>
      </trkpt>
      <trkpt lat="43.61157" lon="3.06408">
        <ele>503.912323</ele>
        <time>2012-03-05T13:35:00Z</time>
      </trkpt>
      <trkpt lat="43.61142" lon="3.06402">
        <ele>504.964447</ele>
        <time>2012-03-05T13:35:06Z</time>
      </trkpt>
      <trkpt lat="43.61139" lon="3.06392">
        <ele>506.590942</ele>
        <time>2012-03-05T13:35:09Z</time>
      </trkpt>
      <trkpt lat="43.61135" lon="3.06371">
        <ele>509.218201</ele>
        <time>2012-03-05T13:35:16Z</time>
      </trkpt>
      <trkpt lat="43.6113" lon="3.06343">
        <ele>511.985474</ele>
        <time>2012-03-05T13:35:25Z</time>
      </trkpt>
      <trkpt lat="43.61126" lon="3.06329">
        <ele>513.003662</ele>
        <time>2012-03-05T13:35:30Z</time>
      </trkpt>
      <trkpt lat="43.61124" lon="3.06306">
        <ele>514.402039</ele>
        <time>2012-03-05T13:35:37Z</time>
      </trkpt>
      <trkpt lat="43.61124" lon="3.06279">
        <ele>516.666138</ele>
        <time>2012-03-05T13:35:45Z</time>
      </trkpt>
      <trkpt lat="43.61125" lon="3.06256">
        <ele>519.241211</ele>
        <time>2012-03-05T13:35:52Z</time>
      </trkpt>
      <trkpt lat="43.61126" lon="3.06229">
        <ele>522.584534</ele>
        <time>2012-03-05T13:36:00Z</time>
      </trkpt>
      <trkpt lat="43.61127" lon="3.062">
        <ele>526.549194</ele>
        <time>2012-03-05T13:36:09Z</time>
      </trkpt>
      <trkpt lat="43.61122" lon="3.06184">
        <ele>528.633484</ele>
        <time>2012-03-05T13:36:15Z</time>
      </trkpt>
      <trkpt lat="43.61115" lon="3.06181">
        <ele>529.321594</ele>
        <time>2012-03-05T13:36:18Z</time>
      </trkpt>
      <trkpt lat="43.61107" lon="3.06185">
        <ele>528.727051</ele>
        <time>2012-03-05T13:36:22Z</time>
      </trkpt>
      <trkpt lat="43.61103" lon="3.06187">
        <ele>528.295349</ele>
        <time>2012-03-05T13:36:24Z</time>
      </trkpt>
      <trkpt lat="43.61086" lon="3.06199">
        <ele>525.927368</ele>
        <time>2012-03-05T13:36:32Z</time>
      </trkpt>
      <trkpt lat="43.61066" lon="3.06208">
        <ele>524.330017</ele>
        <time>2012-03-05T13:36:41Z</time>
      </trkpt>
      <trkpt lat="43.61045" lon="3.06208">
        <ele>525.059998</ele>
        <time>2012-03-05T13:36:49Z</time>
      </trkpt>
      <trkpt lat="43.61043" lon="3.06208">
        <ele>525.255005</ele>
        <time>2012-03-05T13:36:50Z</time>
      </trkpt>
      <trkpt lat="43.61025" lon="3.06203">
        <ele>526.715027</ele>
        <time>2012-03-05T13:36:57Z</time>
      </trkpt>
      <trkpt lat="43.61" lon="3.06195">
        <ele>528.307495</ele>
        <time>2012-03-05T13:37:07Z</time>
      </trkpt>
      <trkpt lat="43.60986" lon="3.06189">
        <ele>529.544983</ele>
        <time>2012-03-05T13:37:13Z</time>
      </trkpt>
      <trkpt lat="43.60978" lon="3.06183">
        <ele>530.55127</ele>
        <time>2012-03-05T13:37:17Z</time>
      </trkpt>
      <trkpt lat="43.60964" lon="3.0617">
        <ele>532.972473</ele>
        <time>2012-03-05T13:37:25Z</time>
      </trkpt>
      <trkpt lat="43.6095" lon="3.06156">
        <ele>535.538757</ele>
        <time>2012-03-05T13:37:32Z</time>
      </trkpt>
      <trkpt lat="43.60934" lon="3.06143">
        <ele>538.094849</ele>
        <time>2012-03-05T13:37:40Z</time>
      </trkpt>
      <trkpt lat="43.60928" lon="3.06139">
        <ele>538.575256</ele>
        <time>2012-03-05T13:37:43Z</time>
      </trkpt>
      <trkpt lat="43.60909" lon="3.06129">
        <ele>539.499634</ele>
        <time>2012-03-05T13:37:52Z</time>
      </trkpt>
      <trkpt lat="43.60887" lon="3.0612">
        <ele>539.891846</ele>
        <time>2012-03-05T13:38:02Z</time>
      </trkpt>
      <trkpt lat="43.60881" lon="3.06103">
        <ele>541.269287</ele>
        <time>2012-03-05T13:38:08Z</time>
      </trkpt>
      <trkpt lat="43.60885" lon="3.06086">
        <ele>542.991333</ele>
        <time>2012-03-05T13:38:14Z</time>
      </trkpt>
      <trkpt lat="43.60891" lon="3.06073">
        <ele>543.914673</ele>
        <time>2012-03-05T13:38:19Z</time>
      </trkpt>
      <trkpt lat="43.60897" lon="3.06053">
        <ele>544.808044</ele>
        <time>2012-03-05T13:38:26Z</time>
      </trkpt>
      <trkpt lat="43.60893" lon="3.06029">
        <ele>545.317688</ele>
        <time>2012-03-05T13:38:33Z</time>
      </trkpt>
      <trkpt lat="43.60891" lon="3.06021">
        <ele>545.454529</ele>
        <time>2012-03-05T13:38:35Z</time>
      </trkpt>
      <trkpt lat="43.60885" lon="3.05999">
        <ele>545.182983</ele>
        <time>2012-03-05T13:38:40Z</time>
      </trkpt>
      <trkpt lat="43.60882" lon="3.05989">
        <ele>544.966736</ele>
        <time>2012-03-05T13:38:42Z</time>
      </trkpt>
      <trkpt lat="43.60881" lon="3.05961">
        <ele>544.999451</ele>
        <time>2012-03-05T13:38:47Z</time>
      </trkpt>
      <trkpt lat="43.60883" lon="3.05957">
        <ele>545.147095</ele>
        <time>2012-03-05T13:38:48Z</time>
      </trkpt>
      <trkpt lat="43.60892" lon="3.05936">
        <ele>545.692993</ele>
        <time>2012-03-05T13:38:55Z</time>
      </trkpt>
      <trkpt lat="43.60895" lon="3.05927">
        <ele>545.910156</ele>
        <time>2012-03-05T13:39:01Z</time>
      </trkpt>
      <trkpt lat="43.60894" lon="3.05928">
        <ele>545.86377</ele>
        <time>2012-03-05T13:39:02Z</time>
      </trkpt>
      <trkpt lat="43.60888" lon="3.05946">
        <ele>545.447632</ele>
        <time>2012-03-05T13:39:08Z</time>
      </trkpt>
      <trkpt lat="43.6088" lon="3.05966">
        <ele>544.843262</ele>
        <time>2012-03-05T13:39:13Z</time>
      </trkpt>
      <trkpt lat="43.60878" lon="3.05967">
        <ele>544.6521</ele>
        <time>2012-03-05T13:39:15Z</time>
      </trkpt>
      <trkpt lat="43.60878" lon="3.05967">
        <ele>544.617493</ele>
        <time>2012-03-05T13:39:34Z</time>
      </trkpt>
      <trkpt lat="43.60879" lon="3.05966">
        <ele>544.688477</ele>
        <time>2012-03-05T13:39:35Z</time>
      </trkpt>
      <trkpt lat="43.60879" lon="3.05966">
        <ele>544.759705</ele>
        <time>2012-03-05T13:39:36Z</time>
      </trkpt>
      <trkpt lat="43.6088" lon="3.05966">
        <ele>544.878601</ele>
        <time>2012-03-05T13:39:39Z</time>
      </trkpt>
      <trkpt lat="43.60883" lon="3.05958">
        <ele>545.236389</ele>
        <time>2012-03-05T13:39:40Z</time>
      </trkpt>
      <trkpt lat="43.60886" lon="3.05952">
        <ele>545.33667</ele>
        <time>2012-03-05T13:39:42Z</time>
      </trkpt>
      <trkpt lat="43.60895" lon="3.05925">
        <ele>545.968018</ele>
        <time>2012-03-05T13:39:49Z</time>
      </trkpt>
      <trkpt lat="43.60906" lon="3.05893">
        <ele>546.68158</ele>
        <time>2012-03-05T13:39:57Z</time>
      </trkpt>
      <trkpt lat="43.60915" lon="3.05859">
        <ele>547.807617</ele>
        <time>2012-03-05T13:40:05Z</time>
      </trkpt>
      <trkpt lat="43.60916" lon="3.05833">
        <ele>548.13092</ele>
        <time>2012-03-05T13:40:10Z</time>
      </trkpt>
      <trkpt lat="43.60909" lon="3.05807">
        <ele>547.978088</ele>
        <time>2012-03-05T13:40:15Z</time>
      </trkpt>
      <trkpt lat="43.60907" lon="3.0578">
        <ele>548.481506</ele>
        <time>2012-03-05T13:40:20Z</time>
      </trkpt>
      <trkpt lat="43.60913" lon="3.05744">
        <ele>549.857483</ele>
        <time>2012-03-05T13:40:28Z</time>
      </trkpt>
      <trkpt lat="43.60923" lon="3.05695">
        <ele>551.296265</ele>
        <time>2012-03-05T13:40:39Z</time>
      </trkpt>
      <trkpt lat="43.60924" lon="3.05676">
        <ele>551.316711</ele>
        <time>2012-03-05T13:40:44Z</time>
      </trkpt>
      <trkpt lat="43.60932" lon="3.05659">
        <ele>552.134399</ele>
        <time>2012-03-05T13:40:49Z</time>
      </trkpt>
      <trkpt lat="43.60939" lon="3.05654">
        <ele>553.052185</ele>
        <time>2012-03-05T13:40:52Z</time>
      </trkpt>
      <trkpt lat="43.60954" lon="3.05643">
        <ele>554.872864</ele>
        <time>2012-03-05T13:40:57Z</time>
      </trkpt>
      <trkpt lat="43.6097" lon="3.05627">
        <ele>556.996094</ele>
        <time>2012-03-05T13:41:03Z</time>
      </trkpt>
      <trkpt lat="43.60986" lon="3.05604">
        <ele>559.224915</ele>
        <time>2012-03-05T13:41:09Z</time>
      </trkpt>
      <trkpt lat="43.61004" lon="3.05568">
        <ele>560.786987</ele>
        <time>2012-03-05T13:41:17Z</time>
      </trkpt>
      <trkpt lat="43.61025" lon="3.0553">
        <ele>562.229187</ele>
        <time>2012-03-05T13:41:26Z</time>
      </trkpt>
      <trkpt lat="43.61043" lon="3.05495">
        <ele>562.523987</ele>
        <time>2012-03-05T13:41:34Z</time>
      </trkpt>
      <trkpt lat="43.61058" lon="3.05464">
        <ele>562.669983</ele>
        <time>2012-03-05T13:41:42Z</time>
      </trkpt>
      <trkpt lat="43.61066" lon="3.05444">
        <ele>563.840027</ele>
        <time>2012-03-05T13:41:47Z</time>
      </trkpt>
      <trkpt lat="43.61082" lon="3.05408">
        <ele>565.835022</ele>
        <time>2012-03-05T13:41:56Z</time>
      </trkpt>
      <trkpt lat="43.61083" lon="3.05405">
        <ele>565.997314</ele>
        <time>2012-03-05T13:41:57Z</time>
      </trkpt>
      <trkpt lat="43.61093" lon="3.05377">
        <ele>566.156616</ele>
        <time>2012-03-05T13:42:05Z</time>
      </trkpt>
      <trkpt lat="43.611" lon="3.05354">
        <ele>566.825012</ele>
        <time>2012-03-05T13:42:12Z</time>
      </trkpt>
      <trkpt lat="43.61107" lon="3.05335">
        <ele>568.048828</ele>
        <time>2012-03-05T13:42:18Z</time>
      </trkpt>
      <trkpt lat="43.61114" lon="3.05312">
        <ele>570.170227</ele>
        <time>2012-03-05T13:42:26Z</time>
      </trkpt>
      <trkpt lat="43.61123" lon="3.0529">
        <ele>572.090515</ele>
        <time>2012-03-05T13:42:34Z</time>
      </trkpt>
      <trkpt lat="43.61135" lon="3.05277">
        <ele>573.563721</ele>
        <time>2012-03-05T13:42:41Z</time>
      </trkpt>
      <trkpt lat="43.61145" lon="3.05267">
        <ele>574.813049</ele>
        <time>2012-03-05T13:42:47Z</time>
      </trkpt>
      <trkpt lat="43.61157" lon="3.05249">
        <ele>576.326721</ele>
        <time>2012-03-05T13:42:54Z</time>
      </trkpt>
      <trkpt lat="43.61162" lon="3.05229">
        <ele>577.653076</ele>
        <time>2012-03-05T13:43:00Z</time>
      </trkpt>
      <trkpt lat="43.61162" lon="3.05203">
        <ele>578.787476</ele>
        <time>2012-03-05T13:43:07Z</time>
      </trkpt>
      <trkpt lat="43.61162" lon="3.05188">
        <ele>579.265015</ele>
        <time>2012-03-05T13:43:11Z</time>
      </trkpt>
      <trkpt lat="43.61159" lon="3.05148">
        <ele>580.83551</ele>
        <time>2012-03-05T13:43:22Z</time>
      </trkpt>
      <trkpt lat="43.61153" lon="3.05131">
        <ele>581.919067</ele>
        <time>2012-03-05T13:43:27Z</time>
      </trkpt>
      <trkpt lat="43.61145" lon="3.05116">
        <ele>583.072693</ele>
        <time>2012-03-05T13:43:33Z</time>
      </trkpt>
      <trkpt lat="43.6114" lon="3.05102">
        <ele>584.087585</ele>
        <time>2012-03-05T13:43:38Z</time>
      </trkpt>
      <trkpt lat="43.61134" lon="3.05092">
        <ele>585.150085</ele>
        <time>2012-03-05T13:43:43Z</time>
      </trkpt>
      <trkpt lat="43.61128" lon="3.05079">
        <ele>586.753418</ele>
        <time>2012-03-05T13:43:49Z</time>
      </trkpt>
      <trkpt lat="43.6112" lon="3.05071">
        <ele>587.350098</ele>
        <time>2012-03-05T13:43:53Z</time>
      </trkpt>
      <trkpt lat="43.61116" lon="3.05068">
        <ele>587.649963</ele>
        <time>2012-03-05T13:43:55Z</time>
      </trkpt>
      <trkpt lat="43.61103" lon="3.05058">
        <ele>588.590881</ele>
        <time>2012-03-05T13:44:01Z</time>
      </trkpt>
      <trkpt lat="43.61088" lon="3.05044">
        <ele>590.254333</ele>
        <time>2012-03-05T13:44:09Z</time>
      </trkpt>
      <trkpt lat="43.61077" lon="3.05033">
        <ele>592.097717</ele>
        <time>2012-03-05T13:44:15Z</time>
      </trkpt>
      <trkpt lat="43.61069" lon="3.05016">
        <ele>594.845215</ele>
        <time>2012-03-05T13:44:22Z</time>
      </trkpt>
      <trkpt lat="43.61068" lon="3.05005">
        <ele>596.496399</ele>
        <time>2012-03-05T13:44:26Z</time>
      </trkpt>
      <trkpt lat="43.61071" lon="3.05002">
        <ele>597.026733</ele>
        <time>2012-03-05T13:44:29Z</time>
      </trkpt>
      <trkpt lat="43.61075" lon="3.04999">
        <ele>597.64801</ele>
        <time>2012-03-05T13:44:35Z</time>
      </trkpt>
      <trkpt lat="43.6107" lon="3.04998">
        <ele>597.575562</ele>
        <time>2012-03-05T13:44:39Z</time>
      </trkpt>
      <trkpt lat="43.61072" lon="3.04991">
        <ele>598.763794</ele>
        <time>2012-03-05T13:44:43Z</time>
      </trkpt>
      <trkpt lat="43.61073" lon="3.04991">
        <ele>598.82959</ele>
        <time>2012-03-05T13:44:44Z</time>
      </trkpt>
      <trkpt lat="43.61084" lon="3.04993">
        <ele>598.940796</ele>
        <time>2012-03-05T13:44:50Z</time>
      </trkpt>
      <trkpt lat="43.61092" lon="3.04994">
        <ele>598.789063</ele>
        <time>2012-03-05T13:44:54Z</time>
      </trkpt>
      <trkpt lat="43.61112" lon="3.04989">
        <ele>599.262695</ele>
        <time>2012-03-05T13:45:02Z</time>
      </trkpt>
      <trkpt lat="43.61129" lon="3.04982">
        <ele>600.253784</ele>
        <time>2012-03-05T13:45:09Z</time>
      </trkpt>
      <trkpt lat="43.61132" lon="3.04981">
        <ele>600.348145</ele>
        <time>2012-03-05T13:45:10Z</time>
      </trkpt>
      <trkpt lat="43.61146" lon="3.04966">
        <ele>601.66864</ele>
        <time>2012-03-05T13:45:17Z</time>
      </trkpt>
      <trkpt lat="43.61144" lon="3.04953">
        <ele>604.488586</ele>
        <time>2012-03-05T13:45:21Z</time>
      </trkpt>
      <trkpt lat="43.6113" lon="3.04943">
        <ele>607.948364</ele>
        <time>2012-03-05T13:45:27Z</time>
      </trkpt>
      <trkpt lat="43.61111" lon="3.04934">
        <ele>609.664612</ele>
        <time>2012-03-05T13:45:35Z</time>
      </trkpt>
      <trkpt lat="43.61104" lon="3.04929">
        <ele>610.505981</ele>
        <time>2012-03-05T13:45:38Z</time>
      </trkpt>
      <trkpt lat="43.61094" lon="3.04913">
        <ele>613.451416</ele>
        <time>2012-03-05T13:45:45Z</time>
      </trkpt>
      <trkpt lat="43.61087" lon="3.049">
        <ele>615.86676</ele>
        <time>2012-03-05T13:45:51Z</time>
      </trkpt>
      <trkpt lat="43.61079" lon="3.04887">
        <ele>617.604675</ele>
        <time>2012-03-05T13:45:57Z</time>
      </trkpt>
      <trkpt lat="43.61072" lon="3.04873">
        <ele>619.507141</ele>
        <time>2012-03-05T13:46:03Z</time>
      </trkpt>
      <trkpt lat="43.61067" lon="3.04865">
        <ele>620.406982</ele>
        <time>2012-03-05T13:46:07Z</time>
      </trkpt>
      <trkpt lat="43.61063" lon="3.04859">
        <ele>620.927673</ele>
        <time>2012-03-05T13:46:10Z</time>
      </trkpt>
      <trkpt lat="43.6106" lon="3.04852">
        <ele>621.730103</ele>
        <time>2012-03-05T13:46:13Z</time>
      </trkpt>
      <trkpt lat="43.61058" lon="3.04849">
        <ele>622.012512</ele>
        <time>2012-03-05T13:46:15Z</time>
      </trkpt>
      <trkpt lat="43.61049" lon="3.04838">
        <ele>623.419983</ele>
        <time>2012-03-05T13:46:21Z</time>
      </trkpt>
      <trkpt lat="43.61042" lon="3.04828">
        <ele>624.989258</ele>
        <time>2012-03-05T13:46:27Z</time>
      </trkpt>
      <trkpt lat="43.61042" lon="3.04827">
        <ele>625.376221</ele>
        <time>2012-03-05T13:46:28Z</time>
      </trkpt>
      <trkpt lat="43.61044" lon="3.04823">
        <ele>626.760559</ele>
        <time>2012-03-05T13:46:31Z</time>
      </trkpt>
      <trkpt lat="43.61051" lon="3.04822">
        <ele>628.078003</ele>
        <time>2012-03-05T13:46:36Z</time>
      </trkpt>
      <trkpt lat="43.61062" lon="3.04819">
        <ele>630.510437</ele>
        <time>2012-03-05T13:46:43Z</time>
      </trkpt>
      <trkpt lat="43.61074" lon="3.04816">
        <ele>632.976563</ele>
        <time>2012-03-05T13:46:50Z</time>
      </trkpt>
      <trkpt lat="43.61084" lon="3.04816">
        <ele>634.558411</ele>
        <time>2012-03-05T13:46:56Z</time>
      </trkpt>
      <trkpt lat="43.61095" lon="3.04821">
        <ele>633.984619</ele>
        <time>2012-03-05T13:47:02Z</time>
      </trkpt>
      <trkpt lat="43.61098" lon="3.04823">
        <ele>633.579895</ele>
        <time>2012-03-05T13:47:04Z</time>
      </trkpt>
      <trkpt lat="43.61114" lon="3.04827">
        <ele>633.213379</ele>
        <time>2012-03-05T13:47:11Z</time>
      </trkpt>
      <trkpt lat="43.61129" lon="3.04828">
        <ele>633.427185</ele>
        <time>2012-03-05T13:47:18Z</time>
      </trkpt>
      <trkpt lat="43.61137" lon="3.04825">
        <ele>633.755981</ele>
        <time>2012-03-05T13:47:23Z</time>
      </trkpt>
      <trkpt lat="43.61151" lon="3.04817">
        <ele>634.59552</ele>
        <time>2012-03-05T13:47:31Z</time>
      </trkpt>
      <trkpt lat="43.61168" lon="3.04805">
        <ele>635.79248</ele>
        <time>2012-03-05T13:47:41Z</time>
      </trkpt>
      <trkpt lat="43.6117" lon="3.04804">
        <ele>635.94574</ele>
        <time>2012-03-05T13:47:42Z</time>
      </trkpt>
      <trkpt lat="43.6117" lon="3.04795">
        <ele>638.202698</ele>
        <time>2012-03-05T13:47:47Z</time>
      </trkpt>
      <trkpt lat="43.61165" lon="3.04796">
        <ele>638.424377</ele>
        <time>2012-03-05T13:47:50Z</time>
      </trkpt>
      <trkpt lat="43.61144" lon="3.048">
        <ele>639.407898</ele>
        <time>2012-03-05T13:48:00Z</time>
      </trkpt>
      <trkpt lat="43.61128" lon="3.04794">
        <ele>641.687073</ele>
        <time>2012-03-05T13:48:08Z</time>
      </trkpt>
      <trkpt lat="43.6112" lon="3.04779">
        <ele>645.429321</ele>
        <time>2012-03-05T13:48:15Z</time>
      </trkpt>
      <trkpt lat="43.61113" lon="3.04769">
        <ele>647.959595</ele>
        <time>2012-03-05T13:48:21Z</time>
      </trkpt>
      <trkpt lat="43.61104" lon="3.04763">
        <ele>649.478638</ele>
        <time>2012-03-05T13:48:27Z</time>
      </trkpt>
      <trkpt lat="43.61093" lon="3.04757">
        <ele>651.046997</ele>
        <time>2012-03-05T13:48:34Z</time>
      </trkpt>
      <trkpt lat="43.61085" lon="3.04752">
        <ele>652.404114</ele>
        <time>2012-03-05T13:48:40Z</time>
      </trkpt>
      <trkpt lat="43.61074" lon="3.04744">
        <ele>653.417969</ele>
        <time>2012-03-05T13:48:47Z</time>
      </trkpt>
      <trkpt lat="43.61059" lon="3.04743">
        <ele>652.350769</ele>
        <time>2012-03-05T13:48:53Z</time>
      </trkpt>
      <trkpt lat="43.6105" lon="3.04737">
        <ele>653.106812</ele>
        <time>2012-03-05T13:48:58Z</time>
      </trkpt>
      <trkpt lat="43.61044" lon="3.04734">
        <ele>653.408081</ele>
        <time>2012-03-05T13:49:01Z</time>
      </trkpt>
      <trkpt lat="43.61036" lon="3.0473">
        <ele>653.206787</ele>
        <time>2012-03-05T13:49:06Z</time>
      </trkpt>
      <trkpt lat="43.61021" lon="3.04724">
        <ele>652.193604</ele>
        <time>2012-03-05T13:49:13Z</time>
      </trkpt>
      <trkpt lat="43.61007" lon="3.04711">
        <ele>653.156189</ele>
        <time>2012-03-05T13:49:21Z</time>
      </trkpt>
      <trkpt lat="43.60997" lon="3.04701">
        <ele>654.127319</ele>
        <time>2012-03-05T13:49:27Z</time>
      </trkpt>
      <trkpt lat="43.60986" lon="3.04689">
        <ele>654.776367</ele>
        <time>2012-03-05T13:49:33Z</time>
      </trkpt>
      <trkpt lat="43.60975" lon="3.04677">
        <ele>654.802856</ele>
        <time>2012-03-05T13:49:40Z</time>
      </trkpt>
      <trkpt lat="43.60969" lon="3.04668">
        <ele>655.627808</ele>
        <time>2012-03-05T13:49:45Z</time>
      </trkpt>
      <trkpt lat="43.60965" lon="3.04656">
        <ele>657.484009</ele>
        <time>2012-03-05T13:49:51Z</time>
      </trkpt>
      <trkpt lat="43.60959" lon="3.04642">
        <ele>658.481934</ele>
        <time>2012-03-05T13:49:58Z</time>
      </trkpt>
      <trkpt lat="43.60955" lon="3.04633">
        <ele>659.261597</ele>
        <time>2012-03-05T13:50:02Z</time>
      </trkpt>
      <trkpt lat="43.60951" lon="3.04624">
        <ele>659.89624</ele>
        <time>2012-03-05T13:50:06Z</time>
      </trkpt>
      <trkpt lat="43.60946" lon="3.04606">
        <ele>662.056274</ele>
        <time>2012-03-05T13:50:13Z</time>
      </trkpt>
      <trkpt lat="43.60939" lon="3.04592">
        <ele>662.920959</ele>
        <time>2012-03-05T13:50:19Z</time>
      </trkpt>
      <trkpt lat="43.60934" lon="3.04576">
        <ele>664.572327</ele>
        <time>2012-03-05T13:50:25Z</time>
      </trkpt>
      <trkpt lat="43.60931" lon="3.04561">
        <ele>666.127686</ele>
        <time>2012-03-05T13:50:30Z</time>
      </trkpt>
      <trkpt lat="43.60926" lon="3.04546">
        <ele>667.303833</ele>
        <time>2012-03-05T13:50:35Z</time>
      </trkpt>
      <trkpt lat="43.60921" lon="3.04537">
        <ele>667.044739</ele>
        <time>2012-03-05T13:50:39Z</time>
      </trkpt>
      <trkpt lat="43.6091" lon="3.04516">
        <ele>664.37616</ele>
        <time>2012-03-05T13:50:45Z</time>
      </trkpt>
      <trkpt lat="43.60905" lon="3.04502">
        <ele>664.355652</ele>
        <time>2012-03-05T13:50:48Z</time>
      </trkpt>
      <trkpt lat="43.60899" lon="3.04468">
        <ele>665.602478</ele>
        <time>2012-03-05T13:50:56Z</time>
      </trkpt>
      <trkpt lat="43.60898" lon="3.0444">
        <ele>666.227478</ele>
        <time>2012-03-05T13:51:03Z</time>
      </trkpt>
      <trkpt lat="43.609" lon="3.04419">
        <ele>667.532471</ele>
        <time>2012-03-05T13:51:09Z</time>
      </trkpt>
      <trkpt lat="43.60903" lon="3.04398">
        <ele>668.389587</ele>
        <time>2012-03-05T13:51:14Z</time>
      </trkpt>
      <trkpt lat="43.60908" lon="3.04377">
        <ele>669.57959</ele>
        <time>2012-03-05T13:51:19Z</time>
      </trkpt>
      <trkpt lat="43.60921" lon="3.04356">
        <ele>672.181091</ele>
        <time>2012-03-05T13:51:26Z</time>
      </trkpt>
      <trkpt lat="43.60931" lon="3.04344">
        <ele>673.8927</ele>
        <time>2012-03-05T13:51:31Z</time>
      </trkpt>
      <trkpt lat="43.60933" lon="3.04342">
        <ele>674.123291</ele>
        <time>2012-03-05T13:51:32Z</time>
      </trkpt>
      <trkpt lat="43.60952" lon="3.04326">
        <ele>676.174927</ele>
        <time>2012-03-05T13:51:40Z</time>
      </trkpt>
      <trkpt lat="43.60972" lon="3.04309">
        <ele>676.58429</ele>
        <time>2012-03-05T13:51:48Z</time>
      </trkpt>
      <trkpt lat="43.60986" lon="3.04296">
        <ele>676.548035</ele>
        <time>2012-03-05T13:51:54Z</time>
      </trkpt>
      <trkpt lat="43.61011" lon="3.04264">
        <ele>674.339661</ele>
        <time>2012-03-05T13:52:03Z</time>
      </trkpt>
      <trkpt lat="43.61026" lon="3.04251">
        <ele>673.493774</ele>
        <time>2012-03-05T13:52:09Z</time>
      </trkpt>
      <trkpt lat="43.61032" lon="3.04249">
        <ele>673.730774</ele>
        <time>2012-03-05T13:52:11Z</time>
      </trkpt>
      <trkpt lat="43.61034" lon="3.0424">
        <ele>672.420227</ele>
        <time>2012-03-05T13:52:15Z</time>
      </trkpt>
      <trkpt lat="43.61028" lon="3.04229">
        <ele>670.144226</ele>
        <time>2012-03-05T13:52:19Z</time>
      </trkpt>
      <trkpt lat="43.61018" lon="3.04226">
        <ele>668.956421</ele>
        <time>2012-03-05T13:52:23Z</time>
      </trkpt>
      <trkpt lat="43.61013" lon="3.04223">
        <ele>667.972046</ele>
        <time>2012-03-05T13:52:25Z</time>
      </trkpt>
      <trkpt lat="43.60994" lon="3.0421">
        <ele>664.811707</ele>
        <time>2012-03-05T13:52:31Z</time>
      </trkpt>
      <trkpt lat="43.60981" lon="3.042">
        <ele>663.233704</ele>
        <time>2012-03-05T13:52:34Z</time>
      </trkpt>
      <trkpt lat="43.60963" lon="3.04185">
        <ele>660.943909</ele>
        <time>2012-03-05T13:52:38Z</time>
      </trkpt>
      <trkpt lat="43.60947" lon="3.04175">
        <ele>659.150879</ele>
        <time>2012-03-05T13:52:41Z</time>
      </trkpt>
      <trkpt lat="43.60921" lon="3.04166">
        <ele>656.624756</ele>
        <time>2012-03-05T13:52:47Z</time>
      </trkpt>
      <trkpt lat="43.60913" lon="3.04164">
        <ele>655.94751</ele>
        <time>2012-03-05T13:52:51Z</time>
      </trkpt>
      <trkpt lat="43.60913" lon="3.04155">
        <ele>654.067505</ele>
        <time>2012-03-05T13:52:55Z</time>
      </trkpt>
      <trkpt lat="43.60915" lon="3.04153">
        <ele>653.590027</ele>
        <time>2012-03-05T13:52:56Z</time>
      </trkpt>
      <trkpt lat="43.60914" lon="3.0414">
        <ele>650.640015</ele>
        <time>2012-03-05T13:53:00Z</time>
      </trkpt>
      <trkpt lat="43.60907" lon="3.04137">
        <ele>649.637939</ele>
        <time>2012-03-05T13:53:02Z</time>
      </trkpt>
      <trkpt lat="43.60889" lon="3.04132">
        <ele>647.572327</ele>
        <time>2012-03-05T13:53:06Z</time>
      </trkpt>
      <trkpt lat="43.60872" lon="3.04125">
        <ele>645.222534</ele>
        <time>2012-03-05T13:53:10Z</time>
      </trkpt>
      <trkpt lat="43.60865" lon="3.04119">
        <ele>643.3396</ele>
        <time>2012-03-05T13:53:12Z</time>
      </trkpt>
      <trkpt lat="43.60862" lon="3.04117">
        <ele>642.524353</ele>
        <time>2012-03-05T13:53:13Z</time>
      </trkpt>
      <trkpt lat="43.6085" lon="3.04114">
        <ele>640.134705</ele>
        <time>2012-03-05T13:53:17Z</time>
      </trkpt>
      <trkpt lat="43.6085" lon="3.04104">
        <ele>637.740723</ele>
        <time>2012-03-05T13:53:20Z</time>
      </trkpt>
      <trkpt lat="43.60846" lon="3.04096">
        <ele>635.507446</ele>
        <time>2012-03-05T13:53:23Z</time>
      </trkpt>
      <trkpt lat="43.6084" lon="3.04092">
        <ele>633.745911</ele>
        <time>2012-03-05T13:53:26Z</time>
      </trkpt>
      <trkpt lat="43.60833" lon="3.04089">
        <ele>631.826355</ele>
        <time>2012-03-05T13:53:30Z</time>
      </trkpt>
      <trkpt lat="43.60827" lon="3.04086">
        <ele>630.141235</ele>
        <time>2012-03-05T13:53:33Z</time>
      </trkpt>
      <trkpt lat="43.60826" lon="3.04074">
        <ele>627.220093</ele>
        <time>2012-03-05T13:53:38Z</time>
      </trkpt>
      <trkpt lat="43.60826" lon="3.04074">
        <ele>627.151184</ele>
        <time>2012-03-05T13:53:40Z</time>
      </trkpt>
      <trkpt lat="43.60825" lon="3.04074">
        <ele>627.100159</ele>
        <time>2012-03-05T13:53:44Z</time>
      </trkpt>
      <trkpt lat="43.60825" lon="3.04075">
        <ele>627.171753</ele>
        <time>2012-03-05T13:53:45Z</time>
      </trkpt>
      <trkpt lat="43.60825" lon="3.04074">
        <ele>626.822815</ele>
        <time>2012-03-05T13:54:21Z</time>
      </trkpt>
      <trkpt lat="43.60817" lon="3.04059">
        <ele>621.807861</ele>
        <time>2012-03-05T13:54:25Z</time>
      </trkpt>
      <trkpt lat="43.6081" lon="3.04052">
        <ele>618.537903</ele>
        <time>2012-03-05T13:54:28Z</time>
      </trkpt>
      <trkpt lat="43.60814" lon="3.04047">
        <ele>618.260071</ele>
        <time>2012-03-05T13:54:30Z</time>
      </trkpt>
      <trkpt lat="43.60823" lon="3.04042">
        <ele>618.866333</ele>
        <time>2012-03-05T13:54:35Z</time>
      </trkpt>
      <trkpt lat="43.60829" lon="3.0404">
        <ele>619.706787</ele>
        <time>2012-03-05T13:54:39Z</time>
      </trkpt>
      <trkpt lat="43.60829" lon="3.04039">
        <ele>619.566711</ele>
        <time>2012-03-05T13:54:40Z</time>
      </trkpt>
      <trkpt lat="43.60829" lon="3.04037">
        <ele>619.83429</ele>
        <time>2012-03-05T13:54:48Z</time>
      </trkpt>
      <trkpt lat="43.60832" lon="3.04036">
        <ele>620.568848</ele>
        <time>2012-03-05T13:54:50Z</time>
      </trkpt>
      <trkpt lat="43.60833" lon="3.04035">
        <ele>620.83197</ele>
        <time>2012-03-05T13:54:51Z</time>
      </trkpt>
      <trkpt lat="43.60848" lon="3.04029">
        <ele>624.705688</ele>
        <time>2012-03-05T13:55:00Z</time>
      </trkpt>
      <trkpt lat="43.60853" lon="3.04028">
        <ele>625.957825</ele>
        <time>2012-03-05T13:55:06Z</time>
      </trkpt>
      <trkpt lat="43.60854" lon="3.0403">
        <ele>626.075989</ele>
        <time>2012-03-05T13:55:14Z</time>
      </trkpt>
      <trkpt lat="43.60861" lon="3.04023">
        <ele>628.070251</ele>
        <time>2012-03-05T13:55:17Z</time>
      </trkpt>
      <trkpt lat="43.6086" lon="3.04019">
        <ele>628.225647</ele>
        <time>2012-03-05T13:55:18Z</time>
      </trkpt>
      <trkpt lat="43.60853" lon="3.04011">
        <ele>627.375793</ele>
        <time>2012-03-05T13:55:21Z</time>
      </trkpt>
      <trkpt lat="43.60845" lon="3.04005">
        <ele>626.434326</ele>
        <time>2012-03-05T13:55:24Z</time>
      </trkpt>
      <trkpt lat="43.6083" lon="3.03996">
        <ele>624.484619</ele>
        <time>2012-03-05T13:55:29Z</time>
      </trkpt>
      <trkpt lat="43.60819" lon="3.03983">
        <ele>623.920959</ele>
        <time>2012-03-05T13:55:34Z</time>
      </trkpt>
      <trkpt lat="43.60805" lon="3.03962">
        <ele>625.545532</ele>
        <time>2012-03-05T13:55:41Z</time>
      </trkpt>
      <trkpt lat="43.60792" lon="3.0395">
        <ele>626.443298</ele>
        <time>2012-03-05T13:55:46Z</time>
      </trkpt>
      <trkpt lat="43.60774" lon="3.03942">
        <ele>626.166138</ele>
        <time>2012-03-05T13:55:53Z</time>
      </trkpt>
      <trkpt lat="43.60759" lon="3.03941">
        <ele>625.83374</ele>
        <time>2012-03-05T13:55:59Z</time>
      </trkpt>
      <trkpt lat="43.60742" lon="3.03938">
        <ele>625.775269</ele>
        <time>2012-03-05T13:56:06Z</time>
      </trkpt>
      <trkpt lat="43.60734" lon="3.0394">
        <ele>624.875427</ele>
        <time>2012-03-05T13:56:10Z</time>
      </trkpt>
      <trkpt lat="43.60718" lon="3.03942">
        <ele>623.284973</ele>
        <time>2012-03-05T13:56:16Z</time>
      </trkpt>
      <trkpt lat="43.607" lon="3.03937">
        <ele>624.155029</ele>
        <time>2012-03-05T13:56:22Z</time>
      </trkpt>
      <trkpt lat="43.60673" lon="3.03932">
        <ele>622.984497</ele>
        <time>2012-03-05T13:56:29Z</time>
      </trkpt>
      <trkpt lat="43.60655" lon="3.03921">
        <ele>623.42627</ele>
        <time>2012-03-05T13:56:35Z</time>
      </trkpt>
      <trkpt lat="43.60652" lon="3.03919">
        <ele>623.626892</ele>
        <time>2012-03-05T13:56:36Z</time>
      </trkpt>
      <trkpt lat="43.60651" lon="3.03907">
        <ele>627.205017</ele>
        <time>2012-03-05T13:56:40Z</time>
      </trkpt>
      <trkpt lat="43.60658" lon="3.03903">
        <ele>629.307495</ele>
        <time>2012-03-05T13:56:45Z</time>
      </trkpt>
      <trkpt lat="43.60662" lon="3.03904">
        <ele>629.767517</ele>
        <time>2012-03-05T13:56:47Z</time>
      </trkpt>
      <trkpt lat="43.60679" lon="3.03901">
        <ele>633.284973</ele>
        <time>2012-03-05T13:56:56Z</time>
      </trkpt>
      <trkpt lat="43.60693" lon="3.03898">
        <ele>636.002197</ele>
        <time>2012-03-05T13:57:03Z</time>
      </trkpt>
      <trkpt lat="43.60702" lon="3.03896">
        <ele>637.044373</ele>
        <time>2012-03-05T13:57:08Z</time>
      </trkpt>
      <trkpt lat="43.60714" lon="3.03892">
        <ele>638.97583</ele>
        <time>2012-03-05T13:57:14Z</time>
      </trkpt>
      <trkpt lat="43.60727" lon="3.03885">
        <ele>641.595398</ele>
        <time>2012-03-05T13:57:21Z</time>
      </trkpt>
      <trkpt lat="43.60738" lon="3.0388">
        <ele>643.640015</ele>
        <time>2012-03-05T13:57:27Z</time>
      </trkpt>
      <trkpt lat="43.60755" lon="3.03876">
        <ele>644.851257</ele>
        <time>2012-03-05T13:57:35Z</time>
      </trkpt>
      <trkpt lat="43.60773" lon="3.03873">
        <ele>646.0625</ele>
        <time>2012-03-05T13:57:43Z</time>
      </trkpt>
      <trkpt lat="43.60788" lon="3.03868">
        <ele>648.136841</ele>
        <time>2012-03-05T13:57:49Z</time>
      </trkpt>
      <trkpt lat="43.6081" lon="3.03861">
        <ele>651.278259</ele>
        <time>2012-03-05T13:57:56Z</time>
      </trkpt>
      <trkpt lat="43.60815" lon="3.03862">
        <ele>651.294128</ele>
        <time>2012-03-05T13:57:58Z</time>
      </trkpt>
      <trkpt lat="43.6083" lon="3.03864">
        <ele>652.642456</ele>
        <time>2012-03-05T13:58:06Z</time>
      </trkpt>
      <trkpt lat="43.60841" lon="3.03865">
        <ele>654.289734</ele>
        <time>2012-03-05T13:58:13Z</time>
      </trkpt>
      <trkpt lat="43.60842" lon="3.03865">
        <ele>654.594543</ele>
        <time>2012-03-05T13:58:14Z</time>
      </trkpt>
      <trkpt lat="43.60851" lon="3.03867">
        <ele>655.750732</ele>
        <time>2012-03-05T13:58:21Z</time>
      </trkpt>
      <trkpt lat="43.60859" lon="3.03871">
        <ele>656.389343</ele>
        <time>2012-03-05T13:58:27Z</time>
      </trkpt>
      <trkpt lat="43.60869" lon="3.03872">
        <ele>657.938538</ele>
        <time>2012-03-05T13:58:33Z</time>
      </trkpt>
      <trkpt lat="43.60871" lon="3.03872">
        <ele>658.096436</ele>
        <time>2012-03-05T13:58:34Z</time>
      </trkpt>
      <trkpt lat="43.60875" lon="3.03872">
        <ele>658.496887</ele>
        <time>2012-03-05T13:58:36Z</time>
      </trkpt>
      <trkpt lat="43.6088" lon="3.03864">
        <ele>661.141968</ele>
        <time>2012-03-05T13:58:42Z</time>
      </trkpt>
      <trkpt lat="43.60876" lon="3.03859">
        <ele>661.865601</ele>
        <time>2012-03-05T13:58:46Z</time>
      </trkpt>
      <trkpt lat="43.60874" lon="3.03858">
        <ele>662.004578</ele>
        <time>2012-03-05T13:58:48Z</time>
      </trkpt>
      <trkpt lat="43.60868" lon="3.0385">
        <ele>663.372498</ele>
        <time>2012-03-05T13:58:54Z</time>
      </trkpt>
      <trkpt lat="43.60867" lon="3.03848">
        <ele>663.537292</ele>
        <time>2012-03-05T13:58:55Z</time>
      </trkpt>
      <trkpt lat="43.60863" lon="3.03836">
        <ele>666.563232</ele>
        <time>2012-03-05T13:59:02Z</time>
      </trkpt>
      <trkpt lat="43.6086" lon="3.03827">
        <ele>668.689453</ele>
        <time>2012-03-05T13:59:07Z</time>
      </trkpt>
      <trkpt lat="43.60858" lon="3.03824">
        <ele>669.152771</ele>
        <time>2012-03-05T13:59:09Z</time>
      </trkpt>
      <trkpt lat="43.60848" lon="3.03819">
        <ele>669.168823</ele>
        <time>2012-03-05T13:59:15Z</time>
      </trkpt>
      <trkpt lat="43.60835" lon="3.03815">
        <ele>668.348877</ele>
        <time>2012-03-05T13:59:22Z</time>
      </trkpt>
      <trkpt lat="43.60822" lon="3.03807">
        <ele>669.12146</ele>
        <time>2012-03-05T13:59:30Z</time>
      </trkpt>
      <trkpt lat="43.60813" lon="3.03801">
        <ele>670.474609</ele>
        <time>2012-03-05T13:59:36Z</time>
      </trkpt>
      <trkpt lat="43.60801" lon="3.03791">
        <ele>672.705017</ele>
        <time>2012-03-05T13:59:44Z</time>
      </trkpt>
      <trkpt lat="43.60795" lon="3.03773">
        <ele>676.900024</ele>
        <time>2012-03-05T13:59:52Z</time>
      </trkpt>
      <trkpt lat="43.60791" lon="3.03769">
        <ele>677.717529</ele>
        <time>2012-03-05T13:59:55Z</time>
      </trkpt>
      <trkpt lat="43.60779" lon="3.03763">
        <ele>678.315002</ele>
        <time>2012-03-05T14:00:03Z</time>
      </trkpt>
      <trkpt lat="43.60775" lon="3.03763">
        <ele>678.30249</ele>
        <time>2012-03-05T14:00:05Z</time>
      </trkpt>
      <trkpt lat="43.60764" lon="3.03758">
        <ele>679.294983</ele>
        <time>2012-03-05T14:00:12Z</time>
      </trkpt>
      <trkpt lat="43.60751" lon="3.03756">
        <ele>679.505005</ele>
        <time>2012-03-05T14:00:20Z</time>
      </trkpt>
      <trkpt lat="43.60741" lon="3.03748">
        <ele>681.342529</ele>
        <time>2012-03-05T14:00:27Z</time>
      </trkpt>
      <trkpt lat="43.60745" lon="3.03738">
        <ele>684.05249</ele>
        <time>2012-03-05T14:00:32Z</time>
      </trkpt>
      <trkpt lat="43.60748" lon="3.03737">
        <ele>684.362488</ele>
        <time>2012-03-05T14:00:34Z</time>
      </trkpt>
      <trkpt lat="43.60762" lon="3.03734">
        <ele>685.44751</ele>
        <time>2012-03-05T14:00:43Z</time>
      </trkpt>
      <trkpt lat="43.60768" lon="3.03731">
        <ele>686.330017</ele>
        <time>2012-03-05T14:00:47Z</time>
      </trkpt>
      <trkpt lat="43.60772" lon="3.03729">
        <ele>686.950012</ele>
        <time>2012-03-05T14:00:49Z</time>
      </trkpt>
      <trkpt lat="43.6078" lon="3.03727">
        <ele>687.616821</ele>
        <time>2012-03-05T14:00:55Z</time>
      </trkpt>
      <trkpt lat="43.6079" lon="3.03722">
        <ele>689.280945</ele>
        <time>2012-03-05T14:01:02Z</time>
      </trkpt>
      <trkpt lat="43.60799" lon="3.03719">
        <ele>690.674988</ele>
        <time>2012-03-05T14:01:07Z</time>
      </trkpt>
      <trkpt lat="43.60815" lon="3.03711">
        <ele>693.214233</ele>
        <time>2012-03-05T14:01:15Z</time>
      </trkpt>
      <trkpt lat="43.60826" lon="3.03708">
        <ele>694.345032</ele>
        <time>2012-03-05T14:01:21Z</time>
      </trkpt>
      <trkpt lat="43.60827" lon="3.03709">
        <ele>694.47998</ele>
        <time>2012-03-05T14:01:22Z</time>
      </trkpt>
      <trkpt lat="43.60839" lon="3.03706">
        <ele>696.039978</ele>
        <time>2012-03-05T14:01:28Z</time>
      </trkpt>
      <trkpt lat="43.60843" lon="3.03702">
        <ele>697.195007</ele>
        <time>2012-03-05T14:01:31Z</time>
      </trkpt>
      <trkpt lat="43.60841" lon="3.03697">
        <ele>697.88501</ele>
        <time>2012-03-05T14:01:35Z</time>
      </trkpt>
      <trkpt lat="43.60824" lon="3.03687">
        <ele>698.41803</ele>
        <time>2012-03-05T14:01:44Z</time>
      </trkpt>
      <trkpt lat="43.60811" lon="3.03682">
        <ele>698.903748</ele>
        <time>2012-03-05T14:01:50Z</time>
      </trkpt>
      <trkpt lat="43.60798" lon="3.03674">
        <ele>700.042542</ele>
        <time>2012-03-05T14:01:57Z</time>
      </trkpt>
      <trkpt lat="43.60796" lon="3.03673">
        <ele>700.298462</ele>
        <time>2012-03-05T14:01:58Z</time>
      </trkpt>
      <trkpt lat="43.60783" lon="3.03667">
        <ele>701.277527</ele>
        <time>2012-03-05T14:02:05Z</time>
      </trkpt>
      <trkpt lat="43.60773" lon="3.03664">
        <ele>701.532532</ele>
        <time>2012-03-05T14:02:10Z</time>
      </trkpt>
      <trkpt lat="43.60759" lon="3.03656">
        <ele>702.87262</ele>
        <time>2012-03-05T14:02:18Z</time>
      </trkpt>
      <trkpt lat="43.60745" lon="3.03651">
        <ele>703.541626</ele>
        <time>2012-03-05T14:02:25Z</time>
      </trkpt>
      <trkpt lat="43.60732" lon="3.03642">
        <ele>704.587524</ele>
        <time>2012-03-05T14:02:33Z</time>
      </trkpt>
      <trkpt lat="43.60719" lon="3.03633">
        <ele>704.799988</ele>
        <time>2012-03-05T14:02:40Z</time>
      </trkpt>
      <trkpt lat="43.60711" lon="3.03626">
        <ele>705.257507</ele>
        <time>2012-03-05T14:02:44Z</time>
      </trkpt>
      <trkpt lat="43.60705" lon="3.0362">
        <ele>705.700012</ele>
        <time>2012-03-05T14:02:47Z</time>
      </trkpt>
      <trkpt lat="43.60705" lon="3.03609">
        <ele>707.837524</ele>
        <time>2012-03-05T14:02:51Z</time>
      </trkpt>
      <trkpt lat="43.60713" lon="3.03608">
        <ele>708.992493</ele>
        <time>2012-03-05T14:02:56Z</time>
      </trkpt>
      <trkpt lat="43.60716" lon="3.03609">
        <ele>709.232483</ele>
        <time>2012-03-05T14:02:58Z</time>
      </trkpt>
      <trkpt lat="43.60734" lon="3.03607">
        <ele>711.607483</ele>
        <time>2012-03-05T14:03:06Z</time>
      </trkpt>
      <trkpt lat="43.60745" lon="3.03606">
        <ele>712.322388</ele>
        <time>2012-03-05T14:03:12Z</time>
      </trkpt>
      <trkpt lat="43.60761" lon="3.03603">
        <ele>713.757935</ele>
        <time>2012-03-05T14:03:20Z</time>
      </trkpt>
      <trkpt lat="43.60771" lon="3.03602">
        <ele>714.38916</ele>
        <time>2012-03-05T14:03:26Z</time>
      </trkpt>
      <trkpt lat="43.60779" lon="3.03599">
        <ele>715.344788</ele>
        <time>2012-03-05T14:03:30Z</time>
      </trkpt>
      <trkpt lat="43.60791" lon="3.03596">
        <ele>716.363464</ele>
        <time>2012-03-05T14:03:36Z</time>
      </trkpt>
      <trkpt lat="43.60802" lon="3.0359">
        <ele>717.733337</ele>
        <time>2012-03-05T14:03:41Z</time>
      </trkpt>
      <trkpt lat="43.60803" lon="3.0359">
        <ele>717.856567</ele>
        <time>2012-03-05T14:03:42Z</time>
      </trkpt>
      <trkpt lat="43.60813" lon="3.03587">
        <ele>718.630859</ele>
        <time>2012-03-05T14:03:47Z</time>
      </trkpt>
      <trkpt lat="43.60829" lon="3.03582">
        <ele>720.028198</ele>
        <time>2012-03-05T14:03:53Z</time>
      </trkpt>
      <trkpt lat="43.60846" lon="3.03585">
        <ele>720.38623</ele>
        <time>2012-03-05T14:04:00Z</time>
      </trkpt>
      <trkpt lat="43.6086" lon="3.03585">
        <ele>721.093506</ele>
        <time>2012-03-05T14:04:05Z</time>
      </trkpt>
      <trkpt lat="43.60871" lon="3.03587">
        <ele>721.235779</ele>
        <time>2012-03-05T14:04:10Z</time>
      </trkpt>
      <trkpt lat="43.6089" lon="3.03589">
        <ele>721.466003</ele>
        <time>2012-03-05T14:04:18Z</time>
      </trkpt>
      <trkpt lat="43.60895" lon="3.03588">
        <ele>721.744385</ele>
        <time>2012-03-05T14:04:20Z</time>
      </trkpt>
      <trkpt lat="43.60897" lon="3.03581">
        <ele>723.323914</ele>
        <time>2012-03-05T14:04:24Z</time>
      </trkpt>
      <trkpt lat="43.60895" lon="3.0358">
        <ele>723.463257</ele>
        <time>2012-03-05T14:04:25Z</time>
      </trkpt>
      <trkpt lat="43.60889" lon="3.03579">
        <ele>723.447083</ele>
        <time>2012-03-05T14:04:27Z</time>
      </trkpt>
      <trkpt lat="43.60864" lon="3.0357">
        <ele>724.388062</ele>
        <time>2012-03-05T14:04:35Z</time>
      </trkpt>
      <trkpt lat="43.60846" lon="3.03558">
        <ele>725.740845</ele>
        <time>2012-03-05T14:04:42Z</time>
      </trkpt>
      <trkpt lat="43.60837" lon="3.03549">
        <ele>726.937134</ele>
        <time>2012-03-05T14:04:46Z</time>
      </trkpt>
      <trkpt lat="43.60823" lon="3.03539">
        <ele>728.184692</ele>
        <time>2012-03-05T14:04:52Z</time>
      </trkpt>
      <trkpt lat="43.60806" lon="3.03529">
        <ele>730.391235</ele>
        <time>2012-03-05T14:05:00Z</time>
      </trkpt>
      <trkpt lat="43.60796" lon="3.03521">
        <ele>731.899719</ele>
        <time>2012-03-05T14:05:06Z</time>
      </trkpt>
      <trkpt lat="43.60788" lon="3.03516">
        <ele>732.926514</ele>
        <time>2012-03-05T14:05:10Z</time>
      </trkpt>
      <trkpt lat="43.60777" lon="3.03508">
        <ele>734.101135</ele>
        <time>2012-03-05T14:05:16Z</time>
      </trkpt>
      <trkpt lat="43.60767" lon="3.03498">
        <ele>735.107422</ele>
        <time>2012-03-05T14:05:22Z</time>
      </trkpt>
      <trkpt lat="43.60763" lon="3.03493">
        <ele>735.603455</ele>
        <time>2012-03-05T14:05:25Z</time>
      </trkpt>
      <trkpt lat="43.60762" lon="3.03492">
        <ele>735.702698</ele>
        <time>2012-03-05T14:05:26Z</time>
      </trkpt>
      <trkpt lat="43.60757" lon="3.0347">
        <ele>738.497009</ele>
        <time>2012-03-05T14:05:35Z</time>
      </trkpt>
      <trkpt lat="43.60756" lon="3.03457">
        <ele>740.070618</ele>
        <time>2012-03-05T14:05:40Z</time>
      </trkpt>
      <trkpt lat="43.60757" lon="3.03436">
        <ele>743.151855</ele>
        <time>2012-03-05T14:05:49Z</time>
      </trkpt>
      <trkpt lat="43.60757" lon="3.03433">
        <ele>743.456848</ele>
        <time>2012-03-05T14:05:50Z</time>
      </trkpt>
      <trkpt lat="43.60758" lon="3.03417">
        <ele>745.639343</ele>
        <time>2012-03-05T14:05:58Z</time>
      </trkpt>
      <trkpt lat="43.60758" lon="3.03414">
        <ele>745.834229</ele>
        <time>2012-03-05T14:05:59Z</time>
      </trkpt>
      <trkpt lat="43.60763" lon="3.034">
        <ele>747.418823</ele>
        <time>2012-03-05T14:06:06Z</time>
      </trkpt>
      <trkpt lat="43.60764" lon="3.03397">
        <ele>747.797852</ele>
        <time>2012-03-05T14:06:08Z</time>
      </trkpt>
      <trkpt lat="43.6077" lon="3.03386">
        <ele>749.431885</ele>
        <time>2012-03-05T14:06:16Z</time>
      </trkpt>
      <trkpt lat="43.60772" lon="3.03383">
        <ele>749.833923</ele>
        <time>2012-03-05T14:06:18Z</time>
      </trkpt>
      <trkpt lat="43.60778" lon="3.0337">
        <ele>751.514832</ele>
        <time>2012-03-05T14:06:27Z</time>
      </trkpt>
      <trkpt lat="43.60784" lon="3.03358">
        <ele>753.190002</ele>
        <time>2012-03-05T14:06:35Z</time>
      </trkpt>
      <trkpt lat="43.60784" lon="3.03358">
        <ele>753.244995</ele>
        <time>2012-03-05T14:06:36Z</time>
      </trkpt>
      <trkpt lat="43.60788" lon="3.03348">
        <ele>754.275024</ele>
        <time>2012-03-05T14:06:42Z</time>
      </trkpt>
      <trkpt lat="43.60794" lon="3.03336">
        <ele>755.52002</ele>
        <time>2012-03-05T14:06:48Z</time>
      </trkpt>
      <trkpt lat="43.60802" lon="3.03322">
        <ele>757.14502</ele>
        <time>2012-03-05T14:06:56Z</time>
      </trkpt>
      <trkpt lat="43.60804" lon="3.03317">
        <ele>757.659973</ele>
        <time>2012-03-05T14:06:59Z</time>
      </trkpt>
      <trkpt lat="43.60813" lon="3.03301">
        <ele>759.539978</ele>
        <time>2012-03-05T14:07:07Z</time>
      </trkpt>
      <trkpt lat="43.60817" lon="3.03293">
        <ele>760.492737</ele>
        <time>2012-03-05T14:07:11Z</time>
      </trkpt>
      <trkpt lat="43.6082" lon="3.03285">
        <ele>761.498779</ele>
        <time>2012-03-05T14:07:16Z</time>
      </trkpt>
      <trkpt lat="43.60822" lon="3.03275">
        <ele>762.728149</ele>
        <time>2012-03-05T14:07:22Z</time>
      </trkpt>
      <trkpt lat="43.60824" lon="3.03268">
        <ele>763.473572</ele>
        <time>2012-03-05T14:07:25Z</time>
      </trkpt>
      <trkpt lat="43.60824" lon="3.03262">
        <ele>764.11554</ele>
        <time>2012-03-05T14:07:27Z</time>
      </trkpt>
      <trkpt lat="43.60825" lon="3.03254">
        <ele>764.94458</ele>
        <time>2012-03-05T14:07:30Z</time>
      </trkpt>
      <trkpt lat="43.60822" lon="3.03246">
        <ele>765.475525</ele>
        <time>2012-03-05T14:07:34Z</time>
      </trkpt>
      <trkpt lat="43.60821" lon="3.03241">
        <ele>765.721313</ele>
        <time>2012-03-05T14:07:36Z</time>
      </trkpt>
      <trkpt lat="43.6082" lon="3.03237">
        <ele>766.068604</ele>
        <time>2012-03-05T14:07:38Z</time>
      </trkpt>
      <trkpt lat="43.6082" lon="3.0323">
        <ele>766.895508</ele>
        <time>2012-03-05T14:07:41Z</time>
      </trkpt>
      <trkpt lat="43.60818" lon="3.03219">
        <ele>768.060913</ele>
        <time>2012-03-05T14:07:46Z</time>
      </trkpt>
      <trkpt lat="43.60815" lon="3.03211">
        <ele>768.927002</ele>
        <time>2012-03-05T14:07:50Z</time>
      </trkpt>
      <trkpt lat="43.60815" lon="3.03208">
        <ele>769.181091</ele>
        <time>2012-03-05T14:07:51Z</time>
      </trkpt>
      <trkpt lat="43.60811" lon="3.03194">
        <ele>770.672668</ele>
        <time>2012-03-05T14:07:58Z</time>
      </trkpt>
      <trkpt lat="43.6081" lon="3.0319">
        <ele>771.152832</ele>
        <time>2012-03-05T14:08:00Z</time>
      </trkpt>
      <trkpt lat="43.60808" lon="3.03183">
        <ele>771.868774</ele>
        <time>2012-03-05T14:08:03Z</time>
      </trkpt>
      <trkpt lat="43.60802" lon="3.03169">
        <ele>773.075012</ele>
        <time>2012-03-05T14:08:10Z</time>
      </trkpt>
      <trkpt lat="43.608" lon="3.03168">
        <ele>773.095032</ele>
        <time>2012-03-05T14:08:11Z</time>
      </trkpt>
      <trkpt lat="43.60793" lon="3.03158">
        <ele>773.375</ele>
        <time>2012-03-05T14:08:17Z</time>
      </trkpt>
      <trkpt lat="43.60786" lon="3.03145">
        <ele>773.997498</ele>
        <time>2012-03-05T14:08:23Z</time>
      </trkpt>
      <trkpt lat="43.60785" lon="3.03142">
        <ele>774.142517</ele>
        <time>2012-03-05T14:08:24Z</time>
      </trkpt>
      <trkpt lat="43.6078" lon="3.03131">
        <ele>774.829529</ele>
        <time>2012-03-05T14:08:29Z</time>
      </trkpt>
      <trkpt lat="43.60779" lon="3.03129">
        <ele>774.994263</ele>
        <time>2012-03-05T14:08:30Z</time>
      </trkpt>
      <trkpt lat="43.60774" lon="3.03118">
        <ele>775.679932</ele>
        <time>2012-03-05T14:08:35Z</time>
      </trkpt>
      <trkpt lat="43.60772" lon="3.03114">
        <ele>775.901733</ele>
        <time>2012-03-05T14:08:37Z</time>
      </trkpt>
      <trkpt lat="43.60763" lon="3.03102">
        <ele>776.078552</ele>
        <time>2012-03-05T14:08:45Z</time>
      </trkpt>
      <trkpt lat="43.60769" lon="3.03101">
        <ele>776.408142</ele>
        <time>2011-07-14T07:48:02Z</time>
      </trkpt>
      <trkpt lat="43.60768" lon="3.03094">
        <ele>776.59198</ele>
        <time>2011-07-14T07:48:05Z</time>
      </trkpt>
      <trkpt lat="43.60768" lon="3.03091">
        <ele>776.749207</ele>
        <time>2011-07-14T07:48:07Z</time>
      </trkpt>
      <trkpt lat="43.60768" lon="3.03089">
        <ele>776.833496</ele>
        <time>2011-07-14T07:48:08Z</time>
      </trkpt>
      <trkpt lat="43.60773" lon="3.03083">
        <ele>777.184082</ele>
        <time>2011-07-14T07:48:14Z</time>
      </trkpt>
      <trkpt lat="43.6077" lon="3.03077">
        <ele>777.316711</ele>
        <time>2011-07-14T07:48:19Z</time>
      </trkpt>
      <trkpt lat="43.60769" lon="3.03078">
        <ele>777.259094</ele>
        <time>2011-07-14T07:48:21Z</time>
      </trkpt>
      <trkpt lat="43.60769" lon="3.03079">
        <ele>777.245972</ele>
        <time>2011-07-14T07:48:23Z</time>
      </trkpt>
      <trkpt lat="43.60769" lon="3.03079">
        <ele>777.238098</ele>
        <time>2011-07-14T07:53:58Z</time>
      </trkpt>
      <trkpt lat="43.6077" lon="3.03078">
        <ele>777.257751</ele>
        <time>2011-07-14T07:53:59Z</time>
      </trkpt>
      <trkpt lat="43.6077" lon="3.03078">
        <ele>777.265991</ele>
        <time>2011-07-14T07:54:00Z</time>
      </trkpt>
      <trkpt lat="43.60771" lon="3.03077">
        <ele>777.333252</ele>
        <time>2011-07-14T07:54:34Z</time>
      </trkpt>
      <trkpt lat="43.60772" lon="3.03075">
        <ele>777.414185</ele>
        <time>2011-07-14T07:54:35Z</time>
      </trkpt>
      <trkpt lat="43.60779" lon="3.0307">
        <ele>777.635315</ele>
        <time>2011-07-14T07:54:40Z</time>
      </trkpt>
      <trkpt lat="43.60789" lon="3.03061">
        <ele>777.703674</ele>
        <time>2011-07-14T07:54:45Z</time>
      </trkpt>
      <trkpt lat="43.60796" lon="3.03057">
        <ele>777.507446</ele>
        <time>2011-07-14T07:54:47Z</time>
      </trkpt>
      <trkpt lat="43.60816" lon="3.03052">
        <ele>776.675232</ele>
        <time>2011-07-14T07:54:52Z</time>
      </trkpt>
      <trkpt lat="43.60836" lon="3.03044">
        <ele>775.218994</ele>
        <time>2011-07-14T07:54:56Z</time>
      </trkpt>
      <trkpt lat="43.60857" lon="3.03039">
        <ele>775.40979</ele>
        <time>2011-07-14T07:55:00Z</time>
      </trkpt>
      <trkpt lat="43.60871" lon="3.03038">
        <ele>775.75177</ele>
        <time>2011-07-14T07:55:03Z</time>
      </trkpt>
      <trkpt lat="43.60876" lon="3.03037">
        <ele>775.5495</ele>
        <time>2011-07-14T07:55:04Z</time>
      </trkpt>
      <trkpt lat="43.60881" lon="3.03037">
        <ele>774.961304</ele>
        <time>2011-07-14T07:55:05Z</time>
      </trkpt>
      <trkpt lat="43.6089" lon="3.03034">
        <ele>773.47821</ele>
        <time>2011-07-14T07:55:07Z</time>
      </trkpt>
      <trkpt lat="43.60902" lon="3.03031">
        <ele>771.884521</ele>
        <time>2011-07-14T07:55:10Z</time>
      </trkpt>
      <trkpt lat="43.60917" lon="3.03027">
        <ele>769.791809</ele>
        <time>2011-07-14T07:55:14Z</time>
      </trkpt>
      <trkpt lat="43.60921" lon="3.0303">
        <ele>769.966553</ele>
        <time>2011-07-14T07:55:16Z</time>
      </trkpt>
      <trkpt lat="43.60924" lon="3.03035">
        <ele>770.380188</ele>
        <time>2011-07-14T07:55:18Z</time>
      </trkpt>
      <trkpt lat="43.60928" lon="3.03043">
        <ele>771.266052</ele>
        <time>2011-07-14T07:55:21Z</time>
      </trkpt>
      <trkpt lat="43.60932" lon="3.0306">
        <ele>772.817627</ele>
        <time>2011-07-14T07:55:26Z</time>
      </trkpt>
      <trkpt lat="43.60941" lon="3.03057">
        <ele>771.450012</ele>
        <time>2011-07-14T07:55:29Z</time>
      </trkpt>
      <trkpt lat="43.60945" lon="3.03057">
        <ele>770.836731</ele>
        <time>2011-07-14T07:55:30Z</time>
      </trkpt>
      <trkpt lat="43.60949" lon="3.03056">
        <ele>770.308777</ele>
        <time>2011-07-14T07:55:31Z</time>
      </trkpt>
      <trkpt lat="43.60971" lon="3.03051">
        <ele>768.096008</ele>
        <time>2011-07-14T07:55:35Z</time>
      </trkpt>
      <trkpt lat="43.60989" lon="3.03047">
        <ele>767.38501</ele>
        <time>2011-07-14T07:55:39Z</time>
      </trkpt>
      <trkpt lat="43.60997" lon="3.03043">
        <ele>766.346313</ele>
        <time>2011-07-14T07:55:41Z</time>
      </trkpt>
      <trkpt lat="43.61016" lon="3.03028">
        <ele>761.906128</ele>
        <time>2011-07-14T07:55:46Z</time>
      </trkpt>
      <trkpt lat="43.61035" lon="3.03017">
        <ele>758.236023</ele>
        <time>2011-07-14T07:55:50Z</time>
      </trkpt>
      <trkpt lat="43.61044" lon="3.03013">
        <ele>757.040649</ele>
        <time>2011-07-14T07:55:53Z</time>
      </trkpt>
      <trkpt lat="43.61049" lon="3.03015">
        <ele>757.309753</ele>
        <time>2011-07-14T07:55:55Z</time>
      </trkpt>
      <trkpt lat="43.61053" lon="3.03018">
        <ele>757.622498</ele>
        <time>2011-07-14T07:55:57Z</time>
      </trkpt>
      <trkpt lat="43.61059" lon="3.03017">
        <ele>757.102417</ele>
        <time>2011-07-14T07:55:59Z</time>
      </trkpt>
      <trkpt lat="43.61064" lon="3.03013">
        <ele>755.797485</ele>
        <time>2011-07-14T07:56:01Z</time>
      </trkpt>
      <trkpt lat="43.61077" lon="3.03005">
        <ele>753.315613</ele>
        <time>2011-07-14T07:56:06Z</time>
      </trkpt>
      <trkpt lat="43.6108" lon="3.03004">
        <ele>752.860168</ele>
        <time>2011-07-14T07:56:09Z</time>
      </trkpt>
      <trkpt lat="43.61089" lon="3.03005">
        <ele>752.384766</ele>
        <time>2011-07-14T07:56:14Z</time>
      </trkpt>
      <trkpt lat="43.61091" lon="3.03005">
        <ele>752.346863</ele>
        <time>2011-07-14T07:56:17Z</time>
      </trkpt>
      <trkpt lat="43.61095" lon="3.03004">
        <ele>751.889587</ele>
        <time>2011-07-14T07:57:32Z</time>
      </trkpt>
      <trkpt lat="43.61094" lon="3.03005">
        <ele>752.117493</ele>
        <time>2011-07-14T07:57:34Z</time>
      </trkpt>
      <trkpt lat="43.61093" lon="3.03013">
        <ele>753.276672</ele>
        <time>2011-07-14T07:59:21Z</time>
      </trkpt>
      <trkpt lat="43.61094" lon="3.03011">
        <ele>752.913269</ele>
        <time>2011-07-14T07:59:24Z</time>
      </trkpt>
      <trkpt lat="43.61094" lon="3.0301">
        <ele>752.767822</ele>
        <time>2011-07-14T07:59:27Z</time>
      </trkpt>
      <trkpt lat="43.61103" lon="3.03008">
        <ele>751.645996</ele>
        <time>2011-07-14T07:59:29Z</time>
      </trkpt>
      <trkpt lat="43.61111" lon="3.03007">
        <ele>750.342896</ele>
        <time>2011-07-14T07:59:33Z</time>
      </trkpt>
      <trkpt lat="43.61113" lon="3.03006">
        <ele>749.994385</ele>
        <time>2011-07-14T07:59:37Z</time>
      </trkpt>
      <trkpt lat="43.61118" lon="3.03009">
        <ele>749.797058</ele>
        <time>2011-07-14T08:00:31Z</time>
      </trkpt>
      <trkpt lat="43.61128" lon="3.03018">
        <ele>749.663269</ele>
        <time>2011-07-14T08:00:38Z</time>
      </trkpt>
      <trkpt lat="43.6114" lon="3.03031">
        <ele>750.150818</ele>
        <time>2011-07-14T08:00:45Z</time>
      </trkpt>
      <trkpt lat="43.61152" lon="3.03045">
        <ele>751.071899</ele>
        <time>2011-07-14T08:00:51Z</time>
      </trkpt>
      <trkpt lat="43.61167" lon="3.03064">
        <ele>751.477722</ele>
        <time>2011-07-14T08:00:59Z</time>
      </trkpt>
      <trkpt lat="43.61172" lon="3.03072">
        <ele>751.324951</ele>
        <time>2011-07-14T08:01:02Z</time>
      </trkpt>
      <trkpt lat="43.61184" lon="3.03086">
        <ele>750.955505</ele>
        <time>2011-07-14T08:01:08Z</time>
      </trkpt>
      <trkpt lat="43.61197" lon="3.03103">
        <ele>750.179932</ele>
        <time>2011-07-14T08:01:16Z</time>
      </trkpt>
      <trkpt lat="43.61199" lon="3.03105">
        <ele>750.064087</ele>
        <time>2011-07-14T08:01:17Z</time>
      </trkpt>
      <trkpt lat="43.61202" lon="3.03108">
        <ele>749.836548</ele>
        <time>2011-07-14T08:01:19Z</time>
      </trkpt>
      <trkpt lat="43.61204" lon="3.03112">
        <ele>749.62793</ele>
        <time>2011-07-14T08:01:21Z</time>
      </trkpt>
      <trkpt lat="43.61206" lon="3.03115">
        <ele>749.535583</ele>
        <time>2011-07-14T08:01:25Z</time>
      </trkpt>
      <trkpt lat="43.61206" lon="3.03115">
        <ele>749.490967</ele>
        <time>2011-07-14T08:01:28Z</time>
      </trkpt>
      <trkpt lat="43.61208" lon="3.03115">
        <ele>749.275513</ele>
        <time>2011-07-14T08:01:31Z</time>
      </trkpt>
      <trkpt lat="43.61208" lon="3.03116">
        <ele>749.259521</ele>
        <time>2011-07-14T08:02:06Z</time>
      </trkpt>
      <trkpt lat="43.61213" lon="3.03102">
        <ele>748.22821</ele>
        <time>2011-07-14T08:02:10Z</time>
      </trkpt>
      <trkpt lat="43.61218" lon="3.03085">
        <ele>747.125061</ele>
        <time>2011-07-14T08:02:13Z</time>
      </trkpt>
      <trkpt lat="43.61234" lon="3.03034">
        <ele>744.54303</ele>
        <time>2011-07-14T08:02:20Z</time>
      </trkpt>
      <trkpt lat="43.61251" lon="3.02983">
        <ele>741.151611</ele>
        <time>2011-07-14T08:02:27Z</time>
      </trkpt>
      <trkpt lat="43.61265" lon="3.02942">
        <ele>737.914917</ele>
        <time>2011-07-14T08:02:32Z</time>
      </trkpt>
      <trkpt lat="43.61271" lon="3.02922">
        <ele>736.648804</ele>
        <time>2011-07-14T08:02:34Z</time>
      </trkpt>
      <trkpt lat="43.61276" lon="3.02903">
        <ele>734.986511</ele>
        <time>2011-07-14T08:02:36Z</time>
      </trkpt>
      <trkpt lat="43.61283" lon="3.02885">
        <ele>732.602844</ele>
        <time>2011-07-14T08:02:39Z</time>
      </trkpt>
      <trkpt lat="43.61286" lon="3.02882">
        <ele>731.721313</ele>
        <time>2011-07-14T08:02:40Z</time>
      </trkpt>
      <trkpt lat="43.6129" lon="3.02879">
        <ele>730.832275</ele>
        <time>2011-07-14T08:02:41Z</time>
      </trkpt>
      <trkpt lat="43.61305" lon="3.02861">
        <ele>727.220398</ele>
        <time>2011-07-14T08:02:45Z</time>
      </trkpt>
      <trkpt lat="43.61313" lon="3.02848">
        <ele>726</ele>
        <time>2011-07-14T08:02:47Z</time>
      </trkpt>
      <trkpt lat="43.61322" lon="3.02832">
        <ele>725.407471</ele>
        <time>2011-07-14T08:02:49Z</time>
      </trkpt>
      <trkpt lat="43.61327" lon="3.02823">
        <ele>724.828857</ele>
        <time>2011-07-14T08:02:50Z</time>
      </trkpt>
      <trkpt lat="43.61353" lon="3.02797">
        <ele>722.77478</ele>
        <time>2011-07-14T08:02:54Z</time>
      </trkpt>
      <trkpt lat="43.61373" lon="3.02784">
        <ele>722.553589</ele>
        <time>2011-07-14T08:02:57Z</time>
      </trkpt>
      <trkpt lat="43.61391" lon="3.02775">
        <ele>720.651672</ele>
        <time>2011-07-14T08:03:00Z</time>
      </trkpt>
      <trkpt lat="43.61402" lon="3.02771">
        <ele>719.240417</ele>
        <time>2011-07-14T08:03:02Z</time>
      </trkpt>
      <trkpt lat="43.61426" lon="3.02762">
        <ele>716.771606</ele>
        <time>2011-07-14T08:03:06Z</time>
      </trkpt>
      <trkpt lat="43.61458" lon="3.02746">
        <ele>713.858521</ele>
        <time>2011-07-14T08:03:11Z</time>
      </trkpt>
      <trkpt lat="43.6149" lon="3.02726">
        <ele>708.794128</ele>
        <time>2011-07-14T08:03:16Z</time>
      </trkpt>
      <trkpt lat="43.61517" lon="3.02692">
        <ele>708.585632</ele>
        <time>2011-07-14T08:03:21Z</time>
      </trkpt>
      <trkpt lat="43.61546" lon="3.0266">
        <ele>703.666077</ele>
        <time>2011-07-14T08:03:27Z</time>
      </trkpt>
      <trkpt lat="43.61556" lon="3.0265">
        <ele>701.371033</ele>
        <time>2011-07-14T08:03:29Z</time>
      </trkpt>
      <trkpt lat="43.61575" lon="3.02621">
        <ele>696.851196</ele>
        <time>2011-07-14T08:03:33Z</time>
      </trkpt>
      <trkpt lat="43.6158" lon="3.02613">
        <ele>695.70697</ele>
        <time>2011-07-14T08:03:34Z</time>
      </trkpt>
      <trkpt lat="43.61614" lon="3.02564">
        <ele>696.136841</ele>
        <time>2011-07-14T08:03:40Z</time>
      </trkpt>
      <trkpt lat="43.61629" lon="3.02543">
        <ele>694.549377</ele>
        <time>2011-07-14T08:03:43Z</time>
      </trkpt>
      <trkpt lat="43.61638" lon="3.02524">
        <ele>696.322754</ele>
        <time>2011-07-14T08:03:46Z</time>
      </trkpt>
      <trkpt lat="43.61645" lon="3.02508">
        <ele>697.796631</ele>
        <time>2011-07-14T08:03:49Z</time>
      </trkpt>
      <trkpt lat="43.61662" lon="3.02471">
        <ele>696.973267</ele>
        <time>2011-07-14T08:03:57Z</time>
      </trkpt>
      <trkpt lat="43.61674" lon="3.02448">
        <ele>698.158691</ele>
        <time>2011-07-14T08:04:04Z</time>
      </trkpt>
      <trkpt lat="43.61686" lon="3.02424">
        <ele>699.810242</ele>
        <time>2011-07-14T08:04:11Z</time>
      </trkpt>
      <trkpt lat="43.61687" lon="3.02421">
        <ele>699.883606</ele>
        <time>2011-07-14T08:04:12Z</time>
      </trkpt>
      <trkpt lat="43.61699" lon="3.02388">
        <ele>699.549927</ele>
        <time>2011-07-14T08:04:21Z</time>
      </trkpt>
      <trkpt lat="43.61713" lon="3.02357">
        <ele>699.580017</ele>
        <time>2011-07-14T08:04:29Z</time>
      </trkpt>
      <trkpt lat="43.61721" lon="3.02338">
        <ele>700.455139</ele>
        <time>2011-07-14T08:04:34Z</time>
      </trkpt>
      <trkpt lat="43.61732" lon="3.02314">
        <ele>702.219482</ele>
        <time>2011-07-14T08:04:41Z</time>
      </trkpt>
      <trkpt lat="43.61736" lon="3.02307">
        <ele>701.606018</ele>
        <time>2011-07-14T08:04:43Z</time>
      </trkpt>
      <trkpt lat="43.61753" lon="3.02273">
        <ele>699.945435</ele>
        <time>2011-07-14T08:04:52Z</time>
      </trkpt>
      <trkpt lat="43.61764" lon="3.02249">
        <ele>699.713379</ele>
        <time>2011-07-14T08:04:58Z</time>
      </trkpt>
      <trkpt lat="43.61774" lon="3.02227">
        <ele>699.715698</ele>
        <time>2011-07-14T08:05:04Z</time>
      </trkpt>
      <trkpt lat="43.61788" lon="3.02199">
        <ele>698.6922</ele>
        <time>2011-07-14T08:05:10Z</time>
      </trkpt>
      <trkpt lat="43.61794" lon="3.02184">
        <ele>697.526733</ele>
        <time>2011-07-14T08:05:13Z</time>
      </trkpt>
      <trkpt lat="43.61799" lon="3.02166">
        <ele>696.858093</ele>
        <time>2011-07-14T08:05:16Z</time>
      </trkpt>
      <trkpt lat="43.6182" lon="3.02122">
        <ele>698.12738</ele>
        <time>2011-07-14T08:05:24Z</time>
      </trkpt>
      <trkpt lat="43.61832" lon="3.02093">
        <ele>695.885681</ele>
        <time>2011-07-14T08:05:31Z</time>
      </trkpt>
      <trkpt lat="43.61849" lon="3.0206">
        <ele>694.458618</ele>
        <time>2011-07-14T08:05:40Z</time>
      </trkpt>
      <trkpt lat="43.6186" lon="3.02045">
        <ele>695.002136</ele>
        <time>2011-07-14T08:05:46Z</time>
      </trkpt>
      <trkpt lat="43.6187" lon="3.0203">
        <ele>696.972961</ele>
        <time>2011-07-14T08:05:52Z</time>
      </trkpt>
      <trkpt lat="43.61879" lon="3.02015">
        <ele>697.908752</ele>
        <time>2011-07-14T08:05:57Z</time>
      </trkpt>
      <trkpt lat="43.61889" lon="3.02004">
        <ele>697.028992</ele>
        <time>2011-07-14T08:06:03Z</time>
      </trkpt>
      <trkpt lat="43.61902" lon="3.01991">
        <ele>696.615601</ele>
        <time>2011-07-14T08:06:10Z</time>
      </trkpt>
      <trkpt lat="43.61918" lon="3.01978">
        <ele>698.017273</ele>
        <time>2011-07-14T08:06:18Z</time>
      </trkpt>
      <trkpt lat="43.61932" lon="3.01972">
        <ele>699.584778</ele>
        <time>2011-07-14T08:06:23Z</time>
      </trkpt>
      <trkpt lat="43.61946" lon="3.01972">
        <ele>699.713379</ele>
        <time>2011-07-14T08:06:28Z</time>
      </trkpt>
      <trkpt lat="43.61962" lon="3.01972">
        <ele>700.587769</ele>
        <time>2011-07-14T08:06:34Z</time>
      </trkpt>
      <trkpt lat="43.61969" lon="3.01974">
        <ele>700.930298</ele>
        <time>2011-07-14T08:06:36Z</time>
      </trkpt>
      <trkpt lat="43.61986" lon="3.01983">
        <ele>701.262024</ele>
        <time>2011-07-14T08:06:42Z</time>
      </trkpt>
      <trkpt lat="43.62" lon="3.01992">
        <ele>701.650146</ele>
        <time>2011-07-14T08:06:48Z</time>
      </trkpt>
      <trkpt lat="43.62007" lon="3.01997">
        <ele>701.807495</ele>
        <time>2011-07-14T08:06:51Z</time>
      </trkpt>
      <trkpt lat="43.62014" lon="3.02002">
        <ele>701.701233</ele>
        <time>2011-07-14T08:06:54Z</time>
      </trkpt>
      <trkpt lat="43.62029" lon="3.02014">
        <ele>701.740356</ele>
        <time>2011-07-14T08:07:00Z</time>
      </trkpt>
      <trkpt lat="43.62036" lon="3.02016">
        <ele>702.005188</ele>
        <time>2011-07-14T08:07:02Z</time>
      </trkpt>
      <trkpt lat="43.62055" lon="3.02014">
        <ele>705.734131</ele>
        <time>2011-07-14T08:07:08Z</time>
      </trkpt>
      <trkpt lat="43.62063" lon="3.0201">
        <ele>708.019531</ele>
        <time>2011-07-14T08:07:11Z</time>
      </trkpt>
      <trkpt lat="43.62077" lon="3.02004">
        <ele>711.156311</ele>
        <time>2011-07-14T08:07:16Z</time>
      </trkpt>
      <trkpt lat="43.62086" lon="3.02004">
        <ele>712.586975</ele>
        <time>2011-07-14T08:07:21Z</time>
      </trkpt>
      <trkpt lat="43.62087" lon="3.02004">
        <ele>712.711975</ele>
        <time>2011-07-14T08:07:22Z</time>
      </trkpt>
      <trkpt lat="43.62096" lon="3.02011">
        <ele>713.256226</ele>
        <time>2011-07-14T08:07:28Z</time>
      </trkpt>
      <trkpt lat="43.62101" lon="3.02021">
        <ele>713.324463</ele>
        <time>2011-07-14T08:07:33Z</time>
      </trkpt>
      <trkpt lat="43.62102" lon="3.02026">
        <ele>713.023743</ele>
        <time>2011-07-14T08:07:35Z</time>
      </trkpt>
      <trkpt lat="43.6211" lon="3.0204">
        <ele>713.593323</ele>
        <time>2011-07-14T08:07:41Z</time>
      </trkpt>
      <trkpt lat="43.62117" lon="3.02057">
        <ele>713.845398</ele>
        <time>2011-07-14T08:07:47Z</time>
      </trkpt>
      <trkpt lat="43.6212" lon="3.02064">
        <ele>714.10376</ele>
        <time>2011-07-14T08:07:49Z</time>
      </trkpt>
      <trkpt lat="43.62129" lon="3.02082">
        <ele>714.609497</ele>
        <time>2011-07-14T08:07:55Z</time>
      </trkpt>
      <trkpt lat="43.62137" lon="3.02103">
        <ele>713.082886</ele>
        <time>2011-07-14T08:08:00Z</time>
      </trkpt>
      <trkpt lat="43.62147" lon="3.02127">
        <ele>710.892761</ele>
        <time>2011-07-14T08:08:05Z</time>
      </trkpt>
      <trkpt lat="43.62154" lon="3.02146">
        <ele>708.247314</ele>
        <time>2011-07-14T08:08:08Z</time>
      </trkpt>
      <trkpt lat="43.62169" lon="3.02163">
        <ele>707.205139</ele>
        <time>2011-07-14T08:08:12Z</time>
      </trkpt>
      <trkpt lat="43.62181" lon="3.02174">
        <ele>707.111267</ele>
        <time>2011-07-14T08:08:15Z</time>
      </trkpt>
      <trkpt lat="43.62197" lon="3.02196">
        <ele>703.358765</ele>
        <time>2011-07-14T08:08:20Z</time>
      </trkpt>
      <trkpt lat="43.62206" lon="3.02205">
        <ele>701.592468</ele>
        <time>2011-07-14T08:08:23Z</time>
      </trkpt>
      <trkpt lat="43.62214" lon="3.02217">
        <ele>697.703369</ele>
        <time>2011-07-14T08:08:27Z</time>
      </trkpt>
      <trkpt lat="43.62233" lon="3.02223">
        <ele>698.74823</ele>
        <time>2011-07-14T08:08:33Z</time>
      </trkpt>
      <trkpt lat="43.62237" lon="3.02224">
        <ele>698.81842</ele>
        <time>2011-07-14T08:08:34Z</time>
      </trkpt>
      <trkpt lat="43.62253" lon="3.02221">
        <ele>702.041443</ele>
        <time>2011-07-14T08:08:39Z</time>
      </trkpt>
      <trkpt lat="43.62253" lon="3.02221">
        <ele>702.309387</ele>
        <time>2011-07-14T08:08:41Z</time>
      </trkpt>
      <trkpt lat="43.62254" lon="3.02222">
        <ele>701.59845</ele>
        <time>2011-07-14T08:08:48Z</time>
      </trkpt>
      <trkpt lat="43.6226" lon="3.02224">
        <ele>701.449829</ele>
        <time>2011-07-14T08:08:50Z</time>
      </trkpt>
      <trkpt lat="43.62278" lon="3.02235">
        <ele>698.731018</ele>
        <time>2011-07-14T08:08:54Z</time>
      </trkpt>
      <trkpt lat="43.62288" lon="3.02244">
        <ele>697.075317</ele>
        <time>2011-07-14T08:08:56Z</time>
      </trkpt>
      <trkpt lat="43.62304" lon="3.02262">
        <ele>693.477356</ele>
        <time>2011-07-14T08:09:00Z</time>
      </trkpt>
      <trkpt lat="43.62314" lon="3.02274">
        <ele>691.868774</ele>
        <time>2011-07-14T08:09:02Z</time>
      </trkpt>
      <trkpt lat="43.6233" lon="3.02299">
        <ele>685.437073</ele>
        <time>2011-07-14T08:09:06Z</time>
      </trkpt>
      <trkpt lat="43.62348" lon="3.02313">
        <ele>682.81311</ele>
        <time>2011-07-14T08:09:10Z</time>
      </trkpt>
      <trkpt lat="43.62359" lon="3.02317">
        <ele>683.383118</ele>
        <time>2011-07-14T08:09:12Z</time>
      </trkpt>
      <trkpt lat="43.62382" lon="3.02326">
        <ele>683.848022</ele>
        <time>2011-07-14T08:09:16Z</time>
      </trkpt>
      <trkpt lat="43.62395" lon="3.02331">
        <ele>685.642761</ele>
        <time>2011-07-14T08:09:19Z</time>
      </trkpt>
      <trkpt lat="43.62396" lon="3.02347">
        <ele>684.920898</ele>
        <time>2011-07-14T08:09:22Z</time>
      </trkpt>
      <trkpt lat="43.62391" lon="3.02364">
        <ele>682.272034</ele>
        <time>2011-07-14T08:09:24Z</time>
      </trkpt>
      <trkpt lat="43.62372" lon="3.02435">
        <ele>675.302795</ele>
        <time>2011-07-14T08:09:31Z</time>
      </trkpt>
      <trkpt lat="43.62363" lon="3.02456">
        <ele>672.683289</ele>
        <time>2011-07-14T08:09:34Z</time>
      </trkpt>
      <trkpt lat="43.62358" lon="3.02469">
        <ele>670.513123</ele>
        <time>2011-07-14T08:09:38Z</time>
      </trkpt>
      <trkpt lat="43.62352" lon="3.02483">
        <ele>667.834717</ele>
        <time>2011-07-14T08:09:45Z</time>
      </trkpt>
      <trkpt lat="43.62355" lon="3.02499">
        <ele>670.559937</ele>
        <time>2011-07-14T08:09:53Z</time>
      </trkpt>
      <trkpt lat="43.62356" lon="3.02502">
        <ele>671.657532</ele>
        <time>2011-07-14T08:09:57Z</time>
      </trkpt>
      <trkpt lat="43.62357" lon="3.02502">
        <ele>672.143616</ele>
        <time>2011-07-14T08:10:41Z</time>
      </trkpt>
      <trkpt lat="43.62361" lon="3.02514">
        <ele>674.656006</ele>
        <time>2011-07-14T08:10:46Z</time>
      </trkpt>
      <trkpt lat="43.62364" lon="3.02521">
        <ele>673.499695</ele>
        <time>2011-07-14T08:10:49Z</time>
      </trkpt>
      <trkpt lat="43.62368" lon="3.02529">
        <ele>672.616272</ele>
        <time>2011-07-14T08:10:52Z</time>
      </trkpt>
      <trkpt lat="43.62378" lon="3.02548">
        <ele>670.070618</ele>
        <time>2011-07-14T08:11:00Z</time>
      </trkpt>
      <trkpt lat="43.62382" lon="3.02553">
        <ele>669.831665</ele>
        <time>2011-07-14T08:11:04Z</time>
      </trkpt>
      <trkpt lat="43.62382" lon="3.02554">
        <ele>669.499512</ele>
        <time>2011-07-14T08:11:08Z</time>
      </trkpt>
      <trkpt lat="43.62387" lon="3.02565">
        <ele>668.04425</ele>
        <time>2011-07-14T08:11:11Z</time>
      </trkpt>
      <trkpt lat="43.62393" lon="3.0257">
        <ele>667.938171</ele>
        <time>2011-07-14T08:11:14Z</time>
      </trkpt>
      <trkpt lat="43.62414" lon="3.02572">
        <ele>670.778381</ele>
        <time>2011-07-14T08:11:19Z</time>
      </trkpt>
      <trkpt lat="43.62423" lon="3.02571">
        <ele>670.959412</ele>
        <time>2011-07-14T08:11:21Z</time>
      </trkpt>
      <trkpt lat="43.62427" lon="3.02573">
        <ele>670.350708</ele>
        <time>2011-07-14T08:11:22Z</time>
      </trkpt>
      <trkpt lat="43.62437" lon="3.0258">
        <ele>667.530029</ele>
        <time>2011-07-14T08:11:24Z</time>
      </trkpt>
      <trkpt lat="43.62453" lon="3.02591">
        <ele>663.097534</ele>
        <time>2011-07-14T08:11:27Z</time>
      </trkpt>
      <trkpt lat="43.62472" lon="3.02605">
        <ele>658.55249</ele>
        <time>2011-07-14T08:11:31Z</time>
      </trkpt>
      <trkpt lat="43.62486" lon="3.02613">
        <ele>655.86499</ele>
        <time>2011-07-14T08:11:34Z</time>
      </trkpt>
      <trkpt lat="43.62503" lon="3.0263">
        <ele>650.167236</ele>
        <time>2011-07-14T08:11:38Z</time>
      </trkpt>
      <trkpt lat="43.62516" lon="3.02644">
        <ele>648.092529</ele>
        <time>2011-07-14T08:11:41Z</time>
      </trkpt>
      <trkpt lat="43.62522" lon="3.02653">
        <ele>647.27063</ele>
        <time>2011-07-14T08:11:43Z</time>
      </trkpt>
      <trkpt lat="43.62524" lon="3.02654">
        <ele>647.416565</ele>
        <time>2011-07-14T08:11:46Z</time>
      </trkpt>
      <trkpt lat="43.62518" lon="3.02651">
        <ele>646.8526</ele>
        <time>2011-07-14T08:13:49Z</time>
      </trkpt>
      <trkpt lat="43.62518" lon="3.02652">
        <ele>646.534058</ele>
        <time>2011-07-14T08:13:50Z</time>
      </trkpt>
      <trkpt lat="43.62518" lon="3.02653">
        <ele>646.474243</ele>
        <time>2011-07-14T08:13:53Z</time>
      </trkpt>
      <trkpt lat="43.62523" lon="3.02671">
        <ele>644.024109</ele>
        <time>2011-07-14T08:13:56Z</time>
      </trkpt>
      <trkpt lat="43.62527" lon="3.02699">
        <ele>640.294434</ele>
        <time>2011-07-14T08:14:01Z</time>
      </trkpt>
      <trkpt lat="43.62541" lon="3.02726">
        <ele>640.773438</ele>
        <time>2011-07-14T08:14:06Z</time>
      </trkpt>
      <trkpt lat="43.62543" lon="3.02737">
        <ele>639.0354</ele>
        <time>2011-07-14T08:14:08Z</time>
      </trkpt>
      <trkpt lat="43.62546" lon="3.02762">
        <ele>635.157532</ele>
        <time>2011-07-14T08:14:13Z</time>
      </trkpt>
      <trkpt lat="43.62547" lon="3.02766">
        <ele>634.973022</ele>
        <time>2011-07-14T08:14:16Z</time>
      </trkpt>
      <trkpt lat="43.62547" lon="3.02766">
        <ele>634.961304</ele>
        <time>2011-07-14T08:14:17Z</time>
      </trkpt>
      <trkpt lat="43.62548" lon="3.02765">
        <ele>634.844788</ele>
        <time>2011-07-14T08:14:36Z</time>
      </trkpt>
      <trkpt lat="43.62549" lon="3.02765">
        <ele>634.809448</ele>
        <time>2011-07-14T08:14:37Z</time>
      </trkpt>
      <trkpt lat="43.62549" lon="3.02765">
        <ele>634.80957</ele>
        <time>2011-07-14T08:14:38Z</time>
      </trkpt>
      <trkpt lat="43.62549" lon="3.02764">
        <ele>634.798584</ele>
        <time>2011-07-14T08:19:48Z</time>
      </trkpt>
      <trkpt lat="43.62547" lon="3.02765">
        <ele>635.012085</ele>
        <time>2011-07-14T08:19:52Z</time>
      </trkpt>
      <trkpt lat="43.62548" lon="3.02766">
        <ele>634.915222</ele>
        <time>2011-07-14T08:22:29Z</time>
      </trkpt>
      <trkpt lat="43.62549" lon="3.02765">
        <ele>634.844788</ele>
        <time>2011-07-14T08:22:30Z</time>
      </trkpt>
      <trkpt lat="43.62549" lon="3.02765">
        <ele>634.833069</ele>
        <time>2011-07-14T08:22:31Z</time>
      </trkpt>
      <trkpt lat="43.62548" lon="3.02765">
        <ele>634.869263</ele>
        <time>2011-07-14T08:23:44Z</time>
      </trkpt>
      <trkpt lat="43.62548" lon="3.02766">
        <ele>634.915222</ele>
        <time>2011-07-14T08:23:45Z</time>
      </trkpt>
      <trkpt lat="43.62547" lon="3.02765">
        <ele>634.965088</ele>
        <time>2011-07-14T08:26:43Z</time>
      </trkpt>
      <trkpt lat="43.62548" lon="3.02764">
        <ele>634.846313</ele>
        <time>2011-07-14T08:26:45Z</time>
      </trkpt>
      <trkpt lat="43.6255" lon="3.02766">
        <ele>634.656128</ele>
        <time>2011-07-14T08:28:51Z</time>
      </trkpt>
      <trkpt lat="43.62551" lon="3.02767">
        <ele>634.57489</ele>
        <time>2011-07-14T08:28:52Z</time>
      </trkpt>
      <trkpt lat="43.62559" lon="3.02767">
        <ele>633.74408</ele>
        <time>2011-07-14T08:28:57Z</time>
      </trkpt>
      <trkpt lat="43.62568" lon="3.02755">
        <ele>633.535034</ele>
        <time>2011-07-14T08:29:02Z</time>
      </trkpt>
      <trkpt lat="43.62571" lon="3.02748">
        <ele>634.215637</ele>
        <time>2011-07-14T08:29:04Z</time>
      </trkpt>
      <trkpt lat="43.62583" lon="3.02721">
        <ele>636.28241</ele>
        <time>2011-07-14T08:29:12Z</time>
      </trkpt>
      <trkpt lat="43.62592" lon="3.02708">
        <ele>635.026184</ele>
        <time>2011-07-14T08:29:17Z</time>
      </trkpt>
      <trkpt lat="43.62605" lon="3.02686">
        <ele>632.983948</ele>
        <time>2011-07-14T08:29:23Z</time>
      </trkpt>
      <trkpt lat="43.62619" lon="3.02656">
        <ele>632.582092</ele>
        <time>2011-07-14T08:29:30Z</time>
      </trkpt>
      <trkpt lat="43.62628" lon="3.02634">
        <ele>633.582153</ele>
        <time>2011-07-14T08:29:35Z</time>
      </trkpt>
      <trkpt lat="43.62634" lon="3.02622">
        <ele>636.143921</ele>
        <time>2011-07-14T08:29:38Z</time>
      </trkpt>
      <trkpt lat="43.62649" lon="3.02611">
        <ele>636.454102</ele>
        <time>2011-07-14T08:29:42Z</time>
      </trkpt>
      <trkpt lat="43.62674" lon="3.02608">
        <ele>631.910034</ele>
        <time>2011-07-14T08:29:50Z</time>
      </trkpt>
      <trkpt lat="43.62697" lon="3.02595">
        <ele>629.642822</ele>
        <time>2011-07-14T08:29:56Z</time>
      </trkpt>
      <trkpt lat="43.62722" lon="3.02565">
        <ele>630.418396</ele>
        <time>2011-07-14T08:30:02Z</time>
      </trkpt>
      <trkpt lat="43.62742" lon="3.02543">
        <ele>629.080322</ele>
        <time>2011-07-14T08:30:07Z</time>
      </trkpt>
      <trkpt lat="43.62768" lon="3.02517">
        <ele>626.809998</ele>
        <time>2011-07-14T08:30:13Z</time>
      </trkpt>
      <trkpt lat="43.62789" lon="3.02485">
        <ele>626.189758</ele>
        <time>2011-07-14T08:30:20Z</time>
      </trkpt>
      <trkpt lat="43.62805" lon="3.02453">
        <ele>627.087524</ele>
        <time>2011-07-14T08:30:27Z</time>
      </trkpt>
      <trkpt lat="43.62809" lon="3.02443">
        <ele>626.892944</ele>
        <time>2011-07-14T08:30:29Z</time>
      </trkpt>
      <trkpt lat="43.62817" lon="3.02425">
        <ele>626.361267</ele>
        <time>2011-07-14T08:30:32Z</time>
      </trkpt>
      <trkpt lat="43.62823" lon="3.02415">
        <ele>625.561279</ele>
        <time>2011-07-14T08:30:34Z</time>
      </trkpt>
      <trkpt lat="43.62825" lon="3.0241">
        <ele>625.412476</ele>
        <time>2011-07-14T08:30:35Z</time>
      </trkpt>
      <trkpt lat="43.6283" lon="3.02391">
        <ele>625.608398</ele>
        <time>2011-07-14T08:30:38Z</time>
      </trkpt>
      <trkpt lat="43.62841" lon="3.02351">
        <ele>624.48645</ele>
        <time>2011-07-14T08:30:43Z</time>
      </trkpt>
      <trkpt lat="43.62842" lon="3.02319">
        <ele>624.881897</ele>
        <time>2011-07-14T08:30:47Z</time>
      </trkpt>
      <trkpt lat="43.62839" lon="3.02292">
        <ele>625.209778</ele>
        <time>2011-07-14T08:30:52Z</time>
      </trkpt>
      <trkpt lat="43.62836" lon="3.0228">
        <ele>625.615479</ele>
        <time>2011-07-14T08:30:55Z</time>
      </trkpt>
      <trkpt lat="43.62828" lon="3.02247">
        <ele>624.751221</ele>
        <time>2011-07-14T08:31:03Z</time>
      </trkpt>
      <trkpt lat="43.62813" lon="3.0222">
        <ele>626.533752</ele>
        <time>2011-07-14T08:31:11Z</time>
      </trkpt>
      <trkpt lat="43.62797" lon="3.02207">
        <ele>630.168213</ele>
        <time>2011-07-14T08:31:17Z</time>
      </trkpt>
      <trkpt lat="43.62785" lon="3.02196">
        <ele>635.235718</ele>
        <time>2011-07-14T08:31:22Z</time>
      </trkpt>
      <trkpt lat="43.62781" lon="3.02176">
        <ele>638.124329</ele>
        <time>2011-07-14T08:31:27Z</time>
      </trkpt>
      <trkpt lat="43.62784" lon="3.0215">
        <ele>639.14563</ele>
        <time>2011-07-14T08:31:35Z</time>
      </trkpt>
      <trkpt lat="43.62791" lon="3.02127">
        <ele>640.153076</ele>
        <time>2011-07-14T08:31:43Z</time>
      </trkpt>
      <trkpt lat="43.628" lon="3.02105">
        <ele>641.845886</ele>
        <time>2011-07-14T08:31:50Z</time>
      </trkpt>
      <trkpt lat="43.62809" lon="3.02089">
        <ele>642.228394</ele>
        <time>2011-07-14T08:31:56Z</time>
      </trkpt>
      <trkpt lat="43.62821" lon="3.0206">
        <ele>642.607483</ele>
        <time>2011-07-14T08:32:05Z</time>
      </trkpt>
      <trkpt lat="43.62829" lon="3.02045">
        <ele>642.282471</ele>
        <time>2011-07-14T08:32:09Z</time>
      </trkpt>
      <trkpt lat="43.62845" lon="3.02034">
        <ele>638.619995</ele>
        <time>2011-07-14T08:32:14Z</time>
      </trkpt>
      <trkpt lat="43.62855" lon="3.02021">
        <ele>637.103088</ele>
        <time>2011-07-14T08:32:20Z</time>
      </trkpt>
      <trkpt lat="43.62852" lon="3.02007">
        <ele>638.250427</ele>
        <time>2011-07-14T08:32:26Z</time>
      </trkpt>
      <trkpt lat="43.62845" lon="3.01999">
        <ele>641.145081</ele>
        <time>2011-07-14T08:32:31Z</time>
      </trkpt>
      <trkpt lat="43.62838" lon="3.01987">
        <ele>643.488342</ele>
        <time>2011-07-14T08:32:37Z</time>
      </trkpt>
      <trkpt lat="43.62831" lon="3.01978">
        <ele>646.060669</ele>
        <time>2011-07-14T08:32:43Z</time>
      </trkpt>
      <trkpt lat="43.62815" lon="3.01961">
        <ele>651.403381</ele>
        <time>2011-07-14T08:32:53Z</time>
      </trkpt>
      <trkpt lat="43.62812" lon="3.01957">
        <ele>652.984924</ele>
        <time>2011-07-14T08:32:55Z</time>
      </trkpt>
      <trkpt lat="43.6281" lon="3.01952">
        <ele>654.949707</ele>
        <time>2011-07-14T08:32:57Z</time>
      </trkpt>
      <trkpt lat="43.62814" lon="3.01936">
        <ele>656.828674</ele>
        <time>2011-07-14T08:33:04Z</time>
      </trkpt>
      <trkpt lat="43.62827" lon="3.01934">
        <ele>654.736816</ele>
        <time>2011-07-14T08:33:11Z</time>
      </trkpt>
      <trkpt lat="43.6284" lon="3.01929">
        <ele>653.557678</ele>
        <time>2011-07-14T08:33:19Z</time>
      </trkpt>
      <trkpt lat="43.62853" lon="3.01919">
        <ele>655.187439</ele>
        <time>2011-07-14T08:33:27Z</time>
      </trkpt>
      <trkpt lat="43.62868" lon="3.01909">
        <ele>657.110352</ele>
        <time>2011-07-14T08:33:34Z</time>
      </trkpt>
      <trkpt lat="43.62887" lon="3.01897">
        <ele>659.125305</ele>
        <time>2011-07-14T08:33:41Z</time>
      </trkpt>
      <trkpt lat="43.62904" lon="3.01886">
        <ele>657.808167</ele>
        <time>2011-07-14T08:33:48Z</time>
      </trkpt>
      <trkpt lat="43.62918" lon="3.01872">
        <ele>655.989075</ele>
        <time>2011-07-14T08:33:53Z</time>
      </trkpt>
      <trkpt lat="43.62927" lon="3.01858">
        <ele>654.499146</ele>
        <time>2011-07-14T08:33:58Z</time>
      </trkpt>
      <trkpt lat="43.62927" lon="3.01854">
        <ele>654.477966</ele>
        <time>2011-09-25T14:51:35Z</time>
      </trkpt>
      <trkpt lat="43.6293" lon="3.01841">
        <ele>653.956116</ele>
        <time>2011-09-25T14:51:40Z</time>
      </trkpt>
      <trkpt lat="43.62932" lon="3.01839">
        <ele>653.497803</ele>
        <time>2011-09-25T14:51:41Z</time>
      </trkpt>
      <trkpt lat="43.62935" lon="3.01837">
        <ele>652.397827</ele>
        <time>2011-09-25T14:51:45Z</time>
      </trkpt>
      <trkpt lat="43.62936" lon="3.01841">
        <ele>652.28595</ele>
        <time>2011-09-25T14:56:01Z</time>
      </trkpt>
      <trkpt lat="43.62944" lon="3.0184">
        <ele>650.177551</ele>
        <time>2011-09-25T14:56:07Z</time>
      </trkpt>
      <trkpt lat="43.62947" lon="3.0184">
        <ele>649.394226</ele>
        <time>2011-09-25T14:56:11Z</time>
      </trkpt>
      <trkpt lat="43.62956" lon="3.01842">
        <ele>646.733276</ele>
        <time>2011-09-25T14:56:15Z</time>
      </trkpt>
      <trkpt lat="43.62968" lon="3.01856">
        <ele>643.254639</ele>
        <time>2011-09-25T14:56:20Z</time>
      </trkpt>
      <trkpt lat="43.62979" lon="3.01869">
        <ele>640.906189</ele>
        <time>2011-09-25T14:56:24Z</time>
      </trkpt>
      <trkpt lat="43.62983" lon="3.01876">
        <ele>639.876099</ele>
        <time>2011-09-25T14:56:27Z</time>
      </trkpt>
      <trkpt lat="43.62992" lon="3.01881">
        <ele>637.84137</ele>
        <time>2011-09-25T14:56:31Z</time>
      </trkpt>
      <trkpt lat="43.62998" lon="3.01893">
        <ele>636.34613</ele>
        <time>2011-09-25T14:56:35Z</time>
      </trkpt>
      <trkpt lat="43.63001" lon="3.01897">
        <ele>635.575195</ele>
        <time>2011-09-25T14:56:36Z</time>
      </trkpt>
      <trkpt lat="43.63005" lon="3.01906">
        <ele>633.968384</ele>
        <time>2011-09-25T14:56:38Z</time>
      </trkpt>
      <trkpt lat="43.63009" lon="3.01915">
        <ele>632.089233</ele>
        <time>2011-09-25T14:56:40Z</time>
      </trkpt>
      <trkpt lat="43.63009" lon="3.01918">
        <ele>631.641052</ele>
        <time>2011-09-25T14:56:41Z</time>
      </trkpt>
      <trkpt lat="43.63015" lon="3.01929">
        <ele>629.079224</ele>
        <time>2011-09-25T14:56:45Z</time>
      </trkpt>
      <trkpt lat="43.63025" lon="3.01941">
        <ele>625.906982</ele>
        <time>2011-09-25T14:56:49Z</time>
      </trkpt>
      <trkpt lat="43.63031" lon="3.0195">
        <ele>624.285034</ele>
        <time>2011-09-25T14:56:52Z</time>
      </trkpt>
      <trkpt lat="43.63033" lon="3.01959">
        <ele>623.885986</ele>
        <time>2011-09-25T14:56:54Z</time>
      </trkpt>
      <trkpt lat="43.63037" lon="3.01984">
        <ele>621.40332</ele>
        <time>2011-09-25T14:56:59Z</time>
      </trkpt>
      <trkpt lat="43.63048" lon="3.01999">
        <ele>617.813782</ele>
        <time>2011-09-25T14:57:03Z</time>
      </trkpt>
      <trkpt lat="43.63059" lon="3.02004">
        <ele>615.135193</ele>
        <time>2011-09-25T14:57:06Z</time>
      </trkpt>
      <trkpt lat="43.63066" lon="3.02007">
        <ele>613.629883</ele>
        <time>2011-09-25T14:57:10Z</time>
      </trkpt>
      <trkpt lat="43.63076" lon="3.02009">
        <ele>611.740601</ele>
        <time>2011-09-25T14:57:14Z</time>
      </trkpt>
      <trkpt lat="43.63082" lon="3.02019">
        <ele>610.816772</ele>
        <time>2011-09-25T14:57:17Z</time>
      </trkpt>
      <trkpt lat="43.63094" lon="3.02022">
        <ele>607.181396</ele>
        <time>2011-09-25T14:57:20Z</time>
      </trkpt>
      <trkpt lat="43.63105" lon="3.02036">
        <ele>603.429321</ele>
        <time>2011-09-25T14:57:23Z</time>
      </trkpt>
      <trkpt lat="43.6311" lon="3.02054">
        <ele>601.463318</ele>
        <time>2011-09-25T14:57:26Z</time>
      </trkpt>
      <trkpt lat="43.63114" lon="3.02071">
        <ele>600.106567</ele>
        <time>2011-09-25T14:57:29Z</time>
      </trkpt>
      <trkpt lat="43.63119" lon="3.02078">
        <ele>598.915222</ele>
        <time>2011-09-25T14:57:31Z</time>
      </trkpt>
      <trkpt lat="43.63126" lon="3.0208">
        <ele>597.157898</ele>
        <time>2011-09-25T14:57:34Z</time>
      </trkpt>
      <trkpt lat="43.63139" lon="3.02062">
        <ele>592.280334</ele>
        <time>2011-09-25T14:57:38Z</time>
      </trkpt>
      <trkpt lat="43.63158" lon="3.02047">
        <ele>585.365723</ele>
        <time>2011-09-25T14:57:42Z</time>
      </trkpt>
      <trkpt lat="43.63165" lon="3.02043">
        <ele>583.075562</ele>
        <time>2011-09-25T14:57:44Z</time>
      </trkpt>
      <trkpt lat="43.6317" lon="3.02027">
        <ele>581.620789</ele>
        <time>2011-09-25T14:57:48Z</time>
      </trkpt>
      <trkpt lat="43.63172" lon="3.02023">
        <ele>580.634094</ele>
        <time>2011-09-25T14:57:49Z</time>
      </trkpt>
      <trkpt lat="43.63174" lon="3.02019">
        <ele>579.30658</ele>
        <time>2011-09-25T14:57:50Z</time>
      </trkpt>
      <trkpt lat="43.63178" lon="3.02003">
        <ele>576.085754</ele>
        <time>2011-09-25T14:57:54Z</time>
      </trkpt>
      <trkpt lat="43.63181" lon="3.02001">
        <ele>574.661072</ele>
        <time>2011-09-25T14:57:57Z</time>
      </trkpt>
      <trkpt lat="43.63183" lon="3.02005">
        <ele>574.15741</ele>
        <time>2011-09-25T14:57:59Z</time>
      </trkpt>
      <trkpt lat="43.63185" lon="3.02011">
        <ele>573.533142</ele>
        <time>2011-09-25T14:58:01Z</time>
      </trkpt>
      <trkpt lat="43.63189" lon="3.02004">
        <ele>571.2677</ele>
        <time>2011-09-25T14:58:05Z</time>
      </trkpt>
      <trkpt lat="43.63192" lon="3.01996">
        <ele>569.607239</ele>
        <time>2011-09-25T14:58:09Z</time>
      </trkpt>
      <trkpt lat="43.63201" lon="3.01998">
        <ele>566.120239</ele>
        <time>2011-09-25T14:58:13Z</time>
      </trkpt>
      <trkpt lat="43.63207" lon="3.01995">
        <ele>563.681824</ele>
        <time>2011-09-25T14:58:16Z</time>
      </trkpt>
      <trkpt lat="43.63213" lon="3.01985">
        <ele>560.760071</ele>
        <time>2011-09-25T14:58:19Z</time>
      </trkpt>
      <trkpt lat="43.63215" lon="3.01981">
        <ele>560.13269</ele>
        <time>2011-09-25T14:58:20Z</time>
      </trkpt>
      <trkpt lat="43.63211" lon="3.01961">
        <ele>559.437073</ele>
        <time>2011-09-25T14:58:25Z</time>
      </trkpt>
      <trkpt lat="43.63208" lon="3.01952">
        <ele>557.398193</ele>
        <time>2011-09-25T14:58:27Z</time>
      </trkpt>
      <trkpt lat="43.63203" lon="3.01932">
        <ele>551.316833</ele>
        <time>2011-09-25T14:58:32Z</time>
      </trkpt>
      <trkpt lat="43.632" lon="3.01925">
        <ele>550.281128</ele>
        <time>2011-09-25T14:58:34Z</time>
      </trkpt>
      <trkpt lat="43.63197" lon="3.01921">
        <ele>549.783264</ele>
        <time>2011-09-25T14:58:37Z</time>
      </trkpt>
      <trkpt lat="43.63196" lon="3.01919">
        <ele>549.475952</ele>
        <time>2011-09-25T14:58:41Z</time>
      </trkpt>
      <trkpt lat="43.63194" lon="3.01914">
        <ele>548.788696</ele>
        <time>2011-09-25T14:58:45Z</time>
      </trkpt>
      <trkpt lat="43.63193" lon="3.01913">
        <ele>548.619446</ele>
        <time>2011-09-25T14:58:49Z</time>
      </trkpt>
      <trkpt lat="43.63192" lon="3.01911">
        <ele>548.245728</ele>
        <time>2011-09-25T14:58:51Z</time>
      </trkpt>
      <trkpt lat="43.63191" lon="3.01911">
        <ele>548.702271</ele>
        <time>2011-09-25T14:59:03Z</time>
      </trkpt>
      <trkpt lat="43.6319" lon="3.0191">
        <ele>548.624023</ele>
        <time>2011-09-25T14:59:04Z</time>
      </trkpt>
      <trkpt lat="43.63191" lon="3.0191">
        <ele>548.302612</ele>
        <time>2011-09-25T14:59:18Z</time>
      </trkpt>
      <trkpt lat="43.6319" lon="3.01909">
        <ele>548.324341</ele>
        <time>2011-09-25T14:59:19Z</time>
      </trkpt>
      <trkpt lat="43.6319" lon="3.01908">
        <ele>548.130615</ele>
        <time>2011-09-25T14:59:25Z</time>
      </trkpt>
      <trkpt lat="43.63189" lon="3.01907">
        <ele>548.021118</ele>
        <time>2011-09-25T14:59:26Z</time>
      </trkpt>
      <trkpt lat="43.63188" lon="3.01906">
        <ele>547.771179</ele>
        <time>2011-09-25T14:59:30Z</time>
      </trkpt>
      <trkpt lat="43.63188" lon="3.01903">
        <ele>547.017639</ele>
        <time>2011-09-25T14:59:32Z</time>
      </trkpt>
      <trkpt lat="43.63189" lon="3.01902">
        <ele>546.535767</ele>
        <time>2011-09-25T14:59:34Z</time>
      </trkpt>
      <trkpt lat="43.63189" lon="3.019">
        <ele>546.726013</ele>
        <time>2011-09-25T14:59:37Z</time>
      </trkpt>
      <trkpt lat="43.63187" lon="3.01897">
        <ele>547.328552</ele>
        <time>2011-09-25T14:59:39Z</time>
      </trkpt>
      <trkpt lat="43.63184" lon="3.01893">
        <ele>548.41394</ele>
        <time>2011-09-25T14:59:43Z</time>
      </trkpt>
      <trkpt lat="43.63183" lon="3.01891">
        <ele>548.660461</ele>
        <time>2011-09-25T14:59:53Z</time>
      </trkpt>
      <trkpt lat="43.63183" lon="3.01891">
        <ele>548.758972</ele>
        <time>2011-09-25T14:59:54Z</time>
      </trkpt>
      <trkpt lat="43.63182" lon="3.0189">
        <ele>548.755554</ele>
        <time>2011-09-25T15:00:01Z</time>
      </trkpt>
      <trkpt lat="43.63182" lon="3.01889">
        <ele>548.760193</ele>
        <time>2011-09-25T15:00:02Z</time>
      </trkpt>
      <trkpt lat="43.6318" lon="3.01878">
        <ele>548.950806</ele>
        <time>2011-09-25T15:00:05Z</time>
      </trkpt>
      <trkpt lat="43.63179" lon="3.01874">
        <ele>548.868896</ele>
        <time>2011-09-25T15:00:07Z</time>
      </trkpt>
      <trkpt lat="43.63179" lon="3.01872">
        <ele>548.792847</ele>
        <time>2011-09-25T15:00:08Z</time>
      </trkpt>
      <trkpt lat="43.63189" lon="3.01869">
        <ele>546.985168</ele>
        <time>2011-09-25T15:00:14Z</time>
      </trkpt>
      <trkpt lat="43.6319" lon="3.01869">
        <ele>546.906494</ele>
        <time>2011-09-25T15:00:15Z</time>
      </trkpt>
      <trkpt lat="43.63191" lon="3.01869">
        <ele>546.750183</ele>
        <time>2011-09-25T15:00:31Z</time>
      </trkpt>
      <trkpt lat="43.63191" lon="3.01869">
        <ele>546.631653</ele>
        <time>2011-09-25T15:00:32Z</time>
      </trkpt>
      <trkpt lat="43.63206" lon="3.01872">
        <ele>543.636902</ele>
        <time>2011-09-25T15:00:37Z</time>
      </trkpt>
      <trkpt lat="43.63222" lon="3.01878">
        <ele>539.662659</ele>
        <time>2011-09-25T15:00:41Z</time>
      </trkpt>
      <trkpt lat="43.6323" lon="3.0188">
        <ele>537.845703</ele>
        <time>2011-09-25T15:00:45Z</time>
      </trkpt>
      <trkpt lat="43.63235" lon="3.0188">
        <ele>536.849121</ele>
        <time>2011-09-25T15:00:47Z</time>
      </trkpt>
      <trkpt lat="43.6324" lon="3.0188">
        <ele>535.791138</ele>
        <time>2011-09-25T15:00:49Z</time>
      </trkpt>
      <trkpt lat="43.6325" lon="3.01884">
        <ele>532.718018</ele>
        <time>2011-09-25T15:00:52Z</time>
      </trkpt>
      <trkpt lat="43.63257" lon="3.01893">
        <ele>528.7453</ele>
        <time>2011-09-25T15:00:55Z</time>
      </trkpt>
      <trkpt lat="43.63269" lon="3.01903">
        <ele>523.692627</ele>
        <time>2011-09-25T15:00:59Z</time>
      </trkpt>
      <trkpt lat="43.63276" lon="3.01917">
        <ele>522.40686</ele>
        <time>2011-09-25T15:01:04Z</time>
      </trkpt>
      <trkpt lat="43.63279" lon="3.0192">
        <ele>521.786377</ele>
        <time>2011-09-25T15:01:05Z</time>
      </trkpt>
      <trkpt lat="43.63291" lon="3.01927">
        <ele>519.02124</ele>
        <time>2011-09-25T15:01:08Z</time>
      </trkpt>
      <trkpt lat="43.63301" lon="3.01935">
        <ele>516.049255</ele>
        <time>2011-09-25T15:01:12Z</time>
      </trkpt>
      <trkpt lat="43.63311" lon="3.01945">
        <ele>513.107605</ele>
        <time>2011-09-25T15:01:16Z</time>
      </trkpt>
      <trkpt lat="43.63312" lon="3.01947">
        <ele>512.90271</ele>
        <time>2011-09-25T15:01:17Z</time>
      </trkpt>
      <trkpt lat="43.63317" lon="3.01955">
        <ele>511.673828</ele>
        <time>2011-09-25T15:01:23Z</time>
      </trkpt>
      <trkpt lat="43.63317" lon="3.01955">
        <ele>511.663788</ele>
        <time>2011-09-25T15:01:24Z</time>
      </trkpt>
      <trkpt lat="43.63318" lon="3.01956">
        <ele>511.560883</ele>
        <time>2011-09-25T15:01:28Z</time>
      </trkpt>
      <trkpt lat="43.6332" lon="3.01959">
        <ele>511.170502</ele>
        <time>2011-09-25T15:01:31Z</time>
      </trkpt>
      <trkpt lat="43.6332" lon="3.01961">
        <ele>510.897644</ele>
        <time>2011-09-25T15:01:33Z</time>
      </trkpt>
      <trkpt lat="43.63324" lon="3.01963">
        <ele>510.571625</ele>
        <time>2011-09-25T15:01:39Z</time>
      </trkpt>
      <trkpt lat="43.63325" lon="3.01964">
        <ele>510.367126</ele>
        <time>2011-09-25T15:01:41Z</time>
      </trkpt>
      <trkpt lat="43.63325" lon="3.01965">
        <ele>510.183563</ele>
        <time>2011-09-25T15:01:44Z</time>
      </trkpt>
      <trkpt lat="43.63326" lon="3.01966">
        <ele>510.024536</ele>
        <time>2011-09-25T15:01:45Z</time>
      </trkpt>
      <trkpt lat="43.63326" lon="3.01966">
        <ele>510.012299</ele>
        <time>2011-09-25T15:01:46Z</time>
      </trkpt>
      <trkpt lat="43.63327" lon="3.01967">
        <ele>509.971802</ele>
        <time>2011-09-25T15:01:54Z</time>
      </trkpt>
      <trkpt lat="43.63327" lon="3.01968">
        <ele>509.821411</ele>
        <time>2011-09-25T15:01:57Z</time>
      </trkpt>
      <trkpt lat="43.63327" lon="3.01972">
        <ele>509.311798</ele>
        <time>2011-09-25T15:02:03Z</time>
      </trkpt>
      <trkpt lat="43.63326" lon="3.01973">
        <ele>509.273193</ele>
        <time>2011-09-25T15:02:06Z</time>
      </trkpt>
      <trkpt lat="43.63324" lon="3.01975">
        <ele>509.049591</ele>
        <time>2011-09-25T15:02:09Z</time>
      </trkpt>
      <trkpt lat="43.63325" lon="3.01975">
        <ele>509.050385</ele>
        <time>2011-09-25T15:02:13Z</time>
      </trkpt>
      <trkpt lat="43.63325" lon="3.01975">
        <ele>508.989197</ele>
        <time>2011-09-25T15:02:14Z</time>
      </trkpt>
      <trkpt lat="43.63333" lon="3.01974">
        <ele>509.001801</ele>
        <time>2011-09-25T15:02:18Z</time>
      </trkpt>
      <trkpt lat="43.63335" lon="3.01972">
        <ele>509.165649</ele>
        <time>2011-09-25T15:02:19Z</time>
      </trkpt>
      <trkpt lat="43.63336" lon="3.01971">
        <ele>509.286987</ele>
        <time>2011-09-25T15:02:21Z</time>
      </trkpt>
      <trkpt lat="43.63337" lon="3.01971">
        <ele>509.292389</ele>
        <time>2011-09-25T15:02:24Z</time>
      </trkpt>
      <trkpt lat="43.63338" lon="3.01971">
        <ele>509.327393</ele>
        <time>2011-09-25T15:02:25Z</time>
      </trkpt>
      <trkpt lat="43.6334" lon="3.01971">
        <ele>509.361694</ele>
        <time>2011-09-25T15:02:26Z</time>
      </trkpt>
      <trkpt lat="43.63345" lon="3.01971">
        <ele>509.221344</ele>
        <time>2011-09-25T15:02:32Z</time>
      </trkpt>
      <trkpt lat="43.63346" lon="3.01972">
        <ele>509.127991</ele>
        <time>2011-09-25T15:02:36Z</time>
      </trkpt>
      <trkpt lat="43.63346" lon="3.01972">
        <ele>509.029083</ele>
        <time>2011-09-25T15:02:37Z</time>
      </trkpt>
      <trkpt lat="43.63346" lon="3.01973">
        <ele>508.849213</ele>
        <time>2011-09-25T15:02:40Z</time>
      </trkpt>
      <trkpt lat="43.63348" lon="3.01977">
        <ele>508.085815</ele>
        <time>2011-09-25T15:02:42Z</time>
      </trkpt>
      <trkpt lat="43.63348" lon="3.01979">
        <ele>507.699585</ele>
        <time>2011-09-25T15:02:44Z</time>
      </trkpt>
      <trkpt lat="43.6335" lon="3.01992">
        <ele>505.258514</ele>
        <time>2011-09-25T15:02:50Z</time>
      </trkpt>
      <trkpt lat="43.63353" lon="3.02012">
        <ele>501.911255</ele>
        <time>2011-09-25T15:02:56Z</time>
      </trkpt>
      <trkpt lat="43.63358" lon="3.02029">
        <ele>501.083618</ele>
        <time>2011-09-25T15:03:00Z</time>
      </trkpt>
      <trkpt lat="43.63366" lon="3.0206">
        <ele>500.032501</ele>
        <time>2011-09-25T15:03:06Z</time>
      </trkpt>
      <trkpt lat="43.63371" lon="3.02077">
        <ele>499.862152</ele>
        <time>2011-09-25T15:03:10Z</time>
      </trkpt>
      <trkpt lat="43.63374" lon="3.02083">
        <ele>500.344055</ele>
        <time>2011-09-25T15:03:14Z</time>
      </trkpt>
      <trkpt lat="43.63374" lon="3.02084">
        <ele>500.308136</ele>
        <time>2011-09-25T15:03:17Z</time>
      </trkpt>
      <trkpt lat="43.63374" lon="3.02086">
        <ele>499.790405</ele>
        <time>2011-09-25T15:03:18Z</time>
      </trkpt>
      <trkpt lat="43.63375" lon="3.02094">
        <ele>499.341736</ele>
        <time>2011-09-25T15:03:23Z</time>
      </trkpt>
      <trkpt lat="43.63378" lon="3.0211">
        <ele>498.577972</ele>
        <time>2011-09-25T15:03:30Z</time>
      </trkpt>
      <trkpt lat="43.63382" lon="3.02119">
        <ele>499.292816</ele>
        <time>2011-09-25T15:03:34Z</time>
      </trkpt>
      <trkpt lat="43.63388" lon="3.02131">
        <ele>500.267212</ele>
        <time>2011-09-25T15:03:38Z</time>
      </trkpt>
      <trkpt lat="43.634" lon="3.02155">
        <ele>502.824371</ele>
        <time>2011-09-25T15:03:43Z</time>
      </trkpt>
      <trkpt lat="43.63412" lon="3.02177">
        <ele>504.071289</ele>
        <time>2011-09-25T15:03:48Z</time>
      </trkpt>
      <trkpt lat="43.6342" lon="3.02198">
        <ele>503.057343</ele>
        <time>2011-09-25T15:03:52Z</time>
      </trkpt>
      <trkpt lat="43.63425" lon="3.02212">
        <ele>502.406189</ele>
        <time>2011-09-25T15:03:55Z</time>
      </trkpt>
      <trkpt lat="43.63431" lon="3.02232">
        <ele>500.018738</ele>
        <time>2011-09-25T15:03:58Z</time>
      </trkpt>
      <trkpt lat="43.63442" lon="3.02251">
        <ele>499.241486</ele>
        <time>2011-09-25T15:04:02Z</time>
      </trkpt>
      <trkpt lat="43.63447" lon="3.02259">
        <ele>496.794952</ele>
        <time>2011-09-25T15:04:04Z</time>
      </trkpt>
      <trkpt lat="43.63452" lon="3.02267">
        <ele>494.180817</ele>
        <time>2011-09-25T15:04:07Z</time>
      </trkpt>
      <trkpt lat="43.63464" lon="3.02264">
        <ele>493.086395</ele>
        <time>2011-09-25T15:04:13Z</time>
      </trkpt>
      <trkpt lat="43.63479" lon="3.02255">
        <ele>493.108124</ele>
        <time>2011-09-25T15:04:18Z</time>
      </trkpt>
      <trkpt lat="43.6349" lon="3.02249">
        <ele>493.216248</ele>
        <time>2011-09-25T15:04:21Z</time>
      </trkpt>
      <trkpt lat="43.63501" lon="3.02246">
        <ele>492.174988</ele>
        <time>2011-09-25T15:04:25Z</time>
      </trkpt>
      <trkpt lat="43.63504" lon="3.02246">
        <ele>491.987488</ele>
        <time>2011-09-25T15:04:26Z</time>
      </trkpt>
      <trkpt lat="43.6351" lon="3.02252">
        <ele>489.304993</ele>
        <time>2011-09-25T15:04:29Z</time>
      </trkpt>
      <trkpt lat="43.63518" lon="3.02269">
        <ele>483.383759</ele>
        <time>2011-09-25T15:04:35Z</time>
      </trkpt>
      <trkpt lat="43.63521" lon="3.02277">
        <ele>480.691254</ele>
        <time>2011-09-25T15:04:37Z</time>
      </trkpt>
      <trkpt lat="43.63539" lon="3.023">
        <ele>474.917786</ele>
        <time>2011-09-25T15:04:42Z</time>
      </trkpt>
      <trkpt lat="43.63544" lon="3.02303">
        <ele>474.734161</ele>
        <time>2011-09-25T15:04:43Z</time>
      </trkpt>
      <trkpt lat="43.63575" lon="3.02321">
        <ele>471.441498</ele>
        <time>2011-09-25T15:04:48Z</time>
      </trkpt>
      <trkpt lat="43.6359" lon="3.02327">
        <ele>469.6409</ele>
        <time>2011-09-25T15:04:52Z</time>
      </trkpt>
      <trkpt lat="43.63593" lon="3.02326">
        <ele>470.08078</ele>
        <time>2011-09-25T15:04:53Z</time>
      </trkpt>
      <trkpt lat="43.63612" lon="3.02335">
        <ele>466.92038</ele>
        <time>2011-09-25T15:04:57Z</time>
      </trkpt>
      <trkpt lat="43.63631" lon="3.02351">
        <ele>462.561371</ele>
        <time>2011-09-25T15:05:02Z</time>
      </trkpt>
      <trkpt lat="43.63641" lon="3.02357">
        <ele>462.153687</ele>
        <time>2011-09-25T15:05:05Z</time>
      </trkpt>
      <trkpt lat="43.63647" lon="3.02359">
        <ele>462.935974</ele>
        <time>2011-09-25T15:05:07Z</time>
      </trkpt>
      <trkpt lat="43.63659" lon="3.02373">
        <ele>460.142914</ele>
        <time>2011-09-25T15:05:13Z</time>
      </trkpt>
      <trkpt lat="43.63667" lon="3.02382">
        <ele>458.605042</ele>
        <time>2011-09-25T15:05:17Z</time>
      </trkpt>
      <trkpt lat="43.63673" lon="3.0239">
        <ele>457.920502</ele>
        <time>2011-09-25T15:05:22Z</time>
      </trkpt>
      <trkpt lat="43.63673" lon="3.0239">
        <ele>457.675964</ele>
        <time>2011-09-25T15:05:23Z</time>
      </trkpt>
      <trkpt lat="43.63671" lon="3.024">
        <ele>453.283142</ele>
        <time>2011-09-25T15:05:50Z</time>
      </trkpt>
      <trkpt lat="43.63678" lon="3.02407">
        <ele>453.307068</ele>
        <time>2011-09-25T15:05:53Z</time>
      </trkpt>
      <trkpt lat="43.6369" lon="3.02431">
        <ele>450.638763</ele>
        <time>2011-09-25T15:05:57Z</time>
      </trkpt>
      <trkpt lat="43.63702" lon="3.02452">
        <ele>448.400269</ele>
        <time>2011-09-25T15:06:01Z</time>
      </trkpt>
      <trkpt lat="43.63704" lon="3.02455">
        <ele>447.940247</ele>
        <time>2011-09-25T15:06:02Z</time>
      </trkpt>
      <trkpt lat="43.63701" lon="3.02469">
        <ele>442.855347</ele>
        <time>2011-09-25T15:06:06Z</time>
      </trkpt>
      <trkpt lat="43.63699" lon="3.02476">
        <ele>440.458252</ele>
        <time>2011-09-25T15:06:08Z</time>
      </trkpt>
      <trkpt lat="43.63706" lon="3.02486">
        <ele>440.008301</ele>
        <time>2011-09-25T15:06:12Z</time>
      </trkpt>
      <trkpt lat="43.63716" lon="3.0249">
        <ele>440.886139</ele>
        <time>2011-09-25T15:06:14Z</time>
      </trkpt>
      <trkpt lat="43.6373" lon="3.02502">
        <ele>440.701874</ele>
        <time>2011-09-25T15:06:18Z</time>
      </trkpt>
      <trkpt lat="43.63737" lon="3.02508">
        <ele>440.669403</ele>
        <time>2011-09-25T15:06:22Z</time>
      </trkpt>
      <trkpt lat="43.63751" lon="3.02513">
        <ele>441.925995</ele>
        <time>2011-09-25T15:06:26Z</time>
      </trkpt>
      <trkpt lat="43.63766" lon="3.02528">
        <ele>440.450653</ele>
        <time>2011-09-25T15:06:29Z</time>
      </trkpt>
      <trkpt lat="43.63788" lon="3.02555">
        <ele>437.139984</ele>
        <time>2011-09-25T15:06:34Z</time>
      </trkpt>
      <trkpt lat="43.63796" lon="3.02562">
        <ele>436.502502</ele>
        <time>2011-09-25T15:06:38Z</time>
      </trkpt>
      <trkpt lat="43.63799" lon="3.02565">
        <ele>436.236237</ele>
        <time>2011-09-25T15:06:39Z</time>
      </trkpt>
      <trkpt lat="43.63817" lon="3.02585">
        <ele>434.587494</ele>
        <time>2011-09-25T15:06:44Z</time>
      </trkpt>
      <trkpt lat="43.63827" lon="3.02598">
        <ele>432.418671</ele>
        <time>2011-09-25T15:06:48Z</time>
      </trkpt>
      <trkpt lat="43.63828" lon="3.02601">
        <ele>431.53949</ele>
        <time>2011-09-25T15:06:49Z</time>
      </trkpt>
      <trkpt lat="43.63834" lon="3.02611">
        <ele>428.839996</ele>
        <time>2011-09-25T15:06:52Z</time>
      </trkpt>
      <trkpt lat="43.63842" lon="3.02621">
        <ele>425.874878</ele>
        <time>2011-09-25T15:06:54Z</time>
      </trkpt>
      <trkpt lat="43.63849" lon="3.02638">
        <ele>420.970093</ele>
        <time>2011-09-25T15:06:58Z</time>
      </trkpt>
      <trkpt lat="43.63849" lon="3.02638">
        <ele>420.842041</ele>
        <time>2011-09-25T15:07:00Z</time>
      </trkpt>
      <trkpt lat="43.63851" lon="3.0264">
        <ele>420.69989</ele>
        <time>2011-09-25T15:07:14Z</time>
      </trkpt>
      <trkpt lat="43.63851" lon="3.02641">
        <ele>419.913177</ele>
        <time>2011-09-25T15:07:17Z</time>
      </trkpt>
      <trkpt lat="43.63851" lon="3.02642">
        <ele>419.724426</ele>
        <time>2011-09-25T15:07:20Z</time>
      </trkpt>
      <trkpt lat="43.63855" lon="3.02643">
        <ele>420.104889</ele>
        <time>2011-09-25T15:07:24Z</time>
      </trkpt>
      <trkpt lat="43.63858" lon="3.02646">
        <ele>419.884003</ele>
        <time>2011-09-25T15:07:27Z</time>
      </trkpt>
      <trkpt lat="43.63863" lon="3.02651">
        <ele>418.848145</ele>
        <time>2011-09-25T15:07:33Z</time>
      </trkpt>
      <trkpt lat="43.6387" lon="3.02656">
        <ele>418.88678</ele>
        <time>2011-09-25T15:07:40Z</time>
      </trkpt>
      <trkpt lat="43.63872" lon="3.02661">
        <ele>418.078827</ele>
        <time>2011-09-25T15:07:42Z</time>
      </trkpt>
      <trkpt lat="43.6388" lon="3.02674">
        <ele>414.588623</ele>
        <time>2011-09-25T15:07:47Z</time>
      </trkpt>
      <trkpt lat="43.63883" lon="3.02676">
        <ele>414.25589</ele>
        <time>2011-09-25T15:07:49Z</time>
      </trkpt>
      <trkpt lat="43.6389" lon="3.02679">
        <ele>413.752594</ele>
        <time>2011-09-25T15:07:52Z</time>
      </trkpt>
      <trkpt lat="43.63902" lon="3.02692">
        <ele>410.23175</ele>
        <time>2011-09-25T15:07:56Z</time>
      </trkpt>
      <trkpt lat="43.6391" lon="3.02698">
        <ele>409.074341</ele>
        <time>2011-09-25T15:07:59Z</time>
      </trkpt>
      <trkpt lat="43.6392" lon="3.02707">
        <ele>406.523163</ele>
        <time>2011-09-25T15:08:03Z</time>
      </trkpt>
      <trkpt lat="43.63925" lon="3.02712">
        <ele>405.034637</ele>
        <time>2011-09-25T15:08:06Z</time>
      </trkpt>
      <trkpt lat="43.63931" lon="3.02719">
        <ele>403.744995</ele>
        <time>2011-09-25T15:08:10Z</time>
      </trkpt>
      <trkpt lat="43.63938" lon="3.02726">
        <ele>404.286224</ele>
        <time>2011-09-25T15:08:12Z</time>
      </trkpt>
      <trkpt lat="43.63949" lon="3.02738">
        <ele>403.612854</ele>
        <time>2011-09-25T15:08:15Z</time>
      </trkpt>
      <trkpt lat="43.63962" lon="3.02748">
        <ele>401.248444</ele>
        <time>2011-09-25T15:08:19Z</time>
      </trkpt>
      <trkpt lat="43.63971" lon="3.02762">
        <ele>395.859253</ele>
        <time>2011-09-25T15:08:23Z</time>
      </trkpt>
      <trkpt lat="43.6398" lon="3.02772">
        <ele>391.923584</ele>
        <time>2011-09-25T15:08:27Z</time>
      </trkpt>
      <trkpt lat="43.63993" lon="3.02784">
        <ele>392.361633</ele>
        <time>2011-09-25T15:08:31Z</time>
      </trkpt>
      <trkpt lat="43.64007" lon="3.02798">
        <ele>393.76181</ele>
        <time>2011-09-25T15:08:37Z</time>
      </trkpt>
      <trkpt lat="43.64022" lon="3.02812">
        <ele>391.796997</ele>
        <time>2011-09-25T15:08:42Z</time>
      </trkpt>
      <trkpt lat="43.64033" lon="3.0282">
        <ele>391.053375</ele>
        <time>2011-09-25T15:08:45Z</time>
      </trkpt>
      <trkpt lat="43.64044" lon="3.02827">
        <ele>390.258392</ele>
        <time>2011-09-25T15:08:49Z</time>
      </trkpt>
      <trkpt lat="43.64048" lon="3.02833">
        <ele>389.140503</ele>
        <time>2011-09-25T15:08:52Z</time>
      </trkpt>
      <trkpt lat="43.64055" lon="3.0284">
        <ele>387.810333</ele>
        <time>2011-09-25T15:08:55Z</time>
      </trkpt>
      <trkpt lat="43.64059" lon="3.02846">
        <ele>387.609863</ele>
        <time>2011-09-25T15:08:59Z</time>
      </trkpt>
      <trkpt lat="43.64069" lon="3.02857">
        <ele>387.525726</ele>
        <time>2011-09-25T15:09:04Z</time>
      </trkpt>
      <trkpt lat="43.64074" lon="3.02859">
        <ele>387.451385</ele>
        <time>2011-09-25T15:09:07Z</time>
      </trkpt>
      <trkpt lat="43.64082" lon="3.02866">
        <ele>386.982635</ele>
        <time>2011-09-25T15:09:13Z</time>
      </trkpt>
      <trkpt lat="43.64087" lon="3.0287">
        <ele>386.553741</ele>
        <time>2011-09-25T15:09:17Z</time>
      </trkpt>
      <trkpt lat="43.64092" lon="3.02877">
        <ele>385.752014</ele>
        <time>2011-09-25T15:09:22Z</time>
      </trkpt>
      <trkpt lat="43.64097" lon="3.02886">
        <ele>384.567352</ele>
        <time>2011-09-25T15:09:30Z</time>
      </trkpt>
      <trkpt lat="43.64097" lon="3.02891">
        <ele>383.931366</ele>
        <time>2011-09-25T15:10:16Z</time>
      </trkpt>
      <trkpt lat="43.64101" lon="3.02891">
        <ele>383.606995</ele>
        <time>2011-09-25T15:10:22Z</time>
      </trkpt>
      <trkpt lat="43.64103" lon="3.02885">
        <ele>384.166626</ele>
        <time>2011-09-25T15:10:28Z</time>
      </trkpt>
      <trkpt lat="43.64104" lon="3.02884">
        <ele>384.253296</ele>
        <time>2011-09-25T15:10:39Z</time>
      </trkpt>
      <trkpt lat="43.64105" lon="3.0288">
        <ele>384.687683</ele>
        <time>2011-09-25T15:10:42Z</time>
      </trkpt>
      <trkpt lat="43.64107" lon="3.0287">
        <ele>385.971344</ele>
        <time>2011-09-25T15:10:50Z</time>
      </trkpt>
      <trkpt lat="43.64108" lon="3.02868">
        <ele>386.232147</ele>
        <time>2011-09-25T15:10:52Z</time>
      </trkpt>
      <trkpt lat="43.64114" lon="3.02863">
        <ele>386.64151</ele>
        <time>2011-09-25T15:11:00Z</time>
      </trkpt>
      <trkpt lat="43.64115" lon="3.02863">
        <ele>386.647278</ele>
        <time>2011-09-25T15:11:04Z</time>
      </trkpt>
      <trkpt lat="43.64125" lon="3.02853">
        <ele>386.961731</ele>
        <time>2011-09-25T15:11:10Z</time>
      </trkpt>
      <trkpt lat="43.64136" lon="3.02843">
        <ele>387.156738</ele>
        <time>2011-09-25T15:11:15Z</time>
      </trkpt>
      <trkpt lat="43.64144" lon="3.02832">
        <ele>386.693451</ele>
        <time>2011-09-25T15:11:21Z</time>
      </trkpt>
      <trkpt lat="43.64148" lon="3.02829">
        <ele>386.121399</ele>
        <time>2011-09-25T15:11:24Z</time>
      </trkpt>
      <trkpt lat="43.64155" lon="3.02816">
        <ele>384.790405</ele>
        <time>2011-09-25T15:11:31Z</time>
      </trkpt>
      <trkpt lat="43.64161" lon="3.02819">
        <ele>383.457275</ele>
        <time>2011-09-25T15:11:35Z</time>
      </trkpt>
      <trkpt lat="43.64164" lon="3.02825">
        <ele>382.799225</ele>
        <time>2011-09-25T15:11:37Z</time>
      </trkpt>
      <trkpt lat="43.64184" lon="3.02843">
        <ele>379.188232</ele>
        <time>2011-09-25T15:11:41Z</time>
      </trkpt>
      <trkpt lat="43.64209" lon="3.02872">
        <ele>373.689331</ele>
        <time>2011-09-25T15:11:45Z</time>
      </trkpt>
      <trkpt lat="43.64218" lon="3.02889">
        <ele>371.906158</ele>
        <time>2011-09-25T15:11:48Z</time>
      </trkpt>
      <trkpt lat="43.64219" lon="3.02907">
        <ele>371.638489</ele>
        <time>2011-09-25T15:11:52Z</time>
      </trkpt>
      <trkpt lat="43.64218" lon="3.02907">
        <ele>371.832855</ele>
        <time>2011-09-25T15:11:54Z</time>
      </trkpt>
      <trkpt lat="43.64217" lon="3.02907">
        <ele>372.024841</ele>
        <time>2011-09-25T15:11:57Z</time>
      </trkpt>
      <trkpt lat="43.64216" lon="3.02908">
        <ele>372.19632</ele>
        <time>2011-09-25T15:11:58Z</time>
      </trkpt>
      <trkpt lat="43.64213" lon="3.02908">
        <ele>372.581848</ele>
        <time>2011-09-25T15:12:41Z</time>
      </trkpt>
      <trkpt lat="43.64214" lon="3.02907">
        <ele>372.351227</ele>
        <time>2011-09-25T15:12:42Z</time>
      </trkpt>
      <trkpt lat="43.6422" lon="3.02912">
        <ele>372.404266</ele>
        <time>2011-09-25T15:12:49Z</time>
      </trkpt>
      <trkpt lat="43.64221" lon="3.02907">
        <ele>371.523804</ele>
        <time>2011-09-25T15:20:34Z</time>
      </trkpt>
      <trkpt lat="43.64221" lon="3.02908">
        <ele>371.621033</ele>
        <time>2011-09-25T15:20:35Z</time>
      </trkpt>
      <trkpt lat="43.64225" lon="3.02919">
        <ele>372.726257</ele>
        <time>2011-09-25T15:20:39Z</time>
      </trkpt>
      <trkpt lat="43.64227" lon="3.02921">
        <ele>372.819153</ele>
        <time>2011-09-25T15:20:42Z</time>
      </trkpt>
      <trkpt lat="43.64239" lon="3.02928">
        <ele>372.297974</ele>
        <time>2011-09-25T15:20:48Z</time>
      </trkpt>
      <trkpt lat="43.64253" lon="3.02939">
        <ele>372.046967</ele>
        <time>2011-09-25T15:20:53Z</time>
      </trkpt>
      <trkpt lat="43.64263" lon="3.02948">
        <ele>371.683868</ele>
        <time>2011-09-25T15:20:56Z</time>
      </trkpt>
      <trkpt lat="43.6428" lon="3.02955">
        <ele>369.502991</ele>
        <time>2011-09-25T15:21:00Z</time>
      </trkpt>
      <trkpt lat="43.64306" lon="3.02957">
        <ele>365.662872</ele>
        <time>2011-09-25T15:21:05Z</time>
      </trkpt>
      <trkpt lat="43.64331" lon="3.02972">
        <ele>362.051392</ele>
        <time>2011-09-25T15:21:10Z</time>
      </trkpt>
      <trkpt lat="43.64335" lon="3.02976">
        <ele>361.875</ele>
        <time>2011-09-25T15:21:11Z</time>
      </trkpt>
      <trkpt lat="43.64353" lon="3.03014">
        <ele>364.093048</ele>
        <time>2011-09-25T15:21:19Z</time>
      </trkpt>
      <trkpt lat="43.64361" lon="3.03048">
        <ele>364.463165</ele>
        <time>2011-09-25T15:21:26Z</time>
      </trkpt>
      <trkpt lat="43.64365" lon="3.03073">
        <ele>364.767639</ele>
        <time>2011-09-25T15:21:31Z</time>
      </trkpt>
      <trkpt lat="43.64368" lon="3.0311">
        <ele>365.425507</ele>
        <time>2011-09-25T15:21:38Z</time>
      </trkpt>
      <trkpt lat="43.64371" lon="3.0315">
        <ele>365.957397</ele>
        <time>2011-09-25T15:21:46Z</time>
      </trkpt>
      <trkpt lat="43.64375" lon="3.03179">
        <ele>365.036957</ele>
        <time>2011-09-25T15:21:53Z</time>
      </trkpt>
      <trkpt lat="43.64363" lon="3.03173">
        <ele>366.886505</ele>
        <time>2011-09-02T00:10:50Z</time>
      </trkpt>
      <trkpt lat="43.64348" lon="3.03166">
        <ele>369.19574</ele>
        <time>2011-09-02T00:10:56Z</time>
      </trkpt>
      <trkpt lat="43.64332" lon="3.03163">
        <ele>371.922943</ele>
        <time>2011-09-02T00:11:03Z</time>
      </trkpt>
      <trkpt lat="43.64329" lon="3.03152">
        <ele>373.149658</ele>
        <time>2011-09-02T00:11:06Z</time>
      </trkpt>
      <trkpt lat="43.64327" lon="3.0315">
        <ele>373.613281</ele>
        <time>2011-09-02T00:11:07Z</time>
      </trkpt>
      <trkpt lat="43.64318" lon="3.03139">
        <ele>376.116486</ele>
        <time>2011-09-02T00:11:12Z</time>
      </trkpt>
      <trkpt lat="43.64314" lon="3.03131">
        <ele>377.234161</ele>
        <time>2011-09-02T00:11:15Z</time>
      </trkpt>
      <trkpt lat="43.64308" lon="3.03123">
        <ele>379.124023</ele>
        <time>2011-09-02T00:11:18Z</time>
      </trkpt>
      <trkpt lat="43.64307" lon="3.03109">
        <ele>379.816437</ele>
        <time>2011-09-02T00:11:22Z</time>
      </trkpt>
      <trkpt lat="43.64306" lon="3.031">
        <ele>380.124664</ele>
        <time>2011-09-02T00:11:25Z</time>
      </trkpt>
      <trkpt lat="43.643" lon="3.03082">
        <ele>381.84491</ele>
        <time>2011-09-02T00:11:31Z</time>
      </trkpt>
      <trkpt lat="43.64294" lon="3.03069">
        <ele>382.959503</ele>
        <time>2011-09-02T00:11:35Z</time>
      </trkpt>
      <trkpt lat="43.64293" lon="3.03062">
        <ele>382.862518</ele>
        <time>2011-09-02T00:11:37Z</time>
      </trkpt>
      <trkpt lat="43.64285" lon="3.03049">
        <ele>384.537964</ele>
        <time>2011-09-02T00:11:42Z</time>
      </trkpt>
      <trkpt lat="43.64278" lon="3.03039">
        <ele>385.848572</ele>
        <time>2011-09-02T00:11:46Z</time>
      </trkpt>
      <trkpt lat="43.64269" lon="3.03034">
        <ele>388.156403</ele>
        <time>2011-09-02T00:11:50Z</time>
      </trkpt>
      <trkpt lat="43.64258" lon="3.03026">
        <ele>390.156464</ele>
        <time>2011-09-02T00:11:55Z</time>
      </trkpt>
      <trkpt lat="43.64253" lon="3.03024">
        <ele>391.045746</ele>
        <time>2011-09-02T00:11:57Z</time>
      </trkpt>
      <trkpt lat="43.6424" lon="3.03018">
        <ele>392.615692</ele>
        <time>2011-09-02T00:12:03Z</time>
      </trkpt>
      <trkpt lat="43.64228" lon="3.03019">
        <ele>394.668091</ele>
        <time>2011-09-02T00:12:07Z</time>
      </trkpt>
      <trkpt lat="43.64206" lon="3.0302">
        <ele>398.245087</ele>
        <time>2011-09-02T00:12:16Z</time>
      </trkpt>
      <trkpt lat="43.64185" lon="3.03021">
        <ele>401.080322</ele>
        <time>2011-09-02T00:12:25Z</time>
      </trkpt>
      <trkpt lat="43.64174" lon="3.03025">
        <ele>403.136566</ele>
        <time>2011-09-02T00:12:29Z</time>
      </trkpt>
      <trkpt lat="43.64163" lon="3.03028">
        <ele>405.106293</ele>
        <time>2011-09-02T00:12:33Z</time>
      </trkpt>
      <trkpt lat="43.64146" lon="3.03031">
        <ele>407.264221</ele>
        <time>2011-09-02T00:12:40Z</time>
      </trkpt>
      <trkpt lat="43.64131" lon="3.03042">
        <ele>408.800873</ele>
        <time>2011-09-02T00:12:47Z</time>
      </trkpt>
      <trkpt lat="43.64122" lon="3.03049">
        <ele>409.195831</ele>
        <time>2011-09-02T00:12:51Z</time>
      </trkpt>
      <trkpt lat="43.64112" lon="3.03057">
        <ele>409.461334</ele>
        <time>2011-09-02T00:12:56Z</time>
      </trkpt>
      <trkpt lat="43.64083" lon="3.03083">
        <ele>410.025208</ele>
        <time>2011-09-02T00:13:10Z</time>
      </trkpt>
      <trkpt lat="43.64033" lon="3.03118">
        <ele>414.741089</ele>
        <time>2011-09-02T00:13:32Z</time>
      </trkpt>
      <trkpt lat="43.64008" lon="3.03128">
        <ele>416.783752</ele>
        <time>2011-09-02T00:13:43Z</time>
      </trkpt>
      <trkpt lat="43.63978" lon="3.03125">
        <ele>419.70874</ele>
        <time>2011-09-02T00:13:55Z</time>
      </trkpt>
      <trkpt lat="43.63956" lon="3.03121">
        <ele>421.350494</ele>
        <time>2011-09-02T00:14:04Z</time>
      </trkpt>
      <trkpt lat="43.6394" lon="3.03122">
        <ele>422.184875</ele>
        <time>2011-09-02T00:14:10Z</time>
      </trkpt>
      <trkpt lat="43.63926" lon="3.03124">
        <ele>422.871948</ele>
        <time>2011-09-02T00:14:16Z</time>
      </trkpt>
      <trkpt lat="43.63914" lon="3.03121">
        <ele>423.935272</ele>
        <time>2011-09-02T00:14:20Z</time>
      </trkpt>
      <trkpt lat="43.63899" lon="3.03118">
        <ele>425.29834</ele>
        <time>2011-09-02T00:14:26Z</time>
      </trkpt>
      <trkpt lat="43.63881" lon="3.03121">
        <ele>426.496552</ele>
        <time>2011-09-02T00:14:34Z</time>
      </trkpt>
      <trkpt lat="43.63858" lon="3.03131">
        <ele>427.064056</ele>
        <time>2011-09-02T00:14:44Z</time>
      </trkpt>
      <trkpt lat="43.63843" lon="3.03139">
        <ele>427.018158</ele>
        <time>2011-09-02T00:14:50Z</time>
      </trkpt>
      <trkpt lat="43.63827" lon="3.03142">
        <ele>426.825287</ele>
        <time>2011-09-02T00:14:56Z</time>
      </trkpt>
      <trkpt lat="43.63805" lon="3.0314">
        <ele>427.224854</ele>
        <time>2011-09-02T00:15:05Z</time>
      </trkpt>
      <trkpt lat="43.63799" lon="3.03145">
        <ele>425.76413</ele>
        <time>2011-09-02T00:15:08Z</time>
      </trkpt>
      <trkpt lat="43.63792" lon="3.03146">
        <ele>425.993744</ele>
        <time>2011-09-02T00:15:11Z</time>
      </trkpt>
      <trkpt lat="43.63782" lon="3.03152">
        <ele>429.021667</ele>
        <time>2011-09-02T00:15:15Z</time>
      </trkpt>
      <trkpt lat="43.63771" lon="3.03155">
        <ele>432.161377</ele>
        <time>2011-09-02T00:15:20Z</time>
      </trkpt>
      <trkpt lat="43.63761" lon="3.03157">
        <ele>434.354279</ele>
        <time>2011-09-02T00:15:24Z</time>
      </trkpt>
      <trkpt lat="43.63735" lon="3.0316">
        <ele>439.932037</ele>
        <time>2011-09-02T00:15:34Z</time>
      </trkpt>
      <trkpt lat="43.63721" lon="3.03163">
        <ele>442.557434</ele>
        <time>2011-09-02T00:15:40Z</time>
      </trkpt>
      <trkpt lat="43.63709" lon="3.03165">
        <ele>444.485504</ele>
        <time>2011-09-02T00:15:45Z</time>
      </trkpt>
      <trkpt lat="43.63699" lon="3.03172">
        <ele>444.922882</ele>
        <time>2011-09-02T00:15:49Z</time>
      </trkpt>
      <trkpt lat="43.63678" lon="3.03192">
        <ele>443.129211</ele>
        <time>2011-09-02T00:15:59Z</time>
      </trkpt>
      <trkpt lat="43.63659" lon="3.03205">
        <ele>440.169647</ele>
        <time>2011-09-02T00:16:08Z</time>
      </trkpt>
      <trkpt lat="43.6364" lon="3.03214">
        <ele>447.537262</ele>
        <time>2011-09-02T00:16:16Z</time>
      </trkpt>
      <trkpt lat="43.63622" lon="3.0323">
        <ele>452.920624</ele>
        <time>2011-09-02T00:16:25Z</time>
      </trkpt>
      <trkpt lat="43.63603" lon="3.03244">
        <ele>455.226501</ele>
        <time>2011-09-02T00:16:33Z</time>
      </trkpt>
      <trkpt lat="43.63587" lon="3.03258">
        <ele>455.896912</ele>
        <time>2011-09-02T00:16:41Z</time>
      </trkpt>
      <trkpt lat="43.6357" lon="3.03277">
        <ele>457.120911</ele>
        <time>2011-09-02T00:16:50Z</time>
      </trkpt>
      <trkpt lat="43.63556" lon="3.03295">
        <ele>459.753418</ele>
        <time>2011-09-02T00:16:57Z</time>
      </trkpt>
      <trkpt lat="43.63542" lon="3.03304">
        <ele>460.59256</ele>
        <time>2011-09-02T00:17:04Z</time>
      </trkpt>
      <trkpt lat="43.63526" lon="3.0331">
        <ele>460.819092</ele>
        <time>2011-09-02T00:17:10Z</time>
      </trkpt>
      <trkpt lat="43.63517" lon="3.03311">
        <ele>461.580872</ele>
        <time>2011-09-02T00:17:14Z</time>
      </trkpt>
      <trkpt lat="43.63503" lon="3.03305">
        <ele>465.806244</ele>
        <time>2011-09-02T00:17:19Z</time>
      </trkpt>
      <trkpt lat="43.63496" lon="3.03305">
        <ele>467.034088</ele>
        <time>2011-09-02T00:17:23Z</time>
      </trkpt>
      <trkpt lat="43.63488" lon="3.03313">
        <ele>465.635254</ele>
        <time>2011-09-02T00:17:26Z</time>
      </trkpt>
      <trkpt lat="43.63486" lon="3.03326">
        <ele>461.597992</ele>
        <time>2011-09-02T00:17:30Z</time>
      </trkpt>
      <trkpt lat="43.63482" lon="3.03326">
        <ele>461.94101</ele>
        <time>2011-09-02T00:17:32Z</time>
      </trkpt>
      <trkpt lat="43.63468" lon="3.03324">
        <ele>465.274963</ele>
        <time>2011-09-02T00:17:37Z</time>
      </trkpt>
      <trkpt lat="43.63442" lon="3.03323">
        <ele>471.29126</ele>
        <time>2011-09-02T00:17:48Z</time>
      </trkpt>
      <trkpt lat="43.63423" lon="3.03315">
        <ele>477.220001</ele>
        <time>2011-09-02T00:17:55Z</time>
      </trkpt>
      <trkpt lat="43.63399" lon="3.03311">
        <ele>481.652496</ele>
        <time>2011-09-02T00:18:05Z</time>
      </trkpt>
      <trkpt lat="43.6338" lon="3.03313">
        <ele>483.107697</ele>
        <time>2011-09-02T00:18:13Z</time>
      </trkpt>
      <trkpt lat="43.63366" lon="3.03323">
        <ele>479.991852</ele>
        <time>2011-09-02T00:18:19Z</time>
      </trkpt>
      <trkpt lat="43.63343" lon="3.03325">
        <ele>480.072113</ele>
        <time>2011-09-02T00:18:29Z</time>
      </trkpt>
      <trkpt lat="43.63313" lon="3.03331">
        <ele>482.25</ele>
        <time>2011-09-02T00:18:41Z</time>
      </trkpt>
      <trkpt lat="43.63289" lon="3.0334">
        <ele>486.65976</ele>
        <time>2011-09-02T00:18:51Z</time>
      </trkpt>
      <trkpt lat="43.63268" lon="3.03345">
        <ele>490.812347</ele>
        <time>2011-09-02T00:18:59Z</time>
      </trkpt>
      <trkpt lat="43.63252" lon="3.03353">
        <ele>493.38385</ele>
        <time>2011-09-02T00:19:06Z</time>
      </trkpt>
      <trkpt lat="43.63243" lon="3.03361">
        <ele>494.286407</ele>
        <time>2011-09-02T00:19:10Z</time>
      </trkpt>
      <trkpt lat="43.63227" lon="3.03373">
        <ele>494.396912</ele>
        <time>2011-09-02T00:19:17Z</time>
      </trkpt>
      <trkpt lat="43.63211" lon="3.03385">
        <ele>492.68161</ele>
        <time>2011-09-02T00:19:25Z</time>
      </trkpt>
      <trkpt lat="43.63193" lon="3.03385">
        <ele>494.198608</ele>
        <time>2011-09-02T00:19:32Z</time>
      </trkpt>
      <trkpt lat="43.63173" lon="3.03378">
        <ele>497.242493</ele>
        <time>2011-09-02T00:19:40Z</time>
      </trkpt>
      <trkpt lat="43.63168" lon="3.03395">
        <ele>497.996124</ele>
        <time>2011-09-02T00:19:45Z</time>
      </trkpt>
      <trkpt lat="43.63176" lon="3.0342">
        <ele>502.857117</ele>
        <time>2011-09-02T00:19:53Z</time>
      </trkpt>
      <trkpt lat="43.63199" lon="3.03424">
        <ele>502.517151</ele>
        <time>2011-09-02T00:20:02Z</time>
      </trkpt>
      <trkpt lat="43.63221" lon="3.03424">
        <ele>501.753754</ele>
        <time>2011-09-02T00:20:11Z</time>
      </trkpt>
      <trkpt lat="43.63224" lon="3.03423">
        <ele>501.477509</ele>
        <time>2011-09-02T00:20:13Z</time>
      </trkpt>
      <trkpt lat="43.63239" lon="3.03416">
        <ele>499.692505</ele>
        <time>2011-09-02T00:20:19Z</time>
      </trkpt>
      <trkpt lat="43.63277" lon="3.03412">
        <ele>497.915436</ele>
        <time>2011-09-02T00:20:34Z</time>
      </trkpt>
      <trkpt lat="43.63307" lon="3.03417">
        <ele>498.431671</ele>
        <time>2011-09-02T00:20:46Z</time>
      </trkpt>
      <trkpt lat="43.63343" lon="3.03433">
        <ele>500.283051</ele>
        <time>2011-09-02T00:21:02Z</time>
      </trkpt>
      <trkpt lat="43.63374" lon="3.03452">
        <ele>503.251251</ele>
        <time>2011-09-02T00:21:15Z</time>
      </trkpt>
      <trkpt lat="43.63401" lon="3.03483">
        <ele>502.79837</ele>
        <time>2011-09-02T00:21:29Z</time>
      </trkpt>
      <trkpt lat="43.63425" lon="3.03508">
        <ele>502.859802</ele>
        <time>2011-09-02T00:21:41Z</time>
      </trkpt>
      <trkpt lat="43.6341" lon="3.03514">
        <ele>504.945557</ele>
        <time>2011-09-02T00:21:47Z</time>
      </trkpt>
      <trkpt lat="43.63381" lon="3.03515">
        <ele>507.409821</ele>
        <time>2011-09-02T00:21:59Z</time>
      </trkpt>
      <trkpt lat="43.63356" lon="3.03514">
        <ele>509.809998</ele>
        <time>2011-09-02T00:22:09Z</time>
      </trkpt>
      <trkpt lat="43.63326" lon="3.03517">
        <ele>511.953613</ele>
        <time>2011-09-02T00:22:21Z</time>
      </trkpt>
      <trkpt lat="43.633" lon="3.03522">
        <ele>513.761414</ele>
        <time>2011-09-02T00:22:31Z</time>
      </trkpt>
      <trkpt lat="43.63281" lon="3.03527">
        <ele>515.077209</ele>
        <time>2011-09-02T00:22:39Z</time>
      </trkpt>
      <trkpt lat="43.63263" lon="3.03539">
        <ele>515.979431</ele>
        <time>2011-09-02T00:22:47Z</time>
      </trkpt>
      <trkpt lat="43.63241" lon="3.03557">
        <ele>517.962097</ele>
        <time>2011-09-02T00:22:57Z</time>
      </trkpt>
      <trkpt lat="43.6323" lon="3.03572">
        <ele>519.513</ele>
        <time>2011-09-02T00:23:04Z</time>
      </trkpt>
      <trkpt lat="43.63214" lon="3.03589">
        <ele>519.110596</ele>
        <time>2011-09-02T00:23:12Z</time>
      </trkpt>
      <trkpt lat="43.63194" lon="3.03607">
        <ele>520.796143</ele>
        <time>2011-09-02T00:23:21Z</time>
      </trkpt>
      <trkpt lat="43.63168" lon="3.03631">
        <ele>525.989319</ele>
        <time>2011-09-02T00:23:34Z</time>
      </trkpt>
      <trkpt lat="43.63141" lon="3.03672">
        <ele>524.876831</ele>
        <time>2011-09-02T00:23:50Z</time>
      </trkpt>
      <trkpt lat="43.63127" lon="3.03706">
        <ele>522.861328</ele>
        <time>2011-09-02T00:24:01Z</time>
      </trkpt>
      <trkpt lat="43.63103" lon="3.03774">
        <ele>518.210815</ele>
        <time>2011-09-02T00:24:23Z</time>
      </trkpt>
      <trkpt lat="43.63073" lon="3.03845">
        <ele>518.684448</ele>
        <time>2011-09-02T00:24:47Z</time>
      </trkpt>
      <trkpt lat="43.63066" lon="3.03894">
        <ele>514.677185</ele>
        <time>2011-09-02T00:25:01Z</time>
      </trkpt>
      <trkpt lat="43.63061" lon="3.03933">
        <ele>511.041992</ele>
        <time>2011-09-02T00:25:13Z</time>
      </trkpt>
      <trkpt lat="43.63055" lon="3.03924">
        <ele>512.778442</ele>
        <time>2011-09-02T00:25:16Z</time>
      </trkpt>
      <trkpt lat="43.63036" lon="3.03915">
        <ele>516.738098</ele>
        <time>2011-09-02T00:25:24Z</time>
      </trkpt>
      <trkpt lat="43.63002" lon="3.03921">
        <ele>521.31189</ele>
        <time>2011-09-02T00:25:38Z</time>
      </trkpt>
      <trkpt lat="43.62972" lon="3.03927">
        <ele>524.796631</ele>
        <time>2011-09-02T00:25:50Z</time>
      </trkpt>
      <trkpt lat="43.62962" lon="3.03915">
        <ele>529.147339</ele>
        <time>2011-09-02T00:25:55Z</time>
      </trkpt>
      <trkpt lat="43.62978" lon="3.03906">
        <ele>529.028931</ele>
        <time>2011-09-02T00:26:02Z</time>
      </trkpt>
      <trkpt lat="43.63003" lon="3.03878">
        <ele>530.39624</ele>
        <time>2011-09-02T00:26:15Z</time>
      </trkpt>
      <trkpt lat="43.63014" lon="3.03838">
        <ele>535.098755</ele>
        <time>2011-09-02T00:26:27Z</time>
      </trkpt>
      <trkpt lat="43.63029" lon="3.03801">
        <ele>538.694885</ele>
        <time>2011-09-02T00:26:40Z</time>
      </trkpt>
      <trkpt lat="43.63047" lon="3.03769">
        <ele>538.945374</ele>
        <time>2011-09-02T00:26:52Z</time>
      </trkpt>
      <trkpt lat="43.63055" lon="3.03737">
        <ele>542.07135</ele>
        <time>2011-09-02T00:27:02Z</time>
      </trkpt>
      <trkpt lat="43.63063" lon="3.03712">
        <ele>544.289673</ele>
        <time>2011-09-02T00:27:10Z</time>
      </trkpt>
      <trkpt lat="43.63067" lon="3.03682">
        <ele>547.882813</ele>
        <time>2011-09-02T00:27:18Z</time>
      </trkpt>
      <trkpt lat="43.63074" lon="3.03646">
        <ele>550.76416</ele>
        <time>2011-09-02T00:27:29Z</time>
      </trkpt>
      <trkpt lat="43.63067" lon="3.03619">
        <ele>553.696228</ele>
        <time>2011-09-02T00:27:37Z</time>
      </trkpt>
      <trkpt lat="43.63051" lon="3.0359">
        <ele>556.486267</ele>
        <time>2011-09-02T00:27:48Z</time>
      </trkpt>
      <trkpt lat="43.63027" lon="3.03551">
        <ele>559.821106</ele>
        <time>2011-09-02T00:28:03Z</time>
      </trkpt>
      <trkpt lat="43.63007" lon="3.0351">
        <ele>561.077515</ele>
        <time>2011-09-02T00:28:17Z</time>
      </trkpt>
      <trkpt lat="43.62993" lon="3.03477">
        <ele>563.543945</ele>
        <time>2011-09-02T00:28:28Z</time>
      </trkpt>
      <trkpt lat="43.62976" lon="3.03443">
        <ele>567.221375</ele>
        <time>2011-09-02T00:28:40Z</time>
      </trkpt>
      <trkpt lat="43.62963" lon="3.03417">
        <ele>571.008179</ele>
        <time>2011-09-02T00:28:49Z</time>
      </trkpt>
      <trkpt lat="43.62956" lon="3.03387">
        <ele>574.952087</ele>
        <time>2011-09-02T00:28:58Z</time>
      </trkpt>
      <trkpt lat="43.62958" lon="3.03357">
        <ele>577.170044</ele>
        <time>2011-09-02T00:29:07Z</time>
      </trkpt>
      <trkpt lat="43.62949" lon="3.0333">
        <ele>581.828186</ele>
        <time>2011-09-02T00:29:16Z</time>
      </trkpt>
      <trkpt lat="43.62933" lon="3.03301">
        <ele>587.235901</ele>
        <time>2011-09-02T00:29:26Z</time>
      </trkpt>
      <trkpt lat="43.62924" lon="3.0326">
        <ele>591.713501</ele>
        <time>2011-09-02T00:29:38Z</time>
      </trkpt>
      <trkpt lat="43.6291" lon="3.03227">
        <ele>595.827271</ele>
        <time>2011-09-02T00:29:50Z</time>
      </trkpt>
      <trkpt lat="43.62896" lon="3.03191">
        <ele>600.597473</ele>
        <time>2011-09-02T00:30:02Z</time>
      </trkpt>
      <trkpt lat="43.62886" lon="3.03149">
        <ele>600.801025</ele>
        <time>2011-09-02T00:30:14Z</time>
      </trkpt>
      <trkpt lat="43.62873" lon="3.03116">
        <ele>602.027222</ele>
        <time>2011-09-02T00:30:25Z</time>
      </trkpt>
      <trkpt lat="43.62852" lon="3.0308">
        <ele>605.669067</ele>
        <time>2011-09-02T00:30:39Z</time>
      </trkpt>
      <trkpt lat="43.62838" lon="3.03056">
        <ele>609.8703</ele>
        <time>2011-09-02T00:30:48Z</time>
      </trkpt>
      <trkpt lat="43.62833" lon="3.03016">
        <ele>614.952393</ele>
        <time>2011-09-02T00:30:59Z</time>
      </trkpt>
      <trkpt lat="43.62839" lon="3.02981">
        <ele>619.019348</ele>
        <time>2011-09-02T00:31:10Z</time>
      </trkpt>
      <trkpt lat="43.62848" lon="3.02946">
        <ele>622.077576</ele>
        <time>2011-09-02T00:31:21Z</time>
      </trkpt>
      <trkpt lat="43.6286" lon="3.02921">
        <ele>622.044312</ele>
        <time>2011-09-02T00:31:29Z</time>
      </trkpt>
      <trkpt lat="43.6287" lon="3.02894">
        <ele>623.423828</ele>
        <time>2011-09-02T00:31:38Z</time>
      </trkpt>
      <trkpt lat="43.6285" lon="3.02878">
        <ele>624.996216</ele>
        <time>2011-09-02T00:31:47Z</time>
      </trkpt>
      <trkpt lat="43.62824" lon="3.02886">
        <ele>629.41748</ele>
        <time>2011-09-02T00:31:58Z</time>
      </trkpt>
      <trkpt lat="43.62795" lon="3.02887">
        <ele>633.112</ele>
        <time>2011-09-02T00:32:10Z</time>
      </trkpt>
      <trkpt lat="43.62754" lon="3.02885">
        <ele>636.391479</ele>
        <time>2011-09-02T00:32:26Z</time>
      </trkpt>
      <trkpt lat="43.6271" lon="3.02888">
        <ele>638.078979</ele>
        <time>2011-09-02T00:32:44Z</time>
      </trkpt>
      <trkpt lat="43.62661" lon="3.02889">
        <ele>638.003784</ele>
        <time>2011-09-02T00:33:03Z</time>
      </trkpt>
      <trkpt lat="43.62629" lon="3.02877">
        <ele>635.032166</ele>
        <time>2011-09-02T00:33:17Z</time>
      </trkpt>
      <trkpt lat="43.62583" lon="3.02817">
        <ele>633.610596</ele>
        <time>2011-09-02T00:33:42Z</time>
      </trkpt>
      <trkpt lat="43.6257" lon="3.02789">
        <ele>633.289429</ele>
        <time>2011-09-02T00:33:51Z</time>
      </trkpt>
      <trkpt lat="43.62567" lon="3.0277">
        <ele>633.01593</ele>
        <time>2011-09-02T00:33:57Z</time>
      </trkpt>
      <trkpt lat="43.62556" lon="3.02762">
        <ele>633.981201</ele>
        <time>2011-09-02T00:34:02Z</time>
      </trkpt>
      <trkpt lat="43.62557" lon="3.02765">
        <ele>633.993225</ele>
        <time>2011-09-02T00:34:03Z</time>
      </trkpt>
      <trkpt lat="43.6255" lon="3.0276">
        <ele>634.987366</ele>
        <time>2011-09-02T00:34:06Z</time>
      </trkpt>
      <trkpt lat="43.62547" lon="3.02746">
        <ele>637.186401</ele>
        <time>2011-09-02T00:34:10Z</time>
      </trkpt>
      <trkpt lat="43.62548" lon="3.02726">
        <ele>639.984375</ele>
        <time>2011-09-02T00:34:16Z</time>
      </trkpt>
      <trkpt lat="43.62541" lon="3.02715">
        <ele>642.422607</ele>
        <time>2011-09-02T00:34:20Z</time>
      </trkpt>
      <trkpt lat="43.62535" lon="3.02701">
        <ele>643.3255</ele>
        <time>2011-09-02T00:34:25Z</time>
      </trkpt>
      <trkpt lat="43.62533" lon="3.02693">
        <ele>643.598267</ele>
        <time>2011-09-02T00:34:27Z</time>
      </trkpt>
      <trkpt lat="43.62531" lon="3.02674">
        <ele>646.020447</ele>
        <time>2011-09-02T00:34:33Z</time>
      </trkpt>
      <trkpt lat="43.62528" lon="3.02654">
        <ele>648.485413</ele>
        <time>2011-09-02T00:34:39Z</time>
      </trkpt>
      <trkpt lat="43.62521" lon="3.02637">
        <ele>650.229431</ele>
        <time>2011-09-02T00:34:44Z</time>
      </trkpt>
      <trkpt lat="43.62505" lon="3.02621">
        <ele>654.025269</ele>
        <time>2011-09-02T00:34:52Z</time>
      </trkpt>
      <trkpt lat="43.62492" lon="3.02608">
        <ele>658.075012</ele>
        <time>2011-09-02T00:34:59Z</time>
      </trkpt>
      <trkpt lat="43.62481" lon="3.02602">
        <ele>660.244995</ele>
        <time>2011-09-02T00:35:03Z</time>
      </trkpt>
      <trkpt lat="43.62467" lon="3.02592">
        <ele>663.712524</ele>
        <time>2011-09-02T00:35:10Z</time>
      </trkpt>
      <trkpt lat="43.62454" lon="3.02582">
        <ele>667.065002</ele>
        <time>2011-09-02T00:35:16Z</time>
      </trkpt>
      <trkpt lat="43.6244" lon="3.02575">
        <ele>669.967529</ele>
        <time>2011-09-02T00:35:21Z</time>
      </trkpt>
      <trkpt lat="43.62431" lon="3.02566">
        <ele>672.800842</ele>
        <time>2011-09-02T00:35:26Z</time>
      </trkpt>
      <trkpt lat="43.62423" lon="3.02563">
        <ele>673.640808</ele>
        <time>2011-09-02T00:35:29Z</time>
      </trkpt>
      <trkpt lat="43.62411" lon="3.02563">
        <ele>673.439148</ele>
        <time>2011-09-02T00:35:34Z</time>
      </trkpt>
      <trkpt lat="43.62394" lon="3.02562">
        <ele>670.527466</ele>
        <time>2011-09-02T00:35:41Z</time>
      </trkpt>
      <trkpt lat="43.62385" lon="3.0255">
        <ele>671.617432</ele>
        <time>2011-09-02T00:35:46Z</time>
      </trkpt>
      <trkpt lat="43.62379" lon="3.02535">
        <ele>674.055969</ele>
        <time>2011-09-02T00:35:51Z</time>
      </trkpt>
      <trkpt lat="43.62375" lon="3.02528">
        <ele>674.900085</ele>
        <time>2011-09-02T00:35:53Z</time>
      </trkpt>
      <trkpt lat="43.62374" lon="3.02522">
        <ele>675.979919</ele>
        <time>2011-09-02T00:35:55Z</time>
      </trkpt>
      <trkpt lat="43.62364" lon="3.02498">
        <ele>675.543091</ele>
        <time>2011-09-02T00:36:03Z</time>
      </trkpt>
      <trkpt lat="43.62361" lon="3.02468">
        <ele>672.726074</ele>
        <time>2011-09-02T00:36:12Z</time>
      </trkpt>
      <trkpt lat="43.6238" lon="3.02416">
        <ele>677.614746</ele>
        <time>2011-09-02T00:36:29Z</time>
      </trkpt>
      <trkpt lat="43.62391" lon="3.02381">
        <ele>680.651917</ele>
        <time>2011-09-02T00:36:40Z</time>
      </trkpt>
      <trkpt lat="43.62398" lon="3.02355">
        <ele>685.013916</ele>
        <time>2011-09-02T00:36:48Z</time>
      </trkpt>
      <trkpt lat="43.62403" lon="3.02328">
        <ele>687.369019</ele>
        <time>2011-09-02T00:36:56Z</time>
      </trkpt>
      <trkpt lat="43.62386" lon="3.0232">
        <ele>686.735352</ele>
        <time>2011-09-02T00:37:03Z</time>
      </trkpt>
      <trkpt lat="43.62375" lon="3.02315">
        <ele>686.797119</ele>
        <time>2011-09-02T00:37:08Z</time>
      </trkpt>
      <trkpt lat="43.62353" lon="3.02308">
        <ele>686.282959</ele>
        <time>2011-09-02T00:37:17Z</time>
      </trkpt>
      <trkpt lat="43.62334" lon="3.02294">
        <ele>688.163696</ele>
        <time>2011-09-02T00:37:25Z</time>
      </trkpt>
      <trkpt lat="43.6233" lon="3.02289">
        <ele>689.221985</ele>
        <time>2011-09-02T00:37:27Z</time>
      </trkpt>
      <trkpt lat="43.6232" lon="3.02271">
        <ele>694.809631</ele>
        <time>2011-09-02T00:37:34Z</time>
      </trkpt>
      <trkpt lat="43.62314" lon="3.02265">
        <ele>695.643738</ele>
        <time>2011-09-02T00:37:37Z</time>
      </trkpt>
      <trkpt lat="43.62294" lon="3.02242">
        <ele>699.878967</ele>
        <time>2011-09-02T00:37:48Z</time>
      </trkpt>
      <trkpt lat="43.62275" lon="3.02226">
        <ele>702.729309</ele>
        <time>2011-09-02T00:37:56Z</time>
      </trkpt>
      <trkpt lat="43.62268" lon="3.02221">
        <ele>703.970154</ele>
        <time>2011-09-02T00:37:59Z</time>
      </trkpt>
      <trkpt lat="43.62246" lon="3.02219">
        <ele>702.259277</ele>
        <time>2011-09-02T00:38:08Z</time>
      </trkpt>
      <trkpt lat="43.62217" lon="3.02213">
        <ele>700.466064</ele>
        <time>2011-09-02T00:38:20Z</time>
      </trkpt>
      <trkpt lat="43.62203" lon="3.02196">
        <ele>704.701233</ele>
        <time>2011-09-02T00:38:28Z</time>
      </trkpt>
      <trkpt lat="43.62187" lon="3.02174">
        <ele>708.986267</ele>
        <time>2011-09-02T00:38:36Z</time>
      </trkpt>
      <trkpt lat="43.62163" lon="3.02151">
        <ele>709.346497</ele>
        <time>2011-09-02T00:38:48Z</time>
      </trkpt>
      <trkpt lat="43.62151" lon="3.02126">
        <ele>712.468933</ele>
        <time>2011-09-02T00:38:57Z</time>
      </trkpt>
      <trkpt lat="43.62141" lon="3.021">
        <ele>715.188843</ele>
        <time>2011-09-02T00:39:05Z</time>
      </trkpt>
      <trkpt lat="43.6213" lon="3.02071">
        <ele>717.094543</ele>
        <time>2011-09-02T00:39:15Z</time>
      </trkpt>
      <trkpt lat="43.62117" lon="3.02042">
        <ele>715.685669</ele>
        <time>2011-09-02T00:39:25Z</time>
      </trkpt>
      <trkpt lat="43.62097" lon="3.02004">
        <ele>714.739258</ele>
        <time>2011-09-02T00:39:38Z</time>
      </trkpt>
      <trkpt lat="43.62074" lon="3.02008">
        <ele>709.900085</ele>
        <time>2011-09-02T00:39:48Z</time>
      </trkpt>
      <trkpt lat="43.62037" lon="3.02016">
        <ele>702.150024</ele>
        <time>2011-09-02T00:40:02Z</time>
      </trkpt>
      <trkpt lat="43.61997" lon="3.01992">
        <ele>701.16394</ele>
        <time>2011-09-02T00:40:20Z</time>
      </trkpt>
      <trkpt lat="43.61935" lon="3.01973">
        <ele>699.488892</ele>
        <time>2011-09-02T00:40:46Z</time>
      </trkpt>
      <trkpt lat="43.6189" lon="3.02001">
        <ele>697.139893</ele>
        <time>2011-09-02T00:41:05Z</time>
      </trkpt>
      <trkpt lat="43.61871" lon="3.0203">
        <ele>696.78125</ele>
        <time>2011-09-02T00:41:11Z</time>
      </trkpt>
      <trkpt lat="43.61848" lon="3.02054">
        <ele>695.217407</ele>
        <time>2011-09-02T00:41:13Z</time>
      </trkpt>
      <trkpt lat="43.61835" lon="3.02079">
        <ele>696.148071</ele>
        <time>2011-09-02T00:41:19Z</time>
      </trkpt>
      <trkpt lat="43.61827" lon="3.02105">
        <ele>697.289612</ele>
        <time>2011-09-02T00:41:25Z</time>
      </trkpt>
      <trkpt lat="43.61827" lon="3.02105">
        <ele>697.010742</ele>
        <time>2011-07-14T13:38:08Z</time>
      </trkpt>
      <trkpt lat="43.6181" lon="3.02142">
        <ele>697.305054</ele>
        <time>2011-07-14T13:38:16Z</time>
      </trkpt>
      <trkpt lat="43.61795" lon="3.02173">
        <ele>697.313843</ele>
        <time>2011-07-14T13:38:24Z</time>
      </trkpt>
      <trkpt lat="43.61788" lon="3.02195">
        <ele>699.028198</ele>
        <time>2011-07-14T13:38:30Z</time>
      </trkpt>
      <trkpt lat="43.61776" lon="3.02223">
        <ele>699.829651</ele>
        <time>2011-07-14T13:38:39Z</time>
      </trkpt>
      <trkpt lat="43.61763" lon="3.0225">
        <ele>699.850891</ele>
        <time>2011-07-14T13:38:48Z</time>
      </trkpt>
      <trkpt lat="43.61751" lon="3.02277">
        <ele>700.145691</ele>
        <time>2011-07-14T13:38:56Z</time>
      </trkpt>
      <trkpt lat="43.61739" lon="3.02302">
        <ele>701.120728</ele>
        <time>2011-07-14T13:39:03Z</time>
      </trkpt>
      <trkpt lat="43.61718" lon="3.02345">
        <ele>700.092407</ele>
        <time>2011-07-14T13:39:13Z</time>
      </trkpt>
      <trkpt lat="43.61702" lon="3.02379">
        <ele>699.646606</ele>
        <time>2011-07-14T13:39:21Z</time>
      </trkpt>
      <trkpt lat="43.61687" lon="3.02414">
        <ele>700.127869</ele>
        <time>2011-07-14T13:39:28Z</time>
      </trkpt>
      <trkpt lat="43.61669" lon="3.02456">
        <ele>697.52655</ele>
        <time>2011-07-14T13:39:34Z</time>
      </trkpt>
      <trkpt lat="43.61643" lon="3.0251">
        <ele>697.887207</ele>
        <time>2011-07-14T13:39:41Z</time>
      </trkpt>
      <trkpt lat="43.6163" lon="3.02541">
        <ele>694.619263</ele>
        <time>2011-07-14T13:39:45Z</time>
      </trkpt>
      <trkpt lat="43.61604" lon="3.0258">
        <ele>694.897522</ele>
        <time>2011-07-14T13:39:51Z</time>
      </trkpt>
      <trkpt lat="43.61582" lon="3.02611">
        <ele>695.376221</ele>
        <time>2011-07-14T13:39:57Z</time>
      </trkpt>
      <trkpt lat="43.61571" lon="3.02628">
        <ele>697.918274</ele>
        <time>2011-07-14T13:40:02Z</time>
      </trkpt>
      <trkpt lat="43.6156" lon="3.02645">
        <ele>700.095398</ele>
        <time>2011-07-14T13:40:09Z</time>
      </trkpt>
      <trkpt lat="43.61544" lon="3.02665">
        <ele>703.742737</ele>
        <time>2011-07-14T13:40:18Z</time>
      </trkpt>
      <trkpt lat="43.61525" lon="3.02681">
        <ele>707.55896</ele>
        <time>2011-07-14T13:40:28Z</time>
      </trkpt>
      <trkpt lat="43.61512" lon="3.027">
        <ele>708.328247</ele>
        <time>2011-07-14T13:40:36Z</time>
      </trkpt>
      <trkpt lat="43.61499" lon="3.02719">
        <ele>707.792786</ele>
        <time>2011-07-14T13:40:43Z</time>
      </trkpt>
      <trkpt lat="43.61486" lon="3.02733">
        <ele>708.530396</ele>
        <time>2011-07-14T13:40:50Z</time>
      </trkpt>
      <trkpt lat="43.6147" lon="3.02741">
        <ele>711.217773</ele>
        <time>2011-07-14T13:40:58Z</time>
      </trkpt>
      <trkpt lat="43.61453" lon="3.02751">
        <ele>713.480591</ele>
        <time>2011-07-14T13:41:07Z</time>
      </trkpt>
      <trkpt lat="43.61437" lon="3.0276">
        <ele>714.597595</ele>
        <time>2011-07-14T13:41:15Z</time>
      </trkpt>
      <trkpt lat="43.61432" lon="3.02762">
        <ele>715.057861</ele>
        <time>2011-07-14T13:41:17Z</time>
      </trkpt>
      <trkpt lat="43.61411" lon="3.02771">
        <ele>717.490784</ele>
        <time>2011-07-14T13:41:27Z</time>
      </trkpt>
      <trkpt lat="43.61389" lon="3.02779">
        <ele>719.821533</ele>
        <time>2011-07-14T13:41:37Z</time>
      </trkpt>
      <trkpt lat="43.61369" lon="3.02788">
        <ele>722.575684</ele>
        <time>2011-07-14T13:41:46Z</time>
      </trkpt>
      <trkpt lat="43.61349" lon="3.02802">
        <ele>722.401794</ele>
        <time>2011-07-14T13:41:56Z</time>
      </trkpt>
      <trkpt lat="43.61336" lon="3.02812">
        <ele>723.492126</ele>
        <time>2011-07-14T13:42:03Z</time>
      </trkpt>
      <trkpt lat="43.6132" lon="3.02834">
        <ele>725.463745</ele>
        <time>2011-07-14T13:42:13Z</time>
      </trkpt>
      <trkpt lat="43.6131" lon="3.02852">
        <ele>726.36853</ele>
        <time>2011-07-14T13:42:21Z</time>
      </trkpt>
      <trkpt lat="43.61306" lon="3.02859">
        <ele>727.021423</ele>
        <time>2011-07-14T13:42:25Z</time>
      </trkpt>
      <trkpt lat="43.61297" lon="3.02872">
        <ele>728.978149</ele>
        <time>2011-07-14T13:42:33Z</time>
      </trkpt>
      <trkpt lat="43.61287" lon="3.02884">
        <ele>731.814758</ele>
        <time>2011-07-14T13:42:41Z</time>
      </trkpt>
      <trkpt lat="43.61282" lon="3.02891">
        <ele>733.401001</ele>
        <time>2011-07-14T13:42:45Z</time>
      </trkpt>
      <trkpt lat="43.61274" lon="3.02906">
        <ele>735.22467</ele>
        <time>2011-07-14T13:42:53Z</time>
      </trkpt>
      <trkpt lat="43.61268" lon="3.02925">
        <ele>736.76593</ele>
        <time>2011-07-14T13:43:01Z</time>
      </trkpt>
      <trkpt lat="43.61266" lon="3.02929">
        <ele>737.205872</ele>
        <time>2011-07-14T13:43:03Z</time>
      </trkpt>
      <trkpt lat="43.61259" lon="3.02954">
        <ele>738.596313</ele>
        <time>2011-07-14T13:43:14Z</time>
      </trkpt>
      <trkpt lat="43.61256" lon="3.02963">
        <ele>739.260986</ele>
        <time>2011-07-14T13:43:18Z</time>
      </trkpt>
      <trkpt lat="43.6125" lon="3.02982">
        <ele>741.158813</ele>
        <time>2011-07-14T13:43:28Z</time>
      </trkpt>
      <trkpt lat="43.61245" lon="3.02999">
        <ele>742.682678</ele>
        <time>2011-07-14T13:43:35Z</time>
      </trkpt>
      <trkpt lat="43.61237" lon="3.03024">
        <ele>743.976746</ele>
        <time>2011-07-14T13:43:43Z</time>
      </trkpt>
      <trkpt lat="43.61226" lon="3.03056">
        <ele>745.609436</ele>
        <time>2011-07-14T13:43:53Z</time>
      </trkpt>
      <trkpt lat="43.61218" lon="3.03084">
        <ele>747.147705</ele>
        <time>2011-07-14T13:44:03Z</time>
      </trkpt>
      <trkpt lat="43.61212" lon="3.03103">
        <ele>748.342407</ele>
        <time>2011-07-14T13:44:10Z</time>
      </trkpt>
      <trkpt lat="43.61209" lon="3.03111">
        <ele>748.951721</ele>
        <time>2011-07-14T13:44:13Z</time>
      </trkpt>
      <trkpt lat="43.61208" lon="3.03114">
        <ele>749.198547</ele>
        <time>2011-07-14T13:44:14Z</time>
      </trkpt>
      <trkpt lat="43.61201" lon="3.03112">
        <ele>750.135071</ele>
        <time>2011-07-14T13:44:18Z</time>
      </trkpt>
      <trkpt lat="43.61183" lon="3.03087">
        <ele>751.12262</ele>
        <time>2011-07-14T13:44:27Z</time>
      </trkpt>
      <trkpt lat="43.61166" lon="3.03066">
        <ele>751.645752</ele>
        <time>2011-07-14T13:44:34Z</time>
      </trkpt>
      <trkpt lat="43.61152" lon="3.03044">
        <ele>750.93335</ele>
        <time>2011-07-14T13:44:39Z</time>
      </trkpt>
      <trkpt lat="43.61139" lon="3.03027">
        <ele>749.560547</ele>
        <time>2011-07-14T13:44:43Z</time>
      </trkpt>
      <trkpt lat="43.61123" lon="3.03009">
        <ele>749.183105</ele>
        <time>2011-07-14T13:44:48Z</time>
      </trkpt>
      <trkpt lat="43.61116" lon="3.03008">
        <ele>749.946289</ele>
        <time>2011-07-14T13:44:51Z</time>
      </trkpt>
      <trkpt lat="43.61113" lon="3.03009">
        <ele>750.503235</ele>
        <time>2011-07-14T13:44:55Z</time>
      </trkpt>
      <trkpt lat="43.61113" lon="3.03009">
        <ele>750.514832</ele>
        <time>2011-07-14T13:44:58Z</time>
      </trkpt>
      <trkpt lat="43.61112" lon="3.03009">
        <ele>750.594055</ele>
        <time>2011-07-14T13:44:59Z</time>
      </trkpt>
      <trkpt lat="43.6111" lon="3.03008">
        <ele>750.680542</ele>
        <time>2011-07-14T13:45:00Z</time>
      </trkpt>
      <trkpt lat="43.6111" lon="3.03008">
        <ele>750.684509</ele>
        <time>2011-07-14T13:45:03Z</time>
      </trkpt>
      <trkpt lat="43.6111" lon="3.03008">
        <ele>750.737793</ele>
        <time>2011-07-14T13:45:04Z</time>
      </trkpt>
      <trkpt lat="43.61109" lon="3.03008">
        <ele>750.801392</ele>
        <time>2011-07-14T13:45:05Z</time>
      </trkpt>
      <trkpt lat="43.61109" lon="3.03008">
        <ele>750.897583</ele>
        <time>2011-07-14T13:45:08Z</time>
      </trkpt>
      <trkpt lat="43.61107" lon="3.03009">
        <ele>751.241089</ele>
        <time>2011-07-14T13:45:09Z</time>
      </trkpt>
      <trkpt lat="43.61104" lon="3.02998">
        <ele>750.116882</ele>
        <time>2011-07-14T13:46:48Z</time>
      </trkpt>
      <trkpt lat="43.61104" lon="3.02997">
        <ele>749.984985</ele>
        <time>2011-07-14T13:46:49Z</time>
      </trkpt>
      <trkpt lat="43.61095" lon="3.02998">
        <ele>751.016785</ele>
        <time>2011-07-14T13:46:55Z</time>
      </trkpt>
      <trkpt lat="43.6109" lon="3.02998">
        <ele>751.35968</ele>
        <time>2011-07-14T13:47:00Z</time>
      </trkpt>
      <trkpt lat="43.61086" lon="3.02998">
        <ele>751.632141</ele>
        <time>2011-07-14T13:47:03Z</time>
      </trkpt>
      <trkpt lat="43.61085" lon="3.02999">
        <ele>751.855774</ele>
        <time>2011-07-14T13:47:07Z</time>
      </trkpt>
      <trkpt lat="43.61085" lon="3.03">
        <ele>751.938354</ele>
        <time>2011-07-14T13:47:08Z</time>
      </trkpt>
      <trkpt lat="43.61079" lon="3.03004">
        <ele>752.971008</ele>
        <time>2011-07-14T13:47:14Z</time>
      </trkpt>
      <trkpt lat="43.6107" lon="3.03007">
        <ele>754.20343</ele>
        <time>2011-07-14T13:47:22Z</time>
      </trkpt>
      <trkpt lat="43.61064" lon="3.03016">
        <ele>756.418762</ele>
        <time>2011-07-14T13:47:31Z</time>
      </trkpt>
      <trkpt lat="43.61061" lon="3.03019">
        <ele>757.215759</ele>
        <time>2011-07-14T13:47:35Z</time>
      </trkpt>
      <trkpt lat="43.61055" lon="3.03019">
        <ele>757.717346</ele>
        <time>2011-07-14T13:47:43Z</time>
      </trkpt>
      <trkpt lat="43.61054" lon="3.03019">
        <ele>757.861755</ele>
        <time>2011-07-14T13:47:45Z</time>
      </trkpt>
      <trkpt lat="43.61054" lon="3.03019">
        <ele>757.888428</ele>
        <time>2011-07-14T13:47:48Z</time>
      </trkpt>
      <trkpt lat="43.61053" lon="3.03018">
        <ele>757.799805</ele>
        <time>2011-07-14T13:47:49Z</time>
      </trkpt>
      <trkpt lat="43.61049" lon="3.03016">
        <ele>757.477234</ele>
        <time>2011-07-14T13:47:52Z</time>
      </trkpt>
      <trkpt lat="43.61043" lon="3.03016">
        <ele>757.728699</ele>
        <time>2011-07-14T13:47:57Z</time>
      </trkpt>
      <trkpt lat="43.6103" lon="3.03024">
        <ele>760.083862</ele>
        <time>2011-07-14T13:48:04Z</time>
      </trkpt>
      <trkpt lat="43.61022" lon="3.03027">
        <ele>761.422546</ele>
        <time>2011-07-14T13:48:09Z</time>
      </trkpt>
      <trkpt lat="43.61017" lon="3.03029">
        <ele>762.26416</ele>
        <time>2011-07-14T13:48:14Z</time>
      </trkpt>
      <trkpt lat="43.61015" lon="3.0303">
        <ele>762.626526</ele>
        <time>2011-07-14T13:48:16Z</time>
      </trkpt>
      <trkpt lat="43.61015" lon="3.03031">
        <ele>762.748535</ele>
        <time>2011-07-14T13:48:19Z</time>
      </trkpt>
      <trkpt lat="43.61012" lon="3.03032">
        <ele>763.245483</ele>
        <time>2011-07-14T13:48:21Z</time>
      </trkpt>
      <trkpt lat="43.61006" lon="3.03036">
        <ele>764.46936</ele>
        <time>2011-07-14T13:48:27Z</time>
      </trkpt>
      <trkpt lat="43.60997" lon="3.03041">
        <ele>766.091797</ele>
        <time>2011-07-14T13:48:32Z</time>
      </trkpt>
      <trkpt lat="43.60987" lon="3.0305">
        <ele>768.132385</ele>
        <time>2011-07-14T13:48:39Z</time>
      </trkpt>
      <trkpt lat="43.60978" lon="3.03051">
        <ele>768.171692</ele>
        <time>2011-07-14T13:48:46Z</time>
      </trkpt>
      <trkpt lat="43.60971" lon="3.03053">
        <ele>768.275635</ele>
        <time>2011-07-14T13:48:51Z</time>
      </trkpt>
      <trkpt lat="43.60963" lon="3.03054">
        <ele>768.254028</ele>
        <time>2011-07-14T13:48:59Z</time>
      </trkpt>
      <trkpt lat="43.60957" lon="3.03054">
        <ele>769.14978</ele>
        <time>2011-07-14T13:49:03Z</time>
      </trkpt>
      <trkpt lat="43.60953" lon="3.03053">
        <ele>769.532654</ele>
        <time>2011-07-14T13:49:06Z</time>
      </trkpt>
      <trkpt lat="43.60948" lon="3.03054">
        <ele>770.332886</ele>
        <time>2011-07-14T13:49:12Z</time>
      </trkpt>
      <trkpt lat="43.60939" lon="3.03057">
        <ele>771.636353</ele>
        <time>2011-07-14T13:49:18Z</time>
      </trkpt>
      <trkpt lat="43.60937" lon="3.03055">
        <ele>771.805725</ele>
        <time>2011-07-14T13:49:20Z</time>
      </trkpt>
      <trkpt lat="43.60936" lon="3.0304">
        <ele>769.536194</ele>
        <time>2011-07-14T13:49:26Z</time>
      </trkpt>
      <trkpt lat="43.60936" lon="3.03037">
        <ele>769.173706</ele>
        <time>2011-07-14T13:49:27Z</time>
      </trkpt>
      <trkpt lat="43.60933" lon="3.03035">
        <ele>769.149475</ele>
        <time>2011-07-14T13:49:29Z</time>
      </trkpt>
      <trkpt lat="43.60926" lon="3.03032">
        <ele>769.583557</ele>
        <time>2011-07-14T13:49:34Z</time>
      </trkpt>
      <trkpt lat="43.60925" lon="3.03031">
        <ele>769.511658</ele>
        <time>2011-07-14T13:49:36Z</time>
      </trkpt>
      <trkpt lat="43.60916" lon="3.03028">
        <ele>770.153137</ele>
        <time>2011-07-14T13:49:42Z</time>
      </trkpt>
      <trkpt lat="43.60907" lon="3.03034">
        <ele>771.910278</ele>
        <time>2011-07-14T13:49:47Z</time>
      </trkpt>
      <trkpt lat="43.60904" lon="3.03034">
        <ele>772.266052</ele>
        <time>2011-07-14T13:49:49Z</time>
      </trkpt>
      <trkpt lat="43.6089" lon="3.03035">
        <ele>773.749207</ele>
        <time>2011-07-14T13:49:56Z</time>
      </trkpt>
      <trkpt lat="43.60877" lon="3.03035">
        <ele>774.954956</ele>
        <time>2011-07-14T13:50:04Z</time>
      </trkpt>
      <trkpt lat="43.60863" lon="3.03036">
        <ele>774.989441</ele>
        <time>2011-07-14T13:50:09Z</time>
      </trkpt>
      <trkpt lat="43.60843" lon="3.0304">
        <ele>774.756897</ele>
        <time>2011-07-14T13:50:14Z</time>
      </trkpt>
      <trkpt lat="43.60825" lon="3.03047">
        <ele>775.665588</ele>
        <time>2011-07-14T13:50:19Z</time>
      </trkpt>
      <trkpt lat="43.60807" lon="3.03054">
        <ele>777.078979</ele>
        <time>2011-07-14T13:50:24Z</time>
      </trkpt>
      <trkpt lat="43.60797" lon="3.03052">
        <ele>777.427368</ele>
        <time>2011-07-14T13:50:27Z</time>
      </trkpt>
      <trkpt lat="43.60782" lon="3.03064">
        <ele>777.764099</ele>
        <time>2011-07-14T13:50:33Z</time>
      </trkpt>
      <trkpt lat="43.60772" lon="3.03075">
        <ele>777.426819</ele>
        <time>2011-07-14T13:50:39Z</time>
      </trkpt>
      <trkpt lat="43.60771" lon="3.03077">
        <ele>777.336609</ele>
        <time>2011-07-14T13:50:42Z</time>
      </trkpt>
      <trkpt lat="43.60771" lon="3.03077">
        <ele>777.31842</ele>
        <time>2011-07-14T13:53:50Z</time>
      </trkpt>
      <trkpt lat="43.60769" lon="3.03088">
        <ele>776.907288</ele>
        <time>2011-07-14T13:53:55Z</time>
      </trkpt>
      <trkpt lat="43.60767" lon="3.03096">
        <ele>776.507629</ele>
        <time>2011-07-14T13:53:58Z</time>
      </trkpt>
      <trkpt lat="43.60763" lon="3.03102">
        <ele>776.078552</ele>
        <time>2012-03-05T14:08:45Z</time>
      </trkpt>
      <trkpt lat="43.60763" lon="3.03102">
        <ele>776.07251</ele>
        <time>2012-03-05T14:08:46Z</time>
      </trkpt>
      <trkpt lat="43.60761" lon="3.03111">
        <ele>775.496277</ele>
        <time>2012-03-05T14:13:14Z</time>
      </trkpt>
      <trkpt lat="43.60761" lon="3.0311">
        <ele>775.581726</ele>
        <time>2012-03-05T14:13:15Z</time>
      </trkpt>
      <trkpt lat="43.60762" lon="3.03109">
        <ele>775.64386</ele>
        <time>2012-03-05T14:13:16Z</time>
      </trkpt>
      <trkpt lat="43.60762" lon="3.03108">
        <ele>775.719482</ele>
        <time>2012-03-05T14:13:19Z</time>
      </trkpt>
      <trkpt lat="43.60751" lon="3.0311">
        <ele>774.927612</ele>
        <time>2012-03-05T14:13:25Z</time>
      </trkpt>
      <trkpt lat="43.60742" lon="3.03109">
        <ele>774.420776</ele>
        <time>2012-03-05T14:13:30Z</time>
      </trkpt>
      <trkpt lat="43.60735" lon="3.03118">
        <ele>772.545288</ele>
        <time>2012-03-05T14:13:34Z</time>
      </trkpt>
      <trkpt lat="43.60734" lon="3.03121">
        <ele>771.754028</ele>
        <time>2012-03-05T14:13:35Z</time>
      </trkpt>
      <trkpt lat="43.60731" lon="3.03138">
        <ele>769.036987</ele>
        <time>2012-03-05T14:13:39Z</time>
      </trkpt>
      <trkpt lat="43.60732" lon="3.03145">
        <ele>768.34259</ele>
        <time>2012-03-05T14:13:41Z</time>
      </trkpt>
      <trkpt lat="43.60736" lon="3.03163">
        <ele>766.75946</ele>
        <time>2012-03-05T14:13:45Z</time>
      </trkpt>
      <trkpt lat="43.60737" lon="3.03172">
        <ele>765.687561</ele>
        <time>2012-03-05T14:13:47Z</time>
      </trkpt>
      <trkpt lat="43.60736" lon="3.03181">
        <ele>764.267822</ele>
        <time>2012-03-05T14:13:49Z</time>
      </trkpt>
      <trkpt lat="43.60734" lon="3.03189">
        <ele>762.448181</ele>
        <time>2012-03-05T14:13:51Z</time>
      </trkpt>
      <trkpt lat="43.60729" lon="3.03207">
        <ele>758.463928</ele>
        <time>2012-03-05T14:13:56Z</time>
      </trkpt>
      <trkpt lat="43.60726" lon="3.03218">
        <ele>756.241089</ele>
        <time>2012-03-05T14:13:59Z</time>
      </trkpt>
      <trkpt lat="43.60725" lon="3.03226">
        <ele>754.742126</ele>
        <time>2012-03-05T14:14:01Z</time>
      </trkpt>
      <trkpt lat="43.60724" lon="3.03238">
        <ele>752.695435</ele>
        <time>2012-03-05T14:14:03Z</time>
      </trkpt>
      <trkpt lat="43.60725" lon="3.03247">
        <ele>751.576477</ele>
        <time>2012-03-05T14:14:05Z</time>
      </trkpt>
      <trkpt lat="43.60728" lon="3.03271">
        <ele>748.717957</ele>
        <time>2012-03-05T14:14:10Z</time>
      </trkpt>
      <trkpt lat="43.60733" lon="3.03283">
        <ele>748.514526</ele>
        <time>2012-03-05T14:14:14Z</time>
      </trkpt>
      <trkpt lat="43.60737" lon="3.03291">
        <ele>748.733704</ele>
        <time>2012-03-05T14:14:16Z</time>
      </trkpt>
      <trkpt lat="43.6074" lon="3.03295">
        <ele>748.674011</ele>
        <time>2012-03-05T14:14:18Z</time>
      </trkpt>
      <trkpt lat="43.6074" lon="3.03297">
        <ele>748.528198</ele>
        <time>2012-03-05T14:14:22Z</time>
      </trkpt>
      <trkpt lat="43.60739" lon="3.03297">
        <ele>748.396484</ele>
        <time>2012-03-05T14:14:25Z</time>
      </trkpt>
      <trkpt lat="43.60738" lon="3.03297">
        <ele>748.211548</ele>
        <time>2012-03-05T14:14:26Z</time>
      </trkpt>
      <trkpt lat="43.6074" lon="3.03309">
        <ele>748.269836</ele>
        <time>2012-03-05T14:14:29Z</time>
      </trkpt>
      <trkpt lat="43.60737" lon="3.03323">
        <ele>747.579224</ele>
        <time>2012-03-05T14:14:34Z</time>
      </trkpt>
      <trkpt lat="43.60734" lon="3.0333">
        <ele>746.315979</ele>
        <time>2012-03-05T14:14:36Z</time>
      </trkpt>
      <trkpt lat="43.60729" lon="3.03336">
        <ele>744.447144</ele>
        <time>2012-03-05T14:14:39Z</time>
      </trkpt>
      <trkpt lat="43.60722" lon="3.03348">
        <ele>741.419617</ele>
        <time>2012-03-05T14:14:43Z</time>
      </trkpt>
      <trkpt lat="43.60715" lon="3.03369">
        <ele>738.028809</ele>
        <time>2012-03-05T14:14:48Z</time>
      </trkpt>
      <trkpt lat="43.60712" lon="3.03388">
        <ele>736.253601</ele>
        <time>2012-03-05T14:14:53Z</time>
      </trkpt>
      <trkpt lat="43.60717" lon="3.03404">
        <ele>737.561401</ele>
        <time>2012-03-05T14:14:57Z</time>
      </trkpt>
      <trkpt lat="43.60718" lon="3.03413">
        <ele>737.669983</ele>
        <time>2012-03-05T14:14:59Z</time>
      </trkpt>
      <trkpt lat="43.60721" lon="3.03427">
        <ele>737.400574</ele>
        <time>2012-03-05T14:15:02Z</time>
      </trkpt>
      <trkpt lat="43.60721" lon="3.03433">
        <ele>736.617798</ele>
        <time>2012-03-05T14:15:04Z</time>
      </trkpt>
      <trkpt lat="43.6072" lon="3.0345">
        <ele>733.995117</ele>
        <time>2012-03-05T14:15:09Z</time>
      </trkpt>
      <trkpt lat="43.60715" lon="3.03461">
        <ele>731.43689</ele>
        <time>2012-03-05T14:15:15Z</time>
      </trkpt>
      <trkpt lat="43.60714" lon="3.03462">
        <ele>731.058899</ele>
        <time>2012-03-05T14:15:16Z</time>
      </trkpt>
      <trkpt lat="43.60711" lon="3.03462">
        <ele>730.065369</ele>
        <time>2012-03-05T14:15:18Z</time>
      </trkpt>
      <trkpt lat="43.60707" lon="3.0347">
        <ele>728.098938</ele>
        <time>2012-03-05T14:15:22Z</time>
      </trkpt>
      <trkpt lat="43.60705" lon="3.03488">
        <ele>725.494141</ele>
        <time>2012-03-05T14:15:26Z</time>
      </trkpt>
      <trkpt lat="43.60706" lon="3.03519">
        <ele>721.371826</ele>
        <time>2012-03-05T14:15:31Z</time>
      </trkpt>
      <trkpt lat="43.60705" lon="3.03536">
        <ele>718.892151</ele>
        <time>2012-03-05T14:15:36Z</time>
      </trkpt>
      <trkpt lat="43.60703" lon="3.03543">
        <ele>717.640015</ele>
        <time>2012-03-05T14:15:39Z</time>
      </trkpt>
      <trkpt lat="43.60703" lon="3.03549">
        <ele>716.643433</ele>
        <time>2012-03-05T14:15:42Z</time>
      </trkpt>
      <trkpt lat="43.60702" lon="3.0355">
        <ele>716.280212</ele>
        <time>2012-03-05T14:15:43Z</time>
      </trkpt>
      <trkpt lat="43.60696" lon="3.03552">
        <ele>714.934998</ele>
        <time>2012-03-05T14:15:49Z</time>
      </trkpt>
      <trkpt lat="43.60694" lon="3.03553">
        <ele>714.295044</ele>
        <time>2012-03-05T14:15:51Z</time>
      </trkpt>
      <trkpt lat="43.60688" lon="3.03561">
        <ele>711.935791</ele>
        <time>2012-03-05T14:15:56Z</time>
      </trkpt>
      <trkpt lat="43.60684" lon="3.03572">
        <ele>709.204651</ele>
        <time>2012-03-05T14:15:59Z</time>
      </trkpt>
      <trkpt lat="43.60676" lon="3.03583">
        <ele>705.456848</ele>
        <time>2012-03-05T14:16:02Z</time>
      </trkpt>
      <trkpt lat="43.60665" lon="3.03591">
        <ele>701.267212</ele>
        <time>2012-03-05T14:16:05Z</time>
      </trkpt>
      <trkpt lat="43.60659" lon="3.03594">
        <ele>699.096619</ele>
        <time>2012-03-05T14:16:07Z</time>
      </trkpt>
      <trkpt lat="43.60656" lon="3.03602">
        <ele>697.452454</ele>
        <time>2012-03-05T14:16:10Z</time>
      </trkpt>
      <trkpt lat="43.60653" lon="3.03608">
        <ele>695.692749</ele>
        <time>2012-03-05T14:16:13Z</time>
      </trkpt>
      <trkpt lat="43.60645" lon="3.03605">
        <ele>693.767639</ele>
        <time>2012-03-05T14:16:16Z</time>
      </trkpt>
      <trkpt lat="43.6064" lon="3.03609">
        <ele>690.879395</ele>
        <time>2012-03-05T14:16:19Z</time>
      </trkpt>
      <trkpt lat="43.60637" lon="3.03614">
        <ele>688.697144</ele>
        <time>2012-03-05T14:16:21Z</time>
      </trkpt>
      <trkpt lat="43.6063" lon="3.03621">
        <ele>684.733215</ele>
        <time>2012-03-05T14:16:25Z</time>
      </trkpt>
      <trkpt lat="43.60626" lon="3.03619">
        <ele>683.560669</ele>
        <time>2012-03-05T14:16:27Z</time>
      </trkpt>
      <trkpt lat="43.60613" lon="3.03618">
        <ele>678.157043</ele>
        <time>2012-03-05T14:16:33Z</time>
      </trkpt>
      <trkpt lat="43.60611" lon="3.03619">
        <ele>677.144836</ele>
        <time>2012-03-05T14:16:34Z</time>
      </trkpt>
      <trkpt lat="43.60607" lon="3.03624">
        <ele>674.941101</ele>
        <time>2012-03-05T14:16:37Z</time>
      </trkpt>
      <trkpt lat="43.60605" lon="3.03626">
        <ele>673.588257</ele>
        <time>2012-03-05T14:16:39Z</time>
      </trkpt>
      <trkpt lat="43.60598" lon="3.03629">
        <ele>670.28833</ele>
        <time>2012-03-05T14:16:42Z</time>
      </trkpt>
      <trkpt lat="43.6059" lon="3.0363">
        <ele>666.716064</ele>
        <time>2012-03-05T14:16:46Z</time>
      </trkpt>
      <trkpt lat="43.60589" lon="3.03629">
        <ele>666.318054</ele>
        <time>2012-03-05T14:16:47Z</time>
      </trkpt>
      <trkpt lat="43.6058" lon="3.03629">
        <ele>662.521912</ele>
        <time>2012-03-05T14:16:53Z</time>
      </trkpt>
      <trkpt lat="43.60579" lon="3.03634">
        <ele>661.431213</ele>
        <time>2012-03-05T14:16:56Z</time>
      </trkpt>
      <trkpt lat="43.60574" lon="3.03652">
        <ele>657.12207</ele>
        <time>2012-03-05T14:17:02Z</time>
      </trkpt>
      <trkpt lat="43.60567" lon="3.03653">
        <ele>654.200317</ele>
        <time>2012-03-05T14:17:06Z</time>
      </trkpt>
      <trkpt lat="43.60563" lon="3.03652">
        <ele>652.348022</ele>
        <time>2012-03-05T14:17:08Z</time>
      </trkpt>
      <trkpt lat="43.60559" lon="3.03654">
        <ele>650.539795</ele>
        <time>2012-03-05T14:17:11Z</time>
      </trkpt>
      <trkpt lat="43.60556" lon="3.03654">
        <ele>649.582275</ele>
        <time>2012-03-05T14:17:13Z</time>
      </trkpt>
      <trkpt lat="43.60554" lon="3.03651">
        <ele>648.667664</ele>
        <time>2012-03-05T14:17:16Z</time>
      </trkpt>
      <trkpt lat="43.60544" lon="3.03649">
        <ele>644.513428</ele>
        <time>2012-03-05T14:17:20Z</time>
      </trkpt>
      <trkpt lat="43.60542" lon="3.03651">
        <ele>643.1203</ele>
        <time>2012-03-05T14:17:22Z</time>
      </trkpt>
      <trkpt lat="43.60539" lon="3.03651">
        <ele>641.701965</ele>
        <time>2012-03-05T14:17:25Z</time>
      </trkpt>
      <trkpt lat="43.60536" lon="3.03653">
        <ele>640.229065</ele>
        <time>2012-03-05T14:17:27Z</time>
      </trkpt>
      <trkpt lat="43.60529" lon="3.03664">
        <ele>636.157166</ele>
        <time>2012-03-05T14:17:32Z</time>
      </trkpt>
      <trkpt lat="43.60525" lon="3.03666">
        <ele>633.582825</ele>
        <time>2012-03-05T14:17:35Z</time>
      </trkpt>
      <trkpt lat="43.60523" lon="3.03665">
        <ele>633.168762</ele>
        <time>2012-03-05T14:17:36Z</time>
      </trkpt>
      <trkpt lat="43.6052" lon="3.03664">
        <ele>631.809875</ele>
        <time>2012-03-05T14:17:38Z</time>
      </trkpt>
      <trkpt lat="43.60517" lon="3.0365">
        <ele>631.215515</ele>
        <time>2012-03-05T14:17:43Z</time>
      </trkpt>
      <trkpt lat="43.60514" lon="3.03618">
        <ele>632.579712</ele>
        <time>2012-03-05T14:17:50Z</time>
      </trkpt>
      <trkpt lat="43.60514" lon="3.03602">
        <ele>633.662964</ele>
        <time>2012-03-05T14:17:53Z</time>
      </trkpt>
      <trkpt lat="43.60517" lon="3.03566">
        <ele>636.224304</ele>
        <time>2012-03-05T14:18:00Z</time>
      </trkpt>
      <trkpt lat="43.60517" lon="3.03528">
        <ele>637.567505</ele>
        <time>2012-03-05T14:18:07Z</time>
      </trkpt>
      <trkpt lat="43.60516" lon="3.03508">
        <ele>637.642517</ele>
        <time>2012-03-05T14:18:11Z</time>
      </trkpt>
      <trkpt lat="43.60515" lon="3.03473">
        <ele>638.315918</ele>
        <time>2012-03-05T14:18:18Z</time>
      </trkpt>
      <trkpt lat="43.60514" lon="3.03444">
        <ele>639.525635</ele>
        <time>2012-03-05T14:18:24Z</time>
      </trkpt>
      <trkpt lat="43.60517" lon="3.03424">
        <ele>642.221924</ele>
        <time>2012-03-05T14:18:29Z</time>
      </trkpt>
      <trkpt lat="43.60517" lon="3.03409">
        <ele>644.144043</ele>
        <time>2012-03-05T14:18:34Z</time>
      </trkpt>
      <trkpt lat="43.60513" lon="3.03394">
        <ele>644.399109</ele>
        <time>2012-03-05T14:18:39Z</time>
      </trkpt>
      <trkpt lat="43.60511" lon="3.03387">
        <ele>644.669556</ele>
        <time>2012-03-05T14:18:41Z</time>
      </trkpt>
      <trkpt lat="43.60507" lon="3.03366">
        <ele>646.718811</ele>
        <time>2012-03-05T14:18:46Z</time>
      </trkpt>
      <trkpt lat="43.60498" lon="3.03352">
        <ele>645.945496</ele>
        <time>2012-03-05T14:18:50Z</time>
      </trkpt>
      <trkpt lat="43.60485" lon="3.03345">
        <ele>643.657837</ele>
        <time>2012-03-05T14:18:54Z</time>
      </trkpt>
      <trkpt lat="43.60467" lon="3.03327">
        <ele>643.466248</ele>
        <time>2012-03-05T14:19:01Z</time>
      </trkpt>
      <trkpt lat="43.60451" lon="3.03315">
        <ele>644.216248</ele>
        <time>2012-03-05T14:19:07Z</time>
      </trkpt>
      <trkpt lat="43.60427" lon="3.03298">
        <ele>645.122498</ele>
        <time>2012-03-05T14:19:16Z</time>
      </trkpt>
      <trkpt lat="43.60412" lon="3.03285">
        <ele>646.47998</ele>
        <time>2012-03-05T14:19:22Z</time>
      </trkpt>
      <trkpt lat="43.60388" lon="3.03261">
        <ele>649.77002</ele>
        <time>2012-03-05T14:19:31Z</time>
      </trkpt>
      <trkpt lat="43.60376" lon="3.0325">
        <ele>651.284973</ele>
        <time>2012-03-05T14:19:36Z</time>
      </trkpt>
      <trkpt lat="43.60359" lon="3.03235">
        <ele>653.294983</ele>
        <time>2012-03-05T14:19:43Z</time>
      </trkpt>
      <trkpt lat="43.60347" lon="3.03226">
        <ele>654.174011</ele>
        <time>2012-03-05T14:19:48Z</time>
      </trkpt>
      <trkpt lat="43.60333" lon="3.03217">
        <ele>654.684448</ele>
        <time>2012-03-05T14:19:54Z</time>
      </trkpt>
      <trkpt lat="43.6032" lon="3.03211">
        <ele>654.708801</ele>
        <time>2012-03-05T14:19:59Z</time>
      </trkpt>
      <trkpt lat="43.60303" lon="3.03207">
        <ele>653.317444</ele>
        <time>2012-03-05T14:20:05Z</time>
      </trkpt>
      <trkpt lat="43.60288" lon="3.03207">
        <ele>650.955017</ele>
        <time>2012-03-05T14:20:09Z</time>
      </trkpt>
      <trkpt lat="43.60276" lon="3.03206">
        <ele>649.352478</ele>
        <time>2012-03-05T14:20:11Z</time>
      </trkpt>
      <trkpt lat="43.60254" lon="3.03202">
        <ele>647.02002</ele>
        <time>2012-03-05T14:20:14Z</time>
      </trkpt>
      <trkpt lat="43.60246" lon="3.032">
        <ele>646.619995</ele>
        <time>2012-03-05T14:20:15Z</time>
      </trkpt>
      <trkpt lat="43.60216" lon="3.03197">
        <ele>642.542725</ele>
        <time>2012-03-05T14:20:19Z</time>
      </trkpt>
      <trkpt lat="43.60199" lon="3.03193">
        <ele>641.227112</ele>
        <time>2012-03-05T14:20:21Z</time>
      </trkpt>
      <trkpt lat="43.60183" lon="3.03186">
        <ele>640.692139</ele>
        <time>2012-03-05T14:20:23Z</time>
      </trkpt>
      <trkpt lat="43.6016" lon="3.03185">
        <ele>637.430908</ele>
        <time>2012-03-05T14:20:26Z</time>
      </trkpt>
      <trkpt lat="43.60152" lon="3.03187">
        <ele>635.797485</ele>
        <time>2012-03-05T14:20:27Z</time>
      </trkpt>
      <trkpt lat="43.60132" lon="3.03195">
        <ele>631.52002</ele>
        <time>2012-03-05T14:20:30Z</time>
      </trkpt>
      <trkpt lat="43.60126" lon="3.03197">
        <ele>630.253723</ele>
        <time>2012-03-05T14:20:31Z</time>
      </trkpt>
      <trkpt lat="43.60107" lon="3.03205">
        <ele>625.940857</ele>
        <time>2012-03-05T14:20:34Z</time>
      </trkpt>
      <trkpt lat="43.60092" lon="3.03212">
        <ele>623.096924</ele>
        <time>2012-03-05T14:20:36Z</time>
      </trkpt>
      <trkpt lat="43.60074" lon="3.03214">
        <ele>621.421143</ele>
        <time>2012-03-05T14:20:38Z</time>
      </trkpt>
      <trkpt lat="43.60025" lon="3.03228">
        <ele>613.650024</ele>
        <time>2012-03-05T14:20:43Z</time>
      </trkpt>
      <trkpt lat="43.59991" lon="3.03245">
        <ele>607.120972</ele>
        <time>2012-03-05T14:20:46Z</time>
      </trkpt>
      <trkpt lat="43.59961" lon="3.03255">
        <ele>603.713745</ele>
        <time>2012-03-05T14:20:49Z</time>
      </trkpt>
      <trkpt lat="43.59946" lon="3.03262">
        <ele>601.45752</ele>
        <time>2012-03-05T14:20:51Z</time>
      </trkpt>
      <trkpt lat="43.5993" lon="3.03272">
        <ele>598.32251</ele>
        <time>2012-03-05T14:20:53Z</time>
      </trkpt>
      <trkpt lat="43.59913" lon="3.03283">
        <ele>594.816833</ele>
        <time>2012-03-05T14:20:55Z</time>
      </trkpt>
      <trkpt lat="43.59874" lon="3.03295">
        <ele>590.998596</ele>
        <time>2012-03-05T14:20:59Z</time>
      </trkpt>
      <trkpt lat="43.59853" lon="3.033">
        <ele>588.763306</ele>
        <time>2012-03-05T14:21:01Z</time>
      </trkpt>
      <trkpt lat="43.59835" lon="3.03305">
        <ele>586.349976</ele>
        <time>2012-03-05T14:21:03Z</time>
      </trkpt>
      <trkpt lat="43.59827" lon="3.03306">
        <ele>585</ele>
        <time>2012-03-05T14:21:04Z</time>
      </trkpt>
      <trkpt lat="43.59804" lon="3.0331">
        <ele>581.049988</ele>
        <time>2012-03-05T14:21:07Z</time>
      </trkpt>
      <trkpt lat="43.59778" lon="3.03311">
        <ele>577.73175</ele>
        <time>2012-03-05T14:21:10Z</time>
      </trkpt>
      <trkpt lat="43.59749" lon="3.03305">
        <ele>575.913879</ele>
        <time>2012-03-05T14:21:13Z</time>
      </trkpt>
      <trkpt lat="43.59709" lon="3.03297">
        <ele>573.058777</ele>
        <time>2012-03-05T14:21:17Z</time>
      </trkpt>
      <trkpt lat="43.59649" lon="3.03289">
        <ele>567.672241</ele>
        <time>2012-03-05T14:21:23Z</time>
      </trkpt>
      <trkpt lat="43.5961" lon="3.03294">
        <ele>560.887512</ele>
        <time>2012-03-05T14:21:27Z</time>
      </trkpt>
      <trkpt lat="43.5959" lon="3.03301">
        <ele>557.44751</ele>
        <time>2012-03-05T14:21:29Z</time>
      </trkpt>
      <trkpt lat="43.59564" lon="3.03312">
        <ele>552.222717</ele>
        <time>2012-03-05T14:21:32Z</time>
      </trkpt>
      <trkpt lat="43.59538" lon="3.03321">
        <ele>549.365723</ele>
        <time>2012-03-05T14:21:35Z</time>
      </trkpt>
      <trkpt lat="43.59521" lon="3.0333">
        <ele>546.786499</ele>
        <time>2012-03-05T14:21:38Z</time>
      </trkpt>
      <trkpt lat="43.59517" lon="3.03333">
        <ele>546.02832</ele>
        <time>2012-03-05T14:21:40Z</time>
      </trkpt>
      <trkpt lat="43.59519" lon="3.03335">
        <ele>545.534546</ele>
        <time>2012-03-05T14:21:45Z</time>
      </trkpt>
      <trkpt lat="43.59521" lon="3.03333">
        <ele>546.083191</ele>
        <time>2012-03-05T14:21:57Z</time>
      </trkpt>
      <trkpt lat="43.59522" lon="3.03332">
        <ele>546.185059</ele>
        <time>2012-03-05T14:21:58Z</time>
      </trkpt>
      <trkpt lat="43.59522" lon="3.03331">
        <ele>546.560608</ele>
        <time>2012-03-05T14:22:00Z</time>
      </trkpt>
      <trkpt lat="43.59523" lon="3.03329">
        <ele>546.984436</ele>
        <time>2012-03-05T14:22:02Z</time>
      </trkpt>
      <trkpt lat="43.59537" lon="3.03327">
        <ele>547.70105</ele>
        <time>2012-03-05T14:22:10Z</time>
      </trkpt>
      <trkpt lat="43.59539" lon="3.03326">
        <ele>547.77478</ele>
        <time>2012-03-05T14:22:11Z</time>
      </trkpt>
      <trkpt lat="43.5954" lon="3.03324">
        <ele>548.389648</ele>
        <time>2012-03-05T14:22:13Z</time>
      </trkpt>
      <trkpt lat="43.5954" lon="3.0332">
        <ele>549.843201</ele>
        <time>2012-03-05T14:22:15Z</time>
      </trkpt>
      <trkpt lat="43.59532" lon="3.03315">
        <ele>551.195862</ele>
        <time>2012-03-05T14:22:21Z</time>
      </trkpt>
      <trkpt lat="43.59529" lon="3.03314">
        <ele>551.430481</ele>
        <time>2012-03-05T14:22:23Z</time>
      </trkpt>
      <trkpt lat="43.5951" lon="3.03313">
        <ele>551.769958</ele>
        <time>2012-03-05T14:22:31Z</time>
      </trkpt>
      <trkpt lat="43.59499" lon="3.03312">
        <ele>552.186462</ele>
        <time>2012-03-05T14:22:37Z</time>
      </trkpt>
      <trkpt lat="43.59486" lon="3.03313">
        <ele>552.221863</ele>
        <time>2012-03-05T14:22:43Z</time>
      </trkpt>
      <trkpt lat="43.5947" lon="3.03316">
        <ele>551.512512</ele>
        <time>2012-03-05T14:22:50Z</time>
      </trkpt>
      <trkpt lat="43.59453" lon="3.03319">
        <ele>550.912476</ele>
        <time>2012-03-05T14:22:56Z</time>
      </trkpt>
      <trkpt lat="43.5943" lon="3.03324">
        <ele>550.113159</ele>
        <time>2012-03-05T14:23:03Z</time>
      </trkpt>
      <trkpt lat="43.594" lon="3.03332">
        <ele>548.964294</ele>
        <time>2012-03-05T14:23:11Z</time>
      </trkpt>
      <trkpt lat="43.59388" lon="3.03336">
        <ele>548.562256</ele>
        <time>2012-03-05T14:23:15Z</time>
      </trkpt>
      <trkpt lat="43.59382" lon="3.03338">
        <ele>548.135925</ele>
        <time>2012-03-05T14:23:19Z</time>
      </trkpt>
      <trkpt lat="43.59381" lon="3.03338">
        <ele>548.06842</ele>
        <time>2012-03-05T14:23:20Z</time>
      </trkpt>
      <trkpt lat="43.59379" lon="3.0334">
        <ele>547.577698</ele>
        <time>2012-03-05T14:23:29Z</time>
      </trkpt>
      <trkpt lat="43.59379" lon="3.0334">
        <ele>547.533142</ele>
        <time>2012-03-05T14:23:30Z</time>
      </trkpt>
      <trkpt lat="43.59378" lon="3.03341">
        <ele>547.471497</ele>
        <time>2012-03-05T14:23:31Z</time>
      </trkpt>
      <trkpt lat="43.59378" lon="3.03341">
        <ele>547.382874</ele>
        <time>2012-03-05T14:23:34Z</time>
      </trkpt>
      <trkpt lat="43.59375" lon="3.03342">
        <ele>547.000671</ele>
        <time>2012-03-05T14:23:36Z</time>
      </trkpt>
      <trkpt lat="43.59374" lon="3.03342">
        <ele>547.037903</ele>
        <time>2012-03-05T14:23:37Z</time>
      </trkpt>
      <trkpt lat="43.5937" lon="3.03346">
        <ele>546.164429</ele>
        <time>2012-03-05T14:23:45Z</time>
      </trkpt>
      <trkpt lat="43.5937" lon="3.03346">
        <ele>546.23175</ele>
        <time>2012-03-05T14:23:46Z</time>
      </trkpt>
      <trkpt lat="43.5937" lon="3.03345">
        <ele>546.350342</ele>
        <time>2012-03-05T14:23:50Z</time>
      </trkpt>
      <trkpt lat="43.59369" lon="3.03345">
        <ele>546.369995</ele>
        <time>2012-03-05T14:23:51Z</time>
      </trkpt>
      <trkpt lat="43.59363" lon="3.03346">
        <ele>546.236511</ele>
        <time>2012-03-05T14:23:56Z</time>
      </trkpt>
      <trkpt lat="43.5936" lon="3.03347">
        <ele>546.099487</ele>
        <time>2012-03-05T14:23:58Z</time>
      </trkpt>
      <trkpt lat="43.5935" lon="3.03347">
        <ele>546.415161</ele>
        <time>2012-03-05T14:24:03Z</time>
      </trkpt>
      <trkpt lat="43.59341" lon="3.03343">
        <ele>547.353699</ele>
        <time>2012-03-05T14:24:09Z</time>
      </trkpt>
      <trkpt lat="43.59336" lon="3.03347">
        <ele>546.045898</ele>
        <time>2012-03-05T14:24:13Z</time>
      </trkpt>
      <trkpt lat="43.59328" lon="3.03355">
        <ele>543.922668</ele>
        <time>2012-03-05T14:24:17Z</time>
      </trkpt>
      <trkpt lat="43.59319" lon="3.03354">
        <ele>543.789612</ele>
        <time>2012-03-05T14:24:22Z</time>
      </trkpt>
      <trkpt lat="43.59317" lon="3.03354">
        <ele>543.604492</ele>
        <time>2012-03-05T14:24:23Z</time>
      </trkpt>
      <trkpt lat="43.59312" lon="3.03355">
        <ele>543.190125</ele>
        <time>2012-03-05T14:24:26Z</time>
      </trkpt>
      <trkpt lat="43.59305" lon="3.03362">
        <ele>541.246277</ele>
        <time>2012-03-05T14:24:30Z</time>
      </trkpt>
      <trkpt lat="43.59299" lon="3.03364">
        <ele>540.692383</ele>
        <time>2012-03-05T14:24:32Z</time>
      </trkpt>
      <trkpt lat="43.59288" lon="3.03365">
        <ele>539.748413</ele>
        <time>2012-03-05T14:24:37Z</time>
      </trkpt>
      <trkpt lat="43.59286" lon="3.03364">
        <ele>539.949646</ele>
        <time>2012-03-05T14:24:44Z</time>
      </trkpt>
      <trkpt lat="43.59278" lon="3.03364">
        <ele>539.481628</ele>
        <time>2012-03-05T14:24:48Z</time>
      </trkpt>
      <trkpt lat="43.59276" lon="3.03365">
        <ele>539.25708</ele>
        <time>2012-03-05T14:24:49Z</time>
      </trkpt>
      <trkpt lat="43.59268" lon="3.03374">
        <ele>537.165161</ele>
        <time>2012-03-05T14:24:54Z</time>
      </trkpt>
      <trkpt lat="43.59254" lon="3.03379">
        <ele>535.698547</ele>
        <time>2012-03-05T14:25:01Z</time>
      </trkpt>
      <trkpt lat="43.5924" lon="3.03383">
        <ele>533.414001</ele>
        <time>2012-03-05T14:25:08Z</time>
      </trkpt>
      <trkpt lat="43.59236" lon="3.03384">
        <ele>532.90741</ele>
        <time>2012-03-05T14:25:10Z</time>
      </trkpt>
      <trkpt lat="43.59231" lon="3.03373">
        <ele>533.615479</ele>
        <time>2012-03-05T14:25:16Z</time>
      </trkpt>
      <trkpt lat="43.5923" lon="3.03372">
        <ele>533.751221</ele>
        <time>2012-03-05T14:25:17Z</time>
      </trkpt>
      <trkpt lat="43.59231" lon="3.03366">
        <ele>534.528625</ele>
        <time>2012-03-05T14:25:20Z</time>
      </trkpt>
      <trkpt lat="43.59234" lon="3.03356">
        <ele>536.268799</ele>
        <time>2012-03-05T14:25:26Z</time>
      </trkpt>
      <trkpt lat="43.59235" lon="3.03355">
        <ele>536.678406</ele>
        <time>2012-03-05T14:25:27Z</time>
      </trkpt>
      <trkpt lat="43.59239" lon="3.03353">
        <ele>537.637634</ele>
        <time>2012-03-05T14:25:30Z</time>
      </trkpt>
      <trkpt lat="43.59242" lon="3.03344">
        <ele>539.315186</ele>
        <time>2012-03-05T14:25:35Z</time>
      </trkpt>
      <trkpt lat="43.59241" lon="3.03343">
        <ele>539.33551</ele>
        <time>2012-03-05T14:25:36Z</time>
      </trkpt>
      <trkpt lat="43.59231" lon="3.03341">
        <ele>537.700928</ele>
        <time>2012-03-05T14:25:41Z</time>
      </trkpt>
      <trkpt lat="43.59224" lon="3.03344">
        <ele>536.165222</ele>
        <time>2012-03-05T14:25:45Z</time>
      </trkpt>
      <trkpt lat="43.59218" lon="3.03341">
        <ele>535.367798</ele>
        <time>2012-03-05T14:25:50Z</time>
      </trkpt>
      <trkpt lat="43.59213" lon="3.03353">
        <ele>533.318909</ele>
        <time>2012-03-05T14:25:55Z</time>
      </trkpt>
      <trkpt lat="43.5921" lon="3.03367">
        <ele>531.563232</ele>
        <time>2012-03-05T14:26:00Z</time>
      </trkpt>
      <trkpt lat="43.5921" lon="3.0337">
        <ele>531.293884</ele>
        <time>2012-03-05T14:26:01Z</time>
      </trkpt>
      <trkpt lat="43.59209" lon="3.0338">
        <ele>530.116272</ele>
        <time>2012-03-05T14:26:06Z</time>
      </trkpt>
      <trkpt lat="43.59211" lon="3.03394">
        <ele>528.940552</ele>
        <time>2012-03-05T14:26:12Z</time>
      </trkpt>
      <trkpt lat="43.59213" lon="3.03401">
        <ele>528.438049</ele>
        <time>2012-03-05T14:26:17Z</time>
      </trkpt>
      <trkpt lat="43.59217" lon="3.03413">
        <ele>526.33313</ele>
        <time>2012-03-05T14:26:23Z</time>
      </trkpt>
      <trkpt lat="43.59218" lon="3.03422">
        <ele>524.67804</ele>
        <time>2012-03-05T14:26:28Z</time>
      </trkpt>
      <trkpt lat="43.59218" lon="3.03425">
        <ele>524.007507</ele>
        <time>2012-03-05T14:26:30Z</time>
      </trkpt>
      <trkpt lat="43.59214" lon="3.03431">
        <ele>522.650269</ele>
        <time>2012-03-05T14:26:35Z</time>
      </trkpt>
      <trkpt lat="43.59215" lon="3.03432">
        <ele>522.424683</ele>
        <time>2012-03-05T14:26:36Z</time>
      </trkpt>
      <trkpt lat="43.5922" lon="3.03439">
        <ele>521.233887</ele>
        <time>2012-03-05T14:26:40Z</time>
      </trkpt>
      <trkpt lat="43.59232" lon="3.03456">
        <ele>518.198181</ele>
        <time>2012-03-05T14:26:45Z</time>
      </trkpt>
      <trkpt lat="43.59241" lon="3.03465">
        <ele>516.156494</ele>
        <time>2012-03-05T14:26:48Z</time>
      </trkpt>
      <trkpt lat="43.59249" lon="3.03472">
        <ele>514.445251</ele>
        <time>2012-03-05T14:26:51Z</time>
      </trkpt>
      <trkpt lat="43.59259" lon="3.03474">
        <ele>513.889526</ele>
        <time>2012-03-05T14:26:55Z</time>
      </trkpt>
      <trkpt lat="43.59261" lon="3.03475">
        <ele>513.370605</ele>
        <time>2012-03-05T14:26:56Z</time>
      </trkpt>
      <trkpt lat="43.5926" lon="3.03483">
        <ele>511.106873</ele>
        <time>2012-03-05T14:27:01Z</time>
      </trkpt>
      <trkpt lat="43.59248" lon="3.03493">
        <ele>508.355652</ele>
        <time>2012-03-05T14:27:06Z</time>
      </trkpt>
      <trkpt lat="43.59231" lon="3.03506">
        <ele>503.756134</ele>
        <time>2012-03-05T14:27:11Z</time>
      </trkpt>
      <trkpt lat="43.59223" lon="3.03514">
        <ele>501.076355</ele>
        <time>2012-03-05T14:27:14Z</time>
      </trkpt>
      <trkpt lat="43.59205" lon="3.03522">
        <ele>497.523987</ele>
        <time>2012-03-05T14:27:17Z</time>
      </trkpt>
      <trkpt lat="43.59191" lon="3.03522">
        <ele>495.115204</ele>
        <time>2012-03-05T14:27:19Z</time>
      </trkpt>
      <trkpt lat="43.59185" lon="3.03521">
        <ele>494.558411</ele>
        <time>2012-03-05T14:27:20Z</time>
      </trkpt>
      <trkpt lat="43.59172" lon="3.03516">
        <ele>493.81427</ele>
        <time>2012-03-05T14:27:24Z</time>
      </trkpt>
      <trkpt lat="43.5917" lon="3.03516">
        <ele>493.533447</ele>
        <time>2012-03-05T14:27:25Z</time>
      </trkpt>
      <trkpt lat="43.59168" lon="3.03524">
        <ele>490.918121</ele>
        <time>2012-03-05T14:27:30Z</time>
      </trkpt>
      <trkpt lat="43.59175" lon="3.03533">
        <ele>489.752808</ele>
        <time>2012-03-05T14:27:33Z</time>
      </trkpt>
      <trkpt lat="43.59193" lon="3.03548">
        <ele>488.175385</ele>
        <time>2012-03-05T14:27:39Z</time>
      </trkpt>
      <trkpt lat="43.59205" lon="3.03555">
        <ele>487.946136</ele>
        <time>2012-03-05T14:27:43Z</time>
      </trkpt>
      <trkpt lat="43.59217" lon="3.03563">
        <ele>486.159454</ele>
        <time>2012-03-05T14:27:46Z</time>
      </trkpt>
      <trkpt lat="43.59233" lon="3.0357">
        <ele>484.537476</ele>
        <time>2012-03-05T14:27:49Z</time>
      </trkpt>
      <trkpt lat="43.59243" lon="3.03575">
        <ele>483.471985</ele>
        <time>2012-03-05T14:27:51Z</time>
      </trkpt>
      <trkpt lat="43.59262" lon="3.03581">
        <ele>481.153748</ele>
        <time>2012-03-05T14:27:55Z</time>
      </trkpt>
      <trkpt lat="43.59274" lon="3.03581">
        <ele>480.660004</ele>
        <time>2012-03-05T14:27:58Z</time>
      </trkpt>
      <trkpt lat="43.59291" lon="3.03581">
        <ele>479.297485</ele>
        <time>2012-03-05T14:28:03Z</time>
      </trkpt>
      <trkpt lat="43.59308" lon="3.03576">
        <ele>479.431549</ele>
        <time>2012-03-05T14:28:09Z</time>
      </trkpt>
      <trkpt lat="43.59319" lon="3.03576">
        <ele>478.386932</ele>
        <time>2012-03-05T14:28:13Z</time>
      </trkpt>
      <trkpt lat="43.59322" lon="3.03576">
        <ele>477.891937</ele>
        <time>2012-03-05T14:28:14Z</time>
      </trkpt>
      <trkpt lat="43.59341" lon="3.03573">
        <ele>477.266083</ele>
        <time>2012-03-05T14:28:20Z</time>
      </trkpt>
      <trkpt lat="43.59358" lon="3.03572">
        <ele>475.853149</ele>
        <time>2012-03-05T14:28:28Z</time>
      </trkpt>
      <trkpt lat="43.59364" lon="3.03572">
        <ele>475.380859</ele>
        <time>2012-03-05T14:28:32Z</time>
      </trkpt>
      <trkpt lat="43.59374" lon="3.03574">
        <ele>473.658447</ele>
        <time>2012-03-05T14:28:38Z</time>
      </trkpt>
      <trkpt lat="43.59377" lon="3.03575">
        <ele>473.201599</ele>
        <time>2012-03-05T14:28:39Z</time>
      </trkpt>
      <trkpt lat="43.59393" lon="3.03574">
        <ele>472.036652</ele>
        <time>2012-03-05T14:28:44Z</time>
      </trkpt>
      <trkpt lat="43.59406" lon="3.0357">
        <ele>471.948761</ele>
        <time>2012-03-05T14:28:49Z</time>
      </trkpt>
      <trkpt lat="43.59421" lon="3.03566">
        <ele>471.596252</ele>
        <time>2012-03-05T14:28:54Z</time>
      </trkpt>
      <trkpt lat="43.59438" lon="3.03561">
        <ele>471.442139</ele>
        <time>2012-03-05T14:28:59Z</time>
      </trkpt>
      <trkpt lat="43.59446" lon="3.03557">
        <ele>471.787262</ele>
        <time>2012-03-05T14:29:02Z</time>
      </trkpt>
      <trkpt lat="43.5946" lon="3.03557">
        <ele>470.841888</ele>
        <time>2012-03-05T14:29:07Z</time>
      </trkpt>
      <trkpt lat="43.59469" lon="3.03557">
        <ele>470.219055</ele>
        <time>2012-03-05T14:29:11Z</time>
      </trkpt>
      <trkpt lat="43.59482" lon="3.03559">
        <ele>468.577362</ele>
        <time>2012-03-05T14:29:15Z</time>
      </trkpt>
      <trkpt lat="43.5949" lon="3.03563">
        <ele>466.849762</ele>
        <time>2012-03-05T14:29:17Z</time>
      </trkpt>
      <trkpt lat="43.59509" lon="3.03576">
        <ele>462.010712</ele>
        <time>2012-03-05T14:29:22Z</time>
      </trkpt>
      <trkpt lat="43.5952" lon="3.03574">
        <ele>461.715454</ele>
        <time>2012-03-05T14:29:26Z</time>
      </trkpt>
      <trkpt lat="43.59525" lon="3.03574">
        <ele>461.5448</ele>
        <time>2012-03-05T14:29:28Z</time>
      </trkpt>
      <trkpt lat="43.59536" lon="3.03574">
        <ele>461.108063</ele>
        <time>2012-03-05T14:29:33Z</time>
      </trkpt>
      <trkpt lat="43.59547" lon="3.03571">
        <ele>461.620697</ele>
        <time>2012-03-05T14:29:37Z</time>
      </trkpt>
      <trkpt lat="43.5957" lon="3.03563">
        <ele>464.038544</ele>
        <time>2012-03-05T14:29:44Z</time>
      </trkpt>
      <trkpt lat="43.59576" lon="3.03559">
        <ele>465.527191</ele>
        <time>2012-03-05T14:29:46Z</time>
      </trkpt>
      <trkpt lat="43.59591" lon="3.03563">
        <ele>465.434479</ele>
        <time>2012-03-05T14:29:52Z</time>
      </trkpt>
      <trkpt lat="43.59606" lon="3.03567">
        <ele>465.442291</ele>
        <time>2012-03-05T14:29:57Z</time>
      </trkpt>
      <trkpt lat="43.59621" lon="3.03575">
        <ele>464.926666</ele>
        <time>2012-03-05T14:30:02Z</time>
      </trkpt>
      <trkpt lat="43.59628" lon="3.0358">
        <ele>464.665161</ele>
        <time>2012-03-05T14:30:05Z</time>
      </trkpt>
      <trkpt lat="43.59628" lon="3.03588">
        <ele>462.064178</ele>
        <time>2012-03-05T14:30:10Z</time>
      </trkpt>
      <trkpt lat="43.59627" lon="3.03594">
        <ele>460.204987</ele>
        <time>2012-03-05T14:30:12Z</time>
      </trkpt>
      <trkpt lat="43.59631" lon="3.03602">
        <ele>458.842499</ele>
        <time>2012-03-05T14:30:15Z</time>
      </trkpt>
      <trkpt lat="43.59652" lon="3.03609">
        <ele>460.57251</ele>
        <time>2012-03-05T14:30:22Z</time>
      </trkpt>
      <trkpt lat="43.59661" lon="3.0361">
        <ele>462.12851</ele>
        <time>2012-03-05T14:30:28Z</time>
      </trkpt>
      <trkpt lat="43.59675" lon="3.03624">
        <ele>462.138885</ele>
        <time>2012-03-05T14:30:37Z</time>
      </trkpt>
      <trkpt lat="43.59691" lon="3.03634">
        <ele>463.726501</ele>
        <time>2012-03-05T14:30:46Z</time>
      </trkpt>
      <trkpt lat="43.59706" lon="3.03641">
        <ele>466.076355</ele>
        <time>2012-03-05T14:30:55Z</time>
      </trkpt>
      <trkpt lat="43.59718" lon="3.03645">
        <ele>468.849731</ele>
        <time>2012-03-05T14:31:02Z</time>
      </trkpt>
      <trkpt lat="43.59725" lon="3.03648">
        <ele>469.903961</ele>
        <time>2012-03-05T14:31:06Z</time>
      </trkpt>
      <trkpt lat="43.59736" lon="3.03658">
        <ele>471.477264</ele>
        <time>2012-03-05T14:31:15Z</time>
      </trkpt>
      <trkpt lat="43.59748" lon="3.03666">
        <ele>473.492859</ele>
        <time>2012-03-05T14:31:23Z</time>
      </trkpt>
      <trkpt lat="43.59758" lon="3.03674">
        <ele>474.725922</ele>
        <time>2012-03-05T14:31:30Z</time>
      </trkpt>
      <trkpt lat="43.5976" lon="3.03677">
        <ele>474.836212</ele>
        <time>2012-03-05T14:31:32Z</time>
      </trkpt>
      <trkpt lat="43.5977" lon="3.03693">
        <ele>475.025848</ele>
        <time>2012-03-05T14:31:41Z</time>
      </trkpt>
      <trkpt lat="43.59781" lon="3.03706">
        <ele>476.064789</ele>
        <time>2012-03-05T14:31:49Z</time>
      </trkpt>
      <trkpt lat="43.59791" lon="3.03717">
        <ele>477.322754</ele>
        <time>2012-03-05T14:31:56Z</time>
      </trkpt>
      <trkpt lat="43.59801" lon="3.03723">
        <ele>477.929962</ele>
        <time>2012-03-05T14:32:02Z</time>
      </trkpt>
      <trkpt lat="43.59819" lon="3.03734">
        <ele>478.848755</ele>
        <time>2012-03-05T14:32:11Z</time>
      </trkpt>
      <trkpt lat="43.59832" lon="3.03741">
        <ele>479.927521</ele>
        <time>2012-03-05T14:32:18Z</time>
      </trkpt>
      <trkpt lat="43.59846" lon="3.03741">
        <ele>481.431763</ele>
        <time>2012-03-05T14:32:25Z</time>
      </trkpt>
      <trkpt lat="43.59859" lon="3.03737">
        <ele>483.707794</ele>
        <time>2012-03-05T14:32:32Z</time>
      </trkpt>
      <trkpt lat="43.5986" lon="3.03737">
        <ele>483.993286</ele>
        <time>2012-03-05T14:32:33Z</time>
      </trkpt>
      <trkpt lat="43.5987" lon="3.03734">
        <ele>485.652985</ele>
        <time>2012-03-05T14:32:39Z</time>
      </trkpt>
      <trkpt lat="43.59881" lon="3.03731">
        <ele>487.584747</ele>
        <time>2012-03-05T14:32:46Z</time>
      </trkpt>
      <trkpt lat="43.59891" lon="3.03727">
        <ele>488.787598</ele>
        <time>2012-03-05T14:32:53Z</time>
      </trkpt>
      <trkpt lat="43.59905" lon="3.03724">
        <ele>490.167938</ele>
        <time>2012-03-05T14:33:01Z</time>
      </trkpt>
      <trkpt lat="43.59918" lon="3.0372">
        <ele>491.708679</ele>
        <time>2012-03-05T14:33:09Z</time>
      </trkpt>
      <trkpt lat="43.59928" lon="3.03717">
        <ele>492.30426</ele>
        <time>2012-03-05T14:33:16Z</time>
      </trkpt>
      <trkpt lat="43.59938" lon="3.03714">
        <ele>492.224823</ele>
        <time>2012-03-05T14:33:22Z</time>
      </trkpt>
      <trkpt lat="43.5995" lon="3.03713">
        <ele>491.680481</ele>
        <time>2012-03-05T14:33:29Z</time>
      </trkpt>
      <trkpt lat="43.59956" lon="3.0371">
        <ele>491.839142</ele>
        <time>2012-03-05T14:33:33Z</time>
      </trkpt>
      <trkpt lat="43.59965" lon="3.037">
        <ele>493.11438</ele>
        <time>2012-03-05T14:33:40Z</time>
      </trkpt>
      <trkpt lat="43.59972" lon="3.03693">
        <ele>493.977936</ele>
        <time>2012-03-05T14:33:45Z</time>
      </trkpt>
      <trkpt lat="43.59978" lon="3.03684">
        <ele>494.919312</ele>
        <time>2012-03-05T14:33:51Z</time>
      </trkpt>
      <trkpt lat="43.59985" lon="3.03672">
        <ele>496.401031</ele>
        <time>2012-03-05T14:33:58Z</time>
      </trkpt>
      <trkpt lat="43.59988" lon="3.03667">
        <ele>497.033081</ele>
        <time>2012-03-05T14:34:01Z</time>
      </trkpt>
      <trkpt lat="43.59995" lon="3.03656">
        <ele>498.278748</ele>
        <time>2012-03-05T14:34:08Z</time>
      </trkpt>
      <trkpt lat="43.59996" lon="3.03654">
        <ele>498.375</ele>
        <time>2012-03-05T14:34:09Z</time>
      </trkpt>
      <trkpt lat="43.59997" lon="3.03653">
        <ele>498.436249</ele>
        <time>2012-03-05T14:34:10Z</time>
      </trkpt>
      <trkpt lat="43.60004" lon="3.03641">
        <ele>500.073761</ele>
        <time>2012-03-05T14:34:18Z</time>
      </trkpt>
      <trkpt lat="43.60012" lon="3.0363">
        <ele>501.4375</ele>
        <time>2012-03-05T14:34:26Z</time>
      </trkpt>
      <trkpt lat="43.60018" lon="3.03621">
        <ele>502.688263</ele>
        <time>2012-03-05T14:34:32Z</time>
      </trkpt>
      <trkpt lat="43.60022" lon="3.03609">
        <ele>504.960266</ele>
        <time>2012-03-05T14:34:39Z</time>
      </trkpt>
      <trkpt lat="43.60025" lon="3.03596">
        <ele>507.561249</ele>
        <time>2012-03-05T14:34:45Z</time>
      </trkpt>
      <trkpt lat="43.60027" lon="3.0358">
        <ele>511.393738</ele>
        <time>2012-03-05T14:34:53Z</time>
      </trkpt>
      <trkpt lat="43.60031" lon="3.03568">
        <ele>514.119995</ele>
        <time>2012-03-05T14:35:00Z</time>
      </trkpt>
      <trkpt lat="43.60035" lon="3.03558">
        <ele>516.092529</ele>
        <time>2012-03-05T14:35:06Z</time>
      </trkpt>
      <trkpt lat="43.60042" lon="3.03549">
        <ele>517.753784</ele>
        <time>2012-03-05T14:35:12Z</time>
      </trkpt>
      <trkpt lat="43.60051" lon="3.03544">
        <ele>518.664978</ele>
        <time>2012-03-05T14:35:18Z</time>
      </trkpt>
      <trkpt lat="43.60062" lon="3.03535">
        <ele>520.248718</ele>
        <time>2012-03-05T14:35:25Z</time>
      </trkpt>
      <trkpt lat="43.60069" lon="3.03532">
        <ele>522.115295</ele>
        <time>2012-03-05T14:35:30Z</time>
      </trkpt>
      <trkpt lat="43.60077" lon="3.03535">
        <ele>522.589905</ele>
        <time>2012-03-05T14:35:37Z</time>
      </trkpt>
      <trkpt lat="43.60087" lon="3.0354">
        <ele>522.811096</ele>
        <time>2012-03-05T14:35:43Z</time>
      </trkpt>
      <trkpt lat="43.60092" lon="3.03544">
        <ele>522.56134</ele>
        <time>2012-03-05T14:35:47Z</time>
      </trkpt>
      <trkpt lat="43.60099" lon="3.03548">
        <ele>522.294312</ele>
        <time>2012-03-05T14:35:53Z</time>
      </trkpt>
      <trkpt lat="43.60109" lon="3.03553">
        <ele>522.494995</ele>
        <time>2012-03-05T14:35:59Z</time>
      </trkpt>
      <trkpt lat="43.60121" lon="3.03553">
        <ele>524.280029</ele>
        <time>2012-03-05T14:36:06Z</time>
      </trkpt>
      <trkpt lat="43.60122" lon="3.03553">
        <ele>524.597473</ele>
        <time>2012-03-05T14:36:07Z</time>
      </trkpt>
      <trkpt lat="43.6013" lon="3.03552">
        <ele>526.047485</ele>
        <time>2012-03-05T14:36:12Z</time>
      </trkpt>
      <trkpt lat="43.60136" lon="3.03551">
        <ele>527.380005</ele>
        <time>2012-03-05T14:36:16Z</time>
      </trkpt>
      <trkpt lat="43.60151" lon="3.03546">
        <ele>531.174988</ele>
        <time>2012-03-05T14:36:25Z</time>
      </trkpt>
      <trkpt lat="43.60161" lon="3.0354">
        <ele>534.12085</ele>
        <time>2012-03-05T14:36:32Z</time>
      </trkpt>
      <trkpt lat="43.6017" lon="3.03537">
        <ele>536.382935</ele>
        <time>2012-03-05T14:36:40Z</time>
      </trkpt>
      <trkpt lat="43.6018" lon="3.03535">
        <ele>538.4505</ele>
        <time>2012-03-05T14:36:49Z</time>
      </trkpt>
      <trkpt lat="43.60187" lon="3.03532">
        <ele>540.022644</ele>
        <time>2012-03-05T14:36:55Z</time>
      </trkpt>
      <trkpt lat="43.60197" lon="3.03527">
        <ele>543.077515</ele>
        <time>2012-03-05T14:37:04Z</time>
      </trkpt>
      <trkpt lat="43.60201" lon="3.03525">
        <ele>543.825134</ele>
        <time>2012-03-05T14:37:07Z</time>
      </trkpt>
      <trkpt lat="43.60203" lon="3.03525">
        <ele>544.092163</ele>
        <time>2012-03-05T14:37:09Z</time>
      </trkpt>
      <trkpt lat="43.60216" lon="3.03527">
        <ele>544.658386</ele>
        <time>2012-03-05T14:37:18Z</time>
      </trkpt>
      <trkpt lat="43.60227" lon="3.03528">
        <ele>545.685425</ele>
        <time>2012-03-05T14:37:25Z</time>
      </trkpt>
      <trkpt lat="43.6023" lon="3.03526">
        <ele>546.385437</ele>
        <time>2012-03-05T14:37:28Z</time>
      </trkpt>
      <trkpt lat="43.60238" lon="3.03521">
        <ele>548.725769</ele>
        <time>2012-03-05T14:37:35Z</time>
      </trkpt>
      <trkpt lat="43.60244" lon="3.03518">
        <ele>550.152527</ele>
        <time>2012-03-05T14:37:40Z</time>
      </trkpt>
      <trkpt lat="43.60252" lon="3.03515">
        <ele>552.13623</ele>
        <time>2012-03-05T14:37:47Z</time>
      </trkpt>
      <trkpt lat="43.60259" lon="3.03518">
        <ele>551.912476</ele>
        <time>2012-03-05T14:37:51Z</time>
      </trkpt>
      <trkpt lat="43.60264" lon="3.03524">
        <ele>550.837524</ele>
        <time>2012-03-05T14:37:55Z</time>
      </trkpt>
      <trkpt lat="43.60277" lon="3.0353">
        <ele>550.336243</ele>
        <time>2012-03-05T14:38:03Z</time>
      </trkpt>
      <trkpt lat="43.60289" lon="3.03534">
        <ele>550.818848</ele>
        <time>2012-03-05T14:38:10Z</time>
      </trkpt>
      <trkpt lat="43.60307" lon="3.0354">
        <ele>552.436096</ele>
        <time>2012-03-05T14:38:18Z</time>
      </trkpt>
      <trkpt lat="43.60325" lon="3.03545">
        <ele>555.086243</ele>
        <time>2012-03-05T14:38:25Z</time>
      </trkpt>
      <trkpt lat="43.60335" lon="3.03554">
        <ele>556.918152</ele>
        <time>2012-03-05T14:38:31Z</time>
      </trkpt>
      <trkpt lat="43.60342" lon="3.03568">
        <ele>558.154968</ele>
        <time>2012-03-05T14:38:36Z</time>
      </trkpt>
      <trkpt lat="43.60343" lon="3.03571">
        <ele>558.211609</ele>
        <time>2012-03-05T14:38:37Z</time>
      </trkpt>
      <trkpt lat="43.60346" lon="3.03591">
        <ele>558.50293</ele>
        <time>2012-03-05T14:38:43Z</time>
      </trkpt>
      <trkpt lat="43.6035" lon="3.03612">
        <ele>559.83374</ele>
        <time>2012-03-05T14:38:49Z</time>
      </trkpt>
      <trkpt lat="43.60351" lon="3.0362">
        <ele>560.507507</ele>
        <time>2012-03-05T14:38:52Z</time>
      </trkpt>
      <trkpt lat="43.60351" lon="3.03636">
        <ele>560.875</ele>
        <time>2012-03-05T14:38:58Z</time>
      </trkpt>
      <trkpt lat="43.6035" lon="3.03656">
        <ele>560.55127</ele>
        <time>2012-03-05T14:39:04Z</time>
      </trkpt>
      <trkpt lat="43.60349" lon="3.03675">
        <ele>560.942993</ele>
        <time>2012-03-05T14:39:10Z</time>
      </trkpt>
      <trkpt lat="43.6035" lon="3.03693">
        <ele>562.007874</ele>
        <time>2012-03-05T14:39:17Z</time>
      </trkpt>
      <trkpt lat="43.6035" lon="3.03705">
        <ele>562.620911</ele>
        <time>2012-03-05T14:39:23Z</time>
      </trkpt>
      <trkpt lat="43.60352" lon="3.03711">
        <ele>563.327576</ele>
        <time>2012-03-05T14:39:26Z</time>
      </trkpt>
      <trkpt lat="43.60357" lon="3.03725">
        <ele>565.497314</ele>
        <time>2012-03-05T14:39:33Z</time>
      </trkpt>
      <trkpt lat="43.6036" lon="3.03729">
        <ele>565.871155</ele>
        <time>2012-03-05T14:39:36Z</time>
      </trkpt>
      <trkpt lat="43.60369" lon="3.0374">
        <ele>567.258728</ele>
        <time>2012-03-05T14:39:45Z</time>
      </trkpt>
      <trkpt lat="43.60377" lon="3.03751">
        <ele>568.224609</ele>
        <time>2012-03-05T14:39:52Z</time>
      </trkpt>
      <trkpt lat="43.60385" lon="3.03774">
        <ele>567.50415</ele>
        <time>2012-03-05T14:39:57Z</time>
      </trkpt>
      <trkpt lat="43.60389" lon="3.03789">
        <ele>566.407593</ele>
        <time>2012-03-05T14:39:59Z</time>
      </trkpt>
      <trkpt lat="43.604" lon="3.03811">
        <ele>563.826538</ele>
        <time>2012-03-05T14:40:02Z</time>
      </trkpt>
      <trkpt lat="43.6041" lon="3.03822">
        <ele>563.843628</ele>
        <time>2012-03-05T14:40:04Z</time>
      </trkpt>
      <trkpt lat="43.60426" lon="3.03839">
        <ele>564.971741</ele>
        <time>2012-03-05T14:40:07Z</time>
      </trkpt>
      <trkpt lat="43.60434" lon="3.03853">
        <ele>564.569336</ele>
        <time>2012-03-05T14:40:09Z</time>
      </trkpt>
      <trkpt lat="43.60434" lon="3.03868">
        <ele>560.651733</ele>
        <time>2012-03-05T14:40:11Z</time>
      </trkpt>
      <trkpt lat="43.60429" lon="3.03891">
        <ele>552.690063</ele>
        <time>2012-03-05T14:40:14Z</time>
      </trkpt>
      <trkpt lat="43.60431" lon="3.03907">
        <ele>549.679749</ele>
        <time>2012-03-05T14:40:16Z</time>
      </trkpt>
      <trkpt lat="43.60443" lon="3.03928">
        <ele>548.590637</ele>
        <time>2012-03-05T14:40:19Z</time>
      </trkpt>
      <trkpt lat="43.60454" lon="3.03941">
        <ele>548.700928</ele>
        <time>2012-03-05T14:40:21Z</time>
      </trkpt>
      <trkpt lat="43.60489" lon="3.03987">
        <ele>551.961304</ele>
        <time>2012-03-05T14:40:28Z</time>
      </trkpt>
      <trkpt lat="43.60513" lon="3.04015">
        <ele>556.440735</ele>
        <time>2012-03-05T14:40:33Z</time>
      </trkpt>
      <trkpt lat="43.60515" lon="3.04035">
        <ele>553.55426</ele>
        <time>2012-03-05T14:40:37Z</time>
      </trkpt>
      <trkpt lat="43.60507" lon="3.04038">
        <ele>553.00177</ele>
        <time>2012-03-05T14:40:40Z</time>
      </trkpt>
      <trkpt lat="43.60478" lon="3.0404">
        <ele>551.078247</ele>
        <time>2012-03-05T14:40:46Z</time>
      </trkpt>
      <trkpt lat="43.60466" lon="3.0404">
        <ele>550.015503</ele>
        <time>2012-03-05T14:40:48Z</time>
      </trkpt>
      <trkpt lat="43.60459" lon="3.04039">
        <ele>549.332703</ele>
        <time>2012-03-05T14:40:49Z</time>
      </trkpt>
      <trkpt lat="43.60415" lon="3.04044">
        <ele>547.003662</ele>
        <time>2012-03-05T14:40:56Z</time>
      </trkpt>
      <trkpt lat="43.60404" lon="3.04047">
        <ele>547.713989</ele>
        <time>2012-03-05T14:40:58Z</time>
      </trkpt>
      <trkpt lat="43.60392" lon="3.04053">
        <ele>549.223511</ele>
        <time>2012-03-05T14:41:01Z</time>
      </trkpt>
      <trkpt lat="43.60377" lon="3.04061">
        <ele>551.518555</ele>
        <time>2012-03-05T14:41:06Z</time>
      </trkpt>
      <trkpt lat="43.60363" lon="3.04064">
        <ele>551.61438</ele>
        <time>2012-03-05T14:41:10Z</time>
      </trkpt>
      <trkpt lat="43.60341" lon="3.0406">
        <ele>548.812561</ele>
        <time>2012-03-05T14:41:14Z</time>
      </trkpt>
      <trkpt lat="43.60334" lon="3.04058">
        <ele>547.845215</ele>
        <time>2012-03-05T14:41:15Z</time>
      </trkpt>
      <trkpt lat="43.60319" lon="3.04056">
        <ele>545.713989</ele>
        <time>2012-03-05T14:41:17Z</time>
      </trkpt>
      <trkpt lat="43.60293" lon="3.04058">
        <ele>544.029541</ele>
        <time>2012-03-05T14:41:20Z</time>
      </trkpt>
      <trkpt lat="43.60241" lon="3.04074">
        <ele>543.962524</ele>
        <time>2012-03-05T14:41:26Z</time>
      </trkpt>
      <trkpt lat="43.60202" lon="3.04091">
        <ele>544.345093</ele>
        <time>2012-03-05T14:41:32Z</time>
      </trkpt>
      <trkpt lat="43.60166" lon="3.04112">
        <ele>544.817383</ele>
        <time>2012-03-05T14:41:39Z</time>
      </trkpt>
      <trkpt lat="43.60137" lon="3.04135">
        <ele>545.023499</ele>
        <time>2012-03-05T14:41:45Z</time>
      </trkpt>
      <trkpt lat="43.60124" lon="3.04146">
        <ele>544.822998</ele>
        <time>2012-03-05T14:41:48Z</time>
      </trkpt>
      <trkpt lat="43.60115" lon="3.04153">
        <ele>544.767639</ele>
        <time>2012-03-05T14:41:50Z</time>
      </trkpt>
      <trkpt lat="43.60085" lon="3.04173">
        <ele>541.433777</ele>
        <time>2012-03-05T14:41:55Z</time>
      </trkpt>
      <trkpt lat="43.60078" lon="3.04178">
        <ele>540.775452</ele>
        <time>2012-03-05T14:41:56Z</time>
      </trkpt>
      <trkpt lat="43.60049" lon="3.0421">
        <ele>539.574829</ele>
        <time>2012-03-05T14:42:01Z</time>
      </trkpt>
      <trkpt lat="43.60019" lon="3.0425">
        <ele>534.044434</ele>
        <time>2012-03-05T14:42:06Z</time>
      </trkpt>
      <trkpt lat="43.60015" lon="3.04262">
        <ele>533.615173</ele>
        <time>2012-03-05T14:42:07Z</time>
      </trkpt>
      <trkpt lat="43.6" lon="3.0429">
        <ele>529.35376</ele>
        <time>2012-03-05T14:42:12Z</time>
      </trkpt>
      <trkpt lat="43.59992" lon="3.04287">
        <ele>527.701233</ele>
        <time>2012-03-05T14:42:14Z</time>
      </trkpt>
      <trkpt lat="43.59974" lon="3.04287">
        <ele>523.096252</ele>
        <time>2012-03-05T14:42:18Z</time>
      </trkpt>
      <trkpt lat="43.5997" lon="3.04306">
        <ele>519.361267</ele>
        <time>2012-03-05T14:42:22Z</time>
      </trkpt>
      <trkpt lat="43.59964" lon="3.04311">
        <ele>517.460449</ele>
        <time>2012-03-05T14:42:25Z</time>
      </trkpt>
      <trkpt lat="43.59956" lon="3.04306">
        <ele>516.579468</ele>
        <time>2012-03-05T14:42:27Z</time>
      </trkpt>
      <trkpt lat="43.59946" lon="3.04297">
        <ele>515.626404</ele>
        <time>2012-03-05T14:42:29Z</time>
      </trkpt>
      <trkpt lat="43.59929" lon="3.04287">
        <ele>513.288208</ele>
        <time>2012-03-05T14:42:33Z</time>
      </trkpt>
      <trkpt lat="43.59926" lon="3.04288">
        <ele>512.60498</ele>
        <time>2012-03-05T14:42:35Z</time>
      </trkpt>
      <trkpt lat="43.59928" lon="3.04295">
        <ele>512.050842</ele>
        <time>2012-03-05T14:42:38Z</time>
      </trkpt>
      <trkpt lat="43.59932" lon="3.04302">
        <ele>512.060852</ele>
        <time>2012-03-05T14:42:40Z</time>
      </trkpt>
      <trkpt lat="43.59947" lon="3.04331">
        <ele>511.362793</ele>
        <time>2012-03-05T14:42:47Z</time>
      </trkpt>
      <trkpt lat="43.59962" lon="3.04347">
        <ele>510.581421</ele>
        <time>2012-03-05T14:42:52Z</time>
      </trkpt>
      <trkpt lat="43.59975" lon="3.04356">
        <ele>510.205872</ele>
        <time>2012-03-05T14:42:55Z</time>
      </trkpt>
      <trkpt lat="43.59987" lon="3.04361">
        <ele>511.437988</ele>
        <time>2012-03-05T14:42:59Z</time>
      </trkpt>
      <trkpt lat="43.59992" lon="3.0436">
        <ele>512.559387</ele>
        <time>2012-03-05T14:43:04Z</time>
      </trkpt>
      <trkpt lat="43.59993" lon="3.04361">
        <ele>512.606506</ele>
        <time>2012-03-05T14:43:07Z</time>
      </trkpt>
      <trkpt lat="43.59993" lon="3.04361">
        <ele>512.647949</ele>
        <time>2012-03-05T14:43:10Z</time>
      </trkpt>
      <trkpt lat="43.59995" lon="3.04362">
        <ele>512.591187</ele>
        <time>2012-03-05T14:43:12Z</time>
      </trkpt>
      <trkpt lat="43.59995" lon="3.04362">
        <ele>512.593933</ele>
        <time>2012-03-05T14:43:14Z</time>
      </trkpt>
      <trkpt lat="43.59996" lon="3.04363">
        <ele>512.467285</ele>
        <time>2012-03-05T14:43:20Z</time>
      </trkpt>
      <trkpt lat="43.59996" lon="3.04363">
        <ele>512.480469</ele>
        <time>2012-03-05T14:43:21Z</time>
      </trkpt>
      <trkpt lat="43.59998" lon="3.04364">
        <ele>512.559387</ele>
        <time>2012-03-05T14:43:22Z</time>
      </trkpt>
      <trkpt lat="43.60009" lon="3.04368">
        <ele>513.271301</ele>
        <time>2012-03-05T14:43:27Z</time>
      </trkpt>
      <trkpt lat="43.60024" lon="3.04373">
        <ele>514.941895</ele>
        <time>2012-03-05T14:43:33Z</time>
      </trkpt>
      <trkpt lat="43.60027" lon="3.04374">
        <ele>515.157898</ele>
        <time>2012-03-05T14:43:34Z</time>
      </trkpt>
      <trkpt lat="43.6004" lon="3.0438">
        <ele>515.85553</ele>
        <time>2012-03-05T14:43:39Z</time>
      </trkpt>
      <trkpt lat="43.60052" lon="3.04387">
        <ele>516.237976</ele>
        <time>2012-03-05T14:43:46Z</time>
      </trkpt>
      <trkpt lat="43.60053" lon="3.04387">
        <ele>516.249634</ele>
        <time>2012-03-05T14:43:48Z</time>
      </trkpt>
      <trkpt lat="43.60053" lon="3.04388">
        <ele>516.182617</ele>
        <time>2012-03-05T14:43:51Z</time>
      </trkpt>
      <trkpt lat="43.60054" lon="3.04389">
        <ele>516.086975</ele>
        <time>2012-03-05T14:43:52Z</time>
      </trkpt>
      <trkpt lat="43.60055" lon="3.04389">
        <ele>516.070984</ele>
        <time>2012-03-05T14:43:55Z</time>
      </trkpt>
      <trkpt lat="43.60055" lon="3.04389">
        <ele>516.204346</ele>
        <time>2012-03-05T14:44:00Z</time>
      </trkpt>
      <trkpt lat="43.60056" lon="3.0439">
        <ele>516.10498</ele>
        <time>2012-03-05T14:44:01Z</time>
      </trkpt>
      <trkpt lat="43.60057" lon="3.0439">
        <ele>516.237488</ele>
        <time>2012-03-05T14:44:05Z</time>
      </trkpt>
      <trkpt lat="43.60058" lon="3.04391">
        <ele>516.35376</ele>
        <time>2012-03-05T14:44:06Z</time>
      </trkpt>
      <trkpt lat="43.60062" lon="3.04393">
        <ele>516.284973</ele>
        <time>2012-03-05T14:44:24Z</time>
      </trkpt>
      <trkpt lat="43.60063" lon="3.04394">
        <ele>516.280029</ele>
        <time>2012-03-05T14:44:25Z</time>
      </trkpt>
      <trkpt lat="43.60074" lon="3.04402">
        <ele>515.466736</ele>
        <time>2012-03-05T14:44:29Z</time>
      </trkpt>
      <trkpt lat="43.60095" lon="3.04411">
        <ele>517.017334</ele>
        <time>2012-03-05T14:44:36Z</time>
      </trkpt>
      <trkpt lat="43.60105" lon="3.04413">
        <ele>518.118774</ele>
        <time>2012-03-05T14:44:40Z</time>
      </trkpt>
      <trkpt lat="43.6012" lon="3.04415">
        <ele>519.694153</ele>
        <time>2012-03-05T14:44:46Z</time>
      </trkpt>
      <trkpt lat="43.60138" lon="3.04415">
        <ele>522.687439</ele>
        <time>2012-03-05T14:44:52Z</time>
      </trkpt>
      <trkpt lat="43.6015" lon="3.04413">
        <ele>525.056885</ele>
        <time>2012-03-05T14:44:57Z</time>
      </trkpt>
      <trkpt lat="43.60162" lon="3.04413">
        <ele>527.092957</ele>
        <time>2012-03-05T14:45:03Z</time>
      </trkpt>
      <trkpt lat="43.60175" lon="3.04417">
        <ele>527.852112</ele>
        <time>2012-03-05T14:45:09Z</time>
      </trkpt>
      <trkpt lat="43.60182" lon="3.04419">
        <ele>528.09259</ele>
        <time>2012-03-05T14:45:13Z</time>
      </trkpt>
      <trkpt lat="43.60195" lon="3.04424">
        <ele>528.577026</ele>
        <time>2012-03-05T14:45:19Z</time>
      </trkpt>
      <trkpt lat="43.60206" lon="3.04435">
        <ele>527.622437</ele>
        <time>2012-03-05T14:45:23Z</time>
      </trkpt>
      <trkpt lat="43.60219" lon="3.04441">
        <ele>528.208862</ele>
        <time>2012-03-05T14:45:28Z</time>
      </trkpt>
      <trkpt lat="43.60224" lon="3.04442">
        <ele>529.215637</ele>
        <time>2012-03-05T14:45:31Z</time>
      </trkpt>
      <trkpt lat="43.60232" lon="3.04452">
        <ele>527.436401</ele>
        <time>2012-03-05T14:45:36Z</time>
      </trkpt>
      <trkpt lat="43.60243" lon="3.04477">
        <ele>522.713562</ele>
        <time>2012-03-05T14:45:42Z</time>
      </trkpt>
      <trkpt lat="43.60245" lon="3.0449">
        <ele>520.776733</ele>
        <time>2012-03-05T14:45:45Z</time>
      </trkpt>
      <trkpt lat="43.60248" lon="3.04512">
        <ele>517.468872</ele>
        <time>2012-03-05T14:45:49Z</time>
      </trkpt>
      <trkpt lat="43.60263" lon="3.04549">
        <ele>515.033752</ele>
        <time>2012-03-05T14:45:56Z</time>
      </trkpt>
      <trkpt lat="43.60278" lon="3.04572">
        <ele>515.30249</ele>
        <time>2012-03-05T14:46:02Z</time>
      </trkpt>
      <trkpt lat="43.60284" lon="3.0459">
        <ele>512.854431</ele>
        <time>2012-03-05T14:46:07Z</time>
      </trkpt>
      <trkpt lat="43.60285" lon="3.04595">
        <ele>511.799347</ele>
        <time>2012-03-05T14:46:08Z</time>
      </trkpt>
      <trkpt lat="43.60292" lon="3.04617">
        <ele>508.486725</ele>
        <time>2012-03-05T14:46:12Z</time>
      </trkpt>
      <trkpt lat="43.60298" lon="3.04626">
        <ele>507.427155</ele>
        <time>2012-03-05T14:46:16Z</time>
      </trkpt>
      <trkpt lat="43.60299" lon="3.04629">
        <ele>506.975189</ele>
        <time>2012-03-05T14:46:18Z</time>
      </trkpt>
      <trkpt lat="43.60293" lon="3.04629">
        <ele>506.04834</ele>
        <time>2012-03-05T14:46:23Z</time>
      </trkpt>
      <trkpt lat="43.60283" lon="3.04624">
        <ele>505.382843</ele>
        <time>2012-03-05T14:46:28Z</time>
      </trkpt>
      <trkpt lat="43.60272" lon="3.04628">
        <ele>501.651184</ele>
        <time>2012-03-05T14:46:32Z</time>
      </trkpt>
      <trkpt lat="43.60265" lon="3.04637">
        <ele>497.773651</ele>
        <time>2012-03-05T14:46:35Z</time>
      </trkpt>
      <trkpt lat="43.60263" lon="3.0464">
        <ele>496.710114</ele>
        <time>2012-03-05T14:46:36Z</time>
      </trkpt>
      <trkpt lat="43.6026" lon="3.04646">
        <ele>494.591309</ele>
        <time>2012-03-05T14:46:39Z</time>
      </trkpt>
      <trkpt lat="43.60262" lon="3.04652">
        <ele>493.769989</ele>
        <time>2012-03-05T14:46:42Z</time>
      </trkpt>
      <trkpt lat="43.60258" lon="3.04659">
        <ele>491.702484</ele>
        <time>2012-03-05T14:46:45Z</time>
      </trkpt>
      <trkpt lat="43.60252" lon="3.04664">
        <ele>489.262512</ele>
        <time>2012-03-05T14:46:49Z</time>
      </trkpt>
      <trkpt lat="43.60254" lon="3.04667">
        <ele>489.112488</ele>
        <time>2012-03-05T14:46:50Z</time>
      </trkpt>
      <trkpt lat="43.60264" lon="3.0469">
        <ele>488.557495</ele>
        <time>2012-03-05T14:46:55Z</time>
      </trkpt>
      <trkpt lat="43.60273" lon="3.04701">
        <ele>489.454987</ele>
        <time>2012-03-05T14:46:57Z</time>
      </trkpt>
      <trkpt lat="43.60284" lon="3.04708">
        <ele>490.47052</ele>
        <time>2012-03-05T14:46:59Z</time>
      </trkpt>
      <trkpt lat="43.60295" lon="3.04712">
        <ele>491.105072</ele>
        <time>2012-03-05T14:47:01Z</time>
      </trkpt>
      <trkpt lat="43.60304" lon="3.04713">
        <ele>491.85141</ele>
        <time>2012-03-05T14:47:03Z</time>
      </trkpt>
      <trkpt lat="43.60305" lon="3.04721">
        <ele>490.062866</ele>
        <time>2012-03-05T14:47:08Z</time>
      </trkpt>
      <trkpt lat="43.60291" lon="3.0473">
        <ele>486.253479</ele>
        <time>2012-03-05T14:47:12Z</time>
      </trkpt>
      <trkpt lat="43.60288" lon="3.04733">
        <ele>484.998779</ele>
        <time>2012-03-05T14:47:13Z</time>
      </trkpt>
      <trkpt lat="43.60284" lon="3.04739">
        <ele>482.891876</ele>
        <time>2012-03-05T14:47:16Z</time>
      </trkpt>
      <trkpt lat="43.60288" lon="3.04745">
        <ele>481.978607</ele>
        <time>2012-03-05T14:47:20Z</time>
      </trkpt>
      <trkpt lat="43.60291" lon="3.04751">
        <ele>480.942993</ele>
        <time>2012-03-05T14:47:22Z</time>
      </trkpt>
      <trkpt lat="43.60295" lon="3.04755">
        <ele>480.628876</ele>
        <time>2012-03-05T14:47:24Z</time>
      </trkpt>
      <trkpt lat="43.60312" lon="3.0477">
        <ele>479.659393</ele>
        <time>2012-03-05T14:47:30Z</time>
      </trkpt>
      <trkpt lat="43.60315" lon="3.04772">
        <ele>479.440735</ele>
        <time>2012-03-05T14:47:31Z</time>
      </trkpt>
      <trkpt lat="43.6032" lon="3.04777">
        <ele>478.884827</ele>
        <time>2012-03-05T14:47:34Z</time>
      </trkpt>
      <trkpt lat="43.60326" lon="3.04789">
        <ele>476.47699</ele>
        <time>2012-03-05T14:47:38Z</time>
      </trkpt>
      <trkpt lat="43.60342" lon="3.04799">
        <ele>475.127441</ele>
        <time>2012-03-05T14:47:45Z</time>
      </trkpt>
      <trkpt lat="43.60356" lon="3.04807">
        <ele>473.975098</ele>
        <time>2012-03-05T14:47:50Z</time>
      </trkpt>
      <trkpt lat="43.60361" lon="3.04809">
        <ele>473.84024</ele>
        <time>2012-03-05T14:47:52Z</time>
      </trkpt>
      <trkpt lat="43.60368" lon="3.04819">
        <ele>471.641785</ele>
        <time>2012-03-05T14:47:56Z</time>
      </trkpt>
      <trkpt lat="43.6037" lon="3.04821">
        <ele>470.85025</ele>
        <time>2012-03-05T14:47:57Z</time>
      </trkpt>
      <trkpt lat="43.60372" lon="3.04828">
        <ele>469.062897</ele>
        <time>2012-03-05T14:47:59Z</time>
      </trkpt>
      <trkpt lat="43.60381" lon="3.04837">
        <ele>466.492004</ele>
        <time>2012-03-05T14:48:04Z</time>
      </trkpt>
      <trkpt lat="43.6039" lon="3.04841">
        <ele>465.426971</ele>
        <time>2012-03-05T14:48:07Z</time>
      </trkpt>
      <trkpt lat="43.60403" lon="3.04847">
        <ele>463.5737</ele>
        <time>2012-03-05T14:48:12Z</time>
      </trkpt>
      <trkpt lat="43.60405" lon="3.04849">
        <ele>462.782806</ele>
        <time>2012-03-05T14:48:13Z</time>
      </trkpt>
      <trkpt lat="43.60409" lon="3.04855">
        <ele>460.654877</ele>
        <time>2012-03-05T14:48:15Z</time>
      </trkpt>
      <trkpt lat="43.60416" lon="3.04867">
        <ele>456.881897</ele>
        <time>2012-03-05T14:48:20Z</time>
      </trkpt>
      <trkpt lat="43.60431" lon="3.04877">
        <ele>455.705566</ele>
        <time>2012-03-05T14:48:26Z</time>
      </trkpt>
      <trkpt lat="43.60436" lon="3.04886">
        <ele>453.523682</ele>
        <time>2012-03-05T14:48:29Z</time>
      </trkpt>
      <trkpt lat="43.60446" lon="3.04903">
        <ele>450.007782</ele>
        <time>2012-03-05T14:48:34Z</time>
      </trkpt>
      <trkpt lat="43.60455" lon="3.04918">
        <ele>447.454559</ele>
        <time>2012-03-05T14:48:38Z</time>
      </trkpt>
      <trkpt lat="43.60459" lon="3.0494">
        <ele>441.515472</ele>
        <time>2012-03-05T14:48:43Z</time>
      </trkpt>
      <trkpt lat="43.60463" lon="3.04946">
        <ele>440.284332</ele>
        <time>2012-03-05T14:48:45Z</time>
      </trkpt>
      <trkpt lat="43.6047" lon="3.04953">
        <ele>439.790314</ele>
        <time>2012-03-05T14:48:48Z</time>
      </trkpt>
      <trkpt lat="43.60477" lon="3.04958">
        <ele>439.749664</ele>
        <time>2012-03-05T14:48:52Z</time>
      </trkpt>
      <trkpt lat="43.60485" lon="3.04968">
        <ele>440.430023</ele>
        <time>2012-03-05T14:48:58Z</time>
      </trkpt>
      <trkpt lat="43.60488" lon="3.04972">
        <ele>441.442261</ele>
        <time>2012-03-05T14:49:00Z</time>
      </trkpt>
      <trkpt lat="43.60496" lon="3.0498">
        <ele>443.909302</ele>
        <time>2012-03-05T14:49:06Z</time>
      </trkpt>
      <trkpt lat="43.60499" lon="3.04983">
        <ele>444.860352</ele>
        <time>2012-03-05T14:49:08Z</time>
      </trkpt>
      <trkpt lat="43.60501" lon="3.0499">
        <ele>445.964813</ele>
        <time>2012-03-05T14:49:11Z</time>
      </trkpt>
      <trkpt lat="43.60496" lon="3.04999">
        <ele>446.124847</ele>
        <time>2012-03-05T14:49:14Z</time>
      </trkpt>
      <trkpt lat="43.60493" lon="3.04999">
        <ele>445.791656</ele>
        <time>2012-03-05T14:49:15Z</time>
      </trkpt>
      <trkpt lat="43.60476" lon="3.05001">
        <ele>443.330231</ele>
        <time>2012-03-05T14:49:22Z</time>
      </trkpt>
      <trkpt lat="43.60464" lon="3.05003">
        <ele>441.780823</ele>
        <time>2012-03-05T14:49:28Z</time>
      </trkpt>
      <trkpt lat="43.60453" lon="3.05009">
        <ele>440.927216</ele>
        <time>2012-03-05T14:49:34Z</time>
      </trkpt>
      <trkpt lat="43.60437" lon="3.05022">
        <ele>440.145355</ele>
        <time>2012-03-05T14:49:43Z</time>
      </trkpt>
      <trkpt lat="43.60421" lon="3.05031">
        <ele>440.570068</ele>
        <time>2012-03-05T14:49:51Z</time>
      </trkpt>
      <trkpt lat="43.60409" lon="3.05041">
        <ele>441.912415</ele>
        <time>2012-03-05T14:49:58Z</time>
      </trkpt>
      <trkpt lat="43.60398" lon="3.05052">
        <ele>443.756836</ele>
        <time>2012-03-05T14:50:05Z</time>
      </trkpt>
      <trkpt lat="43.60387" lon="3.05065">
        <ele>446.367157</ele>
        <time>2012-03-05T14:50:10Z</time>
      </trkpt>
      <trkpt lat="43.60383" lon="3.05072">
        <ele>448.077332</ele>
        <time>2012-03-05T14:50:12Z</time>
      </trkpt>
      <trkpt lat="43.60374" lon="3.05074">
        <ele>446.694702</ele>
        <time>2012-03-05T14:50:18Z</time>
      </trkpt>
      <trkpt lat="43.60363" lon="3.05068">
        <ele>443.352783</ele>
        <time>2012-03-05T14:50:22Z</time>
      </trkpt>
      <trkpt lat="43.60346" lon="3.05063">
        <ele>440.669434</ele>
        <time>2012-03-05T14:50:27Z</time>
      </trkpt>
      <trkpt lat="43.60333" lon="3.05066">
        <ele>440.807068</ele>
        <time>2012-03-05T14:50:31Z</time>
      </trkpt>
      <trkpt lat="43.60311" lon="3.05072">
        <ele>440.670013</ele>
        <time>2012-03-05T14:50:38Z</time>
      </trkpt>
      <trkpt lat="43.60291" lon="3.05076">
        <ele>439.366241</ele>
        <time>2012-03-05T14:50:45Z</time>
      </trkpt>
      <trkpt lat="43.60276" lon="3.05078">
        <ele>437.786255</ele>
        <time>2012-03-05T14:50:50Z</time>
      </trkpt>
      <trkpt lat="43.60257" lon="3.05083">
        <ele>438.681488</ele>
        <time>2012-03-05T14:50:56Z</time>
      </trkpt>
      <trkpt lat="43.60243" lon="3.05085">
        <ele>439.289124</ele>
        <time>2012-03-05T14:51:01Z</time>
      </trkpt>
      <trkpt lat="43.60225" lon="3.05086">
        <ele>439.437195</ele>
        <time>2012-03-05T14:51:06Z</time>
      </trkpt>
      <trkpt lat="43.60204" lon="3.0509">
        <ele>441.483673</ele>
        <time>2012-03-05T14:51:12Z</time>
      </trkpt>
      <trkpt lat="43.6019" lon="3.05091">
        <ele>442.327393</ele>
        <time>2012-03-05T14:51:16Z</time>
      </trkpt>
      <trkpt lat="43.60177" lon="3.05092">
        <ele>443.044006</ele>
        <time>2012-03-05T14:51:20Z</time>
      </trkpt>
      <trkpt lat="43.60167" lon="3.05092">
        <ele>443.025513</ele>
        <time>2012-03-05T14:51:25Z</time>
      </trkpt>
      <trkpt lat="43.60157" lon="3.05091">
        <ele>442.835083</ele>
        <time>2012-03-05T14:51:31Z</time>
      </trkpt>
      <trkpt lat="43.60156" lon="3.0509">
        <ele>442.524353</ele>
        <time>2012-03-05T14:51:33Z</time>
      </trkpt>
      <trkpt lat="43.60156" lon="3.0509">
        <ele>442.446411</ele>
        <time>2012-03-05T14:51:36Z</time>
      </trkpt>
      <trkpt lat="43.60154" lon="3.0509">
        <ele>442.5271</ele>
        <time>2012-03-05T14:51:37Z</time>
      </trkpt>
      <trkpt lat="43.60154" lon="3.0509">
        <ele>442.544769</ele>
        <time>2012-03-05T14:51:40Z</time>
      </trkpt>
      <trkpt lat="43.60151" lon="3.0509">
        <ele>442.718872</ele>
        <time>2012-03-05T14:51:42Z</time>
      </trkpt>
      <trkpt lat="43.60151" lon="3.0509">
        <ele>442.816254</ele>
        <time>2012-03-05T14:51:45Z</time>
      </trkpt>
      <trkpt lat="43.6015" lon="3.0509">
        <ele>442.859619</ele>
        <time>2012-03-05T14:51:46Z</time>
      </trkpt>
      <trkpt lat="43.60144" lon="3.0509">
        <ele>442.979767</ele>
        <time>2012-03-05T14:51:49Z</time>
      </trkpt>
      <trkpt lat="43.60135" lon="3.05091">
        <ele>443.552032</ele>
        <time>2012-03-05T14:51:55Z</time>
      </trkpt>
      <trkpt lat="43.60126" lon="3.0509">
        <ele>443.434875</ele>
        <time>2012-03-05T14:52:01Z</time>
      </trkpt>
      <trkpt lat="43.60121" lon="3.05092">
        <ele>444.272186</ele>
        <time>2012-03-05T14:52:05Z</time>
      </trkpt>
      <trkpt lat="43.60109" lon="3.05097">
        <ele>446.125397</ele>
        <time>2012-03-05T14:52:12Z</time>
      </trkpt>
      <trkpt lat="43.60103" lon="3.051">
        <ele>447.257416</ele>
        <time>2012-03-05T14:52:15Z</time>
      </trkpt>
      <trkpt lat="43.60101" lon="3.05101">
        <ele>447.529785</ele>
        <time>2012-03-05T14:52:17Z</time>
      </trkpt>
      <trkpt lat="43.60087" lon="3.05103">
        <ele>446.775055</ele>
        <time>2012-03-05T14:52:24Z</time>
      </trkpt>
      <trkpt lat="43.60085" lon="3.05104">
        <ele>446.98999</ele>
        <time>2012-03-05T14:52:25Z</time>
      </trkpt>
      <trkpt lat="43.60075" lon="3.05112">
        <ele>448.472992</ele>
        <time>2012-03-05T14:52:31Z</time>
      </trkpt>
      <trkpt lat="43.60064" lon="3.05114">
        <ele>447.683197</ele>
        <time>2012-03-05T14:52:37Z</time>
      </trkpt>
      <trkpt lat="43.60051" lon="3.05114">
        <ele>446.378204</ele>
        <time>2012-03-05T14:52:42Z</time>
      </trkpt>
      <trkpt lat="43.60037" lon="3.05124">
        <ele>448.01651</ele>
        <time>2012-03-05T14:52:48Z</time>
      </trkpt>
      <trkpt lat="43.60027" lon="3.05134">
        <ele>450.211304</ele>
        <time>2012-03-05T14:52:54Z</time>
      </trkpt>
      <trkpt lat="43.60016" lon="3.05137">
        <ele>449.609283</ele>
        <time>2012-03-05T14:52:59Z</time>
      </trkpt>
      <trkpt lat="43.60003" lon="3.05143">
        <ele>449.672089</ele>
        <time>2012-03-05T14:53:05Z</time>
      </trkpt>
      <trkpt lat="43.59985" lon="3.05151">
        <ele>448.380951</ele>
        <time>2012-03-05T14:53:11Z</time>
      </trkpt>
      <trkpt lat="43.5996" lon="3.05164">
        <ele>446.931854</ele>
        <time>2012-03-05T14:53:17Z</time>
      </trkpt>
      <trkpt lat="43.59935" lon="3.05176">
        <ele>446.018799</ele>
        <time>2012-03-05T14:53:22Z</time>
      </trkpt>
      <trkpt lat="43.59917" lon="3.05189">
        <ele>446.080292</ele>
        <time>2012-03-05T14:53:26Z</time>
      </trkpt>
      <trkpt lat="43.5991" lon="3.05196">
        <ele>446.788757</ele>
        <time>2012-03-05T14:53:28Z</time>
      </trkpt>
      <trkpt lat="43.59897" lon="3.05217">
        <ele>446.899994</ele>
        <time>2012-03-05T14:53:33Z</time>
      </trkpt>
      <trkpt lat="43.59895" lon="3.05221">
        <ele>446.75</ele>
        <time>2012-03-05T14:53:34Z</time>
      </trkpt>
      <trkpt lat="43.59892" lon="3.0523">
        <ele>446.399994</ele>
        <time>2012-03-05T14:53:37Z</time>
      </trkpt>
      <trkpt lat="43.59892" lon="3.05251">
        <ele>446.412506</ele>
        <time>2012-03-05T14:53:45Z</time>
      </trkpt>
      <trkpt lat="43.59898" lon="3.05272">
        <ele>446.022217</ele>
        <time>2012-03-05T14:53:49Z</time>
      </trkpt>
      <trkpt lat="43.59902" lon="3.05284">
        <ele>445.029022</ele>
        <time>2012-03-05T14:53:51Z</time>
      </trkpt>
      <trkpt lat="43.59911" lon="3.05297">
        <ele>444.322052</ele>
        <time>2012-03-05T14:53:54Z</time>
      </trkpt>
      <trkpt lat="43.59923" lon="3.05306">
        <ele>445.681885</ele>
        <time>2012-03-05T14:53:57Z</time>
      </trkpt>
      <trkpt lat="43.59936" lon="3.05321">
        <ele>447.230957</ele>
        <time>2012-03-05T14:54:01Z</time>
      </trkpt>
      <trkpt lat="43.59934" lon="3.0534">
        <ele>447.381744</ele>
        <time>2012-03-05T14:54:05Z</time>
      </trkpt>
      <trkpt lat="43.59931" lon="3.05356">
        <ele>448.355621</ele>
        <time>2012-03-05T14:54:08Z</time>
      </trkpt>
      <trkpt lat="43.59924" lon="3.05384">
        <ele>449.353424</ele>
        <time>2012-03-05T14:54:14Z</time>
      </trkpt>
      <trkpt lat="43.59918" lon="3.05403">
        <ele>449.145142</ele>
        <time>2012-03-05T14:54:18Z</time>
      </trkpt>
      <trkpt lat="43.59909" lon="3.05434">
        <ele>448.831299</ele>
        <time>2012-03-05T14:54:24Z</time>
      </trkpt>
      <trkpt lat="43.59903" lon="3.05462">
        <ele>448.538086</ele>
        <time>2012-03-05T14:54:29Z</time>
      </trkpt>
      <trkpt lat="43.59898" lon="3.05502">
        <ele>450.082092</ele>
        <time>2012-03-05T14:54:34Z</time>
      </trkpt>
      <trkpt lat="43.59893" lon="3.05521">
        <ele>451.302032</ele>
        <time>2012-03-05T14:54:38Z</time>
      </trkpt>
      <trkpt lat="43.59881" lon="3.05539">
        <ele>451.69519</ele>
        <time>2012-03-05T14:54:44Z</time>
      </trkpt>
      <trkpt lat="43.59876" lon="3.05553">
        <ele>453.452057</ele>
        <time>2012-03-05T14:54:48Z</time>
      </trkpt>
      <trkpt lat="43.59869" lon="3.05563">
        <ele>453.740173</ele>
        <time>2012-03-05T14:54:53Z</time>
      </trkpt>
      <trkpt lat="43.59859" lon="3.05572">
        <ele>454.282318</ele>
        <time>2012-03-05T14:54:59Z</time>
      </trkpt>
      <trkpt lat="43.59851" lon="3.0558">
        <ele>454.523407</ele>
        <time>2012-03-05T14:55:04Z</time>
      </trkpt>
      <trkpt lat="43.59844" lon="3.05583">
        <ele>453.913727</ele>
        <time>2012-03-05T14:55:08Z</time>
      </trkpt>
      <trkpt lat="43.59837" lon="3.05591">
        <ele>454.247375</ele>
        <time>2012-03-05T14:55:14Z</time>
      </trkpt>
      <trkpt lat="43.59834" lon="3.05601">
        <ele>455.478668</ele>
        <time>2012-03-05T14:55:20Z</time>
      </trkpt>
      <trkpt lat="43.59832" lon="3.05612">
        <ele>457.12674</ele>
        <time>2012-03-05T14:55:26Z</time>
      </trkpt>
      <trkpt lat="43.5983" lon="3.05622">
        <ele>458.24292</ele>
        <time>2012-03-05T14:55:31Z</time>
      </trkpt>
      <trkpt lat="43.59827" lon="3.05637">
        <ele>460.096802</ele>
        <time>2012-03-05T14:55:38Z</time>
      </trkpt>
      <trkpt lat="43.59826" lon="3.05651">
        <ele>461.395142</ele>
        <time>2012-03-05T14:55:44Z</time>
      </trkpt>
      <trkpt lat="43.59822" lon="3.05665">
        <ele>461.570587</ele>
        <time>2012-03-05T14:55:50Z</time>
      </trkpt>
      <trkpt lat="43.59819" lon="3.0568">
        <ele>461.946838</ele>
        <time>2012-03-05T14:55:56Z</time>
      </trkpt>
      <trkpt lat="43.5982" lon="3.05695">
        <ele>463.884827</ele>
        <time>2012-03-05T14:56:01Z</time>
      </trkpt>
      <trkpt lat="43.5982" lon="3.0572">
        <ele>465.342957</ele>
        <time>2012-03-05T14:56:08Z</time>
      </trkpt>
      <trkpt lat="43.5982" lon="3.05735">
        <ele>466.382904</ele>
        <time>2012-03-05T14:56:12Z</time>
      </trkpt>
      <trkpt lat="43.59818" lon="3.05764">
        <ele>467.122498</ele>
        <time>2012-03-05T14:56:18Z</time>
      </trkpt>
      <trkpt lat="43.59818" lon="3.05782">
        <ele>467.727509</ele>
        <time>2012-03-05T14:56:23Z</time>
      </trkpt>
      <trkpt lat="43.59818" lon="3.05803">
        <ele>468.714996</ele>
        <time>2012-03-05T14:56:28Z</time>
      </trkpt>
      <trkpt lat="43.59817" lon="3.05826">
        <ele>469.116577</ele>
        <time>2012-03-05T14:56:34Z</time>
      </trkpt>
      <trkpt lat="43.59815" lon="3.05842">
        <ele>468.504791</ele>
        <time>2012-03-05T14:56:39Z</time>
      </trkpt>
      <trkpt lat="43.59815" lon="3.05859">
        <ele>468.570313</ele>
        <time>2012-03-05T14:56:45Z</time>
      </trkpt>
      <trkpt lat="43.59814" lon="3.05863">
        <ele>468.302185</ele>
        <time>2012-03-05T14:56:48Z</time>
      </trkpt>
      <trkpt lat="43.5982" lon="3.05862">
        <ele>471.036377</ele>
        <time>2012-03-05T14:57:18Z</time>
      </trkpt>
      <trkpt lat="43.59821" lon="3.05869">
        <ele>471.593262</ele>
        <time>2012-03-05T14:57:22Z</time>
      </trkpt>
      <trkpt lat="43.59821" lon="3.05871">
        <ele>471.673523</ele>
        <time>2012-03-05T14:57:23Z</time>
      </trkpt>
      <trkpt lat="43.59817" lon="3.05884">
        <ele>470.202545</ele>
        <time>2012-03-05T14:57:27Z</time>
      </trkpt>
      <trkpt lat="43.59811" lon="3.05902">
        <ele>468.527618</ele>
        <time>2012-03-05T14:57:32Z</time>
      </trkpt>
      <trkpt lat="43.59808" lon="3.05928">
        <ele>468.158997</ele>
        <time>2012-03-05T14:57:38Z</time>
      </trkpt>
      <trkpt lat="43.59808" lon="3.0595">
        <ele>468.81073</ele>
        <time>2012-03-05T14:57:43Z</time>
      </trkpt>
      <trkpt lat="43.59807" lon="3.05973">
        <ele>468.595001</ele>
        <time>2012-03-05T14:57:48Z</time>
      </trkpt>
      <trkpt lat="43.59813" lon="3.05989">
        <ele>470.500885</ele>
        <time>2012-03-05T14:57:51Z</time>
      </trkpt>
      <trkpt lat="43.59813" lon="3.06022">
        <ele>470.745026</ele>
        <time>2012-03-05T14:57:56Z</time>
      </trkpt>
      <trkpt lat="43.59812" lon="3.06055">
        <ele>471.162659</ele>
        <time>2012-03-05T14:58:01Z</time>
      </trkpt>
      <trkpt lat="43.59811" lon="3.06062">
        <ele>471.044312</ele>
        <time>2012-03-05T14:58:02Z</time>
      </trkpt>
      <trkpt lat="43.59814" lon="3.0609">
        <ele>471.244354</ele>
        <time>2012-03-05T14:58:07Z</time>
      </trkpt>
      <trkpt lat="43.5982" lon="3.06115">
        <ele>471.54071</ele>
        <time>2012-03-05T14:58:12Z</time>
      </trkpt>
      <trkpt lat="43.59829" lon="3.06138">
        <ele>470.659882</ele>
        <time>2012-03-05T14:58:17Z</time>
      </trkpt>
      <trkpt lat="43.59839" lon="3.06155">
        <ele>468.884003</ele>
        <time>2012-03-05T14:58:21Z</time>
      </trkpt>
      <trkpt lat="43.59844" lon="3.06164">
        <ele>467.529755</ele>
        <time>2012-03-05T14:58:23Z</time>
      </trkpt>
      <trkpt lat="43.5986" lon="3.06183">
        <ele>463.999481</ele>
        <time>2012-03-05T14:58:27Z</time>
      </trkpt>
      <trkpt lat="43.5989" lon="3.06191">
        <ele>460.541168</ele>
        <time>2012-03-05T14:58:32Z</time>
      </trkpt>
      <trkpt lat="43.59897" lon="3.0619">
        <ele>460.598938</ele>
        <time>2012-03-05T14:58:33Z</time>
      </trkpt>
      <trkpt lat="43.5992" lon="3.06182">
        <ele>463.467499</ele>
        <time>2012-03-05T14:58:37Z</time>
      </trkpt>
      <trkpt lat="43.59946" lon="3.06193">
        <ele>463.177399</ele>
        <time>2012-03-05T14:58:42Z</time>
      </trkpt>
      <trkpt lat="43.59954" lon="3.06202">
        <ele>461.361389</ele>
        <time>2012-03-05T14:58:44Z</time>
      </trkpt>
      <trkpt lat="43.59972" lon="3.06226">
        <ele>458.00061</ele>
        <time>2012-03-05T14:58:49Z</time>
      </trkpt>
      <trkpt lat="43.59986" lon="3.06237">
        <ele>457.664001</ele>
        <time>2012-03-05T14:58:52Z</time>
      </trkpt>
      <trkpt lat="43.6002" lon="3.06247">
        <ele>458.309143</ele>
        <time>2012-03-05T14:58:58Z</time>
      </trkpt>
      <trkpt lat="43.60039" lon="3.06251">
        <ele>458.194031</ele>
        <time>2012-03-05T14:59:01Z</time>
      </trkpt>
      <trkpt lat="43.60062" lon="3.06265">
        <ele>456.167053</ele>
        <time>2012-03-05T14:59:05Z</time>
      </trkpt>
      <trkpt lat="43.60074" lon="3.06275">
        <ele>454.595551</ele>
        <time>2012-03-05T14:59:07Z</time>
      </trkpt>
      <trkpt lat="43.60089" lon="3.06287">
        <ele>452.72113</ele>
        <time>2012-03-05T14:59:09Z</time>
      </trkpt>
      <trkpt lat="43.6012" lon="3.06312">
        <ele>446.998627</ele>
        <time>2012-03-05T14:59:13Z</time>
      </trkpt>
      <trkpt lat="43.60137" lon="3.06321">
        <ele>445.40271</ele>
        <time>2012-03-05T14:59:15Z</time>
      </trkpt>
      <trkpt lat="43.60162" lon="3.06319">
        <ele>446.790436</ele>
        <time>2012-03-05T14:59:18Z</time>
      </trkpt>
      <trkpt lat="43.60183" lon="3.06319">
        <ele>446.538055</ele>
        <time>2012-03-05T14:59:21Z</time>
      </trkpt>
      <trkpt lat="43.60187" lon="3.06326">
        <ele>444.856781</ele>
        <time>2012-03-05T14:59:22Z</time>
      </trkpt>
      <trkpt lat="43.60189" lon="3.06333">
        <ele>443.17807</ele>
        <time>2012-03-05T14:59:23Z</time>
      </trkpt>
      <trkpt lat="43.60202" lon="3.06363">
        <ele>437.502533</ele>
        <time>2012-03-05T14:59:27Z</time>
      </trkpt>
      <trkpt lat="43.60219" lon="3.06372">
        <ele>436.098511</ele>
        <time>2012-03-05T14:59:30Z</time>
      </trkpt>
      <trkpt lat="43.60231" lon="3.06369">
        <ele>434.451324</ele>
        <time>2012-03-05T14:59:32Z</time>
      </trkpt>
      <trkpt lat="43.60245" lon="3.0635">
        <ele>434.95401</ele>
        <time>2012-03-05T14:59:35Z</time>
      </trkpt>
      <trkpt lat="43.60249" lon="3.06341">
        <ele>436.318115</ele>
        <time>2012-03-05T14:59:36Z</time>
      </trkpt>
      <trkpt lat="43.60262" lon="3.06324">
        <ele>438.595337</ele>
        <time>2012-03-05T14:59:39Z</time>
      </trkpt>
      <trkpt lat="43.60273" lon="3.06326">
        <ele>437.975006</ele>
        <time>2012-03-05T14:59:41Z</time>
      </trkpt>
      <trkpt lat="43.60288" lon="3.06331">
        <ele>437.424988</ele>
        <time>2012-03-05T14:59:44Z</time>
      </trkpt>
      <trkpt lat="43.6032" lon="3.06336">
        <ele>438.091461</ele>
        <time>2012-03-05T14:59:50Z</time>
      </trkpt>
      <trkpt lat="43.60355" lon="3.06355">
        <ele>436.615936</ele>
        <time>2012-03-05T14:59:57Z</time>
      </trkpt>
      <trkpt lat="43.6036" lon="3.06358">
        <ele>436.092468</ele>
        <time>2012-03-05T14:59:58Z</time>
      </trkpt>
      <trkpt lat="43.60392" lon="3.06361">
        <ele>434.977386</ele>
        <time>2012-03-05T15:00:03Z</time>
      </trkpt>
      <trkpt lat="43.60432" lon="3.06356">
        <ele>436.530212</ele>
        <time>2012-03-05T15:00:10Z</time>
      </trkpt>
      <trkpt lat="43.60444" lon="3.06356">
        <ele>436.728363</ele>
        <time>2012-03-05T15:00:12Z</time>
      </trkpt>
      <trkpt lat="43.60462" lon="3.06352">
        <ele>438.388641</ele>
        <time>2012-03-05T15:00:15Z</time>
      </trkpt>
      <trkpt lat="43.60491" lon="3.06358">
        <ele>436.185394</ele>
        <time>2012-03-05T15:00:20Z</time>
      </trkpt>
      <trkpt lat="43.60506" lon="3.06356">
        <ele>434.954712</ele>
        <time>2012-03-05T15:00:23Z</time>
      </trkpt>
      <trkpt lat="43.6053" lon="3.06355">
        <ele>432.121002</ele>
        <time>2012-03-05T15:00:28Z</time>
      </trkpt>
      <trkpt lat="43.60553" lon="3.0634">
        <ele>432.093323</ele>
        <time>2012-03-05T15:00:34Z</time>
      </trkpt>
      <trkpt lat="43.60559" lon="3.06333">
        <ele>433.064301</ele>
        <time>2012-03-05T15:00:36Z</time>
      </trkpt>
      <trkpt lat="43.60574" lon="3.06305">
        <ele>439.709534</ele>
        <time>2012-03-05T15:00:42Z</time>
      </trkpt>
      <trkpt lat="43.60589" lon="3.06297">
        <ele>443.794373</ele>
        <time>2012-03-05T15:00:46Z</time>
      </trkpt>
      <trkpt lat="43.60596" lon="3.06304">
        <ele>443.354126</ele>
        <time>2012-03-05T15:00:49Z</time>
      </trkpt>
      <trkpt lat="43.60597" lon="3.06309">
        <ele>441.806702</ele>
        <time>2012-03-05T15:00:50Z</time>
      </trkpt>
      <trkpt lat="43.60603" lon="3.0633">
        <ele>436.5513</ele>
        <time>2012-03-05T15:00:53Z</time>
      </trkpt>
      <trkpt lat="43.60622" lon="3.06353">
        <ele>434.967987</ele>
        <time>2012-03-05T15:00:57Z</time>
      </trkpt>
      <trkpt lat="43.6064" lon="3.0636">
        <ele>440.724213</ele>
        <time>2012-03-05T15:01:00Z</time>
      </trkpt>
      <trkpt lat="43.60647" lon="3.06374">
        <ele>439.283447</ele>
        <time>2012-03-05T15:01:02Z</time>
      </trkpt>
      <trkpt lat="43.6065" lon="3.06407">
        <ele>432.10498</ele>
        <time>2012-03-05T15:01:06Z</time>
      </trkpt>
      <trkpt lat="43.60655" lon="3.06423">
        <ele>432.08075</ele>
        <time>2012-03-05T15:01:08Z</time>
      </trkpt>
      <trkpt lat="43.60668" lon="3.0647">
        <ele>432.767303</ele>
        <time>2012-03-05T15:01:14Z</time>
      </trkpt>
      <trkpt lat="43.60667" lon="3.06478">
        <ele>431.156158</ele>
        <time>2012-03-05T15:01:15Z</time>
      </trkpt>
      <trkpt lat="43.60664" lon="3.06494">
        <ele>427.123291</ele>
        <time>2012-03-05T15:01:17Z</time>
      </trkpt>
      <trkpt lat="43.60666" lon="3.06531">
        <ele>422.320984</ele>
        <time>2012-03-05T15:01:22Z</time>
      </trkpt>
      <trkpt lat="43.60677" lon="3.06552">
        <ele>422.509521</ele>
        <time>2012-03-05T15:01:26Z</time>
      </trkpt>
      <trkpt lat="43.60685" lon="3.06559">
        <ele>423.317474</ele>
        <time>2012-03-05T15:01:28Z</time>
      </trkpt>
      <trkpt lat="43.60694" lon="3.06564">
        <ele>424.545197</ele>
        <time>2012-03-05T15:01:30Z</time>
      </trkpt>
      <trkpt lat="43.60718" lon="3.06564">
        <ele>431.011749</ele>
        <time>2012-03-05T15:01:35Z</time>
      </trkpt>
      <trkpt lat="43.60733" lon="3.06562">
        <ele>434.043762</ele>
        <time>2012-03-05T15:01:38Z</time>
      </trkpt>
      <trkpt lat="43.60749" lon="3.06572">
        <ele>433.712982</ele>
        <time>2012-03-05T15:01:42Z</time>
      </trkpt>
      <trkpt lat="43.60751" lon="3.06577">
        <ele>432.662262</ele>
        <time>2012-03-05T15:01:43Z</time>
      </trkpt>
      <trkpt lat="43.60753" lon="3.06583">
        <ele>431.218933</ele>
        <time>2012-03-05T15:01:45Z</time>
      </trkpt>
      <trkpt lat="43.60755" lon="3.06588">
        <ele>430.082977</ele>
        <time>2012-03-05T15:03:12Z</time>
      </trkpt>
      <trkpt lat="43.60755" lon="3.06589">
        <ele>429.811646</ele>
        <time>2012-03-05T15:03:13Z</time>
      </trkpt>
      <trkpt lat="43.6076" lon="3.06599">
        <ele>427.676941</ele>
        <time>2012-03-05T15:03:17Z</time>
      </trkpt>
      <trkpt lat="43.60767" lon="3.06609">
        <ele>426.087006</ele>
        <time>2012-03-05T15:03:20Z</time>
      </trkpt>
      <trkpt lat="43.60791" lon="3.06615">
        <ele>428.018311</ele>
        <time>2012-03-05T15:03:26Z</time>
      </trkpt>
      <trkpt lat="43.60812" lon="3.06616">
        <ele>430.31958</ele>
        <time>2012-03-05T15:03:32Z</time>
      </trkpt>
      <trkpt lat="43.60823" lon="3.06619">
        <ele>430.481781</ele>
        <time>2012-03-05T15:03:35Z</time>
      </trkpt>
      <trkpt lat="43.60845" lon="3.06624">
        <ele>430.573242</ele>
        <time>2012-03-05T15:03:40Z</time>
      </trkpt>
      <trkpt lat="43.60886" lon="3.06627">
        <ele>429.285217</ele>
        <time>2012-03-05T15:03:49Z</time>
      </trkpt>
      <trkpt lat="43.60907" lon="3.06624">
        <ele>427.068146</ele>
        <time>2012-03-05T15:03:55Z</time>
      </trkpt>
      <trkpt lat="43.6093" lon="3.06616">
        <ele>424.030548</ele>
        <time>2012-03-05T15:04:02Z</time>
      </trkpt>
      <trkpt lat="43.60944" lon="3.06601">
        <ele>426.653809</ele>
        <time>2012-03-05T15:04:07Z</time>
      </trkpt>
      <trkpt lat="43.60959" lon="3.06571">
        <ele>434.377289</ele>
        <time>2012-03-05T15:04:14Z</time>
      </trkpt>
      <trkpt lat="43.60963" lon="3.06541">
        <ele>440.556244</ele>
        <time>2012-03-05T15:04:20Z</time>
      </trkpt>
      <trkpt lat="43.60966" lon="3.06529">
        <ele>443.259613</ele>
        <time>2012-03-05T15:04:23Z</time>
      </trkpt>
      <trkpt lat="43.60967" lon="3.06526">
        <ele>444.081787</ele>
        <time>2012-03-05T15:04:24Z</time>
      </trkpt>
      <trkpt lat="43.60978" lon="3.06524">
        <ele>445.73175</ele>
        <time>2012-03-05T15:04:30Z</time>
      </trkpt>
      <trkpt lat="43.6098" lon="3.06525">
        <ele>445.738129</ele>
        <time>2012-03-05T15:04:31Z</time>
      </trkpt>
      <trkpt lat="43.60993" lon="3.06536">
        <ele>446.318878</ele>
        <time>2012-03-05T15:04:38Z</time>
      </trkpt>
      <trkpt lat="43.61005" lon="3.0655">
        <ele>447.395172</ele>
        <time>2012-03-05T15:04:45Z</time>
      </trkpt>
      <trkpt lat="43.61012" lon="3.06562">
        <ele>446.975311</ele>
        <time>2012-03-05T15:04:50Z</time>
      </trkpt>
      <trkpt lat="43.6102" lon="3.06577">
        <ele>446.006409</ele>
        <time>2012-03-05T15:04:57Z</time>
      </trkpt>
      <trkpt lat="43.61031" lon="3.06593">
        <ele>446.247833</ele>
        <time>2012-03-05T15:05:05Z</time>
      </trkpt>
      <trkpt lat="43.6104" lon="3.066">
        <ele>445.596039</ele>
        <time>2012-03-05T15:05:10Z</time>
      </trkpt>
      <trkpt lat="43.61056" lon="3.06606">
        <ele>446.105255</ele>
        <time>2012-03-05T15:05:18Z</time>
      </trkpt>
      <trkpt lat="43.61076" lon="3.06606">
        <ele>448.421661</ele>
        <time>2012-03-05T15:05:25Z</time>
      </trkpt>
      <trkpt lat="43.61101" lon="3.06601">
        <ele>451.006439</ele>
        <time>2012-03-05T15:05:33Z</time>
      </trkpt>
      <trkpt lat="43.61122" lon="3.06589">
        <ele>455.492401</ele>
        <time>2012-03-05T15:05:40Z</time>
      </trkpt>
      <trkpt lat="43.6113" lon="3.06583">
        <ele>457.18512</ele>
        <time>2012-03-05T15:05:43Z</time>
      </trkpt>
      <trkpt lat="43.61145" lon="3.06573">
        <ele>459.809998</ele>
        <time>2012-03-05T15:05:50Z</time>
      </trkpt>
      <trkpt lat="43.61154" lon="3.06569">
        <ele>460.954987</ele>
        <time>2012-03-05T15:05:54Z</time>
      </trkpt>
      <trkpt lat="43.61162" lon="3.06564">
        <ele>462.225006</ele>
        <time>2012-03-05T15:05:58Z</time>
      </trkpt>
      <trkpt lat="43.61171" lon="3.06557">
        <ele>463.883118</ele>
        <time>2012-03-05T15:06:03Z</time>
      </trkpt>
      <trkpt lat="43.61182" lon="3.06547">
        <ele>466.157104</ele>
        <time>2012-03-05T15:06:09Z</time>
      </trkpt>
      <trkpt lat="43.61184" lon="3.06545">
        <ele>466.537689</ele>
        <time>2012-03-05T15:06:10Z</time>
      </trkpt>
      <trkpt lat="43.61191" lon="3.0654">
        <ele>467.394684</ele>
        <time>2012-03-05T15:06:13Z</time>
      </trkpt>
      <trkpt lat="43.61197" lon="3.06535">
        <ele>468.388794</ele>
        <time>2012-03-05T15:06:17Z</time>
      </trkpt>
      <trkpt lat="43.61209" lon="3.06529">
        <ele>469.090729</ele>
        <time>2012-03-05T15:06:24Z</time>
      </trkpt>
      <trkpt lat="43.61216" lon="3.06525">
        <ele>469.381256</ele>
        <time>2012-03-05T15:06:28Z</time>
      </trkpt>
      <trkpt lat="43.61228" lon="3.06516">
        <ele>470.820007</ele>
        <time>2012-03-05T15:06:36Z</time>
      </trkpt>
      <trkpt lat="43.61241" lon="3.06502">
        <ele>473.417511</ele>
        <time>2012-03-05T15:06:44Z</time>
      </trkpt>
      <trkpt lat="43.61253" lon="3.06487">
        <ele>476.38501</ele>
        <time>2012-03-05T15:06:53Z</time>
      </trkpt>
      <trkpt lat="43.61267" lon="3.06474">
        <ele>478.651642</ele>
        <time>2012-03-05T15:07:02Z</time>
      </trkpt>
      <trkpt lat="43.61278" lon="3.06461">
        <ele>480.573792</ele>
        <time>2012-03-05T15:07:10Z</time>
      </trkpt>
      <trkpt lat="43.61284" lon="3.06456">
        <ele>480.975006</ele>
        <time>2012-03-05T15:07:14Z</time>
      </trkpt>
      <trkpt lat="43.61293" lon="3.06445">
        <ele>482.007507</ele>
        <time>2012-03-05T15:07:21Z</time>
      </trkpt>
      <trkpt lat="43.61302" lon="3.06434">
        <ele>483.212036</ele>
        <time>2012-03-05T15:07:28Z</time>
      </trkpt>
      <trkpt lat="43.6131" lon="3.06422">
        <ele>483.977631</ele>
        <time>2012-03-05T15:07:36Z</time>
      </trkpt>
      <trkpt lat="43.61326" lon="3.0642">
        <ele>480.84613</ele>
        <time>2012-03-05T15:07:53Z</time>
      </trkpt>
      <trkpt lat="43.61329" lon="3.06422">
        <ele>479.661957</ele>
        <time>2012-03-05T15:07:55Z</time>
      </trkpt>
      <trkpt lat="43.61336" lon="3.06418">
        <ele>479.148621</ele>
        <time>2012-03-05T15:07:59Z</time>
      </trkpt>
      <trkpt lat="43.61343" lon="3.06405">
        <ele>479.944519</ele>
        <time>2012-03-05T15:08:04Z</time>
      </trkpt>
      <trkpt lat="43.61347" lon="3.0641">
        <ele>478.103546</ele>
        <time>2012-03-05T15:08:07Z</time>
      </trkpt>
      <trkpt lat="43.61348" lon="3.06412">
        <ele>477.375275</ele>
        <time>2012-03-05T15:08:08Z</time>
      </trkpt>
      <trkpt lat="43.61354" lon="3.06422">
        <ele>474.054718</ele>
        <time>2012-03-05T15:08:11Z</time>
      </trkpt>
      <trkpt lat="43.61356" lon="3.06424">
        <ele>473.040985</ele>
        <time>2012-03-05T15:08:12Z</time>
      </trkpt>
      <trkpt lat="43.61366" lon="3.06436">
        <ele>468.039368</ele>
        <time>2012-03-05T15:08:16Z</time>
      </trkpt>
      <trkpt lat="43.61388" lon="3.06453">
        <ele>458.733124</ele>
        <time>2012-03-05T15:08:22Z</time>
      </trkpt>
      <trkpt lat="43.61394" lon="3.06459">
        <ele>456.244659</ele>
        <time>2012-03-05T15:08:24Z</time>
      </trkpt>
      <trkpt lat="43.614" lon="3.06471">
        <ele>453.875397</ele>
        <time>2012-03-05T15:08:27Z</time>
      </trkpt>
      <trkpt lat="43.61403" lon="3.06495">
        <ele>451.508789</ele>
        <time>2012-03-05T15:08:31Z</time>
      </trkpt>
      <trkpt lat="43.614" lon="3.06522">
        <ele>450.198059</ele>
        <time>2012-03-05T15:08:36Z</time>
      </trkpt>
      <trkpt lat="43.61384" lon="3.06537">
        <ele>451.197723</ele>
        <time>2012-03-05T15:08:41Z</time>
      </trkpt>
      <trkpt lat="43.61371" lon="3.06545">
        <ele>451.54129</ele>
        <time>2012-03-05T15:08:45Z</time>
      </trkpt>
      <trkpt lat="43.6136" lon="3.06554">
        <ele>451.018494</ele>
        <time>2012-03-05T15:08:50Z</time>
      </trkpt>
      <trkpt lat="43.61357" lon="3.06556">
        <ele>450.992859</ele>
        <time>2012-03-05T15:08:51Z</time>
      </trkpt>
      <trkpt lat="43.61334" lon="3.06564">
        <ele>450.135193</ele>
        <time>2012-03-05T15:08:56Z</time>
      </trkpt>
      <trkpt lat="43.61322" lon="3.0657">
        <ele>448.748291</ele>
        <time>2012-03-05T15:08:59Z</time>
      </trkpt>
      <trkpt lat="43.61308" lon="3.06576">
        <ele>446.803619</ele>
        <time>2012-03-05T15:09:03Z</time>
      </trkpt>
      <trkpt lat="43.61296" lon="3.0658">
        <ele>445.644989</ele>
        <time>2012-03-05T15:09:09Z</time>
      </trkpt>
      <trkpt lat="43.61291" lon="3.06581">
        <ele>445.506958</ele>
        <time>2012-03-05T15:09:12Z</time>
      </trkpt>
      <trkpt lat="43.6128" lon="3.06595">
        <ele>442.940277</ele>
        <time>2012-03-05T15:09:18Z</time>
      </trkpt>
      <trkpt lat="43.61281" lon="3.06604">
        <ele>440.612915</ele>
        <time>2012-03-05T15:09:22Z</time>
      </trkpt>
      <trkpt lat="43.61285" lon="3.06618">
        <ele>436.714294</ele>
        <time>2012-03-05T15:09:26Z</time>
      </trkpt>
      <trkpt lat="43.61285" lon="3.06623">
        <ele>435.56192</ele>
        <time>2012-03-05T15:09:27Z</time>
      </trkpt>
      <trkpt lat="43.61287" lon="3.06629">
        <ele>433.87851</ele>
        <time>2012-03-05T15:09:29Z</time>
      </trkpt>
      <trkpt lat="43.61295" lon="3.06632">
        <ele>432.256866</ele>
        <time>2012-03-05T15:09:32Z</time>
      </trkpt>
      <trkpt lat="43.61299" lon="3.06639">
        <ele>430.084351</ele>
        <time>2012-03-05T15:09:34Z</time>
      </trkpt>
      <trkpt lat="43.61301" lon="3.06642">
        <ele>429.341797</ele>
        <time>2012-03-05T15:09:35Z</time>
      </trkpt>
      <trkpt lat="43.6131" lon="3.06657">
        <ele>425.674072</ele>
        <time>2012-03-05T15:09:39Z</time>
      </trkpt>
      <trkpt lat="43.61313" lon="3.06666">
        <ele>423.247284</ele>
        <time>2012-03-05T15:09:41Z</time>
      </trkpt>
      <trkpt lat="43.61316" lon="3.06674">
        <ele>420.906158</ele>
        <time>2012-03-05T15:09:43Z</time>
      </trkpt>
      <trkpt lat="43.61315" lon="3.06696">
        <ele>415.102386</ele>
        <time>2012-03-05T15:09:48Z</time>
      </trkpt>
      <trkpt lat="43.61317" lon="3.06699">
        <ele>414.130859</ele>
        <time>2012-03-05T15:09:49Z</time>
      </trkpt>
      <trkpt lat="43.61326" lon="3.0671">
        <ele>410.192688</ele>
        <time>2012-03-05T15:09:52Z</time>
      </trkpt>
      <trkpt lat="43.61329" lon="3.06713">
        <ele>408.862823</ele>
        <time>2012-03-05T15:09:53Z</time>
      </trkpt>
      <trkpt lat="43.61331" lon="3.0672">
        <ele>406.787201</ele>
        <time>2012-03-05T15:09:57Z</time>
      </trkpt>
      <trkpt lat="43.61333" lon="3.06725">
        <ele>405.235107</ele>
        <time>2012-03-05T15:09:59Z</time>
      </trkpt>
      <trkpt lat="43.61329" lon="3.06732">
        <ele>404.018341</ele>
        <time>2012-03-05T15:10:03Z</time>
      </trkpt>
      <trkpt lat="43.61327" lon="3.06731">
        <ele>404.432953</ele>
        <time>2012-03-05T15:10:06Z</time>
      </trkpt>
      <trkpt lat="43.61327" lon="3.06731">
        <ele>404.509277</ele>
        <time>2012-03-05T15:10:09Z</time>
      </trkpt>
      <trkpt lat="43.61326" lon="3.06731">
        <ele>404.497162</ele>
        <time>2012-03-05T15:10:10Z</time>
      </trkpt>
      <trkpt lat="43.61322" lon="3.06738">
        <ele>403.049713</ele>
        <time>2012-03-05T15:10:12Z</time>
      </trkpt>
      <trkpt lat="43.6132" lon="3.06743">
        <ele>401.945801</ele>
        <time>2012-03-05T15:10:14Z</time>
      </trkpt>
      <trkpt lat="43.61314" lon="3.06747">
        <ele>401.76947</ele>
        <time>2012-03-05T15:10:18Z</time>
      </trkpt>
      <trkpt lat="43.61311" lon="3.06755">
        <ele>399.925903</ele>
        <time>2012-03-05T15:10:22Z</time>
      </trkpt>
      <trkpt lat="43.61312" lon="3.06758">
        <ele>398.884583</ele>
        <time>2012-03-05T15:10:24Z</time>
      </trkpt>
      <trkpt lat="43.61314" lon="3.06767">
        <ele>396.170929</ele>
        <time>2012-03-05T15:10:28Z</time>
      </trkpt>
      <trkpt lat="43.61314" lon="3.06769">
        <ele>395.654266</ele>
        <time>2012-03-05T15:10:29Z</time>
      </trkpt>
      <trkpt lat="43.61312" lon="3.06778">
        <ele>392.434235</ele>
        <time>2012-03-05T15:10:33Z</time>
      </trkpt>
      <trkpt lat="43.61313" lon="3.06783">
        <ele>390.315216</ele>
        <time>2012-03-05T15:10:36Z</time>
      </trkpt>
      <trkpt lat="43.61313" lon="3.06785">
        <ele>389.756439</ele>
        <time>2012-03-05T15:10:38Z</time>
      </trkpt>
      <trkpt lat="43.61314" lon="3.06785">
        <ele>389.537201</ele>
        <time>2012-03-05T15:10:49Z</time>
      </trkpt>
      <trkpt lat="43.61314" lon="3.06785">
        <ele>389.631653</ele>
        <time>2012-03-05T15:10:50Z</time>
      </trkpt>
      <trkpt lat="43.61314" lon="3.06785">
        <ele>389.459839</ele>
        <time>2012-03-05T15:10:54Z</time>
      </trkpt>
      <trkpt lat="43.61315" lon="3.06786">
        <ele>389.18689</ele>
        <time>2012-03-05T15:10:55Z</time>
      </trkpt>
      <trkpt lat="43.61314" lon="3.06788">
        <ele>388.53186</ele>
        <time>2012-03-05T15:10:59Z</time>
      </trkpt>
      <trkpt lat="43.61314" lon="3.06789">
        <ele>388.010681</ele>
        <time>2012-03-05T15:11:08Z</time>
      </trkpt>
      <trkpt lat="43.61314" lon="3.06793">
        <ele>386.445282</ele>
        <time>2012-03-05T15:11:11Z</time>
      </trkpt>
      <trkpt lat="43.61312" lon="3.06801">
        <ele>383.63974</ele>
        <time>2012-03-05T15:11:14Z</time>
      </trkpt>
      <trkpt lat="43.61309" lon="3.0681">
        <ele>380.317993</ele>
        <time>2012-03-05T15:11:18Z</time>
      </trkpt>
      <trkpt lat="43.61305" lon="3.06818">
        <ele>377.456787</ele>
        <time>2012-03-05T15:11:23Z</time>
      </trkpt>
      <trkpt lat="43.61304" lon="3.0682">
        <ele>377.116608</ele>
        <time>2012-03-05T15:11:24Z</time>
      </trkpt>
      <trkpt lat="43.61304" lon="3.06822">
        <ele>376.156464</ele>
        <time>2012-03-05T15:11:26Z</time>
      </trkpt>
      <trkpt lat="43.61306" lon="3.06832">
        <ele>372.14801</ele>
        <time>2012-03-05T15:11:31Z</time>
      </trkpt>
      <trkpt lat="43.61313" lon="3.06841">
        <ele>368.256744</ele>
        <time>2012-03-05T15:11:35Z</time>
      </trkpt>
      <trkpt lat="43.6132" lon="3.06841">
        <ele>367.771576</ele>
        <time>2012-03-05T15:11:39Z</time>
      </trkpt>
      <trkpt lat="43.61322" lon="3.06846">
        <ele>365.796265</ele>
        <time>2012-03-05T15:11:41Z</time>
      </trkpt>
      <trkpt lat="43.61321" lon="3.06851">
        <ele>363.891876</ele>
        <time>2012-03-05T15:11:43Z</time>
      </trkpt>
      <trkpt lat="43.6132" lon="3.06862">
        <ele>359.558228</ele>
        <time>2012-03-05T15:11:48Z</time>
      </trkpt>
      <trkpt lat="43.61328" lon="3.06875">
        <ele>353.822479</ele>
        <time>2012-03-05T15:11:55Z</time>
      </trkpt>
      <trkpt lat="43.61326" lon="3.06885">
        <ele>350.009918</ele>
        <time>2012-03-05T15:12:00Z</time>
      </trkpt>
      <trkpt lat="43.61323" lon="3.06896">
        <ele>345.867157</ele>
        <time>2012-03-05T15:12:06Z</time>
      </trkpt>
      <trkpt lat="43.61321" lon="3.06903">
        <ele>343.57608</ele>
        <time>2012-03-05T15:12:08Z</time>
      </trkpt>
      <trkpt lat="43.61315" lon="3.0691">
        <ele>341.415833</ele>
        <time>2012-03-05T15:12:12Z</time>
      </trkpt>
      <trkpt lat="43.61313" lon="3.06918">
        <ele>338.735809</ele>
        <time>2012-03-05T15:12:15Z</time>
      </trkpt>
      <trkpt lat="43.61309" lon="3.06924">
        <ele>336.900391</ele>
        <time>2012-03-05T15:12:18Z</time>
      </trkpt>
      <trkpt lat="43.61307" lon="3.0693">
        <ele>334.972534</ele>
        <time>2012-03-05T15:12:21Z</time>
      </trkpt>
      <trkpt lat="43.61306" lon="3.06934">
        <ele>333.460663</ele>
        <time>2012-03-05T15:12:23Z</time>
      </trkpt>
      <trkpt lat="43.61305" lon="3.06938">
        <ele>332.317902</ele>
        <time>2012-03-05T15:12:25Z</time>
      </trkpt>
      <trkpt lat="43.61308" lon="3.06948">
        <ele>328.386658</ele>
        <time>2012-03-05T15:12:29Z</time>
      </trkpt>
      <trkpt lat="43.61317" lon="3.06949">
        <ele>327.015503</ele>
        <time>2012-03-05T15:12:33Z</time>
      </trkpt>
      <trkpt lat="43.6132" lon="3.06954">
        <ele>324.969086</ele>
        <time>2012-03-05T15:12:37Z</time>
      </trkpt>
      <trkpt lat="43.61324" lon="3.06964">
        <ele>321.12619</ele>
        <time>2012-03-05T15:12:41Z</time>
      </trkpt>
      <trkpt lat="43.61322" lon="3.06969">
        <ele>319.292053</ele>
        <time>2012-03-05T15:12:44Z</time>
      </trkpt>
      <trkpt lat="43.61314" lon="3.06976">
        <ele>317.270325</ele>
        <time>2012-03-05T15:12:49Z</time>
      </trkpt>
      <trkpt lat="43.61316" lon="3.06986">
        <ele>313.598083</ele>
        <time>2012-03-05T15:12:53Z</time>
      </trkpt>
      <trkpt lat="43.61322" lon="3.06987">
        <ele>312.672913</ele>
        <time>2012-03-05T15:12:55Z</time>
      </trkpt>
      <trkpt lat="43.61326" lon="3.06989">
        <ele>311.834534</ele>
        <time>2012-03-05T15:12:57Z</time>
      </trkpt>
      <trkpt lat="43.6133" lon="3.06992">
        <ele>310.49292</ele>
        <time>2012-03-05T15:12:59Z</time>
      </trkpt>
      <trkpt lat="43.61338" lon="3.06997">
        <ele>308.29306</ele>
        <time>2012-03-05T15:13:04Z</time>
      </trkpt>
      <trkpt lat="43.61338" lon="3.07004">
        <ele>305.770813</ele>
        <time>2012-03-05T15:13:07Z</time>
      </trkpt>
      <trkpt lat="43.61337" lon="3.07006">
        <ele>305.081512</ele>
        <time>2012-03-05T15:13:08Z</time>
      </trkpt>
      <trkpt lat="43.61338" lon="3.07014">
        <ele>302.281311</ele>
        <time>2012-03-05T15:13:11Z</time>
      </trkpt>
      <trkpt lat="43.61342" lon="3.07025">
        <ele>299.46875</ele>
        <time>2012-03-05T15:13:14Z</time>
      </trkpt>
      <trkpt lat="43.61343" lon="3.0703">
        <ele>298.032684</ele>
        <time>2012-03-05T15:13:16Z</time>
      </trkpt>
      <trkpt lat="43.61342" lon="3.07037">
        <ele>296.484924</ele>
        <time>2012-03-05T15:13:19Z</time>
      </trkpt>
      <trkpt lat="43.61341" lon="3.0704">
        <ele>295.97818</ele>
        <time>2012-03-05T15:13:20Z</time>
      </trkpt>
      <trkpt lat="43.61344" lon="3.07041">
        <ele>295.325592</ele>
        <time>2012-03-05T15:13:22Z</time>
      </trkpt>
      <trkpt lat="43.61352" lon="3.07036">
        <ele>294.94397</ele>
        <time>2012-03-05T15:13:27Z</time>
      </trkpt>
      <trkpt lat="43.61361" lon="3.07032">
        <ele>294.109131</ele>
        <time>2012-03-05T15:13:29Z</time>
      </trkpt>
      <trkpt lat="43.61372" lon="3.07029">
        <ele>292.322815</ele>
        <time>2012-03-05T15:13:31Z</time>
      </trkpt>
      <trkpt lat="43.6139" lon="3.07025">
        <ele>289.571655</ele>
        <time>2012-03-05T15:13:34Z</time>
      </trkpt>
      <trkpt lat="43.61418" lon="3.07014">
        <ele>286.351624</ele>
        <time>2012-03-05T15:13:40Z</time>
      </trkpt>
      <trkpt lat="43.61429" lon="3.07013">
        <ele>284.863495</ele>
        <time>2012-03-05T15:13:45Z</time>
      </trkpt>
      <trkpt lat="43.6143" lon="3.07012">
        <ele>284.906097</ele>
        <time>2012-03-05T15:13:46Z</time>
      </trkpt>
      <trkpt lat="43.61431" lon="3.07022">
        <ele>282.109558</ele>
        <time>2012-03-05T15:14:06Z</time>
      </trkpt>
      <trkpt lat="43.61431" lon="3.07022">
        <ele>281.905487</ele>
        <time>2012-03-05T15:14:07Z</time>
      </trkpt>
      <trkpt lat="43.61432" lon="3.07023">
        <ele>281.735168</ele>
        <time>2012-03-05T15:14:08Z</time>
      </trkpt>
      <trkpt lat="43.61435" lon="3.07025">
        <ele>281.505493</ele>
        <time>2012-03-05T15:14:13Z</time>
      </trkpt>
      <trkpt lat="43.6144" lon="3.07027">
        <ele>281.665985</ele>
        <time>2012-03-05T15:14:19Z</time>
      </trkpt>
      <trkpt lat="43.61441" lon="3.07026">
        <ele>282.059601</ele>
        <time>2012-03-05T15:14:38Z</time>
      </trkpt>
      <trkpt lat="43.61451" lon="3.07035">
        <ele>280.888519</ele>
        <time>2012-03-05T15:14:42Z</time>
      </trkpt>
      <trkpt lat="43.61469" lon="3.07046">
        <ele>278.829102</ele>
        <time>2012-03-05T15:14:47Z</time>
      </trkpt>
      <trkpt lat="43.61479" lon="3.07055">
        <ele>276.329193</ele>
        <time>2012-03-05T15:14:51Z</time>
      </trkpt>
      <trkpt lat="43.61484" lon="3.07061">
        <ele>274.954437</ele>
        <time>2012-03-05T15:14:53Z</time>
      </trkpt>
      <trkpt lat="43.615" lon="3.07072">
        <ele>272.633148</ele>
        <time>2012-03-05T15:14:58Z</time>
      </trkpt>
      <trkpt lat="43.61505" lon="3.07078">
        <ele>271.028564</ele>
        <time>2012-03-05T15:15:01Z</time>
      </trkpt>
      <trkpt lat="43.61505" lon="3.07078">
        <ele>270.942566</ele>
        <time>2012-03-05T15:15:02Z</time>
      </trkpt>
      <trkpt lat="43.61505" lon="3.07078">
        <ele>270.703247</ele>
        <time>2012-03-05T15:15:15Z</time>
      </trkpt>
      <trkpt lat="43.61506" lon="3.0708">
        <ele>270.064148</ele>
        <time>2012-03-05T15:15:17Z</time>
      </trkpt>
      <trkpt lat="43.61506" lon="3.0708">
        <ele>270.180542</ele>
        <time>2012-03-05T15:15:20Z</time>
      </trkpt>
      <trkpt lat="43.61507" lon="3.0708">
        <ele>270.195496</ele>
        <time>2012-03-05T15:15:21Z</time>
      </trkpt>
      <trkpt lat="43.61509" lon="3.07082">
        <ele>269.635406</ele>
        <time>2012-03-05T15:15:23Z</time>
      </trkpt>
      <trkpt lat="43.61511" lon="3.07081">
        <ele>270.14798</ele>
        <time>2012-03-05T15:15:30Z</time>
      </trkpt>
      <trkpt lat="43.6152" lon="3.07085">
        <ele>269.522491</ele>
        <time>2012-03-05T15:15:33Z</time>
      </trkpt>
      <trkpt lat="43.6153" lon="3.07088">
        <ele>269.279816</ele>
        <time>2012-03-05T15:15:38Z</time>
      </trkpt>
      <trkpt lat="43.61534" lon="3.07091">
        <ele>268.418121</ele>
        <time>2012-03-05T15:15:40Z</time>
      </trkpt>
      <trkpt lat="43.61538" lon="3.07106">
        <ele>262.287231</ele>
        <time>2012-03-05T15:15:44Z</time>
      </trkpt>
      <trkpt lat="43.61538" lon="3.0711">
        <ele>260.813751</ele>
        <time>2012-03-05T15:15:45Z</time>
      </trkpt>
      <trkpt lat="43.61526" lon="3.07115">
        <ele>258.238434</ele>
        <time>2012-03-05T15:15:50Z</time>
      </trkpt>
      <trkpt lat="43.61514" lon="3.07117">
        <ele>257.316742</ele>
        <time>2012-03-05T15:15:56Z</time>
      </trkpt>
      <trkpt lat="43.61514" lon="3.07114">
        <ele>258.588135</ele>
        <time>2012-03-05T15:16:08Z</time>
      </trkpt>
      <trkpt lat="43.61514" lon="3.07115">
        <ele>258.300385</ele>
        <time>2012-03-05T15:16:09Z</time>
      </trkpt>
      <trkpt lat="43.61514" lon="3.07115">
        <ele>258.134186</ele>
        <time>2012-03-05T15:16:10Z</time>
      </trkpt>
      <trkpt lat="43.61512" lon="3.07116">
        <ele>257.754547</ele>
        <time>2012-03-05T15:16:18Z</time>
      </trkpt>
      <trkpt lat="43.61511" lon="3.07116">
        <ele>257.724518</ele>
        <time>2012-03-05T15:16:19Z</time>
      </trkpt>
      <trkpt lat="43.61502" lon="3.07115">
        <ele>258.475494</ele>
        <time>2012-03-05T15:16:23Z</time>
      </trkpt>
      <trkpt lat="43.6149" lon="3.07105">
        <ele>261.725708</ele>
        <time>2012-03-05T15:16:28Z</time>
      </trkpt>
      <trkpt lat="43.61478" lon="3.07092">
        <ele>264.806061</ele>
        <time>2012-03-05T15:16:32Z</time>
      </trkpt>
      <trkpt lat="43.61452" lon="3.07078">
        <ele>269.667786</ele>
        <time>2012-03-05T15:16:39Z</time>
      </trkpt>
      <trkpt lat="43.61443" lon="3.07086">
        <ele>268.597198</ele>
        <time>2012-03-05T15:16:42Z</time>
      </trkpt>
      <trkpt lat="43.61438" lon="3.07099">
        <ele>266.250153</ele>
        <time>2012-03-05T15:16:46Z</time>
      </trkpt>
      <trkpt lat="43.61428" lon="3.07114">
        <ele>264.562195</ele>
        <time>2012-03-05T15:16:52Z</time>
      </trkpt>
      <trkpt lat="43.61415" lon="3.07125">
        <ele>264.779205</ele>
        <time>2012-03-05T15:16:58Z</time>
      </trkpt>
      <trkpt lat="43.61413" lon="3.07126">
        <ele>264.861877</ele>
        <time>2012-03-05T15:16:59Z</time>
      </trkpt>
      <trkpt lat="43.61397" lon="3.07132">
        <ele>266.542999</ele>
        <time>2012-03-05T15:17:06Z</time>
      </trkpt>
      <trkpt lat="43.61374" lon="3.07136">
        <ele>268.151215</ele>
        <time>2012-03-05T15:17:16Z</time>
      </trkpt>
      <trkpt lat="43.61359" lon="3.0714">
        <ele>267.768127</ele>
        <time>2012-03-05T15:17:24Z</time>
      </trkpt>
      <trkpt lat="43.61341" lon="3.07138">
        <ele>269.259705</ele>
        <time>2012-03-05T15:17:33Z</time>
      </trkpt>
      <trkpt lat="43.61332" lon="3.07131">
        <ele>270.81073</ele>
        <time>2012-03-05T15:17:39Z</time>
      </trkpt>
      <trkpt lat="43.61321" lon="3.07116">
        <ele>274.197601</ele>
        <time>2012-03-05T15:17:46Z</time>
      </trkpt>
      <trkpt lat="43.6131" lon="3.07099">
        <ele>278.037262</ele>
        <time>2012-03-05T15:17:53Z</time>
      </trkpt>
      <trkpt lat="43.61295" lon="3.07085">
        <ele>280.670013</ele>
        <time>2012-03-05T15:18:00Z</time>
      </trkpt>
      <trkpt lat="43.61288" lon="3.07082">
        <ele>282.23999</ele>
        <time>2012-03-05T15:18:03Z</time>
      </trkpt>
      <trkpt lat="43.61279" lon="3.07089">
        <ele>281.200012</ele>
        <time>2012-03-05T15:18:07Z</time>
      </trkpt>
      <trkpt lat="43.61265" lon="3.07107">
        <ele>277.549988</ele>
        <time>2012-03-05T15:18:13Z</time>
      </trkpt>
      <trkpt lat="43.61245" lon="3.07131">
        <ele>274.216766</ele>
        <time>2012-03-05T15:18:21Z</time>
      </trkpt>
      <trkpt lat="43.61242" lon="3.07134">
        <ele>273.954498</ele>
        <time>2012-03-05T15:18:25Z</time>
      </trkpt>
      <trkpt lat="43.61242" lon="3.07134">
        <ele>273.721649</ele>
        <time>2012-03-05T15:18:27Z</time>
      </trkpt>
      <trkpt lat="43.61243" lon="3.07131">
        <ele>274.588287</ele>
        <time>2012-03-05T15:19:51Z</time>
      </trkpt>
      <trkpt lat="43.61241" lon="3.07132">
        <ele>274.771606</ele>
        <time>2012-03-05T15:19:53Z</time>
      </trkpt>
      <trkpt lat="43.61225" lon="3.07146">
        <ele>273.900787</ele>
        <time>2012-03-05T15:20:00Z</time>
      </trkpt>
      <trkpt lat="43.6121" lon="3.0716">
        <ele>272.740173</ele>
        <time>2012-03-05T15:20:04Z</time>
      </trkpt>
      <trkpt lat="43.61201" lon="3.07169">
        <ele>271.539368</ele>
        <time>2012-03-05T15:20:06Z</time>
      </trkpt>
      <trkpt lat="43.61171" lon="3.07178">
        <ele>273.390564</ele>
        <time>2012-03-05T15:20:11Z</time>
      </trkpt>
      <trkpt lat="43.61163" lon="3.07181">
        <ele>273.858063</ele>
        <time>2012-03-05T15:20:14Z</time>
      </trkpt>
      <trkpt lat="43.61153" lon="3.07189">
        <ele>273.091492</ele>
        <time>2012-03-05T15:20:17Z</time>
      </trkpt>
      <trkpt lat="43.61132" lon="3.07219">
        <ele>267.904999</ele>
        <time>2012-03-05T15:20:22Z</time>
      </trkpt>
      <trkpt lat="43.61111" lon="3.07251">
        <ele>261.960754</ele>
        <time>2012-03-05T15:20:26Z</time>
      </trkpt>
      <trkpt lat="43.6108" lon="3.07281">
        <ele>256.469452</ele>
        <time>2012-03-05T15:20:30Z</time>
      </trkpt>
      <trkpt lat="43.61065" lon="3.07297">
        <ele>253.60405</ele>
        <time>2012-03-05T15:20:32Z</time>
      </trkpt>
      <trkpt lat="43.6105" lon="3.07316">
        <ele>250.162231</ele>
        <time>2012-03-05T15:20:34Z</time>
      </trkpt>
      <trkpt lat="43.61043" lon="3.07326">
        <ele>248.299164</ele>
        <time>2012-03-05T15:20:35Z</time>
      </trkpt>
      <trkpt lat="43.61026" lon="3.07351">
        <ele>243.277161</ele>
        <time>2012-03-05T15:20:38Z</time>
      </trkpt>
      <trkpt lat="43.61016" lon="3.07367">
        <ele>239.476913</ele>
        <time>2012-03-05T15:20:40Z</time>
      </trkpt>
      <trkpt lat="43.61011" lon="3.07374">
        <ele>237.883469</ele>
        <time>2012-03-05T15:20:41Z</time>
      </trkpt>
      <trkpt lat="43.61003" lon="3.0739">
        <ele>235.365448</ele>
        <time>2012-03-05T15:20:43Z</time>
      </trkpt>
      <trkpt lat="43.60985" lon="3.07421">
        <ele>231.255341</ele>
        <time>2012-03-05T15:20:47Z</time>
      </trkpt>
      <trkpt lat="43.60959" lon="3.07445">
        <ele>227.705688</ele>
        <time>2012-03-05T15:20:51Z</time>
      </trkpt>
      <trkpt lat="43.60942" lon="3.07451">
        <ele>226.977478</ele>
        <time>2012-03-05T15:20:53Z</time>
      </trkpt>
      <trkpt lat="43.60934" lon="3.07451">
        <ele>226.895004</ele>
        <time>2012-03-05T15:20:54Z</time>
      </trkpt>
      <trkpt lat="43.60903" lon="3.07465">
        <ele>228.527496</ele>
        <time>2012-03-05T15:20:59Z</time>
      </trkpt>
      <trkpt lat="43.60897" lon="3.07476">
        <ele>227.742508</ele>
        <time>2012-03-05T15:21:01Z</time>
      </trkpt>
      <trkpt lat="43.60885" lon="3.07491">
        <ele>227.216827</ele>
        <time>2012-03-05T15:21:04Z</time>
      </trkpt>
      <trkpt lat="43.60875" lon="3.075">
        <ele>227.169357</ele>
        <time>2012-03-05T15:21:06Z</time>
      </trkpt>
      <trkpt lat="43.60865" lon="3.07511">
        <ele>226.850021</ele>
        <time>2012-03-05T15:21:08Z</time>
      </trkpt>
      <trkpt lat="43.60841" lon="3.07528">
        <ele>226.974228</ele>
        <time>2012-03-05T15:21:12Z</time>
      </trkpt>
      <trkpt lat="43.60797" lon="3.07547">
        <ele>228.037994</ele>
        <time>2012-03-05T15:21:19Z</time>
      </trkpt>
      <trkpt lat="43.60791" lon="3.0755">
        <ele>228.107468</ele>
        <time>2012-03-05T15:21:20Z</time>
      </trkpt>
      <trkpt lat="43.60754" lon="3.07565">
        <ele>227.904907</ele>
        <time>2012-03-05T15:21:27Z</time>
      </trkpt>
      <trkpt lat="43.60744" lon="3.07579">
        <ele>226.270401</ele>
        <time>2012-03-05T15:21:30Z</time>
      </trkpt>
      <trkpt lat="43.60743" lon="3.07587">
        <ele>225.149078</ele>
        <time>2012-03-05T15:21:31Z</time>
      </trkpt>
      <trkpt lat="43.60743" lon="3.07612">
        <ele>221.641006</ele>
        <time>2012-03-05T15:21:34Z</time>
      </trkpt>
      <trkpt lat="43.60745" lon="3.0766">
        <ele>216.374649</ele>
        <time>2012-03-05T15:21:39Z</time>
      </trkpt>
      <trkpt lat="43.60747" lon="3.07699">
        <ele>213.53923</ele>
        <time>2012-03-05T15:21:43Z</time>
      </trkpt>
      <trkpt lat="43.60743" lon="3.07717">
        <ele>212.97908</ele>
        <time>2012-03-05T15:21:47Z</time>
      </trkpt>
      <trkpt lat="43.60731" lon="3.07717">
        <ele>212.306061</ele>
        <time>2012-03-05T15:21:50Z</time>
      </trkpt>
      <trkpt lat="43.60681" lon="3.07719">
        <ele>210.955002</ele>
        <time>2012-03-05T15:22:00Z</time>
      </trkpt>
      <trkpt lat="43.60644" lon="3.07721">
        <ele>212.075317</ele>
        <time>2012-03-05T15:22:07Z</time>
      </trkpt>
      <trkpt lat="43.60611" lon="3.07728">
        <ele>213.978287</ele>
        <time>2012-03-05T15:22:13Z</time>
      </trkpt>
      <trkpt lat="43.60568" lon="3.07755">
        <ele>215.285751</ele>
        <time>2012-03-05T15:22:21Z</time>
      </trkpt>
      <trkpt lat="43.60539" lon="3.07773">
        <ele>214.794281</ele>
        <time>2012-03-05T15:22:26Z</time>
      </trkpt>
      <trkpt lat="43.60517" lon="3.07787">
        <ele>214.337067</ele>
        <time>2012-03-05T15:22:30Z</time>
      </trkpt>
      <trkpt lat="43.60466" lon="3.07808">
        <ele>213.314499</ele>
        <time>2012-03-05T15:22:38Z</time>
      </trkpt>
      <trkpt lat="43.6042" lon="3.07829">
        <ele>213.559464</ele>
        <time>2012-03-05T15:22:46Z</time>
      </trkpt>
      <trkpt lat="43.60411" lon="3.07831">
        <ele>213.771851</ele>
        <time>2012-03-05T15:22:51Z</time>
      </trkpt>
      <trkpt lat="43.60401" lon="3.07839">
        <ele>213.607117</ele>
        <time>2012-03-05T15:22:55Z</time>
      </trkpt>
      <trkpt lat="43.60383" lon="3.07849">
        <ele>213.293045</ele>
        <time>2012-03-05T15:22:59Z</time>
      </trkpt>
      <trkpt lat="43.60358" lon="3.07867">
        <ele>212.101303</ele>
        <time>2012-03-05T15:23:04Z</time>
      </trkpt>
      <trkpt lat="43.60338" lon="3.07881">
        <ele>211.249969</ele>
        <time>2012-03-05T15:23:08Z</time>
      </trkpt>
      <trkpt lat="43.60301" lon="3.07909">
        <ele>208.580704</ele>
        <time>2012-03-05T15:23:14Z</time>
      </trkpt>
      <trkpt lat="43.60283" lon="3.0792">
        <ele>207.052032</ele>
        <time>2012-03-05T15:23:16Z</time>
      </trkpt>
      <trkpt lat="43.60241" lon="3.07932">
        <ele>205.482849</ele>
        <time>2012-03-05T15:23:22Z</time>
      </trkpt>
      <trkpt lat="43.60174" lon="3.07946">
        <ele>206.336243</ele>
        <time>2012-03-05T15:23:32Z</time>
      </trkpt>
      <trkpt lat="43.60117" lon="3.07958">
        <ele>205.456253</ele>
        <time>2012-03-05T15:23:41Z</time>
      </trkpt>
      <trkpt lat="43.60069" lon="3.07971">
        <ele>203.578003</ele>
        <time>2012-03-05T15:23:49Z</time>
      </trkpt>
      <trkpt lat="43.60018" lon="3.0798">
        <ele>200.25</ele>
        <time>2012-03-05T15:23:57Z</time>
      </trkpt>
      <trkpt lat="43.59971" lon="3.07989">
        <ele>199.608215</ele>
        <time>2012-03-05T15:24:04Z</time>
      </trkpt>
      <trkpt lat="43.5992" lon="3.07998">
        <ele>201.027817</ele>
        <time>2012-03-05T15:24:12Z</time>
      </trkpt>
      <trkpt lat="43.59877" lon="3.07995">
        <ele>203.063599</ele>
        <time>2012-03-05T15:24:19Z</time>
      </trkpt>
      <trkpt lat="43.59822" lon="3.07992">
        <ele>202.951248</ele>
        <time>2012-03-05T15:24:28Z</time>
      </trkpt>
      <trkpt lat="43.59815" lon="3.07991">
        <ele>202.863754</ele>
        <time>2012-03-05T15:24:29Z</time>
      </trkpt>
      <trkpt lat="43.59789" lon="3.0799">
        <ele>201.956451</ele>
        <time>2012-03-05T15:24:33Z</time>
      </trkpt>
      <trkpt lat="43.59739" lon="3.07988">
        <ele>199.423126</ele>
        <time>2012-03-05T15:24:40Z</time>
      </trkpt>
      <trkpt lat="43.5971" lon="3.07984">
        <ele>198.625671</ele>
        <time>2012-03-05T15:24:44Z</time>
      </trkpt>
      <trkpt lat="43.59686" lon="3.08">
        <ele>200.371872</ele>
        <time>2012-03-05T15:24:48Z</time>
      </trkpt>
      <trkpt lat="43.59677" lon="3.08015">
        <ele>200.647629</ele>
        <time>2012-03-05T15:24:50Z</time>
      </trkpt>
      <trkpt lat="43.59645" lon="3.08069">
        <ele>199.155502</ele>
        <time>2012-03-05T15:24:57Z</time>
      </trkpt>
      <trkpt lat="43.59621" lon="3.0811">
        <ele>196.816254</ele>
        <time>2012-03-05T15:25:02Z</time>
      </trkpt>
      <trkpt lat="43.596" lon="3.08142">
        <ele>195.229996</ele>
        <time>2012-03-05T15:25:06Z</time>
      </trkpt>
      <trkpt lat="43.59568" lon="3.08187">
        <ele>193.365005</ele>
        <time>2012-03-05T15:25:11Z</time>
      </trkpt>
      <trkpt lat="43.59542" lon="3.08214">
        <ele>192.460007</ele>
        <time>2012-03-05T15:25:15Z</time>
      </trkpt>
      <trkpt lat="43.59525" lon="3.08227">
        <ele>191.797806</ele>
        <time>2012-03-05T15:25:19Z</time>
      </trkpt>
      <trkpt lat="43.59519" lon="3.08226">
        <ele>191.703522</ele>
        <time>2012-03-05T15:25:20Z</time>
      </trkpt>
      <trkpt lat="43.59509" lon="3.08224">
        <ele>191.581589</ele>
        <time>2012-03-05T15:25:22Z</time>
      </trkpt>
      <trkpt lat="43.59493" lon="3.08226">
        <ele>191.128799</ele>
        <time>2012-03-05T15:25:25Z</time>
      </trkpt>
      <trkpt lat="43.59471" lon="3.08226">
        <ele>190.627502</ele>
        <time>2012-03-05T15:25:29Z</time>
      </trkpt>
      <trkpt lat="43.59418" lon="3.08229">
        <ele>189.286255</ele>
        <time>2012-03-05T15:25:38Z</time>
      </trkpt>
      <trkpt lat="43.59383" lon="3.08229">
        <ele>188.461243</ele>
        <time>2012-03-05T15:25:44Z</time>
      </trkpt>
      <trkpt lat="43.59346" lon="3.08231">
        <ele>187.511246</ele>
        <time>2012-03-05T15:25:50Z</time>
      </trkpt>
      <trkpt lat="43.59317" lon="3.08225">
        <ele>187.139679</ele>
        <time>2012-03-05T15:25:55Z</time>
      </trkpt>
      <trkpt lat="43.5929" lon="3.08216">
        <ele>188.923904</ele>
        <time>2012-03-05T15:26:00Z</time>
      </trkpt>
      <trkpt lat="43.59258" lon="3.08216">
        <ele>190.671249</ele>
        <time>2012-03-05T15:26:05Z</time>
      </trkpt>
      <trkpt lat="43.59231" lon="3.08229">
        <ele>191.699402</ele>
        <time>2012-03-05T15:26:10Z</time>
      </trkpt>
      <trkpt lat="43.59195" lon="3.0826">
        <ele>189.901764</ele>
        <time>2012-03-05T15:26:17Z</time>
      </trkpt>
      <trkpt lat="43.59167" lon="3.08286">
        <ele>186.947495</ele>
        <time>2012-03-05T15:26:22Z</time>
      </trkpt>
      <trkpt lat="43.59146" lon="3.08295">
        <ele>185.853745</ele>
        <time>2012-03-05T15:26:26Z</time>
      </trkpt>
      <trkpt lat="43.59109" lon="3.08295">
        <ele>186.185562</ele>
        <time>2012-03-05T15:26:32Z</time>
      </trkpt>
      <trkpt lat="43.59098" lon="3.08292">
        <ele>186.804596</ele>
        <time>2012-03-05T15:26:34Z</time>
      </trkpt>
      <trkpt lat="43.59087" lon="3.08285">
        <ele>187.910172</ele>
        <time>2012-03-05T15:26:36Z</time>
      </trkpt>
      <trkpt lat="43.5907" lon="3.08284">
        <ele>188.686813</ele>
        <time>2012-03-05T15:26:39Z</time>
      </trkpt>
      <trkpt lat="43.59065" lon="3.08288">
        <ele>188.446304</ele>
        <time>2012-03-05T15:26:40Z</time>
      </trkpt>
      <trkpt lat="43.59029" lon="3.08295">
        <ele>189.477493</ele>
        <time>2012-03-05T15:26:46Z</time>
      </trkpt>
      <trkpt lat="43.59011" lon="3.08298">
        <ele>190.381256</ele>
        <time>2012-03-05T15:26:49Z</time>
      </trkpt>
      <trkpt lat="43.58998" lon="3.08307">
        <ele>190.160004</ele>
        <time>2012-03-05T15:26:53Z</time>
      </trkpt>
      <trkpt lat="43.58992" lon="3.08313">
        <ele>189.691299</ele>
        <time>2012-03-05T15:26:56Z</time>
      </trkpt>
      <trkpt lat="43.58984" lon="3.08314">
        <ele>189.729828</ele>
        <time>2012-03-05T15:27:01Z</time>
      </trkpt>
      <trkpt lat="43.58986" lon="3.08324">
        <ele>188.498337</ele>
        <time>2012-03-05T15:27:05Z</time>
      </trkpt>
      <trkpt lat="43.58991" lon="3.08331">
        <ele>187.627869</ele>
        <time>2012-03-05T15:27:07Z</time>
      </trkpt>
      <trkpt lat="43.58999" lon="3.0835">
        <ele>185.37262</ele>
        <time>2012-03-05T15:27:10Z</time>
      </trkpt>
      <trkpt lat="43.59012" lon="3.08376">
        <ele>183</ele>
        <time>2012-03-05T15:27:14Z</time>
      </trkpt>
      <trkpt lat="43.59019" lon="3.08395">
        <ele>182.135101</ele>
        <time>2012-03-05T15:27:17Z</time>
      </trkpt>
    </trkseg>
  </trk>
</gpx>